<?xml version="1.0" encoding="UTF-8" standalone="no" ?>
<gpx xmlns="http://www.topografix.com/GPX/1/1" xmlns:xsi="http://www.w3.org/2001/XMLSchema-instance" xsi:schemaLocation="http://www.topografix.com/GPX/1/1 http://www.topografix.com/GPX/1/1/gpx.xsd" version="1.1" creator="VisuGPX - https://www.visugpx.com">
  <metadata>
    <name>runtastic_20200913_0854</name>
    <desc><![CDATA[Boucle de Clisson à Tiffauge]]></desc>
  </metadata>
  <trk>
    <name><![CDATA[runtastic_20200913_0854]]></name>
    <trkseg>
      <trkpt lat="47.09302" lon="-1.27639">
        <ele>85</ele>
        <time>2020-09-13T06:54:28.000Z</time>
      </trkpt>
      <trkpt lat="47.09283" lon="-1.2765">
        <ele>89</ele>
        <time>2020-09-13T06:54:39.000Z</time>
      </trkpt>
      <trkpt lat="47.09262" lon="-1.27657">
        <ele>90</ele>
        <time>2020-09-13T06:54:45.000Z</time>
      </trkpt>
      <trkpt lat="47.09241" lon="-1.27662">
        <ele>91</ele>
        <time>2020-09-13T06:54:51.000Z</time>
      </trkpt>
      <trkpt lat="47.0922" lon="-1.27673">
        <ele>91</ele>
        <time>2020-09-13T06:54:57.000Z</time>
      </trkpt>
      <trkpt lat="47.09201" lon="-1.27688">
        <ele>92</ele>
        <time>2020-09-13T06:55:02.000Z</time>
      </trkpt>
      <trkpt lat="47.09181" lon="-1.27703">
        <ele>92</ele>
        <time>2020-09-13T06:55:07.000Z</time>
      </trkpt>
      <trkpt lat="47.09162" lon="-1.27715">
        <ele>92</ele>
        <time>2020-09-13T06:55:12.000Z</time>
      </trkpt>
      <trkpt lat="47.09142" lon="-1.27726">
        <ele>93</ele>
        <time>2020-09-13T06:55:17.000Z</time>
      </trkpt>
      <trkpt lat="47.09118" lon="-1.27739">
        <ele>95</ele>
        <time>2020-09-13T06:55:22.000Z</time>
      </trkpt>
      <trkpt lat="47.09097" lon="-1.27753">
        <ele>96</ele>
        <time>2020-09-13T06:55:27.000Z</time>
      </trkpt>
      <trkpt lat="47.09077" lon="-1.27768">
        <ele>95</ele>
        <time>2020-09-13T06:55:32.000Z</time>
      </trkpt>
      <trkpt lat="47.09056" lon="-1.27782">
        <ele>96</ele>
        <time>2020-09-13T06:55:37.000Z</time>
      </trkpt>
      <trkpt lat="47.09033" lon="-1.27796">
        <ele>96</ele>
        <time>2020-09-13T06:55:42.000Z</time>
      </trkpt>
      <trkpt lat="47.0901" lon="-1.27811">
        <ele>96</ele>
        <time>2020-09-13T06:55:47.000Z</time>
      </trkpt>
      <trkpt lat="47.0899" lon="-1.27828">
        <ele>95</ele>
        <time>2020-09-13T06:55:51.000Z</time>
      </trkpt>
      <trkpt lat="47.08976" lon="-1.27845">
        <ele>95</ele>
        <time>2020-09-13T06:55:56.000Z</time>
      </trkpt>
      <trkpt lat="47.0897" lon="-1.27849">
        <ele>94</ele>
        <time>2020-09-13T06:55:58.000Z</time>
      </trkpt>
      <trkpt lat="47.08965" lon="-1.2785">
        <ele>94</ele>
        <time>2020-09-13T06:56:01.000Z</time>
      </trkpt>
      <trkpt lat="47.08957" lon="-1.27849">
        <ele>94</ele>
        <time>2020-09-13T06:56:02.000Z</time>
      </trkpt>
      <trkpt lat="47.08948" lon="-1.27845">
        <ele>94</ele>
        <time>2020-09-13T06:56:04.000Z</time>
      </trkpt>
      <trkpt lat="47.08941" lon="-1.27847">
        <ele>93</ele>
        <time>2020-09-13T06:56:05.000Z</time>
      </trkpt>
      <trkpt lat="47.08934" lon="-1.27851">
        <ele>93</ele>
        <time>2020-09-13T06:56:07.000Z</time>
      </trkpt>
      <trkpt lat="47.08929" lon="-1.27853">
        <ele>92</ele>
        <time>2020-09-13T06:56:08.000Z</time>
      </trkpt>
      <trkpt lat="47.08923" lon="-1.27855">
        <ele>92</ele>
        <time>2020-09-13T06:56:08.000Z</time>
      </trkpt>
      <trkpt lat="47.08917" lon="-1.27858">
        <ele>92</ele>
        <time>2020-09-13T06:56:09.000Z</time>
      </trkpt>
      <trkpt lat="47.08912" lon="-1.2786">
        <ele>92</ele>
        <time>2020-09-13T06:56:10.000Z</time>
      </trkpt>
      <trkpt lat="47.08907" lon="-1.27861">
        <ele>91</ele>
        <time>2020-09-13T06:56:11.000Z</time>
      </trkpt>
      <trkpt lat="47.08904" lon="-1.27861">
        <ele>91</ele>
        <time>2020-09-13T06:56:11.000Z</time>
      </trkpt>
      <trkpt lat="47.089" lon="-1.27861">
        <ele>91</ele>
        <time>2020-09-13T06:56:12.000Z</time>
      </trkpt>
      <trkpt lat="47.08897" lon="-1.2786">
        <ele>90</ele>
        <time>2020-09-13T06:56:13.000Z</time>
      </trkpt>
      <trkpt lat="47.08894" lon="-1.2786">
        <ele>90</ele>
        <time>2020-09-13T06:56:13.000Z</time>
      </trkpt>
      <trkpt lat="47.08891" lon="-1.2786">
        <ele>90</ele>
        <time>2020-09-13T06:56:14.000Z</time>
      </trkpt>
      <trkpt lat="47.08888" lon="-1.27859">
        <ele>90</ele>
        <time>2020-09-13T06:56:14.000Z</time>
      </trkpt>
      <trkpt lat="47.08886" lon="-1.27859">
        <ele>90</ele>
        <time>2020-09-13T06:56:15.000Z</time>
      </trkpt>
      <trkpt lat="47.08879" lon="-1.27859">
        <ele>89</ele>
        <time>2020-09-13T06:56:15.000Z</time>
      </trkpt>
      <trkpt lat="47.08871" lon="-1.27861">
        <ele>89</ele>
        <time>2020-09-13T06:56:16.000Z</time>
      </trkpt>
      <trkpt lat="47.08862" lon="-1.27862">
        <ele>89</ele>
        <time>2020-09-13T06:56:16.000Z</time>
      </trkpt>
      <trkpt lat="47.08852" lon="-1.27863">
        <ele>89</ele>
        <time>2020-09-13T06:56:17.000Z</time>
      </trkpt>
      <trkpt lat="47.08847" lon="-1.27868">
        <ele>89</ele>
        <time>2020-09-13T06:56:18.000Z</time>
      </trkpt>
      <trkpt lat="47.08844" lon="-1.27874">
        <ele>89</ele>
        <time>2020-09-13T06:56:19.000Z</time>
      </trkpt>
      <trkpt lat="47.08842" lon="-1.27881">
        <ele>89</ele>
        <time>2020-09-13T06:56:20.000Z</time>
      </trkpt>
      <trkpt lat="47.08841" lon="-1.27889">
        <ele>89</ele>
        <time>2020-09-13T06:56:21.000Z</time>
      </trkpt>
      <trkpt lat="47.08838" lon="-1.27894">
        <ele>88</ele>
        <time>2020-09-13T06:56:21.000Z</time>
      </trkpt>
      <trkpt lat="47.08835" lon="-1.27898">
        <ele>88</ele>
        <time>2020-09-13T06:56:22.000Z</time>
      </trkpt>
      <trkpt lat="47.08832" lon="-1.27901">
        <ele>88</ele>
        <time>2020-09-13T06:56:22.000Z</time>
      </trkpt>
      <trkpt lat="47.08829" lon="-1.27904">
        <ele>88</ele>
        <time>2020-09-13T06:56:23.000Z</time>
      </trkpt>
      <trkpt lat="47.08824" lon="-1.27908">
        <ele>88</ele>
        <time>2020-09-13T06:56:23.000Z</time>
      </trkpt>
      <trkpt lat="47.08818" lon="-1.27913">
        <ele>87</ele>
        <time>2020-09-13T06:56:24.000Z</time>
      </trkpt>
      <trkpt lat="47.08811" lon="-1.27918">
        <ele>87</ele>
        <time>2020-09-13T06:56:24.000Z</time>
      </trkpt>
      <trkpt lat="47.08804" lon="-1.27923">
        <ele>87</ele>
        <time>2020-09-13T06:56:25.000Z</time>
      </trkpt>
      <trkpt lat="47.088" lon="-1.27924">
        <ele>87</ele>
        <time>2020-09-13T06:56:26.000Z</time>
      </trkpt>
      <trkpt lat="47.08797" lon="-1.27925">
        <ele>86</ele>
        <time>2020-09-13T06:56:26.000Z</time>
      </trkpt>
      <trkpt lat="47.08794" lon="-1.27925">
        <ele>86</ele>
        <time>2020-09-13T06:56:27.000Z</time>
      </trkpt>
      <trkpt lat="47.08792" lon="-1.27924">
        <ele>86</ele>
        <time>2020-09-13T06:56:28.000Z</time>
      </trkpt>
      <trkpt lat="47.08789" lon="-1.27924">
        <ele>85</ele>
        <time>2020-09-13T06:56:28.000Z</time>
      </trkpt>
      <trkpt lat="47.08786" lon="-1.27924">
        <ele>85</ele>
        <time>2020-09-13T06:56:29.000Z</time>
      </trkpt>
      <trkpt lat="47.08784" lon="-1.27924">
        <ele>85</ele>
        <time>2020-09-13T06:56:29.000Z</time>
      </trkpt>
      <trkpt lat="47.08781" lon="-1.27923">
        <ele>85</ele>
        <time>2020-09-13T06:56:30.000Z</time>
      </trkpt>
      <trkpt lat="47.08775" lon="-1.27922">
        <ele>85</ele>
        <time>2020-09-13T06:56:30.000Z</time>
      </trkpt>
      <trkpt lat="47.08768" lon="-1.27919">
        <ele>84</ele>
        <time>2020-09-13T06:56:31.000Z</time>
      </trkpt>
      <trkpt lat="47.0876" lon="-1.27916">
        <ele>84</ele>
        <time>2020-09-13T06:56:31.000Z</time>
      </trkpt>
      <trkpt lat="47.08751" lon="-1.27913">
        <ele>84</ele>
        <time>2020-09-13T06:56:32.000Z</time>
      </trkpt>
      <trkpt lat="47.08744" lon="-1.27909">
        <ele>82</ele>
        <time>2020-09-13T06:56:35.000Z</time>
      </trkpt>
      <trkpt lat="47.0874" lon="-1.27906">
        <ele>81</ele>
        <time>2020-09-13T06:56:37.000Z</time>
      </trkpt>
      <trkpt lat="47.08723" lon="-1.27895">
        <ele>81</ele>
        <time>2020-09-13T06:56:39.000Z</time>
      </trkpt>
      <trkpt lat="47.0872" lon="-1.27894">
        <ele>81</ele>
        <time>2020-09-13T06:56:39.000Z</time>
      </trkpt>
      <trkpt lat="47.0872" lon="-1.27896">
        <ele>81</ele>
        <time>2020-09-13T06:56:40.000Z</time>
      </trkpt>
      <trkpt lat="47.08718" lon="-1.279">
        <ele>81</ele>
        <time>2020-09-13T06:56:41.000Z</time>
      </trkpt>
      <trkpt lat="47.08718" lon="-1.27907">
        <ele>82</ele>
        <time>2020-09-13T06:56:42.000Z</time>
      </trkpt>
      <trkpt lat="47.08717" lon="-1.27914">
        <ele>82</ele>
        <time>2020-09-13T06:56:44.000Z</time>
      </trkpt>
      <trkpt lat="47.08715" lon="-1.27923">
        <ele>82</ele>
        <time>2020-09-13T06:56:45.000Z</time>
      </trkpt>
      <trkpt lat="47.08714" lon="-1.2793">
        <ele>83</ele>
        <time>2020-09-13T06:56:46.000Z</time>
      </trkpt>
      <trkpt lat="47.08714" lon="-1.27937">
        <ele>84</ele>
        <time>2020-09-13T06:56:48.000Z</time>
      </trkpt>
      <trkpt lat="47.08712" lon="-1.27944">
        <ele>85</ele>
        <time>2020-09-13T06:56:49.000Z</time>
      </trkpt>
      <trkpt lat="47.08711" lon="-1.27951">
        <ele>86</ele>
        <time>2020-09-13T06:56:51.000Z</time>
      </trkpt>
      <trkpt lat="47.08709" lon="-1.27957">
        <ele>86</ele>
        <time>2020-09-13T06:56:52.000Z</time>
      </trkpt>
      <trkpt lat="47.08707" lon="-1.27963">
        <ele>85</ele>
        <time>2020-09-13T06:56:53.000Z</time>
      </trkpt>
      <trkpt lat="47.08704" lon="-1.27969">
        <ele>83</ele>
        <time>2020-09-13T06:56:55.000Z</time>
      </trkpt>
      <trkpt lat="47.08702" lon="-1.27974">
        <ele>82</ele>
        <time>2020-09-13T06:56:56.000Z</time>
      </trkpt>
      <trkpt lat="47.08699" lon="-1.27981">
        <ele>80</ele>
        <time>2020-09-13T06:56:57.000Z</time>
      </trkpt>
      <trkpt lat="47.08696" lon="-1.27987">
        <ele>79</ele>
        <time>2020-09-13T06:56:58.000Z</time>
      </trkpt>
      <trkpt lat="47.08693" lon="-1.27995">
        <ele>78</ele>
        <time>2020-09-13T06:57:00.000Z</time>
      </trkpt>
      <trkpt lat="47.0869" lon="-1.28002">
        <ele>77</ele>
        <time>2020-09-13T06:57:01.000Z</time>
      </trkpt>
      <trkpt lat="47.08688" lon="-1.28005">
        <ele>76</ele>
        <time>2020-09-13T06:57:01.000Z</time>
      </trkpt>
      <trkpt lat="47.08686" lon="-1.28006">
        <ele>76</ele>
        <time>2020-09-13T06:57:02.000Z</time>
      </trkpt>
      <trkpt lat="47.08684" lon="-1.28005">
        <ele>76</ele>
        <time>2020-09-13T06:57:02.000Z</time>
      </trkpt>
      <trkpt lat="47.08683" lon="-1.28005">
        <ele>76</ele>
        <time>2020-09-13T06:57:03.000Z</time>
      </trkpt>
      <trkpt lat="47.08676" lon="-1.28001">
        <ele>76</ele>
        <time>2020-09-13T06:57:04.000Z</time>
      </trkpt>
      <trkpt lat="47.08668" lon="-1.27995">
        <ele>75</ele>
        <time>2020-09-13T06:57:06.000Z</time>
      </trkpt>
      <trkpt lat="47.08663" lon="-1.27993">
        <ele>75</ele>
        <time>2020-09-13T06:57:07.000Z</time>
      </trkpt>
      <trkpt lat="47.08657" lon="-1.2799">
        <ele>74</ele>
        <time>2020-09-13T06:57:08.000Z</time>
      </trkpt>
      <trkpt lat="47.08651" lon="-1.27987">
        <ele>73</ele>
        <time>2020-09-13T06:57:10.000Z</time>
      </trkpt>
      <trkpt lat="47.08645" lon="-1.27983">
        <ele>73</ele>
        <time>2020-09-13T06:57:11.000Z</time>
      </trkpt>
      <trkpt lat="47.0864" lon="-1.27981">
        <ele>72</ele>
        <time>2020-09-13T06:57:12.000Z</time>
      </trkpt>
      <trkpt lat="47.08635" lon="-1.2798">
        <ele>72</ele>
        <time>2020-09-13T06:57:13.000Z</time>
      </trkpt>
      <trkpt lat="47.08629" lon="-1.27979">
        <ele>72</ele>
        <time>2020-09-13T06:57:14.000Z</time>
      </trkpt>
      <trkpt lat="47.08624" lon="-1.27977">
        <ele>72</ele>
        <time>2020-09-13T06:57:15.000Z</time>
      </trkpt>
      <trkpt lat="47.08619" lon="-1.27976">
        <ele>72</ele>
        <time>2020-09-13T06:57:16.000Z</time>
      </trkpt>
      <trkpt lat="47.08615" lon="-1.27975">
        <ele>71</ele>
        <time>2020-09-13T06:57:17.000Z</time>
      </trkpt>
      <trkpt lat="47.08611" lon="-1.27973">
        <ele>71</ele>
        <time>2020-09-13T06:57:18.000Z</time>
      </trkpt>
      <trkpt lat="47.08607" lon="-1.27972">
        <ele>71</ele>
        <time>2020-09-13T06:57:19.000Z</time>
      </trkpt>
      <trkpt lat="47.08602" lon="-1.2797">
        <ele>70</ele>
        <time>2020-09-13T06:57:20.000Z</time>
      </trkpt>
      <trkpt lat="47.08598" lon="-1.27968">
        <ele>70</ele>
        <time>2020-09-13T06:57:21.000Z</time>
      </trkpt>
      <trkpt lat="47.08593" lon="-1.27966">
        <ele>70</ele>
        <time>2020-09-13T06:57:22.000Z</time>
      </trkpt>
      <trkpt lat="47.08588" lon="-1.27964">
        <ele>69</ele>
        <time>2020-09-13T06:57:23.000Z</time>
      </trkpt>
      <trkpt lat="47.08584" lon="-1.27961">
        <ele>69</ele>
        <time>2020-09-13T06:57:24.000Z</time>
      </trkpt>
      <trkpt lat="47.0858" lon="-1.27958">
        <ele>69</ele>
        <time>2020-09-13T06:57:25.000Z</time>
      </trkpt>
      <trkpt lat="47.08576" lon="-1.27955">
        <ele>70</ele>
        <time>2020-09-13T06:57:27.000Z</time>
      </trkpt>
      <trkpt lat="47.08572" lon="-1.27951">
        <ele>70</ele>
        <time>2020-09-13T06:57:28.000Z</time>
      </trkpt>
      <trkpt lat="47.08553" lon="-1.27946">
        <ele>72</ele>
        <time>2020-09-13T06:57:35.000Z</time>
      </trkpt>
      <trkpt lat="47.08536" lon="-1.27939">
        <ele>72</ele>
        <time>2020-09-13T06:57:45.000Z</time>
      </trkpt>
      <trkpt lat="47.08534" lon="-1.27935">
        <ele>73</ele>
        <time>2020-09-13T06:57:48.000Z</time>
      </trkpt>
      <trkpt lat="47.08533" lon="-1.27928">
        <ele>73</ele>
        <time>2020-09-13T06:57:50.000Z</time>
      </trkpt>
      <trkpt lat="47.08532" lon="-1.27921">
        <ele>75</ele>
        <time>2020-09-13T06:57:53.000Z</time>
      </trkpt>
      <trkpt lat="47.08532" lon="-1.27913">
        <ele>76</ele>
        <time>2020-09-13T06:57:56.000Z</time>
      </trkpt>
      <trkpt lat="47.0853" lon="-1.27908">
        <ele>77</ele>
        <time>2020-09-13T06:57:59.000Z</time>
      </trkpt>
      <trkpt lat="47.08529" lon="-1.27902">
        <ele>78</ele>
        <time>2020-09-13T06:58:03.000Z</time>
      </trkpt>
      <trkpt lat="47.08527" lon="-1.27897">
        <ele>79</ele>
        <time>2020-09-13T06:58:06.000Z</time>
      </trkpt>
      <trkpt lat="47.08525" lon="-1.27893">
        <ele>80</ele>
        <time>2020-09-13T06:58:10.000Z</time>
      </trkpt>
      <trkpt lat="47.08524" lon="-1.27887">
        <ele>80</ele>
        <time>2020-09-13T06:58:13.000Z</time>
      </trkpt>
      <trkpt lat="47.08522" lon="-1.27882">
        <ele>81</ele>
        <time>2020-09-13T06:58:16.000Z</time>
      </trkpt>
      <trkpt lat="47.0852" lon="-1.27877">
        <ele>82</ele>
        <time>2020-09-13T06:58:19.000Z</time>
      </trkpt>
      <trkpt lat="47.08517" lon="-1.27872">
        <ele>83</ele>
        <time>2020-09-13T06:58:22.000Z</time>
      </trkpt>
      <trkpt lat="47.08516" lon="-1.27867">
        <ele>83</ele>
        <time>2020-09-13T06:58:25.000Z</time>
      </trkpt>
      <trkpt lat="47.08513" lon="-1.27862">
        <ele>84</ele>
        <time>2020-09-13T06:58:27.000Z</time>
      </trkpt>
      <trkpt lat="47.08511" lon="-1.27857">
        <ele>85</ele>
        <time>2020-09-13T06:58:30.000Z</time>
      </trkpt>
      <trkpt lat="47.08509" lon="-1.27853">
        <ele>85</ele>
        <time>2020-09-13T06:58:33.000Z</time>
      </trkpt>
      <trkpt lat="47.08506" lon="-1.27849">
        <ele>86</ele>
        <time>2020-09-13T06:58:36.000Z</time>
      </trkpt>
      <trkpt lat="47.08503" lon="-1.27846">
        <ele>86</ele>
        <time>2020-09-13T06:58:38.000Z</time>
      </trkpt>
      <trkpt lat="47.085" lon="-1.27843">
        <ele>87</ele>
        <time>2020-09-13T06:58:41.000Z</time>
      </trkpt>
      <trkpt lat="47.08497" lon="-1.27839">
        <ele>87</ele>
        <time>2020-09-13T06:58:44.000Z</time>
      </trkpt>
      <trkpt lat="47.08493" lon="-1.27836">
        <ele>88</ele>
        <time>2020-09-13T06:58:47.000Z</time>
      </trkpt>
      <trkpt lat="47.0849" lon="-1.27832">
        <ele>89</ele>
        <time>2020-09-13T06:58:50.000Z</time>
      </trkpt>
      <trkpt lat="47.08487" lon="-1.27827">
        <ele>89</ele>
        <time>2020-09-13T06:58:54.000Z</time>
      </trkpt>
      <trkpt lat="47.08484" lon="-1.27823">
        <ele>90</ele>
        <time>2020-09-13T06:58:57.000Z</time>
      </trkpt>
      <trkpt lat="47.08466" lon="-1.27813">
        <ele>91</ele>
        <time>2020-09-13T06:59:07.000Z</time>
      </trkpt>
      <trkpt lat="47.08452" lon="-1.2781">
        <ele>94</ele>
        <time>2020-09-13T06:59:20.000Z</time>
      </trkpt>
      <trkpt lat="47.08438" lon="-1.27799">
        <ele>91</ele>
        <time>2020-09-13T06:59:27.000Z</time>
      </trkpt>
      <trkpt lat="47.08424" lon="-1.2779">
        <ele>88</ele>
        <time>2020-09-13T06:59:33.000Z</time>
      </trkpt>
      <trkpt lat="47.0841" lon="-1.27777">
        <ele>86</ele>
        <time>2020-09-13T06:59:39.000Z</time>
      </trkpt>
      <trkpt lat="47.08399" lon="-1.27761">
        <ele>84</ele>
        <time>2020-09-13T06:59:47.000Z</time>
      </trkpt>
      <trkpt lat="47.08385" lon="-1.27751">
        <ele>84</ele>
        <time>2020-09-13T07:00:00.000Z</time>
      </trkpt>
      <trkpt lat="47.08385" lon="-1.27751">
        <ele>84</ele>
        <time>2020-09-13T07:00:00.000Z</time>
      </trkpt>
      <trkpt lat="47.08374" lon="-1.27738">
        <ele>86</ele>
        <time>2020-09-13T07:00:14.000Z</time>
      </trkpt>
      <trkpt lat="47.08365" lon="-1.27717">
        <ele>88</ele>
        <time>2020-09-13T07:00:26.000Z</time>
      </trkpt>
      <trkpt lat="47.08354" lon="-1.27704">
        <ele>87</ele>
        <time>2020-09-13T07:00:34.000Z</time>
      </trkpt>
      <trkpt lat="47.08343" lon="-1.27697">
        <ele>86</ele>
        <time>2020-09-13T07:00:42.000Z</time>
      </trkpt>
      <trkpt lat="47.08331" lon="-1.27692">
        <ele>86</ele>
        <time>2020-09-13T07:00:49.000Z</time>
      </trkpt>
      <trkpt lat="47.08313" lon="-1.2769">
        <ele>87</ele>
        <time>2020-09-13T07:00:57.000Z</time>
      </trkpt>
      <trkpt lat="47.083" lon="-1.27684">
        <ele>86</ele>
        <time>2020-09-13T07:01:05.000Z</time>
      </trkpt>
      <trkpt lat="47.08295" lon="-1.27678">
        <ele>86</ele>
        <time>2020-09-13T07:01:09.000Z</time>
      </trkpt>
      <trkpt lat="47.0829" lon="-1.2767">
        <ele>87</ele>
        <time>2020-09-13T07:01:14.000Z</time>
      </trkpt>
      <trkpt lat="47.08288" lon="-1.27665">
        <ele>87</ele>
        <time>2020-09-13T07:01:16.000Z</time>
      </trkpt>
      <trkpt lat="47.08285" lon="-1.2766">
        <ele>86</ele>
        <time>2020-09-13T07:01:18.000Z</time>
      </trkpt>
      <trkpt lat="47.08283" lon="-1.27656">
        <ele>86</ele>
        <time>2020-09-13T07:01:21.000Z</time>
      </trkpt>
      <trkpt lat="47.0828" lon="-1.2765">
        <ele>86</ele>
        <time>2020-09-13T07:01:23.000Z</time>
      </trkpt>
      <trkpt lat="47.08278" lon="-1.27648">
        <ele>85</ele>
        <time>2020-09-13T07:01:24.000Z</time>
      </trkpt>
      <trkpt lat="47.08274" lon="-1.27647">
        <ele>85</ele>
        <time>2020-09-13T07:01:25.000Z</time>
      </trkpt>
      <trkpt lat="47.08271" lon="-1.27647">
        <ele>84</ele>
        <time>2020-09-13T07:01:27.000Z</time>
      </trkpt>
      <trkpt lat="47.08268" lon="-1.27647">
        <ele>84</ele>
        <time>2020-09-13T07:01:28.000Z</time>
      </trkpt>
      <trkpt lat="47.08263" lon="-1.27643">
        <ele>83</ele>
        <time>2020-09-13T07:01:29.000Z</time>
      </trkpt>
      <trkpt lat="47.08258" lon="-1.27638">
        <ele>82</ele>
        <time>2020-09-13T07:01:30.000Z</time>
      </trkpt>
      <trkpt lat="47.08255" lon="-1.27632">
        <ele>82</ele>
        <time>2020-09-13T07:01:31.000Z</time>
      </trkpt>
      <trkpt lat="47.08251" lon="-1.27625">
        <ele>82</ele>
        <time>2020-09-13T07:01:32.000Z</time>
      </trkpt>
      <trkpt lat="47.08246" lon="-1.27617">
        <ele>81</ele>
        <time>2020-09-13T07:01:33.000Z</time>
      </trkpt>
      <trkpt lat="47.08241" lon="-1.27608">
        <ele>81</ele>
        <time>2020-09-13T07:01:34.000Z</time>
      </trkpt>
      <trkpt lat="47.08239" lon="-1.27603">
        <ele>81</ele>
        <time>2020-09-13T07:01:34.000Z</time>
      </trkpt>
      <trkpt lat="47.08236" lon="-1.276">
        <ele>81</ele>
        <time>2020-09-13T07:01:35.000Z</time>
      </trkpt>
      <trkpt lat="47.08234" lon="-1.27598">
        <ele>81</ele>
        <time>2020-09-13T07:01:35.000Z</time>
      </trkpt>
      <trkpt lat="47.08233" lon="-1.27596">
        <ele>81</ele>
        <time>2020-09-13T07:01:36.000Z</time>
      </trkpt>
      <trkpt lat="47.08231" lon="-1.2759">
        <ele>80</ele>
        <time>2020-09-13T07:01:37.000Z</time>
      </trkpt>
      <trkpt lat="47.08231" lon="-1.27584">
        <ele>80</ele>
        <time>2020-09-13T07:01:39.000Z</time>
      </trkpt>
      <trkpt lat="47.08231" lon="-1.27576">
        <ele>80</ele>
        <time>2020-09-13T07:01:40.000Z</time>
      </trkpt>
      <trkpt lat="47.08231" lon="-1.27567">
        <ele>80</ele>
        <time>2020-09-13T07:01:41.000Z</time>
      </trkpt>
      <trkpt lat="47.08231" lon="-1.27557">
        <ele>79</ele>
        <time>2020-09-13T07:01:43.000Z</time>
      </trkpt>
      <trkpt lat="47.08231" lon="-1.27546">
        <ele>79</ele>
        <time>2020-09-13T07:01:44.000Z</time>
      </trkpt>
      <trkpt lat="47.08231" lon="-1.27538">
        <ele>78</ele>
        <time>2020-09-13T07:01:45.000Z</time>
      </trkpt>
      <trkpt lat="47.0823" lon="-1.2753">
        <ele>78</ele>
        <time>2020-09-13T07:01:46.000Z</time>
      </trkpt>
      <trkpt lat="47.08229" lon="-1.27523">
        <ele>78</ele>
        <time>2020-09-13T07:01:48.000Z</time>
      </trkpt>
      <trkpt lat="47.08228" lon="-1.27516">
        <ele>77</ele>
        <time>2020-09-13T07:01:49.000Z</time>
      </trkpt>
      <trkpt lat="47.08228" lon="-1.2751">
        <ele>77</ele>
        <time>2020-09-13T07:01:51.000Z</time>
      </trkpt>
      <trkpt lat="47.08228" lon="-1.27504">
        <ele>76</ele>
        <time>2020-09-13T07:01:53.000Z</time>
      </trkpt>
      <trkpt lat="47.08228" lon="-1.27499">
        <ele>75</ele>
        <time>2020-09-13T07:01:56.000Z</time>
      </trkpt>
      <trkpt lat="47.08228" lon="-1.27494">
        <ele>74</ele>
        <time>2020-09-13T07:01:58.000Z</time>
      </trkpt>
      <trkpt lat="47.08231" lon="-1.27485">
        <ele>73</ele>
        <time>2020-09-13T07:02:01.000Z</time>
      </trkpt>
      <trkpt lat="47.08236" lon="-1.27475">
        <ele>72</ele>
        <time>2020-09-13T07:02:05.000Z</time>
      </trkpt>
      <trkpt lat="47.08239" lon="-1.27471">
        <ele>72</ele>
        <time>2020-09-13T07:02:06.000Z</time>
      </trkpt>
      <trkpt lat="47.08243" lon="-1.27466">
        <ele>71</ele>
        <time>2020-09-13T07:02:08.000Z</time>
      </trkpt>
      <trkpt lat="47.08247" lon="-1.27462">
        <ele>71</ele>
        <time>2020-09-13T07:02:09.000Z</time>
      </trkpt>
      <trkpt lat="47.08252" lon="-1.27457">
        <ele>71</ele>
        <time>2020-09-13T07:02:11.000Z</time>
      </trkpt>
      <trkpt lat="47.08256" lon="-1.27453">
        <ele>71</ele>
        <time>2020-09-13T07:02:12.000Z</time>
      </trkpt>
      <trkpt lat="47.08259" lon="-1.27448">
        <ele>70</ele>
        <time>2020-09-13T07:02:14.000Z</time>
      </trkpt>
      <trkpt lat="47.08263" lon="-1.27443">
        <ele>70</ele>
        <time>2020-09-13T07:02:15.000Z</time>
      </trkpt>
      <trkpt lat="47.08266" lon="-1.27438">
        <ele>70</ele>
        <time>2020-09-13T07:02:17.000Z</time>
      </trkpt>
      <trkpt lat="47.08269" lon="-1.27433">
        <ele>70</ele>
        <time>2020-09-13T07:02:18.000Z</time>
      </trkpt>
      <trkpt lat="47.08271" lon="-1.27427">
        <ele>70</ele>
        <time>2020-09-13T07:02:20.000Z</time>
      </trkpt>
      <trkpt lat="47.08273" lon="-1.27421">
        <ele>70</ele>
        <time>2020-09-13T07:02:21.000Z</time>
      </trkpt>
      <trkpt lat="47.08276" lon="-1.27416">
        <ele>70</ele>
        <time>2020-09-13T07:02:23.000Z</time>
      </trkpt>
      <trkpt lat="47.08277" lon="-1.27409">
        <ele>69</ele>
        <time>2020-09-13T07:02:24.000Z</time>
      </trkpt>
      <trkpt lat="47.08279" lon="-1.27402">
        <ele>69</ele>
        <time>2020-09-13T07:02:25.000Z</time>
      </trkpt>
      <trkpt lat="47.0828" lon="-1.27395">
        <ele>69</ele>
        <time>2020-09-13T07:02:27.000Z</time>
      </trkpt>
      <trkpt lat="47.08281" lon="-1.27387">
        <ele>69</ele>
        <time>2020-09-13T07:02:28.000Z</time>
      </trkpt>
      <trkpt lat="47.08281" lon="-1.2738">
        <ele>69</ele>
        <time>2020-09-13T07:02:29.000Z</time>
      </trkpt>
      <trkpt lat="47.08282" lon="-1.27372">
        <ele>69</ele>
        <time>2020-09-13T07:02:30.000Z</time>
      </trkpt>
      <trkpt lat="47.08282" lon="-1.27363">
        <ele>68</ele>
        <time>2020-09-13T07:02:32.000Z</time>
      </trkpt>
      <trkpt lat="47.08282" lon="-1.27355">
        <ele>68</ele>
        <time>2020-09-13T07:02:33.000Z</time>
      </trkpt>
      <trkpt lat="47.08283" lon="-1.27321">
        <ele>68</ele>
        <time>2020-09-13T07:02:39.000Z</time>
      </trkpt>
      <trkpt lat="47.08282" lon="-1.27303">
        <ele>69</ele>
        <time>2020-09-13T07:02:42.000Z</time>
      </trkpt>
      <trkpt lat="47.08282" lon="-1.27287">
        <ele>68</ele>
        <time>2020-09-13T07:02:45.000Z</time>
      </trkpt>
      <trkpt lat="47.08282" lon="-1.27269">
        <ele>68</ele>
        <time>2020-09-13T07:02:49.000Z</time>
      </trkpt>
      <trkpt lat="47.08283" lon="-1.27264">
        <ele>68</ele>
        <time>2020-09-13T07:02:51.000Z</time>
      </trkpt>
      <trkpt lat="47.08285" lon="-1.27261">
        <ele>68</ele>
        <time>2020-09-13T07:02:53.000Z</time>
      </trkpt>
      <trkpt lat="47.08286" lon="-1.27255">
        <ele>68</ele>
        <time>2020-09-13T07:02:56.000Z</time>
      </trkpt>
      <trkpt lat="47.08288" lon="-1.27248">
        <ele>68</ele>
        <time>2020-09-13T07:02:59.000Z</time>
      </trkpt>
      <trkpt lat="47.0829" lon="-1.2724">
        <ele>68</ele>
        <time>2020-09-13T07:03:03.000Z</time>
      </trkpt>
      <trkpt lat="47.08292" lon="-1.27231">
        <ele>68</ele>
        <time>2020-09-13T07:03:06.000Z</time>
      </trkpt>
      <trkpt lat="47.08293" lon="-1.27224">
        <ele>68</ele>
        <time>2020-09-13T07:03:07.000Z</time>
      </trkpt>
      <trkpt lat="47.08295" lon="-1.27217">
        <ele>69</ele>
        <time>2020-09-13T07:03:09.000Z</time>
      </trkpt>
      <trkpt lat="47.08296" lon="-1.27209">
        <ele>69</ele>
        <time>2020-09-13T07:03:10.000Z</time>
      </trkpt>
      <trkpt lat="47.08297" lon="-1.27202">
        <ele>69</ele>
        <time>2020-09-13T07:03:12.000Z</time>
      </trkpt>
      <trkpt lat="47.08299" lon="-1.27195">
        <ele>69</ele>
        <time>2020-09-13T07:03:13.000Z</time>
      </trkpt>
      <trkpt lat="47.083" lon="-1.27187">
        <ele>69</ele>
        <time>2020-09-13T07:03:15.000Z</time>
      </trkpt>
      <trkpt lat="47.08301" lon="-1.2718">
        <ele>69</ele>
        <time>2020-09-13T07:03:16.000Z</time>
      </trkpt>
      <trkpt lat="47.08302" lon="-1.27173">
        <ele>70</ele>
        <time>2020-09-13T07:03:18.000Z</time>
      </trkpt>
      <trkpt lat="47.08304" lon="-1.27166">
        <ele>69</ele>
        <time>2020-09-13T07:03:20.000Z</time>
      </trkpt>
      <trkpt lat="47.08306" lon="-1.27161">
        <ele>69</ele>
        <time>2020-09-13T07:03:21.000Z</time>
      </trkpt>
      <trkpt lat="47.08307" lon="-1.27155">
        <ele>69</ele>
        <time>2020-09-13T07:03:23.000Z</time>
      </trkpt>
      <trkpt lat="47.08309" lon="-1.2715">
        <ele>68</ele>
        <time>2020-09-13T07:03:25.000Z</time>
      </trkpt>
      <trkpt lat="47.08311" lon="-1.27144">
        <ele>68</ele>
        <time>2020-09-13T07:03:26.000Z</time>
      </trkpt>
      <trkpt lat="47.08314" lon="-1.27138">
        <ele>68</ele>
        <time>2020-09-13T07:03:28.000Z</time>
      </trkpt>
      <trkpt lat="47.08317" lon="-1.27133">
        <ele>68</ele>
        <time>2020-09-13T07:03:29.000Z</time>
      </trkpt>
      <trkpt lat="47.08319" lon="-1.27127">
        <ele>68</ele>
        <time>2020-09-13T07:03:31.000Z</time>
      </trkpt>
      <trkpt lat="47.0833" lon="-1.27104">
        <ele>67</ele>
        <time>2020-09-13T07:03:37.000Z</time>
      </trkpt>
      <trkpt lat="47.08338" lon="-1.27097">
        <ele>67</ele>
        <time>2020-09-13T07:03:40.000Z</time>
      </trkpt>
      <trkpt lat="47.08346" lon="-1.27092">
        <ele>67</ele>
        <time>2020-09-13T07:03:43.000Z</time>
      </trkpt>
      <trkpt lat="47.0835" lon="-1.27089">
        <ele>67</ele>
        <time>2020-09-13T07:03:44.000Z</time>
      </trkpt>
      <trkpt lat="47.08354" lon="-1.27086">
        <ele>67</ele>
        <time>2020-09-13T07:03:45.000Z</time>
      </trkpt>
      <trkpt lat="47.08358" lon="-1.27083">
        <ele>68</ele>
        <time>2020-09-13T07:03:47.000Z</time>
      </trkpt>
      <trkpt lat="47.08361" lon="-1.2708">
        <ele>68</ele>
        <time>2020-09-13T07:03:48.000Z</time>
      </trkpt>
      <trkpt lat="47.08365" lon="-1.27076">
        <ele>68</ele>
        <time>2020-09-13T07:03:49.000Z</time>
      </trkpt>
      <trkpt lat="47.08369" lon="-1.27071">
        <ele>68</ele>
        <time>2020-09-13T07:03:50.000Z</time>
      </trkpt>
      <trkpt lat="47.08372" lon="-1.27066">
        <ele>69</ele>
        <time>2020-09-13T07:03:52.000Z</time>
      </trkpt>
      <trkpt lat="47.08376" lon="-1.27062">
        <ele>69</ele>
        <time>2020-09-13T07:03:53.000Z</time>
      </trkpt>
      <trkpt lat="47.0838" lon="-1.27048">
        <ele>69</ele>
        <time>2020-09-13T07:03:55.000Z</time>
      </trkpt>
      <trkpt lat="47.08382" lon="-1.27032">
        <ele>70</ele>
        <time>2020-09-13T07:03:58.000Z</time>
      </trkpt>
      <trkpt lat="47.08384" lon="-1.27026">
        <ele>70</ele>
        <time>2020-09-13T07:03:59.000Z</time>
      </trkpt>
      <trkpt lat="47.08385" lon="-1.27019">
        <ele>70</ele>
        <time>2020-09-13T07:04:00.000Z</time>
      </trkpt>
      <trkpt lat="47.08387" lon="-1.27013">
        <ele>70</ele>
        <time>2020-09-13T07:04:02.000Z</time>
      </trkpt>
      <trkpt lat="47.08389" lon="-1.27007">
        <ele>70</ele>
        <time>2020-09-13T07:04:03.000Z</time>
      </trkpt>
      <trkpt lat="47.08392" lon="-1.27002">
        <ele>70</ele>
        <time>2020-09-13T07:04:04.000Z</time>
      </trkpt>
      <trkpt lat="47.08395" lon="-1.26996">
        <ele>70</ele>
        <time>2020-09-13T07:04:06.000Z</time>
      </trkpt>
      <trkpt lat="47.08399" lon="-1.26991">
        <ele>70</ele>
        <time>2020-09-13T07:04:07.000Z</time>
      </trkpt>
      <trkpt lat="47.08403" lon="-1.26985">
        <ele>70</ele>
        <time>2020-09-13T07:04:09.000Z</time>
      </trkpt>
      <trkpt lat="47.08407" lon="-1.2698">
        <ele>70</ele>
        <time>2020-09-13T07:04:10.000Z</time>
      </trkpt>
      <trkpt lat="47.08411" lon="-1.26974">
        <ele>70</ele>
        <time>2020-09-13T07:04:11.000Z</time>
      </trkpt>
      <trkpt lat="47.08415" lon="-1.26969">
        <ele>70</ele>
        <time>2020-09-13T07:04:13.000Z</time>
      </trkpt>
      <trkpt lat="47.08419" lon="-1.26963">
        <ele>70</ele>
        <time>2020-09-13T07:04:14.000Z</time>
      </trkpt>
      <trkpt lat="47.08422" lon="-1.26959">
        <ele>70</ele>
        <time>2020-09-13T07:04:16.000Z</time>
      </trkpt>
      <trkpt lat="47.08425" lon="-1.26955">
        <ele>70</ele>
        <time>2020-09-13T07:04:18.000Z</time>
      </trkpt>
      <trkpt lat="47.08427" lon="-1.26951">
        <ele>69</ele>
        <time>2020-09-13T07:04:20.000Z</time>
      </trkpt>
      <trkpt lat="47.0843" lon="-1.26948">
        <ele>69</ele>
        <time>2020-09-13T07:04:22.000Z</time>
      </trkpt>
      <trkpt lat="47.08436" lon="-1.26944">
        <ele>69</ele>
        <time>2020-09-13T07:04:25.000Z</time>
      </trkpt>
      <trkpt lat="47.08443" lon="-1.26942">
        <ele>69</ele>
        <time>2020-09-13T07:04:28.000Z</time>
      </trkpt>
      <trkpt lat="47.08449" lon="-1.26933">
        <ele>70</ele>
        <time>2020-09-13T07:04:31.000Z</time>
      </trkpt>
      <trkpt lat="47.08455" lon="-1.2692">
        <ele>71</ele>
        <time>2020-09-13T07:04:34.000Z</time>
      </trkpt>
      <trkpt lat="47.08456" lon="-1.26905">
        <ele>72</ele>
        <time>2020-09-13T07:04:37.000Z</time>
      </trkpt>
      <trkpt lat="47.08456" lon="-1.26889">
        <ele>73</ele>
        <time>2020-09-13T07:04:41.000Z</time>
      </trkpt>
      <trkpt lat="47.08455" lon="-1.26881">
        <ele>73</ele>
        <time>2020-09-13T07:04:42.000Z</time>
      </trkpt>
      <trkpt lat="47.08455" lon="-1.26874">
        <ele>73</ele>
        <time>2020-09-13T07:04:43.000Z</time>
      </trkpt>
      <trkpt lat="47.08453" lon="-1.26867">
        <ele>73</ele>
        <time>2020-09-13T07:04:45.000Z</time>
      </trkpt>
      <trkpt lat="47.08452" lon="-1.26861">
        <ele>73</ele>
        <time>2020-09-13T07:04:46.000Z</time>
      </trkpt>
      <trkpt lat="47.0845" lon="-1.26854">
        <ele>73</ele>
        <time>2020-09-13T07:04:47.000Z</time>
      </trkpt>
      <trkpt lat="47.08448" lon="-1.26848">
        <ele>73</ele>
        <time>2020-09-13T07:04:48.000Z</time>
      </trkpt>
      <trkpt lat="47.08445" lon="-1.26842">
        <ele>73</ele>
        <time>2020-09-13T07:04:50.000Z</time>
      </trkpt>
      <trkpt lat="47.08443" lon="-1.26837">
        <ele>73</ele>
        <time>2020-09-13T07:04:51.000Z</time>
      </trkpt>
      <trkpt lat="47.0844" lon="-1.2683">
        <ele>73</ele>
        <time>2020-09-13T07:04:52.000Z</time>
      </trkpt>
      <trkpt lat="47.08437" lon="-1.26823">
        <ele>72</ele>
        <time>2020-09-13T07:04:53.000Z</time>
      </trkpt>
      <trkpt lat="47.08433" lon="-1.26816">
        <ele>72</ele>
        <time>2020-09-13T07:04:55.000Z</time>
      </trkpt>
      <trkpt lat="47.08429" lon="-1.26809">
        <ele>72</ele>
        <time>2020-09-13T07:04:56.000Z</time>
      </trkpt>
      <trkpt lat="47.08425" lon="-1.26802">
        <ele>72</ele>
        <time>2020-09-13T07:04:57.000Z</time>
      </trkpt>
      <trkpt lat="47.08421" lon="-1.26796">
        <ele>71</ele>
        <time>2020-09-13T07:04:58.000Z</time>
      </trkpt>
      <trkpt lat="47.08417" lon="-1.26789">
        <ele>71</ele>
        <time>2020-09-13T07:04:59.000Z</time>
      </trkpt>
      <trkpt lat="47.08413" lon="-1.26783">
        <ele>71</ele>
        <time>2020-09-13T07:05:00.000Z</time>
      </trkpt>
      <trkpt lat="47.08408" lon="-1.26777">
        <ele>71</ele>
        <time>2020-09-13T07:05:01.000Z</time>
      </trkpt>
      <trkpt lat="47.08404" lon="-1.26771">
        <ele>72</ele>
        <time>2020-09-13T07:05:02.000Z</time>
      </trkpt>
      <trkpt lat="47.08399" lon="-1.26765">
        <ele>72</ele>
        <time>2020-09-13T07:05:04.000Z</time>
      </trkpt>
      <trkpt lat="47.08394" lon="-1.26759">
        <ele>73</ele>
        <time>2020-09-13T07:05:05.000Z</time>
      </trkpt>
      <trkpt lat="47.08376" lon="-1.26739">
        <ele>73</ele>
        <time>2020-09-13T07:05:10.000Z</time>
      </trkpt>
      <trkpt lat="47.08358" lon="-1.26718">
        <ele>73</ele>
        <time>2020-09-13T07:05:15.000Z</time>
      </trkpt>
      <trkpt lat="47.08343" lon="-1.26693">
        <ele>74</ele>
        <time>2020-09-13T07:05:19.000Z</time>
      </trkpt>
      <trkpt lat="47.08328" lon="-1.26665">
        <ele>73</ele>
        <time>2020-09-13T07:05:23.000Z</time>
      </trkpt>
      <trkpt lat="47.08314" lon="-1.26642">
        <ele>72</ele>
        <time>2020-09-13T07:05:28.000Z</time>
      </trkpt>
      <trkpt lat="47.08302" lon="-1.26617">
        <ele>72</ele>
        <time>2020-09-13T07:05:34.000Z</time>
      </trkpt>
      <trkpt lat="47.08303" lon="-1.26611">
        <ele>73</ele>
        <time>2020-09-13T07:05:35.000Z</time>
      </trkpt>
      <trkpt lat="47.08305" lon="-1.26606">
        <ele>73</ele>
        <time>2020-09-13T07:05:37.000Z</time>
      </trkpt>
      <trkpt lat="47.08309" lon="-1.266">
        <ele>74</ele>
        <time>2020-09-13T07:05:38.000Z</time>
      </trkpt>
      <trkpt lat="47.08313" lon="-1.26595">
        <ele>74</ele>
        <time>2020-09-13T07:05:40.000Z</time>
      </trkpt>
      <trkpt lat="47.08316" lon="-1.2659">
        <ele>74</ele>
        <time>2020-09-13T07:05:41.000Z</time>
      </trkpt>
      <trkpt lat="47.08319" lon="-1.26585">
        <ele>74</ele>
        <time>2020-09-13T07:05:42.000Z</time>
      </trkpt>
      <trkpt lat="47.08322" lon="-1.26581">
        <ele>74</ele>
        <time>2020-09-13T07:05:44.000Z</time>
      </trkpt>
      <trkpt lat="47.08325" lon="-1.26577">
        <ele>74</ele>
        <time>2020-09-13T07:05:45.000Z</time>
      </trkpt>
      <trkpt lat="47.08326" lon="-1.26571">
        <ele>74</ele>
        <time>2020-09-13T07:05:47.000Z</time>
      </trkpt>
      <trkpt lat="47.08326" lon="-1.26565">
        <ele>74</ele>
        <time>2020-09-13T07:05:48.000Z</time>
      </trkpt>
      <trkpt lat="47.08325" lon="-1.26559">
        <ele>74</ele>
        <time>2020-09-13T07:05:50.000Z</time>
      </trkpt>
      <trkpt lat="47.08323" lon="-1.26552">
        <ele>74</ele>
        <time>2020-09-13T07:05:52.000Z</time>
      </trkpt>
      <trkpt lat="47.08323" lon="-1.26552">
        <ele>74</ele>
        <time>2020-09-13T07:05:52.000Z</time>
      </trkpt>
      <trkpt lat="47.08305" lon="-1.26535">
        <ele>75</ele>
        <time>2020-09-13T07:06:20.000Z</time>
      </trkpt>
      <trkpt lat="47.083" lon="-1.26514">
        <ele>75</ele>
        <time>2020-09-13T07:06:30.000Z</time>
      </trkpt>
      <trkpt lat="47.083" lon="-1.26514">
        <ele>75</ele>
        <time>2020-09-13T07:06:30.000Z</time>
      </trkpt>
      <trkpt lat="47.08286" lon="-1.26485">
        <ele>74</ele>
        <time>2020-09-13T07:06:45.000Z</time>
      </trkpt>
      <trkpt lat="47.08276" lon="-1.26467">
        <ele>70</ele>
        <time>2020-09-13T07:06:54.000Z</time>
      </trkpt>
      <trkpt lat="47.08266" lon="-1.26454">
        <ele>67</ele>
        <time>2020-09-13T07:07:02.000Z</time>
      </trkpt>
      <trkpt lat="47.08256" lon="-1.26445">
        <ele>67</ele>
        <time>2020-09-13T07:07:10.000Z</time>
      </trkpt>
      <trkpt lat="47.08244" lon="-1.26438">
        <ele>68</ele>
        <time>2020-09-13T07:07:16.000Z</time>
      </trkpt>
      <trkpt lat="47.08232" lon="-1.26433">
        <ele>69</ele>
        <time>2020-09-13T07:07:20.000Z</time>
      </trkpt>
      <trkpt lat="47.08219" lon="-1.2643">
        <ele>69</ele>
        <time>2020-09-13T07:07:25.000Z</time>
      </trkpt>
      <trkpt lat="47.08207" lon="-1.2642">
        <ele>70</ele>
        <time>2020-09-13T07:07:33.000Z</time>
      </trkpt>
      <trkpt lat="47.08193" lon="-1.26405">
        <ele>72</ele>
        <time>2020-09-13T07:07:40.000Z</time>
      </trkpt>
      <trkpt lat="47.08178" lon="-1.26393">
        <ele>73</ele>
        <time>2020-09-13T07:07:49.000Z</time>
      </trkpt>
      <trkpt lat="47.08163" lon="-1.26384">
        <ele>73</ele>
        <time>2020-09-13T07:08:00.000Z</time>
      </trkpt>
      <trkpt lat="47.08151" lon="-1.2637">
        <ele>75</ele>
        <time>2020-09-13T07:08:11.000Z</time>
      </trkpt>
      <trkpt lat="47.08136" lon="-1.26359">
        <ele>76</ele>
        <time>2020-09-13T07:08:18.000Z</time>
      </trkpt>
      <trkpt lat="47.08121" lon="-1.26347">
        <ele>78</ele>
        <time>2020-09-13T07:08:24.000Z</time>
      </trkpt>
      <trkpt lat="47.08105" lon="-1.26333">
        <ele>78</ele>
        <time>2020-09-13T07:08:31.000Z</time>
      </trkpt>
      <trkpt lat="47.08093" lon="-1.2632">
        <ele>79</ele>
        <time>2020-09-13T07:08:38.000Z</time>
      </trkpt>
      <trkpt lat="47.08081" lon="-1.26306">
        <ele>79</ele>
        <time>2020-09-13T07:08:46.000Z</time>
      </trkpt>
      <trkpt lat="47.08068" lon="-1.2629">
        <ele>80</ele>
        <time>2020-09-13T07:08:52.000Z</time>
      </trkpt>
      <trkpt lat="47.08054" lon="-1.26279">
        <ele>79</ele>
        <time>2020-09-13T07:08:58.000Z</time>
      </trkpt>
      <trkpt lat="47.08039" lon="-1.26269">
        <ele>80</ele>
        <time>2020-09-13T07:09:06.000Z</time>
      </trkpt>
      <trkpt lat="47.08039" lon="-1.26269">
        <ele>80</ele>
        <time>2020-09-13T07:09:06.000Z</time>
      </trkpt>
      <trkpt lat="47.08027" lon="-1.2624">
        <ele>78</ele>
        <time>2020-09-13T07:09:34.000Z</time>
      </trkpt>
      <trkpt lat="47.08017" lon="-1.26228">
        <ele>79</ele>
        <time>2020-09-13T07:09:49.000Z</time>
      </trkpt>
      <trkpt lat="47.08009" lon="-1.2622">
        <ele>80</ele>
        <time>2020-09-13T07:09:54.000Z</time>
      </trkpt>
      <trkpt lat="47.08" lon="-1.26209">
        <ele>80</ele>
        <time>2020-09-13T07:09:58.000Z</time>
      </trkpt>
      <trkpt lat="47.07986" lon="-1.26191">
        <ele>80</ele>
        <time>2020-09-13T07:10:02.000Z</time>
      </trkpt>
      <trkpt lat="47.07971" lon="-1.26172">
        <ele>80</ele>
        <time>2020-09-13T07:10:08.000Z</time>
      </trkpt>
      <trkpt lat="47.07962" lon="-1.26151">
        <ele>78</ele>
        <time>2020-09-13T07:10:15.000Z</time>
      </trkpt>
      <trkpt lat="47.07962" lon="-1.2614">
        <ele>79</ele>
        <time>2020-09-13T07:10:21.000Z</time>
      </trkpt>
      <trkpt lat="47.07963" lon="-1.26129">
        <ele>82</ele>
        <time>2020-09-13T07:10:27.000Z</time>
      </trkpt>
      <trkpt lat="47.07963" lon="-1.26129">
        <ele>82</ele>
        <time>2020-09-13T07:10:27.000Z</time>
      </trkpt>
      <trkpt lat="47.07962" lon="-1.26103">
        <ele>84</ele>
        <time>2020-09-13T07:10:43.000Z</time>
      </trkpt>
      <trkpt lat="47.0796" lon="-1.26077">
        <ele>87</ele>
        <time>2020-09-13T07:10:55.000Z</time>
      </trkpt>
      <trkpt lat="47.0796" lon="-1.26048">
        <ele>85</ele>
        <time>2020-09-13T07:11:01.000Z</time>
      </trkpt>
      <trkpt lat="47.07953" lon="-1.26023">
        <ele>84</ele>
        <time>2020-09-13T07:11:06.000Z</time>
      </trkpt>
      <trkpt lat="47.07945" lon="-1.25996">
        <ele>84</ele>
        <time>2020-09-13T07:11:10.000Z</time>
      </trkpt>
      <trkpt lat="47.07941" lon="-1.2599">
        <ele>84</ele>
        <time>2020-09-13T07:11:11.000Z</time>
      </trkpt>
      <trkpt lat="47.07938" lon="-1.25987">
        <ele>83</ele>
        <time>2020-09-13T07:11:12.000Z</time>
      </trkpt>
      <trkpt lat="47.07935" lon="-1.25986">
        <ele>83</ele>
        <time>2020-09-13T07:11:13.000Z</time>
      </trkpt>
      <trkpt lat="47.07932" lon="-1.25986">
        <ele>83</ele>
        <time>2020-09-13T07:11:13.000Z</time>
      </trkpt>
      <trkpt lat="47.07928" lon="-1.25987">
        <ele>83</ele>
        <time>2020-09-13T07:11:14.000Z</time>
      </trkpt>
      <trkpt lat="47.07924" lon="-1.25987">
        <ele>83</ele>
        <time>2020-09-13T07:11:15.000Z</time>
      </trkpt>
      <trkpt lat="47.07919" lon="-1.25987">
        <ele>83</ele>
        <time>2020-09-13T07:11:16.000Z</time>
      </trkpt>
      <trkpt lat="47.07914" lon="-1.25987">
        <ele>83</ele>
        <time>2020-09-13T07:11:17.000Z</time>
      </trkpt>
      <trkpt lat="47.07908" lon="-1.25987">
        <ele>83</ele>
        <time>2020-09-13T07:11:18.000Z</time>
      </trkpt>
      <trkpt lat="47.07903" lon="-1.25987">
        <ele>82</ele>
        <time>2020-09-13T07:11:19.000Z</time>
      </trkpt>
      <trkpt lat="47.07896" lon="-1.25986">
        <ele>82</ele>
        <time>2020-09-13T07:11:20.000Z</time>
      </trkpt>
      <trkpt lat="47.0789" lon="-1.25986">
        <ele>82</ele>
        <time>2020-09-13T07:11:21.000Z</time>
      </trkpt>
      <trkpt lat="47.07883" lon="-1.25985">
        <ele>81</ele>
        <time>2020-09-13T07:11:23.000Z</time>
      </trkpt>
      <trkpt lat="47.07876" lon="-1.25985">
        <ele>81</ele>
        <time>2020-09-13T07:11:24.000Z</time>
      </trkpt>
      <trkpt lat="47.0787" lon="-1.25985">
        <ele>81</ele>
        <time>2020-09-13T07:11:25.000Z</time>
      </trkpt>
      <trkpt lat="47.07865" lon="-1.25985">
        <ele>81</ele>
        <time>2020-09-13T07:11:26.000Z</time>
      </trkpt>
      <trkpt lat="47.0786" lon="-1.25986">
        <ele>81</ele>
        <time>2020-09-13T07:11:28.000Z</time>
      </trkpt>
      <trkpt lat="47.07856" lon="-1.25987">
        <ele>81</ele>
        <time>2020-09-13T07:11:29.000Z</time>
      </trkpt>
      <trkpt lat="47.0785" lon="-1.25988">
        <ele>81</ele>
        <time>2020-09-13T07:11:30.000Z</time>
      </trkpt>
      <trkpt lat="47.07845" lon="-1.2599">
        <ele>81</ele>
        <time>2020-09-13T07:11:31.000Z</time>
      </trkpt>
      <trkpt lat="47.0784" lon="-1.25992">
        <ele>81</ele>
        <time>2020-09-13T07:11:33.000Z</time>
      </trkpt>
      <trkpt lat="47.07834" lon="-1.25994">
        <ele>81</ele>
        <time>2020-09-13T07:11:34.000Z</time>
      </trkpt>
      <trkpt lat="47.0783" lon="-1.25996">
        <ele>81</ele>
        <time>2020-09-13T07:11:35.000Z</time>
      </trkpt>
      <trkpt lat="47.07827" lon="-1.25996">
        <ele>81</ele>
        <time>2020-09-13T07:11:36.000Z</time>
      </trkpt>
      <trkpt lat="47.07824" lon="-1.25997">
        <ele>81</ele>
        <time>2020-09-13T07:11:37.000Z</time>
      </trkpt>
      <trkpt lat="47.07821" lon="-1.25998">
        <ele>81</ele>
        <time>2020-09-13T07:11:38.000Z</time>
      </trkpt>
      <trkpt lat="47.07808" lon="-1.26002">
        <ele>80</ele>
        <time>2020-09-13T07:11:41.000Z</time>
      </trkpt>
      <trkpt lat="47.07799" lon="-1.26004">
        <ele>79</ele>
        <time>2020-09-13T07:11:44.000Z</time>
      </trkpt>
      <trkpt lat="47.07793" lon="-1.26004">
        <ele>78</ele>
        <time>2020-09-13T07:11:46.000Z</time>
      </trkpt>
      <trkpt lat="47.07775" lon="-1.26">
        <ele>77</ele>
        <time>2020-09-13T07:11:48.000Z</time>
      </trkpt>
      <trkpt lat="47.07758" lon="-1.25995">
        <ele>77</ele>
        <time>2020-09-13T07:11:53.000Z</time>
      </trkpt>
      <trkpt lat="47.07741" lon="-1.25998">
        <ele>78</ele>
        <time>2020-09-13T07:11:59.000Z</time>
      </trkpt>
      <trkpt lat="47.07734" lon="-1.25995">
        <ele>79</ele>
        <time>2020-09-13T07:12:02.000Z</time>
      </trkpt>
      <trkpt lat="47.07727" lon="-1.25991">
        <ele>80</ele>
        <time>2020-09-13T07:12:05.000Z</time>
      </trkpt>
      <trkpt lat="47.07725" lon="-1.25987">
        <ele>81</ele>
        <time>2020-09-13T07:12:07.000Z</time>
      </trkpt>
      <trkpt lat="47.07723" lon="-1.25982">
        <ele>81</ele>
        <time>2020-09-13T07:12:08.000Z</time>
      </trkpt>
      <trkpt lat="47.07721" lon="-1.25976">
        <ele>81</ele>
        <time>2020-09-13T07:12:10.000Z</time>
      </trkpt>
      <trkpt lat="47.07719" lon="-1.2597">
        <ele>80</ele>
        <time>2020-09-13T07:12:12.000Z</time>
      </trkpt>
      <trkpt lat="47.07713" lon="-1.25962">
        <ele>81</ele>
        <time>2020-09-13T07:12:16.000Z</time>
      </trkpt>
      <trkpt lat="47.07704" lon="-1.25955">
        <ele>81</ele>
        <time>2020-09-13T07:12:20.000Z</time>
      </trkpt>
      <trkpt lat="47.077" lon="-1.25952">
        <ele>81</ele>
        <time>2020-09-13T07:12:22.000Z</time>
      </trkpt>
      <trkpt lat="47.07695" lon="-1.2595">
        <ele>81</ele>
        <time>2020-09-13T07:12:24.000Z</time>
      </trkpt>
      <trkpt lat="47.07689" lon="-1.25947">
        <ele>81</ele>
        <time>2020-09-13T07:12:26.000Z</time>
      </trkpt>
      <trkpt lat="47.07684" lon="-1.25945">
        <ele>82</ele>
        <time>2020-09-13T07:12:28.000Z</time>
      </trkpt>
      <trkpt lat="47.07681" lon="-1.25943">
        <ele>82</ele>
        <time>2020-09-13T07:12:29.000Z</time>
      </trkpt>
      <trkpt lat="47.07678" lon="-1.25941">
        <ele>82</ele>
        <time>2020-09-13T07:12:30.000Z</time>
      </trkpt>
      <trkpt lat="47.07676" lon="-1.2594">
        <ele>82</ele>
        <time>2020-09-13T07:12:31.000Z</time>
      </trkpt>
      <trkpt lat="47.07674" lon="-1.25938">
        <ele>83</ele>
        <time>2020-09-13T07:12:32.000Z</time>
      </trkpt>
      <trkpt lat="47.07672" lon="-1.25937">
        <ele>83</ele>
        <time>2020-09-13T07:12:33.000Z</time>
      </trkpt>
      <trkpt lat="47.07669" lon="-1.25935">
        <ele>83</ele>
        <time>2020-09-13T07:12:34.000Z</time>
      </trkpt>
      <trkpt lat="47.07667" lon="-1.25933">
        <ele>83</ele>
        <time>2020-09-13T07:12:35.000Z</time>
      </trkpt>
      <trkpt lat="47.07665" lon="-1.25931">
        <ele>83</ele>
        <time>2020-09-13T07:12:36.000Z</time>
      </trkpt>
      <trkpt lat="47.07661" lon="-1.25927">
        <ele>83</ele>
        <time>2020-09-13T07:12:38.000Z</time>
      </trkpt>
      <trkpt lat="47.07658" lon="-1.25922">
        <ele>83</ele>
        <time>2020-09-13T07:12:40.000Z</time>
      </trkpt>
      <trkpt lat="47.07653" lon="-1.25916">
        <ele>82</ele>
        <time>2020-09-13T07:12:43.000Z</time>
      </trkpt>
      <trkpt lat="47.07649" lon="-1.2591">
        <ele>82</ele>
        <time>2020-09-13T07:12:45.000Z</time>
      </trkpt>
      <trkpt lat="47.07646" lon="-1.25904">
        <ele>81</ele>
        <time>2020-09-13T07:12:47.000Z</time>
      </trkpt>
      <trkpt lat="47.07642" lon="-1.25898">
        <ele>81</ele>
        <time>2020-09-13T07:12:49.000Z</time>
      </trkpt>
      <trkpt lat="47.0764" lon="-1.25892">
        <ele>81</ele>
        <time>2020-09-13T07:12:51.000Z</time>
      </trkpt>
      <trkpt lat="47.07637" lon="-1.25886">
        <ele>81</ele>
        <time>2020-09-13T07:12:53.000Z</time>
      </trkpt>
      <trkpt lat="47.07627" lon="-1.2586">
        <ele>81</ele>
        <time>2020-09-13T07:13:01.000Z</time>
      </trkpt>
      <trkpt lat="47.07615" lon="-1.25837">
        <ele>82</ele>
        <time>2020-09-13T07:13:08.000Z</time>
      </trkpt>
      <trkpt lat="47.07601" lon="-1.25811">
        <ele>82</ele>
        <time>2020-09-13T07:13:15.000Z</time>
      </trkpt>
      <trkpt lat="47.07594" lon="-1.25798">
        <ele>82</ele>
        <time>2020-09-13T07:13:19.000Z</time>
      </trkpt>
      <trkpt lat="47.07588" lon="-1.25785">
        <ele>83</ele>
        <time>2020-09-13T07:13:23.000Z</time>
      </trkpt>
      <trkpt lat="47.07582" lon="-1.25755">
        <ele>84</ele>
        <time>2020-09-13T07:13:31.000Z</time>
      </trkpt>
      <trkpt lat="47.07579" lon="-1.25723">
        <ele>84</ele>
        <time>2020-09-13T07:13:38.000Z</time>
      </trkpt>
      <trkpt lat="47.07581" lon="-1.2569">
        <ele>84</ele>
        <time>2020-09-13T07:13:44.000Z</time>
      </trkpt>
      <trkpt lat="47.07587" lon="-1.25657">
        <ele>84</ele>
        <time>2020-09-13T07:13:50.000Z</time>
      </trkpt>
      <trkpt lat="47.07592" lon="-1.25634">
        <ele>84</ele>
        <time>2020-09-13T07:13:54.000Z</time>
      </trkpt>
      <trkpt lat="47.07593" lon="-1.25623">
        <ele>84</ele>
        <time>2020-09-13T07:13:56.000Z</time>
      </trkpt>
      <trkpt lat="47.07598" lon="-1.25587">
        <ele>85</ele>
        <time>2020-09-13T07:14:02.000Z</time>
      </trkpt>
      <trkpt lat="47.07598" lon="-1.25552">
        <ele>86</ele>
        <time>2020-09-13T07:14:08.000Z</time>
      </trkpt>
      <trkpt lat="47.07593" lon="-1.25538">
        <ele>86</ele>
        <time>2020-09-13T07:14:11.000Z</time>
      </trkpt>
      <trkpt lat="47.07585" lon="-1.25524">
        <ele>86</ele>
        <time>2020-09-13T07:14:14.000Z</time>
      </trkpt>
      <trkpt lat="47.07581" lon="-1.25518">
        <ele>86</ele>
        <time>2020-09-13T07:14:15.000Z</time>
      </trkpt>
      <trkpt lat="47.07577" lon="-1.25513">
        <ele>86</ele>
        <time>2020-09-13T07:14:16.000Z</time>
      </trkpt>
      <trkpt lat="47.07572" lon="-1.25509">
        <ele>86</ele>
        <time>2020-09-13T07:14:18.000Z</time>
      </trkpt>
      <trkpt lat="47.07568" lon="-1.25504">
        <ele>86</ele>
        <time>2020-09-13T07:14:19.000Z</time>
      </trkpt>
      <trkpt lat="47.07564" lon="-1.25497">
        <ele>86</ele>
        <time>2020-09-13T07:14:20.000Z</time>
      </trkpt>
      <trkpt lat="47.0756" lon="-1.25489">
        <ele>86</ele>
        <time>2020-09-13T07:14:21.000Z</time>
      </trkpt>
      <trkpt lat="47.07557" lon="-1.25481">
        <ele>86</ele>
        <time>2020-09-13T07:14:23.000Z</time>
      </trkpt>
      <trkpt lat="47.07553" lon="-1.25472">
        <ele>85</ele>
        <time>2020-09-13T07:14:24.000Z</time>
      </trkpt>
      <trkpt lat="47.07551" lon="-1.25464">
        <ele>85</ele>
        <time>2020-09-13T07:14:25.000Z</time>
      </trkpt>
      <trkpt lat="47.0755" lon="-1.25456">
        <ele>85</ele>
        <time>2020-09-13T07:14:26.000Z</time>
      </trkpt>
      <trkpt lat="47.07549" lon="-1.25447">
        <ele>85</ele>
        <time>2020-09-13T07:14:27.000Z</time>
      </trkpt>
      <trkpt lat="47.07547" lon="-1.25439">
        <ele>85</ele>
        <time>2020-09-13T07:14:28.000Z</time>
      </trkpt>
      <trkpt lat="47.07545" lon="-1.2543">
        <ele>85</ele>
        <time>2020-09-13T07:14:29.000Z</time>
      </trkpt>
      <trkpt lat="47.07544" lon="-1.25421">
        <ele>85</ele>
        <time>2020-09-13T07:14:30.000Z</time>
      </trkpt>
      <trkpt lat="47.07541" lon="-1.25411">
        <ele>85</ele>
        <time>2020-09-13T07:14:32.000Z</time>
      </trkpt>
      <trkpt lat="47.07539" lon="-1.25402">
        <ele>85</ele>
        <time>2020-09-13T07:14:33.000Z</time>
      </trkpt>
      <trkpt lat="47.07538" lon="-1.25394">
        <ele>85</ele>
        <time>2020-09-13T07:14:34.000Z</time>
      </trkpt>
      <trkpt lat="47.07537" lon="-1.25386">
        <ele>85</ele>
        <time>2020-09-13T07:14:35.000Z</time>
      </trkpt>
      <trkpt lat="47.07537" lon="-1.25378">
        <ele>85</ele>
        <time>2020-09-13T07:14:37.000Z</time>
      </trkpt>
      <trkpt lat="47.07536" lon="-1.25371">
        <ele>84</ele>
        <time>2020-09-13T07:14:38.000Z</time>
      </trkpt>
      <trkpt lat="47.07538" lon="-1.25364">
        <ele>84</ele>
        <time>2020-09-13T07:14:39.000Z</time>
      </trkpt>
      <trkpt lat="47.07541" lon="-1.25358">
        <ele>84</ele>
        <time>2020-09-13T07:14:40.000Z</time>
      </trkpt>
      <trkpt lat="47.07545" lon="-1.25353">
        <ele>84</ele>
        <time>2020-09-13T07:14:42.000Z</time>
      </trkpt>
      <trkpt lat="47.07549" lon="-1.25348">
        <ele>84</ele>
        <time>2020-09-13T07:14:43.000Z</time>
      </trkpt>
      <trkpt lat="47.07552" lon="-1.25343">
        <ele>84</ele>
        <time>2020-09-13T07:14:44.000Z</time>
      </trkpt>
      <trkpt lat="47.07555" lon="-1.25338">
        <ele>84</ele>
        <time>2020-09-13T07:14:45.000Z</time>
      </trkpt>
      <trkpt lat="47.07559" lon="-1.25333">
        <ele>84</ele>
        <time>2020-09-13T07:14:46.000Z</time>
      </trkpt>
      <trkpt lat="47.07562" lon="-1.25327">
        <ele>84</ele>
        <time>2020-09-13T07:14:47.000Z</time>
      </trkpt>
      <trkpt lat="47.07566" lon="-1.25321">
        <ele>84</ele>
        <time>2020-09-13T07:14:48.000Z</time>
      </trkpt>
      <trkpt lat="47.0757" lon="-1.25314">
        <ele>84</ele>
        <time>2020-09-13T07:14:49.000Z</time>
      </trkpt>
      <trkpt lat="47.07574" lon="-1.25307">
        <ele>84</ele>
        <time>2020-09-13T07:14:50.000Z</time>
      </trkpt>
      <trkpt lat="47.07578" lon="-1.253">
        <ele>84</ele>
        <time>2020-09-13T07:14:51.000Z</time>
      </trkpt>
      <trkpt lat="47.0758" lon="-1.25296">
        <ele>83</ele>
        <time>2020-09-13T07:14:51.000Z</time>
      </trkpt>
      <trkpt lat="47.0758" lon="-1.25293">
        <ele>83</ele>
        <time>2020-09-13T07:14:52.000Z</time>
      </trkpt>
      <trkpt lat="47.0758" lon="-1.25291">
        <ele>83</ele>
        <time>2020-09-13T07:14:52.000Z</time>
      </trkpt>
      <trkpt lat="47.0758" lon="-1.25289">
        <ele>83</ele>
        <time>2020-09-13T07:14:53.000Z</time>
      </trkpt>
      <trkpt lat="47.07578" lon="-1.25284">
        <ele>83</ele>
        <time>2020-09-13T07:14:54.000Z</time>
      </trkpt>
      <trkpt lat="47.07574" lon="-1.25278">
        <ele>82</ele>
        <time>2020-09-13T07:14:55.000Z</time>
      </trkpt>
      <trkpt lat="47.0757" lon="-1.25271">
        <ele>82</ele>
        <time>2020-09-13T07:14:56.000Z</time>
      </trkpt>
      <trkpt lat="47.07565" lon="-1.25264">
        <ele>82</ele>
        <time>2020-09-13T07:14:57.000Z</time>
      </trkpt>
      <trkpt lat="47.07561" lon="-1.25259">
        <ele>82</ele>
        <time>2020-09-13T07:14:58.000Z</time>
      </trkpt>
      <trkpt lat="47.07555" lon="-1.25254">
        <ele>82</ele>
        <time>2020-09-13T07:14:59.000Z</time>
      </trkpt>
      <trkpt lat="47.0755" lon="-1.25249">
        <ele>82</ele>
        <time>2020-09-13T07:15:00.000Z</time>
      </trkpt>
      <trkpt lat="47.07545" lon="-1.25244">
        <ele>82</ele>
        <time>2020-09-13T07:15:01.000Z</time>
      </trkpt>
      <trkpt lat="47.07539" lon="-1.25239">
        <ele>81</ele>
        <time>2020-09-13T07:15:02.000Z</time>
      </trkpt>
      <trkpt lat="47.07534" lon="-1.25234">
        <ele>81</ele>
        <time>2020-09-13T07:15:03.000Z</time>
      </trkpt>
      <trkpt lat="47.07528" lon="-1.25229">
        <ele>81</ele>
        <time>2020-09-13T07:15:04.000Z</time>
      </trkpt>
      <trkpt lat="47.07523" lon="-1.25224">
        <ele>81</ele>
        <time>2020-09-13T07:15:05.000Z</time>
      </trkpt>
      <trkpt lat="47.07518" lon="-1.25218">
        <ele>81</ele>
        <time>2020-09-13T07:15:06.000Z</time>
      </trkpt>
      <trkpt lat="47.07513" lon="-1.25213">
        <ele>80</ele>
        <time>2020-09-13T07:15:07.000Z</time>
      </trkpt>
      <trkpt lat="47.07508" lon="-1.25208">
        <ele>80</ele>
        <time>2020-09-13T07:15:08.000Z</time>
      </trkpt>
      <trkpt lat="47.07503" lon="-1.25203">
        <ele>80</ele>
        <time>2020-09-13T07:15:09.000Z</time>
      </trkpt>
      <trkpt lat="47.07498" lon="-1.25199">
        <ele>80</ele>
        <time>2020-09-13T07:15:10.000Z</time>
      </trkpt>
      <trkpt lat="47.07493" lon="-1.25196">
        <ele>80</ele>
        <time>2020-09-13T07:15:11.000Z</time>
      </trkpt>
      <trkpt lat="47.07488" lon="-1.25193">
        <ele>80</ele>
        <time>2020-09-13T07:15:12.000Z</time>
      </trkpt>
      <trkpt lat="47.07483" lon="-1.2519">
        <ele>80</ele>
        <time>2020-09-13T07:15:13.000Z</time>
      </trkpt>
      <trkpt lat="47.07478" lon="-1.25187">
        <ele>80</ele>
        <time>2020-09-13T07:15:14.000Z</time>
      </trkpt>
      <trkpt lat="47.07472" lon="-1.25185">
        <ele>80</ele>
        <time>2020-09-13T07:15:15.000Z</time>
      </trkpt>
      <trkpt lat="47.07467" lon="-1.25183">
        <ele>80</ele>
        <time>2020-09-13T07:15:16.000Z</time>
      </trkpt>
      <trkpt lat="47.07461" lon="-1.25182">
        <ele>80</ele>
        <time>2020-09-13T07:15:17.000Z</time>
      </trkpt>
      <trkpt lat="47.07456" lon="-1.25176">
        <ele>79</ele>
        <time>2020-09-13T07:15:18.000Z</time>
      </trkpt>
      <trkpt lat="47.07452" lon="-1.25169">
        <ele>79</ele>
        <time>2020-09-13T07:15:19.000Z</time>
      </trkpt>
      <trkpt lat="47.07448" lon="-1.25162">
        <ele>79</ele>
        <time>2020-09-13T07:15:21.000Z</time>
      </trkpt>
      <trkpt lat="47.07444" lon="-1.25153">
        <ele>78</ele>
        <time>2020-09-13T07:15:22.000Z</time>
      </trkpt>
      <trkpt lat="47.07441" lon="-1.25148">
        <ele>78</ele>
        <time>2020-09-13T07:15:23.000Z</time>
      </trkpt>
      <trkpt lat="47.07437" lon="-1.25144">
        <ele>78</ele>
        <time>2020-09-13T07:15:25.000Z</time>
      </trkpt>
      <trkpt lat="47.07433" lon="-1.2514">
        <ele>78</ele>
        <time>2020-09-13T07:15:26.000Z</time>
      </trkpt>
      <trkpt lat="47.0743" lon="-1.25137">
        <ele>78</ele>
        <time>2020-09-13T07:15:28.000Z</time>
      </trkpt>
      <trkpt lat="47.07426" lon="-1.25133">
        <ele>78</ele>
        <time>2020-09-13T07:15:30.000Z</time>
      </trkpt>
      <trkpt lat="47.07421" lon="-1.2513">
        <ele>77</ele>
        <time>2020-09-13T07:15:32.000Z</time>
      </trkpt>
      <trkpt lat="47.07417" lon="-1.25127">
        <ele>77</ele>
        <time>2020-09-13T07:15:34.000Z</time>
      </trkpt>
      <trkpt lat="47.07412" lon="-1.25123">
        <ele>77</ele>
        <time>2020-09-13T07:15:36.000Z</time>
      </trkpt>
      <trkpt lat="47.07409" lon="-1.2512">
        <ele>77</ele>
        <time>2020-09-13T07:15:37.000Z</time>
      </trkpt>
      <trkpt lat="47.07406" lon="-1.25117">
        <ele>77</ele>
        <time>2020-09-13T07:15:38.000Z</time>
      </trkpt>
      <trkpt lat="47.07403" lon="-1.25115">
        <ele>77</ele>
        <time>2020-09-13T07:15:39.000Z</time>
      </trkpt>
      <trkpt lat="47.07401" lon="-1.25112">
        <ele>78</ele>
        <time>2020-09-13T07:15:40.000Z</time>
      </trkpt>
      <trkpt lat="47.07397" lon="-1.2511">
        <ele>78</ele>
        <time>2020-09-13T07:15:41.000Z</time>
      </trkpt>
      <trkpt lat="47.07393" lon="-1.25111">
        <ele>78</ele>
        <time>2020-09-13T07:15:42.000Z</time>
      </trkpt>
      <trkpt lat="47.07391" lon="-1.25112">
        <ele>78</ele>
        <time>2020-09-13T07:15:42.000Z</time>
      </trkpt>
      <trkpt lat="47.0739" lon="-1.25114">
        <ele>78</ele>
        <time>2020-09-13T07:15:43.000Z</time>
      </trkpt>
      <trkpt lat="47.07389" lon="-1.25115">
        <ele>78</ele>
        <time>2020-09-13T07:15:43.000Z</time>
      </trkpt>
      <trkpt lat="47.07388" lon="-1.25118">
        <ele>78</ele>
        <time>2020-09-13T07:15:44.000Z</time>
      </trkpt>
      <trkpt lat="47.07387" lon="-1.25121">
        <ele>78</ele>
        <time>2020-09-13T07:15:45.000Z</time>
      </trkpt>
      <trkpt lat="47.07386" lon="-1.25124">
        <ele>78</ele>
        <time>2020-09-13T07:15:45.000Z</time>
      </trkpt>
      <trkpt lat="47.07386" lon="-1.25129">
        <ele>78</ele>
        <time>2020-09-13T07:15:46.000Z</time>
      </trkpt>
      <trkpt lat="47.07385" lon="-1.25133">
        <ele>77</ele>
        <time>2020-09-13T07:15:47.000Z</time>
      </trkpt>
      <trkpt lat="47.07383" lon="-1.25138">
        <ele>77</ele>
        <time>2020-09-13T07:15:48.000Z</time>
      </trkpt>
      <trkpt lat="47.0738" lon="-1.25141">
        <ele>77</ele>
        <time>2020-09-13T07:15:49.000Z</time>
      </trkpt>
      <trkpt lat="47.0737" lon="-1.25148">
        <ele>77</ele>
        <time>2020-09-13T07:15:52.000Z</time>
      </trkpt>
      <trkpt lat="47.07357" lon="-1.25155">
        <ele>77</ele>
        <time>2020-09-13T07:15:55.000Z</time>
      </trkpt>
      <trkpt lat="47.07351" lon="-1.25157">
        <ele>77</ele>
        <time>2020-09-13T07:15:56.000Z</time>
      </trkpt>
      <trkpt lat="47.07346" lon="-1.25158">
        <ele>77</ele>
        <time>2020-09-13T07:15:57.000Z</time>
      </trkpt>
      <trkpt lat="47.0734" lon="-1.25159">
        <ele>77</ele>
        <time>2020-09-13T07:15:59.000Z</time>
      </trkpt>
      <trkpt lat="47.07335" lon="-1.2516">
        <ele>77</ele>
        <time>2020-09-13T07:16:00.000Z</time>
      </trkpt>
      <trkpt lat="47.0733" lon="-1.25156">
        <ele>77</ele>
        <time>2020-09-13T07:16:01.000Z</time>
      </trkpt>
      <trkpt lat="47.07327" lon="-1.25151">
        <ele>77</ele>
        <time>2020-09-13T07:16:02.000Z</time>
      </trkpt>
      <trkpt lat="47.07323" lon="-1.25144">
        <ele>77</ele>
        <time>2020-09-13T07:16:04.000Z</time>
      </trkpt>
      <trkpt lat="47.0732" lon="-1.25137">
        <ele>76</ele>
        <time>2020-09-13T07:16:05.000Z</time>
      </trkpt>
      <trkpt lat="47.07316" lon="-1.25131">
        <ele>76</ele>
        <time>2020-09-13T07:16:06.000Z</time>
      </trkpt>
      <trkpt lat="47.07313" lon="-1.25125">
        <ele>76</ele>
        <time>2020-09-13T07:16:07.000Z</time>
      </trkpt>
      <trkpt lat="47.07309" lon="-1.25119">
        <ele>75</ele>
        <time>2020-09-13T07:16:09.000Z</time>
      </trkpt>
      <trkpt lat="47.07306" lon="-1.25112">
        <ele>75</ele>
        <time>2020-09-13T07:16:10.000Z</time>
      </trkpt>
      <trkpt lat="47.07302" lon="-1.25106">
        <ele>75</ele>
        <time>2020-09-13T07:16:11.000Z</time>
      </trkpt>
      <trkpt lat="47.07298" lon="-1.25099">
        <ele>74</ele>
        <time>2020-09-13T07:16:12.000Z</time>
      </trkpt>
      <trkpt lat="47.07293" lon="-1.25093">
        <ele>74</ele>
        <time>2020-09-13T07:16:14.000Z</time>
      </trkpt>
      <trkpt lat="47.07289" lon="-1.25086">
        <ele>74</ele>
        <time>2020-09-13T07:16:15.000Z</time>
      </trkpt>
      <trkpt lat="47.07285" lon="-1.2508">
        <ele>74</ele>
        <time>2020-09-13T07:16:16.000Z</time>
      </trkpt>
      <trkpt lat="47.07281" lon="-1.25074">
        <ele>74</ele>
        <time>2020-09-13T07:16:17.000Z</time>
      </trkpt>
      <trkpt lat="47.07278" lon="-1.25068">
        <ele>74</ele>
        <time>2020-09-13T07:16:19.000Z</time>
      </trkpt>
      <trkpt lat="47.07275" lon="-1.25062">
        <ele>74</ele>
        <time>2020-09-13T07:16:20.000Z</time>
      </trkpt>
      <trkpt lat="47.07265" lon="-1.25054">
        <ele>74</ele>
        <time>2020-09-13T07:16:25.000Z</time>
      </trkpt>
      <trkpt lat="47.07254" lon="-1.25047">
        <ele>75</ele>
        <time>2020-09-13T07:16:31.000Z</time>
      </trkpt>
      <trkpt lat="47.07248" lon="-1.25046">
        <ele>75</ele>
        <time>2020-09-13T07:16:33.000Z</time>
      </trkpt>
      <trkpt lat="47.07242" lon="-1.25045">
        <ele>75</ele>
        <time>2020-09-13T07:16:34.000Z</time>
      </trkpt>
      <trkpt lat="47.07236" lon="-1.25045">
        <ele>76</ele>
        <time>2020-09-13T07:16:36.000Z</time>
      </trkpt>
      <trkpt lat="47.07231" lon="-1.25045">
        <ele>76</ele>
        <time>2020-09-13T07:16:38.000Z</time>
      </trkpt>
      <trkpt lat="47.07225" lon="-1.25043">
        <ele>76</ele>
        <time>2020-09-13T07:16:39.000Z</time>
      </trkpt>
      <trkpt lat="47.0722" lon="-1.25041">
        <ele>77</ele>
        <time>2020-09-13T07:16:41.000Z</time>
      </trkpt>
      <trkpt lat="47.07214" lon="-1.25038">
        <ele>77</ele>
        <time>2020-09-13T07:16:42.000Z</time>
      </trkpt>
      <trkpt lat="47.07209" lon="-1.25035">
        <ele>77</ele>
        <time>2020-09-13T07:16:44.000Z</time>
      </trkpt>
      <trkpt lat="47.07204" lon="-1.25032">
        <ele>77</ele>
        <time>2020-09-13T07:16:45.000Z</time>
      </trkpt>
      <trkpt lat="47.07199" lon="-1.2503">
        <ele>77</ele>
        <time>2020-09-13T07:16:46.000Z</time>
      </trkpt>
      <trkpt lat="47.07194" lon="-1.25027">
        <ele>77</ele>
        <time>2020-09-13T07:16:48.000Z</time>
      </trkpt>
      <trkpt lat="47.07189" lon="-1.25024">
        <ele>77</ele>
        <time>2020-09-13T07:16:49.000Z</time>
      </trkpt>
      <trkpt lat="47.07184" lon="-1.25023">
        <ele>77</ele>
        <time>2020-09-13T07:16:50.000Z</time>
      </trkpt>
      <trkpt lat="47.07179" lon="-1.25022">
        <ele>77</ele>
        <time>2020-09-13T07:16:51.000Z</time>
      </trkpt>
      <trkpt lat="47.07174" lon="-1.25022">
        <ele>78</ele>
        <time>2020-09-13T07:16:53.000Z</time>
      </trkpt>
      <trkpt lat="47.07169" lon="-1.25022">
        <ele>78</ele>
        <time>2020-09-13T07:16:54.000Z</time>
      </trkpt>
      <trkpt lat="47.07163" lon="-1.25024">
        <ele>78</ele>
        <time>2020-09-13T07:16:55.000Z</time>
      </trkpt>
      <trkpt lat="47.07158" lon="-1.25025">
        <ele>78</ele>
        <time>2020-09-13T07:16:57.000Z</time>
      </trkpt>
      <trkpt lat="47.07152" lon="-1.25027">
        <ele>79</ele>
        <time>2020-09-13T07:16:58.000Z</time>
      </trkpt>
      <trkpt lat="47.07146" lon="-1.2503">
        <ele>79</ele>
        <time>2020-09-13T07:17:00.000Z</time>
      </trkpt>
      <trkpt lat="47.07136" lon="-1.25025">
        <ele>79</ele>
        <time>2020-09-13T07:17:02.000Z</time>
      </trkpt>
      <trkpt lat="47.07125" lon="-1.25017">
        <ele>78</ele>
        <time>2020-09-13T07:17:05.000Z</time>
      </trkpt>
      <trkpt lat="47.0712" lon="-1.25014">
        <ele>78</ele>
        <time>2020-09-13T07:17:06.000Z</time>
      </trkpt>
      <trkpt lat="47.07114" lon="-1.25011">
        <ele>78</ele>
        <time>2020-09-13T07:17:07.000Z</time>
      </trkpt>
      <trkpt lat="47.07109" lon="-1.25008">
        <ele>78</ele>
        <time>2020-09-13T07:17:09.000Z</time>
      </trkpt>
      <trkpt lat="47.07103" lon="-1.25005">
        <ele>77</ele>
        <time>2020-09-13T07:17:10.000Z</time>
      </trkpt>
      <trkpt lat="47.07097" lon="-1.25003">
        <ele>77</ele>
        <time>2020-09-13T07:17:11.000Z</time>
      </trkpt>
      <trkpt lat="47.07092" lon="-1.25002">
        <ele>77</ele>
        <time>2020-09-13T07:17:12.000Z</time>
      </trkpt>
      <trkpt lat="47.07086" lon="-1.25001">
        <ele>77</ele>
        <time>2020-09-13T07:17:13.000Z</time>
      </trkpt>
      <trkpt lat="47.0708" lon="-1.25001">
        <ele>76</ele>
        <time>2020-09-13T07:17:14.000Z</time>
      </trkpt>
      <trkpt lat="47.07074" lon="-1.25">
        <ele>76</ele>
        <time>2020-09-13T07:17:15.000Z</time>
      </trkpt>
      <trkpt lat="47.07068" lon="-1.24998">
        <ele>76</ele>
        <time>2020-09-13T07:17:16.000Z</time>
      </trkpt>
      <trkpt lat="47.07062" lon="-1.24997">
        <ele>76</ele>
        <time>2020-09-13T07:17:17.000Z</time>
      </trkpt>
      <trkpt lat="47.07056" lon="-1.24996">
        <ele>76</ele>
        <time>2020-09-13T07:17:18.000Z</time>
      </trkpt>
      <trkpt lat="47.0705" lon="-1.24994">
        <ele>76</ele>
        <time>2020-09-13T07:17:19.000Z</time>
      </trkpt>
      <trkpt lat="47.07043" lon="-1.24992">
        <ele>76</ele>
        <time>2020-09-13T07:17:20.000Z</time>
      </trkpt>
      <trkpt lat="47.07037" lon="-1.24989">
        <ele>76</ele>
        <time>2020-09-13T07:17:22.000Z</time>
      </trkpt>
      <trkpt lat="47.0703" lon="-1.24987">
        <ele>76</ele>
        <time>2020-09-13T07:17:23.000Z</time>
      </trkpt>
      <trkpt lat="47.07024" lon="-1.24984">
        <ele>76</ele>
        <time>2020-09-13T07:17:24.000Z</time>
      </trkpt>
      <trkpt lat="47.07019" lon="-1.2498">
        <ele>76</ele>
        <time>2020-09-13T07:17:25.000Z</time>
      </trkpt>
      <trkpt lat="47.07014" lon="-1.24976">
        <ele>76</ele>
        <time>2020-09-13T07:17:27.000Z</time>
      </trkpt>
      <trkpt lat="47.0701" lon="-1.24972">
        <ele>76</ele>
        <time>2020-09-13T07:17:28.000Z</time>
      </trkpt>
      <trkpt lat="47.06995" lon="-1.2495">
        <ele>77</ele>
        <time>2020-09-13T07:17:34.000Z</time>
      </trkpt>
      <trkpt lat="47.06982" lon="-1.24929">
        <ele>78</ele>
        <time>2020-09-13T07:17:39.000Z</time>
      </trkpt>
      <trkpt lat="47.06979" lon="-1.24915">
        <ele>78</ele>
        <time>2020-09-13T07:17:41.000Z</time>
      </trkpt>
      <trkpt lat="47.06979" lon="-1.249">
        <ele>78</ele>
        <time>2020-09-13T07:17:44.000Z</time>
      </trkpt>
      <trkpt lat="47.06982" lon="-1.24886">
        <ele>79</ele>
        <time>2020-09-13T07:17:46.000Z</time>
      </trkpt>
      <trkpt lat="47.06988" lon="-1.24872">
        <ele>79</ele>
        <time>2020-09-13T07:17:49.000Z</time>
      </trkpt>
      <trkpt lat="47.06992" lon="-1.24867">
        <ele>80</ele>
        <time>2020-09-13T07:17:51.000Z</time>
      </trkpt>
      <trkpt lat="47.06997" lon="-1.24864">
        <ele>80</ele>
        <time>2020-09-13T07:17:52.000Z</time>
      </trkpt>
      <trkpt lat="47.07003" lon="-1.24861">
        <ele>81</ele>
        <time>2020-09-13T07:17:54.000Z</time>
      </trkpt>
      <trkpt lat="47.07008" lon="-1.24859">
        <ele>81</ele>
        <time>2020-09-13T07:17:56.000Z</time>
      </trkpt>
      <trkpt lat="47.07012" lon="-1.24855">
        <ele>82</ele>
        <time>2020-09-13T07:17:57.000Z</time>
      </trkpt>
      <trkpt lat="47.07016" lon="-1.2485">
        <ele>82</ele>
        <time>2020-09-13T07:17:58.000Z</time>
      </trkpt>
      <trkpt lat="47.07018" lon="-1.24846">
        <ele>82</ele>
        <time>2020-09-13T07:18:00.000Z</time>
      </trkpt>
      <trkpt lat="47.07021" lon="-1.24841">
        <ele>83</ele>
        <time>2020-09-13T07:18:01.000Z</time>
      </trkpt>
      <trkpt lat="47.07024" lon="-1.24834">
        <ele>83</ele>
        <time>2020-09-13T07:18:02.000Z</time>
      </trkpt>
      <trkpt lat="47.07026" lon="-1.24827">
        <ele>83</ele>
        <time>2020-09-13T07:18:03.000Z</time>
      </trkpt>
      <trkpt lat="47.07029" lon="-1.2482">
        <ele>83</ele>
        <time>2020-09-13T07:18:04.000Z</time>
      </trkpt>
      <trkpt lat="47.07031" lon="-1.24812">
        <ele>83</ele>
        <time>2020-09-13T07:18:05.000Z</time>
      </trkpt>
      <trkpt lat="47.07033" lon="-1.24804">
        <ele>83</ele>
        <time>2020-09-13T07:18:06.000Z</time>
      </trkpt>
      <trkpt lat="47.07036" lon="-1.24797">
        <ele>83</ele>
        <time>2020-09-13T07:18:07.000Z</time>
      </trkpt>
      <trkpt lat="47.07038" lon="-1.24789">
        <ele>83</ele>
        <time>2020-09-13T07:18:09.000Z</time>
      </trkpt>
      <trkpt lat="47.07041" lon="-1.24781">
        <ele>83</ele>
        <time>2020-09-13T07:18:10.000Z</time>
      </trkpt>
      <trkpt lat="47.07044" lon="-1.24774">
        <ele>83</ele>
        <time>2020-09-13T07:18:11.000Z</time>
      </trkpt>
      <trkpt lat="47.07047" lon="-1.24766">
        <ele>82</ele>
        <time>2020-09-13T07:18:13.000Z</time>
      </trkpt>
      <trkpt lat="47.07051" lon="-1.24759">
        <ele>82</ele>
        <time>2020-09-13T07:18:14.000Z</time>
      </trkpt>
      <trkpt lat="47.07054" lon="-1.24751">
        <ele>82</ele>
        <time>2020-09-13T07:18:16.000Z</time>
      </trkpt>
      <trkpt lat="47.07057" lon="-1.24743">
        <ele>82</ele>
        <time>2020-09-13T07:18:17.000Z</time>
      </trkpt>
      <trkpt lat="47.07059" lon="-1.24735">
        <ele>82</ele>
        <time>2020-09-13T07:18:19.000Z</time>
      </trkpt>
      <trkpt lat="47.07062" lon="-1.24727">
        <ele>82</ele>
        <time>2020-09-13T07:18:20.000Z</time>
      </trkpt>
      <trkpt lat="47.07065" lon="-1.24719">
        <ele>82</ele>
        <time>2020-09-13T07:18:22.000Z</time>
      </trkpt>
      <trkpt lat="47.07071" lon="-1.24705">
        <ele>82</ele>
        <time>2020-09-13T07:18:25.000Z</time>
      </trkpt>
      <trkpt lat="47.07073" lon="-1.24701">
        <ele>82</ele>
        <time>2020-09-13T07:18:26.000Z</time>
      </trkpt>
      <trkpt lat="47.07078" lon="-1.24693">
        <ele>82</ele>
        <time>2020-09-13T07:18:28.000Z</time>
      </trkpt>
      <trkpt lat="47.07089" lon="-1.24681">
        <ele>82</ele>
        <time>2020-09-13T07:18:32.000Z</time>
      </trkpt>
      <trkpt lat="47.0709" lon="-1.24678">
        <ele>82</ele>
        <time>2020-09-13T07:18:33.000Z</time>
      </trkpt>
      <trkpt lat="47.0709" lon="-1.24677">
        <ele>82</ele>
        <time>2020-09-13T07:18:33.000Z</time>
      </trkpt>
      <trkpt lat="47.07089" lon="-1.24675">
        <ele>82</ele>
        <time>2020-09-13T07:18:34.000Z</time>
      </trkpt>
      <trkpt lat="47.07088" lon="-1.24673">
        <ele>82</ele>
        <time>2020-09-13T07:18:34.000Z</time>
      </trkpt>
      <trkpt lat="47.07087" lon="-1.24671">
        <ele>81</ele>
        <time>2020-09-13T07:18:35.000Z</time>
      </trkpt>
      <trkpt lat="47.07085" lon="-1.24668">
        <ele>81</ele>
        <time>2020-09-13T07:18:36.000Z</time>
      </trkpt>
      <trkpt lat="47.07082" lon="-1.24665">
        <ele>81</ele>
        <time>2020-09-13T07:18:37.000Z</time>
      </trkpt>
      <trkpt lat="47.07078" lon="-1.24663">
        <ele>81</ele>
        <time>2020-09-13T07:18:38.000Z</time>
      </trkpt>
      <trkpt lat="47.07073" lon="-1.24661">
        <ele>82</ele>
        <time>2020-09-13T07:18:40.000Z</time>
      </trkpt>
      <trkpt lat="47.07067" lon="-1.24659">
        <ele>82</ele>
        <time>2020-09-13T07:18:41.000Z</time>
      </trkpt>
      <trkpt lat="47.07062" lon="-1.24657">
        <ele>82</ele>
        <time>2020-09-13T07:18:43.000Z</time>
      </trkpt>
      <trkpt lat="47.07056" lon="-1.24656">
        <ele>82</ele>
        <time>2020-09-13T07:18:44.000Z</time>
      </trkpt>
      <trkpt lat="47.07051" lon="-1.24655">
        <ele>82</ele>
        <time>2020-09-13T07:18:45.000Z</time>
      </trkpt>
      <trkpt lat="47.07045" lon="-1.24655">
        <ele>82</ele>
        <time>2020-09-13T07:18:47.000Z</time>
      </trkpt>
      <trkpt lat="47.07039" lon="-1.24655">
        <ele>82</ele>
        <time>2020-09-13T07:18:48.000Z</time>
      </trkpt>
      <trkpt lat="47.07034" lon="-1.24654">
        <ele>82</ele>
        <time>2020-09-13T07:18:49.000Z</time>
      </trkpt>
      <trkpt lat="47.07028" lon="-1.24653">
        <ele>82</ele>
        <time>2020-09-13T07:18:50.000Z</time>
      </trkpt>
      <trkpt lat="47.07022" lon="-1.24652">
        <ele>83</ele>
        <time>2020-09-13T07:18:52.000Z</time>
      </trkpt>
      <trkpt lat="47.07017" lon="-1.24652">
        <ele>83</ele>
        <time>2020-09-13T07:18:53.000Z</time>
      </trkpt>
      <trkpt lat="47.07011" lon="-1.2465">
        <ele>83</ele>
        <time>2020-09-13T07:18:54.000Z</time>
      </trkpt>
      <trkpt lat="47.07005" lon="-1.24649">
        <ele>83</ele>
        <time>2020-09-13T07:18:56.000Z</time>
      </trkpt>
      <trkpt lat="47.06998" lon="-1.24648">
        <ele>82</ele>
        <time>2020-09-13T07:18:57.000Z</time>
      </trkpt>
      <trkpt lat="47.06992" lon="-1.24646">
        <ele>82</ele>
        <time>2020-09-13T07:18:59.000Z</time>
      </trkpt>
      <trkpt lat="47.06986" lon="-1.24645">
        <ele>82</ele>
        <time>2020-09-13T07:19:00.000Z</time>
      </trkpt>
      <trkpt lat="47.0698" lon="-1.24644">
        <ele>82</ele>
        <time>2020-09-13T07:19:02.000Z</time>
      </trkpt>
      <trkpt lat="47.06974" lon="-1.24643">
        <ele>82</ele>
        <time>2020-09-13T07:19:03.000Z</time>
      </trkpt>
      <trkpt lat="47.06968" lon="-1.24642">
        <ele>82</ele>
        <time>2020-09-13T07:19:05.000Z</time>
      </trkpt>
      <trkpt lat="47.0696" lon="-1.2464">
        <ele>82</ele>
        <time>2020-09-13T07:19:07.000Z</time>
      </trkpt>
      <trkpt lat="47.06956" lon="-1.24638">
        <ele>83</ele>
        <time>2020-09-13T07:19:08.000Z</time>
      </trkpt>
      <trkpt lat="47.06955" lon="-1.24637">
        <ele>83</ele>
        <time>2020-09-13T07:19:08.000Z</time>
      </trkpt>
      <trkpt lat="47.06954" lon="-1.24635">
        <ele>83</ele>
        <time>2020-09-13T07:19:09.000Z</time>
      </trkpt>
      <trkpt lat="47.06954" lon="-1.24633">
        <ele>83</ele>
        <time>2020-09-13T07:19:09.000Z</time>
      </trkpt>
      <trkpt lat="47.06954" lon="-1.2463">
        <ele>83</ele>
        <time>2020-09-13T07:19:10.000Z</time>
      </trkpt>
      <trkpt lat="47.06954" lon="-1.24628">
        <ele>83</ele>
        <time>2020-09-13T07:19:10.000Z</time>
      </trkpt>
      <trkpt lat="47.06955" lon="-1.24625">
        <ele>83</ele>
        <time>2020-09-13T07:19:11.000Z</time>
      </trkpt>
      <trkpt lat="47.06956" lon="-1.24623">
        <ele>83</ele>
        <time>2020-09-13T07:19:11.000Z</time>
      </trkpt>
      <trkpt lat="47.06957" lon="-1.2462">
        <ele>83</ele>
        <time>2020-09-13T07:19:12.000Z</time>
      </trkpt>
      <trkpt lat="47.06959" lon="-1.24617">
        <ele>84</ele>
        <time>2020-09-13T07:19:12.000Z</time>
      </trkpt>
      <trkpt lat="47.0696" lon="-1.24614">
        <ele>84</ele>
        <time>2020-09-13T07:19:13.000Z</time>
      </trkpt>
      <trkpt lat="47.06963" lon="-1.24608">
        <ele>84</ele>
        <time>2020-09-13T07:19:14.000Z</time>
      </trkpt>
      <trkpt lat="47.06966" lon="-1.246">
        <ele>84</ele>
        <time>2020-09-13T07:19:16.000Z</time>
      </trkpt>
      <trkpt lat="47.06969" lon="-1.24592">
        <ele>84</ele>
        <time>2020-09-13T07:19:17.000Z</time>
      </trkpt>
      <trkpt lat="47.06972" lon="-1.24583">
        <ele>84</ele>
        <time>2020-09-13T07:19:19.000Z</time>
      </trkpt>
      <trkpt lat="47.06974" lon="-1.24577">
        <ele>84</ele>
        <time>2020-09-13T07:19:20.000Z</time>
      </trkpt>
      <trkpt lat="47.06977" lon="-1.24571">
        <ele>84</ele>
        <time>2020-09-13T07:19:21.000Z</time>
      </trkpt>
      <trkpt lat="47.06979" lon="-1.24566">
        <ele>84</ele>
        <time>2020-09-13T07:19:23.000Z</time>
      </trkpt>
      <trkpt lat="47.06981" lon="-1.24561">
        <ele>84</ele>
        <time>2020-09-13T07:19:24.000Z</time>
      </trkpt>
      <trkpt lat="47.06982" lon="-1.24558">
        <ele>84</ele>
        <time>2020-09-13T07:19:24.000Z</time>
      </trkpt>
      <trkpt lat="47.06983" lon="-1.24556">
        <ele>84</ele>
        <time>2020-09-13T07:19:25.000Z</time>
      </trkpt>
      <trkpt lat="47.06984" lon="-1.24554">
        <ele>84</ele>
        <time>2020-09-13T07:19:25.000Z</time>
      </trkpt>
      <trkpt lat="47.06984" lon="-1.24552">
        <ele>84</ele>
        <time>2020-09-13T07:19:26.000Z</time>
      </trkpt>
      <trkpt lat="47.06985" lon="-1.24551">
        <ele>84</ele>
        <time>2020-09-13T07:19:26.000Z</time>
      </trkpt>
      <trkpt lat="47.06985" lon="-1.2455">
        <ele>84</ele>
        <time>2020-09-13T07:19:26.000Z</time>
      </trkpt>
      <trkpt lat="47.06985" lon="-1.24549">
        <ele>84</ele>
        <time>2020-09-13T07:19:27.000Z</time>
      </trkpt>
      <trkpt lat="47.06985" lon="-1.24548">
        <ele>85</ele>
        <time>2020-09-13T07:19:27.000Z</time>
      </trkpt>
      <trkpt lat="47.06987" lon="-1.24544">
        <ele>85</ele>
        <time>2020-09-13T07:19:28.000Z</time>
      </trkpt>
      <trkpt lat="47.0699" lon="-1.24536">
        <ele>85</ele>
        <time>2020-09-13T07:19:30.000Z</time>
      </trkpt>
      <trkpt lat="47.06994" lon="-1.24524">
        <ele>85</ele>
        <time>2020-09-13T07:19:33.000Z</time>
      </trkpt>
      <trkpt lat="47.06995" lon="-1.24521">
        <ele>85</ele>
        <time>2020-09-13T07:19:34.000Z</time>
      </trkpt>
      <trkpt lat="47.06997" lon="-1.24517">
        <ele>86</ele>
        <time>2020-09-13T07:19:35.000Z</time>
      </trkpt>
      <trkpt lat="47.06998" lon="-1.24514">
        <ele>86</ele>
        <time>2020-09-13T07:19:36.000Z</time>
      </trkpt>
      <trkpt lat="47.06999" lon="-1.2451">
        <ele>86</ele>
        <time>2020-09-13T07:19:37.000Z</time>
      </trkpt>
      <trkpt lat="47.07" lon="-1.24507">
        <ele>86</ele>
        <time>2020-09-13T07:19:38.000Z</time>
      </trkpt>
      <trkpt lat="47.07002" lon="-1.24503">
        <ele>86</ele>
        <time>2020-09-13T07:19:39.000Z</time>
      </trkpt>
      <trkpt lat="47.07005" lon="-1.24494">
        <ele>86</ele>
        <time>2020-09-13T07:19:41.000Z</time>
      </trkpt>
      <trkpt lat="47.07008" lon="-1.24486">
        <ele>86</ele>
        <time>2020-09-13T07:19:43.000Z</time>
      </trkpt>
      <trkpt lat="47.0701" lon="-1.24483">
        <ele>86</ele>
        <time>2020-09-13T07:19:44.000Z</time>
      </trkpt>
      <trkpt lat="47.07011" lon="-1.24479">
        <ele>86</ele>
        <time>2020-09-13T07:19:45.000Z</time>
      </trkpt>
      <trkpt lat="47.07012" lon="-1.24475">
        <ele>86</ele>
        <time>2020-09-13T07:19:46.000Z</time>
      </trkpt>
      <trkpt lat="47.07013" lon="-1.24472">
        <ele>87</ele>
        <time>2020-09-13T07:19:47.000Z</time>
      </trkpt>
      <trkpt lat="47.07016" lon="-1.24466">
        <ele>87</ele>
        <time>2020-09-13T07:19:49.000Z</time>
      </trkpt>
      <trkpt lat="47.07017" lon="-1.24463">
        <ele>87</ele>
        <time>2020-09-13T07:19:50.000Z</time>
      </trkpt>
      <trkpt lat="47.07018" lon="-1.24459">
        <ele>87</ele>
        <time>2020-09-13T07:19:51.000Z</time>
      </trkpt>
      <trkpt lat="47.07019" lon="-1.24456">
        <ele>87</ele>
        <time>2020-09-13T07:19:52.000Z</time>
      </trkpt>
      <trkpt lat="47.0702" lon="-1.24453">
        <ele>87</ele>
        <time>2020-09-13T07:19:53.000Z</time>
      </trkpt>
      <trkpt lat="47.07021" lon="-1.24451">
        <ele>87</ele>
        <time>2020-09-13T07:19:54.000Z</time>
      </trkpt>
      <trkpt lat="47.07022" lon="-1.24448">
        <ele>87</ele>
        <time>2020-09-13T07:19:55.000Z</time>
      </trkpt>
      <trkpt lat="47.07023" lon="-1.24445">
        <ele>87</ele>
        <time>2020-09-13T07:19:56.000Z</time>
      </trkpt>
      <trkpt lat="47.07026" lon="-1.2444">
        <ele>87</ele>
        <time>2020-09-13T07:19:58.000Z</time>
      </trkpt>
      <trkpt lat="47.07027" lon="-1.24438">
        <ele>87</ele>
        <time>2020-09-13T07:19:59.000Z</time>
      </trkpt>
      <trkpt lat="47.07028" lon="-1.24435">
        <ele>87</ele>
        <time>2020-09-13T07:20:00.000Z</time>
      </trkpt>
      <trkpt lat="47.07029" lon="-1.24432">
        <ele>87</ele>
        <time>2020-09-13T07:20:01.000Z</time>
      </trkpt>
      <trkpt lat="47.0703" lon="-1.24429">
        <ele>87</ele>
        <time>2020-09-13T07:20:02.000Z</time>
      </trkpt>
      <trkpt lat="47.07031" lon="-1.24426">
        <ele>88</ele>
        <time>2020-09-13T07:20:03.000Z</time>
      </trkpt>
      <trkpt lat="47.07032" lon="-1.24423">
        <ele>88</ele>
        <time>2020-09-13T07:20:04.000Z</time>
      </trkpt>
      <trkpt lat="47.07033" lon="-1.24421">
        <ele>88</ele>
        <time>2020-09-13T07:20:05.000Z</time>
      </trkpt>
      <trkpt lat="47.07034" lon="-1.24418">
        <ele>88</ele>
        <time>2020-09-13T07:20:06.000Z</time>
      </trkpt>
      <trkpt lat="47.07037" lon="-1.24413">
        <ele>88</ele>
        <time>2020-09-13T07:20:08.000Z</time>
      </trkpt>
      <trkpt lat="47.07038" lon="-1.24411">
        <ele>88</ele>
        <time>2020-09-13T07:20:09.000Z</time>
      </trkpt>
      <trkpt lat="47.07039" lon="-1.24408">
        <ele>88</ele>
        <time>2020-09-13T07:20:10.000Z</time>
      </trkpt>
      <trkpt lat="47.0704" lon="-1.24406">
        <ele>89</ele>
        <time>2020-09-13T07:20:11.000Z</time>
      </trkpt>
      <trkpt lat="47.07041" lon="-1.24403">
        <ele>89</ele>
        <time>2020-09-13T07:20:12.000Z</time>
      </trkpt>
      <trkpt lat="47.07043" lon="-1.244">
        <ele>89</ele>
        <time>2020-09-13T07:20:13.000Z</time>
      </trkpt>
      <trkpt lat="47.07044" lon="-1.24397">
        <ele>89</ele>
        <time>2020-09-13T07:20:14.000Z</time>
      </trkpt>
      <trkpt lat="47.07045" lon="-1.24395">
        <ele>89</ele>
        <time>2020-09-13T07:20:15.000Z</time>
      </trkpt>
      <trkpt lat="47.07048" lon="-1.24389">
        <ele>90</ele>
        <time>2020-09-13T07:20:17.000Z</time>
      </trkpt>
      <trkpt lat="47.07059" lon="-1.24365">
        <ele>91</ele>
        <time>2020-09-13T07:20:26.000Z</time>
      </trkpt>
      <trkpt lat="47.07071" lon="-1.24341">
        <ele>92</ele>
        <time>2020-09-13T07:20:35.000Z</time>
      </trkpt>
      <trkpt lat="47.07081" lon="-1.24311">
        <ele>92</ele>
        <time>2020-09-13T07:20:43.000Z</time>
      </trkpt>
      <trkpt lat="47.07093" lon="-1.24283">
        <ele>94</ele>
        <time>2020-09-13T07:20:51.000Z</time>
      </trkpt>
      <trkpt lat="47.07111" lon="-1.24264">
        <ele>95</ele>
        <time>2020-09-13T07:20:58.000Z</time>
      </trkpt>
      <trkpt lat="47.07127" lon="-1.24244">
        <ele>94</ele>
        <time>2020-09-13T07:21:05.000Z</time>
      </trkpt>
      <trkpt lat="47.07127" lon="-1.24238">
        <ele>94</ele>
        <time>2020-09-13T07:21:06.000Z</time>
      </trkpt>
      <trkpt lat="47.07125" lon="-1.24231">
        <ele>94</ele>
        <time>2020-09-13T07:21:08.000Z</time>
      </trkpt>
      <trkpt lat="47.07121" lon="-1.24224">
        <ele>93</ele>
        <time>2020-09-13T07:21:09.000Z</time>
      </trkpt>
      <trkpt lat="47.07118" lon="-1.24216">
        <ele>93</ele>
        <time>2020-09-13T07:21:11.000Z</time>
      </trkpt>
      <trkpt lat="47.07115" lon="-1.2421">
        <ele>93</ele>
        <time>2020-09-13T07:21:12.000Z</time>
      </trkpt>
      <trkpt lat="47.07112" lon="-1.24204">
        <ele>93</ele>
        <time>2020-09-13T07:21:14.000Z</time>
      </trkpt>
      <trkpt lat="47.07109" lon="-1.24198">
        <ele>92</ele>
        <time>2020-09-13T07:21:15.000Z</time>
      </trkpt>
      <trkpt lat="47.07105" lon="-1.24193">
        <ele>92</ele>
        <time>2020-09-13T07:21:17.000Z</time>
      </trkpt>
      <trkpt lat="47.07102" lon="-1.24187">
        <ele>92</ele>
        <time>2020-09-13T07:21:18.000Z</time>
      </trkpt>
      <trkpt lat="47.07098" lon="-1.2418">
        <ele>92</ele>
        <time>2020-09-13T07:21:20.000Z</time>
      </trkpt>
      <trkpt lat="47.07095" lon="-1.24174">
        <ele>92</ele>
        <time>2020-09-13T07:21:21.000Z</time>
      </trkpt>
      <trkpt lat="47.07091" lon="-1.24167">
        <ele>93</ele>
        <time>2020-09-13T07:21:23.000Z</time>
      </trkpt>
      <trkpt lat="47.07087" lon="-1.24161">
        <ele>93</ele>
        <time>2020-09-13T07:21:24.000Z</time>
      </trkpt>
      <trkpt lat="47.07084" lon="-1.24155">
        <ele>93</ele>
        <time>2020-09-13T07:21:26.000Z</time>
      </trkpt>
      <trkpt lat="47.0708" lon="-1.24149">
        <ele>93</ele>
        <time>2020-09-13T07:21:27.000Z</time>
      </trkpt>
      <trkpt lat="47.07077" lon="-1.24142">
        <ele>93</ele>
        <time>2020-09-13T07:21:29.000Z</time>
      </trkpt>
      <trkpt lat="47.07073" lon="-1.24136">
        <ele>93</ele>
        <time>2020-09-13T07:21:30.000Z</time>
      </trkpt>
      <trkpt lat="47.07069" lon="-1.2413">
        <ele>93</ele>
        <time>2020-09-13T07:21:32.000Z</time>
      </trkpt>
      <trkpt lat="47.07066" lon="-1.24125">
        <ele>93</ele>
        <time>2020-09-13T07:21:33.000Z</time>
      </trkpt>
      <trkpt lat="47.07063" lon="-1.24119">
        <ele>93</ele>
        <time>2020-09-13T07:21:35.000Z</time>
      </trkpt>
      <trkpt lat="47.07059" lon="-1.24112">
        <ele>93</ele>
        <time>2020-09-13T07:21:36.000Z</time>
      </trkpt>
      <trkpt lat="47.07055" lon="-1.24105">
        <ele>93</ele>
        <time>2020-09-13T07:21:38.000Z</time>
      </trkpt>
      <trkpt lat="47.07052" lon="-1.24097">
        <ele>93</ele>
        <time>2020-09-13T07:21:39.000Z</time>
      </trkpt>
      <trkpt lat="47.07048" lon="-1.24089">
        <ele>93</ele>
        <time>2020-09-13T07:21:41.000Z</time>
      </trkpt>
      <trkpt lat="47.07035" lon="-1.2406">
        <ele>93</ele>
        <time>2020-09-13T07:21:46.000Z</time>
      </trkpt>
      <trkpt lat="47.07019" lon="-1.24027">
        <ele>92</ele>
        <time>2020-09-13T07:21:51.000Z</time>
      </trkpt>
      <trkpt lat="47.07001" lon="-1.24">
        <ele>91</ele>
        <time>2020-09-13T07:21:55.000Z</time>
      </trkpt>
      <trkpt lat="47.06983" lon="-1.23968">
        <ele>90</ele>
        <time>2020-09-13T07:22:00.000Z</time>
      </trkpt>
      <trkpt lat="47.06974" lon="-1.23931">
        <ele>89</ele>
        <time>2020-09-13T07:22:04.000Z</time>
      </trkpt>
      <trkpt lat="47.06958" lon="-1.23894">
        <ele>88</ele>
        <time>2020-09-13T07:22:08.000Z</time>
      </trkpt>
      <trkpt lat="47.06948" lon="-1.23881">
        <ele>88</ele>
        <time>2020-09-13T07:22:10.000Z</time>
      </trkpt>
      <trkpt lat="47.06936" lon="-1.23871">
        <ele>89</ele>
        <time>2020-09-13T07:22:12.000Z</time>
      </trkpt>
      <trkpt lat="47.06931" lon="-1.23865">
        <ele>89</ele>
        <time>2020-09-13T07:22:13.000Z</time>
      </trkpt>
      <trkpt lat="47.06927" lon="-1.2386">
        <ele>89</ele>
        <time>2020-09-13T07:22:14.000Z</time>
      </trkpt>
      <trkpt lat="47.06924" lon="-1.23854">
        <ele>89</ele>
        <time>2020-09-13T07:22:15.000Z</time>
      </trkpt>
      <trkpt lat="47.0692" lon="-1.23849">
        <ele>89</ele>
        <time>2020-09-13T07:22:16.000Z</time>
      </trkpt>
      <trkpt lat="47.06917" lon="-1.23843">
        <ele>89</ele>
        <time>2020-09-13T07:22:17.000Z</time>
      </trkpt>
      <trkpt lat="47.06915" lon="-1.23838">
        <ele>89</ele>
        <time>2020-09-13T07:22:17.000Z</time>
      </trkpt>
      <trkpt lat="47.06913" lon="-1.23833">
        <ele>88</ele>
        <time>2020-09-13T07:22:18.000Z</time>
      </trkpt>
      <trkpt lat="47.06911" lon="-1.23828">
        <ele>88</ele>
        <time>2020-09-13T07:22:19.000Z</time>
      </trkpt>
      <trkpt lat="47.06909" lon="-1.23821">
        <ele>88</ele>
        <time>2020-09-13T07:22:20.000Z</time>
      </trkpt>
      <trkpt lat="47.06906" lon="-1.23814">
        <ele>88</ele>
        <time>2020-09-13T07:22:20.000Z</time>
      </trkpt>
      <trkpt lat="47.06903" lon="-1.23806">
        <ele>88</ele>
        <time>2020-09-13T07:22:21.000Z</time>
      </trkpt>
      <trkpt lat="47.069" lon="-1.23798">
        <ele>88</ele>
        <time>2020-09-13T07:22:22.000Z</time>
      </trkpt>
      <trkpt lat="47.06897" lon="-1.23791">
        <ele>88</ele>
        <time>2020-09-13T07:22:23.000Z</time>
      </trkpt>
      <trkpt lat="47.06895" lon="-1.23783">
        <ele>88</ele>
        <time>2020-09-13T07:22:24.000Z</time>
      </trkpt>
      <trkpt lat="47.06892" lon="-1.23776">
        <ele>88</ele>
        <time>2020-09-13T07:22:26.000Z</time>
      </trkpt>
      <trkpt lat="47.0689" lon="-1.23768">
        <ele>88</ele>
        <time>2020-09-13T07:22:27.000Z</time>
      </trkpt>
      <trkpt lat="47.06887" lon="-1.23761">
        <ele>88</ele>
        <time>2020-09-13T07:22:28.000Z</time>
      </trkpt>
      <trkpt lat="47.06884" lon="-1.23754">
        <ele>88</ele>
        <time>2020-09-13T07:22:30.000Z</time>
      </trkpt>
      <trkpt lat="47.0688" lon="-1.23748">
        <ele>88</ele>
        <time>2020-09-13T07:22:31.000Z</time>
      </trkpt>
      <trkpt lat="47.06877" lon="-1.23741">
        <ele>88</ele>
        <time>2020-09-13T07:22:33.000Z</time>
      </trkpt>
      <trkpt lat="47.06866" lon="-1.23718">
        <ele>89</ele>
        <time>2020-09-13T07:22:39.000Z</time>
      </trkpt>
      <trkpt lat="47.06855" lon="-1.23694">
        <ele>89</ele>
        <time>2020-09-13T07:22:47.000Z</time>
      </trkpt>
      <trkpt lat="47.06844" lon="-1.23675">
        <ele>90</ele>
        <time>2020-09-13T07:22:56.000Z</time>
      </trkpt>
      <trkpt lat="47.06831" lon="-1.23657">
        <ele>90</ele>
        <time>2020-09-13T07:23:06.000Z</time>
      </trkpt>
      <trkpt lat="47.06817" lon="-1.23634">
        <ele>91</ele>
        <time>2020-09-13T07:23:12.000Z</time>
      </trkpt>
      <trkpt lat="47.068" lon="-1.23608">
        <ele>91</ele>
        <time>2020-09-13T07:23:17.000Z</time>
      </trkpt>
      <trkpt lat="47.06779" lon="-1.23585">
        <ele>89</ele>
        <time>2020-09-13T07:23:22.000Z</time>
      </trkpt>
      <trkpt lat="47.06765" lon="-1.23556">
        <ele>87</ele>
        <time>2020-09-13T07:23:27.000Z</time>
      </trkpt>
      <trkpt lat="47.06748" lon="-1.23527">
        <ele>86</ele>
        <time>2020-09-13T07:23:31.000Z</time>
      </trkpt>
      <trkpt lat="47.06731" lon="-1.23502">
        <ele>85</ele>
        <time>2020-09-13T07:23:34.000Z</time>
      </trkpt>
      <trkpt lat="47.0671" lon="-1.23479">
        <ele>85</ele>
        <time>2020-09-13T07:23:39.000Z</time>
      </trkpt>
      <trkpt lat="47.06696" lon="-1.23458">
        <ele>84</ele>
        <time>2020-09-13T07:23:45.000Z</time>
      </trkpt>
      <trkpt lat="47.06685" lon="-1.23433">
        <ele>84</ele>
        <time>2020-09-13T07:23:53.000Z</time>
      </trkpt>
      <trkpt lat="47.06677" lon="-1.23401">
        <ele>84</ele>
        <time>2020-09-13T07:23:59.000Z</time>
      </trkpt>
      <trkpt lat="47.06672" lon="-1.23369">
        <ele>85</ele>
        <time>2020-09-13T07:24:04.000Z</time>
      </trkpt>
      <trkpt lat="47.06666" lon="-1.23336">
        <ele>85</ele>
        <time>2020-09-13T07:24:09.000Z</time>
      </trkpt>
      <trkpt lat="47.06659" lon="-1.23306">
        <ele>86</ele>
        <time>2020-09-13T07:24:14.000Z</time>
      </trkpt>
      <trkpt lat="47.06652" lon="-1.23276">
        <ele>86</ele>
        <time>2020-09-13T07:24:19.000Z</time>
      </trkpt>
      <trkpt lat="47.06651" lon="-1.2327">
        <ele>86</ele>
        <time>2020-09-13T07:24:20.000Z</time>
      </trkpt>
      <trkpt lat="47.06649" lon="-1.23263">
        <ele>87</ele>
        <time>2020-09-13T07:24:21.000Z</time>
      </trkpt>
      <trkpt lat="47.06647" lon="-1.23256">
        <ele>87</ele>
        <time>2020-09-13T07:24:22.000Z</time>
      </trkpt>
      <trkpt lat="47.06643" lon="-1.23245">
        <ele>87</ele>
        <time>2020-09-13T07:24:24.000Z</time>
      </trkpt>
      <trkpt lat="47.06632" lon="-1.23219">
        <ele>88</ele>
        <time>2020-09-13T07:24:29.000Z</time>
      </trkpt>
      <trkpt lat="47.06626" lon="-1.23188">
        <ele>89</ele>
        <time>2020-09-13T07:24:35.000Z</time>
      </trkpt>
      <trkpt lat="47.06626" lon="-1.2316">
        <ele>90</ele>
        <time>2020-09-13T07:24:39.000Z</time>
      </trkpt>
      <trkpt lat="47.0662" lon="-1.2313">
        <ele>90</ele>
        <time>2020-09-13T07:24:44.000Z</time>
      </trkpt>
      <trkpt lat="47.06614" lon="-1.23097">
        <ele>91</ele>
        <time>2020-09-13T07:24:50.000Z</time>
      </trkpt>
      <trkpt lat="47.06609" lon="-1.23067">
        <ele>91</ele>
        <time>2020-09-13T07:24:58.000Z</time>
      </trkpt>
      <trkpt lat="47.06609" lon="-1.23053">
        <ele>91</ele>
        <time>2020-09-13T07:25:01.000Z</time>
      </trkpt>
      <trkpt lat="47.06606" lon="-1.23039">
        <ele>92</ele>
        <time>2020-09-13T07:25:05.000Z</time>
      </trkpt>
      <trkpt lat="47.06598" lon="-1.23011">
        <ele>93</ele>
        <time>2020-09-13T07:25:13.000Z</time>
      </trkpt>
      <trkpt lat="47.06595" lon="-1.23007">
        <ele>93</ele>
        <time>2020-09-13T07:25:17.000Z</time>
      </trkpt>
      <trkpt lat="47.06592" lon="-1.23008">
        <ele>93</ele>
        <time>2020-09-13T07:25:19.000Z</time>
      </trkpt>
      <trkpt lat="47.06588" lon="-1.2301">
        <ele>93</ele>
        <time>2020-09-13T07:25:21.000Z</time>
      </trkpt>
      <trkpt lat="47.06583" lon="-1.23012">
        <ele>94</ele>
        <time>2020-09-13T07:25:23.000Z</time>
      </trkpt>
      <trkpt lat="47.06578" lon="-1.23015">
        <ele>94</ele>
        <time>2020-09-13T07:25:25.000Z</time>
      </trkpt>
      <trkpt lat="47.06573" lon="-1.23018">
        <ele>94</ele>
        <time>2020-09-13T07:25:26.000Z</time>
      </trkpt>
      <trkpt lat="47.06569" lon="-1.23022">
        <ele>94</ele>
        <time>2020-09-13T07:25:27.000Z</time>
      </trkpt>
      <trkpt lat="47.06564" lon="-1.23025">
        <ele>94</ele>
        <time>2020-09-13T07:25:28.000Z</time>
      </trkpt>
      <trkpt lat="47.06559" lon="-1.23029">
        <ele>95</ele>
        <time>2020-09-13T07:25:29.000Z</time>
      </trkpt>
      <trkpt lat="47.06553" lon="-1.23034">
        <ele>95</ele>
        <time>2020-09-13T07:25:30.000Z</time>
      </trkpt>
      <trkpt lat="47.06546" lon="-1.23038">
        <ele>95</ele>
        <time>2020-09-13T07:25:31.000Z</time>
      </trkpt>
      <trkpt lat="47.0654" lon="-1.23043">
        <ele>95</ele>
        <time>2020-09-13T07:25:32.000Z</time>
      </trkpt>
      <trkpt lat="47.06533" lon="-1.23048">
        <ele>95</ele>
        <time>2020-09-13T07:25:33.000Z</time>
      </trkpt>
      <trkpt lat="47.0653" lon="-1.23051">
        <ele>95</ele>
        <time>2020-09-13T07:25:33.000Z</time>
      </trkpt>
      <trkpt lat="47.06527" lon="-1.23052">
        <ele>95</ele>
        <time>2020-09-13T07:25:34.000Z</time>
      </trkpt>
      <trkpt lat="47.06525" lon="-1.23053">
        <ele>95</ele>
        <time>2020-09-13T07:25:34.000Z</time>
      </trkpt>
      <trkpt lat="47.06523" lon="-1.23054">
        <ele>95</ele>
        <time>2020-09-13T07:25:35.000Z</time>
      </trkpt>
      <trkpt lat="47.06517" lon="-1.23053">
        <ele>94</ele>
        <time>2020-09-13T07:25:36.000Z</time>
      </trkpt>
      <trkpt lat="47.06509" lon="-1.23052">
        <ele>94</ele>
        <time>2020-09-13T07:25:37.000Z</time>
      </trkpt>
      <trkpt lat="47.06504" lon="-1.23049">
        <ele>94</ele>
        <time>2020-09-13T07:25:38.000Z</time>
      </trkpt>
      <trkpt lat="47.06499" lon="-1.23045">
        <ele>94</ele>
        <time>2020-09-13T07:25:39.000Z</time>
      </trkpt>
      <trkpt lat="47.06493" lon="-1.2304">
        <ele>93</ele>
        <time>2020-09-13T07:25:40.000Z</time>
      </trkpt>
      <trkpt lat="47.06487" lon="-1.23035">
        <ele>93</ele>
        <time>2020-09-13T07:25:41.000Z</time>
      </trkpt>
      <trkpt lat="47.06482" lon="-1.23033">
        <ele>93</ele>
        <time>2020-09-13T07:25:42.000Z</time>
      </trkpt>
      <trkpt lat="47.06477" lon="-1.23032">
        <ele>92</ele>
        <time>2020-09-13T07:25:43.000Z</time>
      </trkpt>
      <trkpt lat="47.06472" lon="-1.23031">
        <ele>92</ele>
        <time>2020-09-13T07:25:45.000Z</time>
      </trkpt>
      <trkpt lat="47.06468" lon="-1.23031">
        <ele>92</ele>
        <time>2020-09-13T07:25:46.000Z</time>
      </trkpt>
      <trkpt lat="47.06464" lon="-1.2303">
        <ele>92</ele>
        <time>2020-09-13T07:25:47.000Z</time>
      </trkpt>
      <trkpt lat="47.06461" lon="-1.23029">
        <ele>91</ele>
        <time>2020-09-13T07:25:49.000Z</time>
      </trkpt>
      <trkpt lat="47.06457" lon="-1.23028">
        <ele>91</ele>
        <time>2020-09-13T07:25:50.000Z</time>
      </trkpt>
      <trkpt lat="47.06454" lon="-1.23027">
        <ele>90</ele>
        <time>2020-09-13T07:25:52.000Z</time>
      </trkpt>
      <trkpt lat="47.06451" lon="-1.23025">
        <ele>90</ele>
        <time>2020-09-13T07:25:53.000Z</time>
      </trkpt>
      <trkpt lat="47.06449" lon="-1.23023">
        <ele>90</ele>
        <time>2020-09-13T07:25:54.000Z</time>
      </trkpt>
      <trkpt lat="47.06446" lon="-1.23021">
        <ele>90</ele>
        <time>2020-09-13T07:25:55.000Z</time>
      </trkpt>
      <trkpt lat="47.06445" lon="-1.23018">
        <ele>89</ele>
        <time>2020-09-13T07:25:56.000Z</time>
      </trkpt>
      <trkpt lat="47.06443" lon="-1.23017">
        <ele>89</ele>
        <time>2020-09-13T07:25:57.000Z</time>
      </trkpt>
      <trkpt lat="47.06442" lon="-1.23015">
        <ele>89</ele>
        <time>2020-09-13T07:25:57.000Z</time>
      </trkpt>
      <trkpt lat="47.06441" lon="-1.23014">
        <ele>89</ele>
        <time>2020-09-13T07:25:58.000Z</time>
      </trkpt>
      <trkpt lat="47.06441" lon="-1.23013">
        <ele>89</ele>
        <time>2020-09-13T07:25:59.000Z</time>
      </trkpt>
      <trkpt lat="47.06438" lon="-1.23009">
        <ele>89</ele>
        <time>2020-09-13T07:26:01.000Z</time>
      </trkpt>
      <trkpt lat="47.06425" lon="-1.22993">
        <ele>88</ele>
        <time>2020-09-13T07:26:03.000Z</time>
      </trkpt>
      <trkpt lat="47.0641" lon="-1.22975">
        <ele>87</ele>
        <time>2020-09-13T07:26:07.000Z</time>
      </trkpt>
      <trkpt lat="47.06398" lon="-1.22963">
        <ele>87</ele>
        <time>2020-09-13T07:26:12.000Z</time>
      </trkpt>
      <trkpt lat="47.06382" lon="-1.22952">
        <ele>86</ele>
        <time>2020-09-13T07:26:17.000Z</time>
      </trkpt>
      <trkpt lat="47.06375" lon="-1.22943">
        <ele>87</ele>
        <time>2020-09-13T07:26:21.000Z</time>
      </trkpt>
      <trkpt lat="47.0637" lon="-1.22932">
        <ele>88</ele>
        <time>2020-09-13T07:26:25.000Z</time>
      </trkpt>
      <trkpt lat="47.06367" lon="-1.2292">
        <ele>89</ele>
        <time>2020-09-13T07:26:30.000Z</time>
      </trkpt>
      <trkpt lat="47.06362" lon="-1.22908">
        <ele>88</ele>
        <time>2020-09-13T07:26:34.000Z</time>
      </trkpt>
      <trkpt lat="47.06357" lon="-1.22901">
        <ele>88</ele>
        <time>2020-09-13T07:26:36.000Z</time>
      </trkpt>
      <trkpt lat="47.06339" lon="-1.22879">
        <ele>87</ele>
        <time>2020-09-13T07:26:38.000Z</time>
      </trkpt>
      <trkpt lat="47.06321" lon="-1.22859">
        <ele>86</ele>
        <time>2020-09-13T07:26:41.000Z</time>
      </trkpt>
      <trkpt lat="47.06301" lon="-1.22836">
        <ele>83</ele>
        <time>2020-09-13T07:26:45.000Z</time>
      </trkpt>
      <trkpt lat="47.06288" lon="-1.22821">
        <ele>82</ele>
        <time>2020-09-13T07:26:48.000Z</time>
      </trkpt>
      <trkpt lat="47.06282" lon="-1.22811">
        <ele>81</ele>
        <time>2020-09-13T07:26:50.000Z</time>
      </trkpt>
      <trkpt lat="47.06268" lon="-1.22787">
        <ele>81</ele>
        <time>2020-09-13T07:26:55.000Z</time>
      </trkpt>
      <trkpt lat="47.06265" lon="-1.22783">
        <ele>81</ele>
        <time>2020-09-13T07:26:56.000Z</time>
      </trkpt>
      <trkpt lat="47.06257" lon="-1.22773">
        <ele>82</ele>
        <time>2020-09-13T07:26:59.000Z</time>
      </trkpt>
      <trkpt lat="47.06253" lon="-1.22766">
        <ele>82</ele>
        <time>2020-09-13T07:27:01.000Z</time>
      </trkpt>
      <trkpt lat="47.06238" lon="-1.22739">
        <ele>82</ele>
        <time>2020-09-13T07:27:07.000Z</time>
      </trkpt>
      <trkpt lat="47.06225" lon="-1.22712">
        <ele>83</ele>
        <time>2020-09-13T07:27:12.000Z</time>
      </trkpt>
      <trkpt lat="47.06219" lon="-1.22683">
        <ele>82</ele>
        <time>2020-09-13T07:27:17.000Z</time>
      </trkpt>
      <trkpt lat="47.06213" lon="-1.22669">
        <ele>82</ele>
        <time>2020-09-13T07:27:20.000Z</time>
      </trkpt>
      <trkpt lat="47.06209" lon="-1.22664">
        <ele>82</ele>
        <time>2020-09-13T07:27:21.000Z</time>
      </trkpt>
      <trkpt lat="47.06205" lon="-1.2266">
        <ele>81</ele>
        <time>2020-09-13T07:27:22.000Z</time>
      </trkpt>
      <trkpt lat="47.06201" lon="-1.22656">
        <ele>81</ele>
        <time>2020-09-13T07:27:23.000Z</time>
      </trkpt>
      <trkpt lat="47.06197" lon="-1.22652">
        <ele>81</ele>
        <time>2020-09-13T07:27:24.000Z</time>
      </trkpt>
      <trkpt lat="47.06191" lon="-1.22647">
        <ele>81</ele>
        <time>2020-09-13T07:27:25.000Z</time>
      </trkpt>
      <trkpt lat="47.06186" lon="-1.22642">
        <ele>81</ele>
        <time>2020-09-13T07:27:26.000Z</time>
      </trkpt>
      <trkpt lat="47.06182" lon="-1.22635">
        <ele>81</ele>
        <time>2020-09-13T07:27:27.000Z</time>
      </trkpt>
      <trkpt lat="47.06177" lon="-1.22628">
        <ele>81</ele>
        <time>2020-09-13T07:27:28.000Z</time>
      </trkpt>
      <trkpt lat="47.06173" lon="-1.2262">
        <ele>81</ele>
        <time>2020-09-13T07:27:29.000Z</time>
      </trkpt>
      <trkpt lat="47.06168" lon="-1.22611">
        <ele>81</ele>
        <time>2020-09-13T07:27:30.000Z</time>
      </trkpt>
      <trkpt lat="47.06165" lon="-1.22606">
        <ele>81</ele>
        <time>2020-09-13T07:27:30.000Z</time>
      </trkpt>
      <trkpt lat="47.06163" lon="-1.22602">
        <ele>81</ele>
        <time>2020-09-13T07:27:31.000Z</time>
      </trkpt>
      <trkpt lat="47.06161" lon="-1.22599">
        <ele>80</ele>
        <time>2020-09-13T07:27:31.000Z</time>
      </trkpt>
      <trkpt lat="47.06159" lon="-1.22596">
        <ele>80</ele>
        <time>2020-09-13T07:27:32.000Z</time>
      </trkpt>
      <trkpt lat="47.06157" lon="-1.22592">
        <ele>80</ele>
        <time>2020-09-13T07:27:32.000Z</time>
      </trkpt>
      <trkpt lat="47.06155" lon="-1.2259">
        <ele>80</ele>
        <time>2020-09-13T07:27:33.000Z</time>
      </trkpt>
      <trkpt lat="47.06153" lon="-1.22587">
        <ele>80</ele>
        <time>2020-09-13T07:27:33.000Z</time>
      </trkpt>
      <trkpt lat="47.0615" lon="-1.22584">
        <ele>80</ele>
        <time>2020-09-13T07:27:34.000Z</time>
      </trkpt>
      <trkpt lat="47.06148" lon="-1.22582">
        <ele>80</ele>
        <time>2020-09-13T07:27:36.000Z</time>
      </trkpt>
      <trkpt lat="47.06145" lon="-1.22579">
        <ele>81</ele>
        <time>2020-09-13T07:27:38.000Z</time>
      </trkpt>
      <trkpt lat="47.06142" lon="-1.22577">
        <ele>81</ele>
        <time>2020-09-13T07:27:40.000Z</time>
      </trkpt>
      <trkpt lat="47.0614" lon="-1.22575">
        <ele>82</ele>
        <time>2020-09-13T07:27:42.000Z</time>
      </trkpt>
      <trkpt lat="47.06137" lon="-1.2257">
        <ele>82</ele>
        <time>2020-09-13T07:27:44.000Z</time>
      </trkpt>
      <trkpt lat="47.06136" lon="-1.22566">
        <ele>82</ele>
        <time>2020-09-13T07:27:47.000Z</time>
      </trkpt>
      <trkpt lat="47.06134" lon="-1.2256">
        <ele>82</ele>
        <time>2020-09-13T07:27:49.000Z</time>
      </trkpt>
      <trkpt lat="47.06131" lon="-1.22554">
        <ele>83</ele>
        <time>2020-09-13T07:27:50.000Z</time>
      </trkpt>
      <trkpt lat="47.06128" lon="-1.22546">
        <ele>83</ele>
        <time>2020-09-13T07:27:52.000Z</time>
      </trkpt>
      <trkpt lat="47.06125" lon="-1.22538">
        <ele>83</ele>
        <time>2020-09-13T07:27:54.000Z</time>
      </trkpt>
      <trkpt lat="47.06122" lon="-1.22532">
        <ele>83</ele>
        <time>2020-09-13T07:27:55.000Z</time>
      </trkpt>
      <trkpt lat="47.06119" lon="-1.22526">
        <ele>84</ele>
        <time>2020-09-13T07:27:57.000Z</time>
      </trkpt>
      <trkpt lat="47.06115" lon="-1.2252">
        <ele>84</ele>
        <time>2020-09-13T07:27:58.000Z</time>
      </trkpt>
      <trkpt lat="47.06112" lon="-1.22514">
        <ele>84</ele>
        <time>2020-09-13T07:28:00.000Z</time>
      </trkpt>
      <trkpt lat="47.06108" lon="-1.22508">
        <ele>84</ele>
        <time>2020-09-13T07:28:01.000Z</time>
      </trkpt>
      <trkpt lat="47.06104" lon="-1.22502">
        <ele>84</ele>
        <time>2020-09-13T07:28:02.000Z</time>
      </trkpt>
      <trkpt lat="47.061" lon="-1.22496">
        <ele>85</ele>
        <time>2020-09-13T07:28:04.000Z</time>
      </trkpt>
      <trkpt lat="47.06096" lon="-1.2249">
        <ele>85</ele>
        <time>2020-09-13T07:28:05.000Z</time>
      </trkpt>
      <trkpt lat="47.06092" lon="-1.22484">
        <ele>85</ele>
        <time>2020-09-13T07:28:06.000Z</time>
      </trkpt>
      <trkpt lat="47.06089" lon="-1.22478">
        <ele>85</ele>
        <time>2020-09-13T07:28:08.000Z</time>
      </trkpt>
      <trkpt lat="47.06086" lon="-1.22471">
        <ele>85</ele>
        <time>2020-09-13T07:28:09.000Z</time>
      </trkpt>
      <trkpt lat="47.06083" lon="-1.22465">
        <ele>85</ele>
        <time>2020-09-13T07:28:11.000Z</time>
      </trkpt>
      <trkpt lat="47.06081" lon="-1.22459">
        <ele>85</ele>
        <time>2020-09-13T07:28:12.000Z</time>
      </trkpt>
      <trkpt lat="47.06078" lon="-1.22453">
        <ele>85</ele>
        <time>2020-09-13T07:28:14.000Z</time>
      </trkpt>
      <trkpt lat="47.06076" lon="-1.22446">
        <ele>85</ele>
        <time>2020-09-13T07:28:15.000Z</time>
      </trkpt>
      <trkpt lat="47.06074" lon="-1.2244">
        <ele>85</ele>
        <time>2020-09-13T07:28:17.000Z</time>
      </trkpt>
      <trkpt lat="47.06074" lon="-1.2244">
        <ele>85</ele>
        <time>2020-09-13T07:28:17.000Z</time>
      </trkpt>
      <trkpt lat="47.06058" lon="-1.22412">
        <ele>87</ele>
        <time>2020-09-13T07:28:41.000Z</time>
      </trkpt>
      <trkpt lat="47.06043" lon="-1.2239">
        <ele>87</ele>
        <time>2020-09-13T07:28:48.000Z</time>
      </trkpt>
      <trkpt lat="47.06029" lon="-1.22372">
        <ele>81</ele>
        <time>2020-09-13T07:28:55.000Z</time>
      </trkpt>
      <trkpt lat="47.06019" lon="-1.22369">
        <ele>79</ele>
        <time>2020-09-13T07:28:59.000Z</time>
      </trkpt>
      <trkpt lat="47.06009" lon="-1.22368">
        <ele>77</ele>
        <time>2020-09-13T07:29:03.000Z</time>
      </trkpt>
      <trkpt lat="47.06009" lon="-1.22368">
        <ele>77</ele>
        <time>2020-09-13T07:29:03.000Z</time>
      </trkpt>
      <trkpt lat="47.05981" lon="-1.22362">
        <ele>79</ele>
        <time>2020-09-13T07:29:44.000Z</time>
      </trkpt>
      <trkpt lat="47.05959" lon="-1.22362">
        <ele>79</ele>
        <time>2020-09-13T07:29:52.000Z</time>
      </trkpt>
      <trkpt lat="47.05939" lon="-1.22371">
        <ele>81</ele>
        <time>2020-09-13T07:29:58.000Z</time>
      </trkpt>
      <trkpt lat="47.05923" lon="-1.22383">
        <ele>82</ele>
        <time>2020-09-13T07:30:04.000Z</time>
      </trkpt>
      <trkpt lat="47.05908" lon="-1.22395">
        <ele>82</ele>
        <time>2020-09-13T07:30:10.000Z</time>
      </trkpt>
      <trkpt lat="47.05908" lon="-1.22395">
        <ele>82</ele>
        <time>2020-09-13T07:30:10.000Z</time>
      </trkpt>
      <trkpt lat="47.05905" lon="-1.22426">
        <ele>87</ele>
        <time>2020-09-13T07:30:34.000Z</time>
      </trkpt>
      <trkpt lat="47.05909" lon="-1.22452">
        <ele>89</ele>
        <time>2020-09-13T07:30:42.000Z</time>
      </trkpt>
      <trkpt lat="47.05909" lon="-1.22452">
        <ele>89</ele>
        <time>2020-09-13T07:30:42.000Z</time>
      </trkpt>
      <trkpt lat="47.05894" lon="-1.22492">
        <ele>87</ele>
        <time>2020-09-13T07:31:07.000Z</time>
      </trkpt>
      <trkpt lat="47.05879" lon="-1.22499">
        <ele>87</ele>
        <time>2020-09-13T07:31:20.000Z</time>
      </trkpt>
      <trkpt lat="47.05863" lon="-1.22504">
        <ele>90</ele>
        <time>2020-09-13T07:31:32.000Z</time>
      </trkpt>
      <trkpt lat="47.05851" lon="-1.2251">
        <ele>92</ele>
        <time>2020-09-13T07:31:44.000Z</time>
      </trkpt>
      <trkpt lat="47.05839" lon="-1.22522">
        <ele>94</ele>
        <time>2020-09-13T07:31:54.000Z</time>
      </trkpt>
      <trkpt lat="47.0583" lon="-1.2253">
        <ele>96</ele>
        <time>2020-09-13T07:32:03.000Z</time>
      </trkpt>
      <trkpt lat="47.05819" lon="-1.22539">
        <ele>96</ele>
        <time>2020-09-13T07:32:11.000Z</time>
      </trkpt>
      <trkpt lat="47.05804" lon="-1.22543">
        <ele>99</ele>
        <time>2020-09-13T07:32:19.000Z</time>
      </trkpt>
      <trkpt lat="47.05789" lon="-1.22549">
        <ele>99</ele>
        <time>2020-09-13T07:32:28.000Z</time>
      </trkpt>
      <trkpt lat="47.0578" lon="-1.22548">
        <ele>99</ele>
        <time>2020-09-13T07:32:32.000Z</time>
      </trkpt>
      <trkpt lat="47.05771" lon="-1.22545">
        <ele>98</ele>
        <time>2020-09-13T07:32:37.000Z</time>
      </trkpt>
      <trkpt lat="47.05763" lon="-1.22548">
        <ele>97</ele>
        <time>2020-09-13T07:32:40.000Z</time>
      </trkpt>
      <trkpt lat="47.05755" lon="-1.22554">
        <ele>96</ele>
        <time>2020-09-13T07:32:43.000Z</time>
      </trkpt>
      <trkpt lat="47.05755" lon="-1.22554">
        <ele>96</ele>
        <time>2020-09-13T07:32:43.000Z</time>
      </trkpt>
      <trkpt lat="47.05755" lon="-1.22554">
        <ele>96</ele>
        <time>2020-09-13T07:32:43.000Z</time>
      </trkpt>
      <trkpt lat="47.05751" lon="-1.22538">
        <ele>94</ele>
        <time>2020-09-13T07:34:23.000Z</time>
      </trkpt>
      <trkpt lat="47.05751" lon="-1.22538">
        <ele>94</ele>
        <time>2020-09-13T07:34:23.000Z</time>
      </trkpt>
      <trkpt lat="47.05743" lon="-1.22511">
        <ele>89</ele>
        <time>2020-09-13T07:34:35.000Z</time>
      </trkpt>
      <trkpt lat="47.05755" lon="-1.22491">
        <ele>90</ele>
        <time>2020-09-13T07:34:47.000Z</time>
      </trkpt>
      <trkpt lat="47.05766" lon="-1.22467">
        <ele>89</ele>
        <time>2020-09-13T07:34:52.000Z</time>
      </trkpt>
      <trkpt lat="47.05766" lon="-1.22467">
        <ele>89</ele>
        <time>2020-09-13T07:34:52.000Z</time>
      </trkpt>
      <trkpt lat="47.05769" lon="-1.22447">
        <ele>86</ele>
        <time>2020-09-13T07:35:14.000Z</time>
      </trkpt>
      <trkpt lat="47.05749" lon="-1.22434">
        <ele>87</ele>
        <time>2020-09-13T07:35:24.000Z</time>
      </trkpt>
      <trkpt lat="47.05736" lon="-1.22433">
        <ele>87</ele>
        <time>2020-09-13T07:35:29.000Z</time>
      </trkpt>
      <trkpt lat="47.05734" lon="-1.22434">
        <ele>87</ele>
        <time>2020-09-13T07:35:30.000Z</time>
      </trkpt>
      <trkpt lat="47.05732" lon="-1.22436">
        <ele>87</ele>
        <time>2020-09-13T07:35:31.000Z</time>
      </trkpt>
      <trkpt lat="47.0573" lon="-1.22439">
        <ele>87</ele>
        <time>2020-09-13T07:35:32.000Z</time>
      </trkpt>
      <trkpt lat="47.05729" lon="-1.22442">
        <ele>87</ele>
        <time>2020-09-13T07:35:33.000Z</time>
      </trkpt>
      <trkpt lat="47.05725" lon="-1.22441">
        <ele>87</ele>
        <time>2020-09-13T07:35:35.000Z</time>
      </trkpt>
      <trkpt lat="47.05721" lon="-1.22437">
        <ele>87</ele>
        <time>2020-09-13T07:35:37.000Z</time>
      </trkpt>
      <trkpt lat="47.05717" lon="-1.22432">
        <ele>87</ele>
        <time>2020-09-13T07:35:39.000Z</time>
      </trkpt>
      <trkpt lat="47.05712" lon="-1.22427">
        <ele>87</ele>
        <time>2020-09-13T07:35:41.000Z</time>
      </trkpt>
      <trkpt lat="47.05711" lon="-1.2242">
        <ele>87</ele>
        <time>2020-09-13T07:35:43.000Z</time>
      </trkpt>
      <trkpt lat="47.05711" lon="-1.22413">
        <ele>86</ele>
        <time>2020-09-13T07:35:45.000Z</time>
      </trkpt>
      <trkpt lat="47.05711" lon="-1.22405">
        <ele>86</ele>
        <time>2020-09-13T07:35:48.000Z</time>
      </trkpt>
      <trkpt lat="47.05713" lon="-1.22396">
        <ele>85</ele>
        <time>2020-09-13T07:35:50.000Z</time>
      </trkpt>
      <trkpt lat="47.05713" lon="-1.22388">
        <ele>85</ele>
        <time>2020-09-13T07:35:52.000Z</time>
      </trkpt>
      <trkpt lat="47.05714" lon="-1.2238">
        <ele>85</ele>
        <time>2020-09-13T07:35:53.000Z</time>
      </trkpt>
      <trkpt lat="47.05715" lon="-1.22372">
        <ele>85</ele>
        <time>2020-09-13T07:35:55.000Z</time>
      </trkpt>
      <trkpt lat="47.05716" lon="-1.22363">
        <ele>85</ele>
        <time>2020-09-13T07:35:57.000Z</time>
      </trkpt>
      <trkpt lat="47.05716" lon="-1.22356">
        <ele>85</ele>
        <time>2020-09-13T07:35:59.000Z</time>
      </trkpt>
      <trkpt lat="47.05715" lon="-1.22348">
        <ele>85</ele>
        <time>2020-09-13T07:36:00.000Z</time>
      </trkpt>
      <trkpt lat="47.05714" lon="-1.2234">
        <ele>85</ele>
        <time>2020-09-13T07:36:02.000Z</time>
      </trkpt>
      <trkpt lat="47.05713" lon="-1.22332">
        <ele>85</ele>
        <time>2020-09-13T07:36:04.000Z</time>
      </trkpt>
      <trkpt lat="47.05713" lon="-1.22327">
        <ele>85</ele>
        <time>2020-09-13T07:36:05.000Z</time>
      </trkpt>
      <trkpt lat="47.05712" lon="-1.22322">
        <ele>85</ele>
        <time>2020-09-13T07:36:06.000Z</time>
      </trkpt>
      <trkpt lat="47.05711" lon="-1.22318">
        <ele>85</ele>
        <time>2020-09-13T07:36:07.000Z</time>
      </trkpt>
      <trkpt lat="47.05711" lon="-1.22315">
        <ele>85</ele>
        <time>2020-09-13T07:36:08.000Z</time>
      </trkpt>
      <trkpt lat="47.05708" lon="-1.22308">
        <ele>85</ele>
        <time>2020-09-13T07:36:09.000Z</time>
      </trkpt>
      <trkpt lat="47.05704" lon="-1.22303">
        <ele>85</ele>
        <time>2020-09-13T07:36:11.000Z</time>
      </trkpt>
      <trkpt lat="47.05701" lon="-1.22297">
        <ele>85</ele>
        <time>2020-09-13T07:36:12.000Z</time>
      </trkpt>
      <trkpt lat="47.05698" lon="-1.2229">
        <ele>85</ele>
        <time>2020-09-13T07:36:14.000Z</time>
      </trkpt>
      <trkpt lat="47.05694" lon="-1.22283">
        <ele>84</ele>
        <time>2020-09-13T07:36:15.000Z</time>
      </trkpt>
      <trkpt lat="47.0569" lon="-1.22275">
        <ele>84</ele>
        <time>2020-09-13T07:36:17.000Z</time>
      </trkpt>
      <trkpt lat="47.05687" lon="-1.2227">
        <ele>84</ele>
        <time>2020-09-13T07:36:18.000Z</time>
      </trkpt>
      <trkpt lat="47.05684" lon="-1.22266">
        <ele>84</ele>
        <time>2020-09-13T07:36:19.000Z</time>
      </trkpt>
      <trkpt lat="47.05681" lon="-1.22262">
        <ele>84</ele>
        <time>2020-09-13T07:36:20.000Z</time>
      </trkpt>
      <trkpt lat="47.05678" lon="-1.22259">
        <ele>84</ele>
        <time>2020-09-13T07:36:21.000Z</time>
      </trkpt>
      <trkpt lat="47.05676" lon="-1.22256">
        <ele>84</ele>
        <time>2020-09-13T07:36:21.000Z</time>
      </trkpt>
      <trkpt lat="47.05674" lon="-1.22254">
        <ele>84</ele>
        <time>2020-09-13T07:36:22.000Z</time>
      </trkpt>
      <trkpt lat="47.05674" lon="-1.22252">
        <ele>84</ele>
        <time>2020-09-13T07:36:22.000Z</time>
      </trkpt>
      <trkpt lat="47.05672" lon="-1.2225">
        <ele>84</ele>
        <time>2020-09-13T07:36:23.000Z</time>
      </trkpt>
      <trkpt lat="47.0567" lon="-1.22247">
        <ele>84</ele>
        <time>2020-09-13T07:36:24.000Z</time>
      </trkpt>
      <trkpt lat="47.05668" lon="-1.22243">
        <ele>84</ele>
        <time>2020-09-13T07:36:25.000Z</time>
      </trkpt>
      <trkpt lat="47.05665" lon="-1.22238">
        <ele>83</ele>
        <time>2020-09-13T07:36:26.000Z</time>
      </trkpt>
      <trkpt lat="47.05662" lon="-1.22234">
        <ele>83</ele>
        <time>2020-09-13T07:36:27.000Z</time>
      </trkpt>
      <trkpt lat="47.0566" lon="-1.22231">
        <ele>83</ele>
        <time>2020-09-13T07:36:27.000Z</time>
      </trkpt>
      <trkpt lat="47.05659" lon="-1.22229">
        <ele>83</ele>
        <time>2020-09-13T07:36:28.000Z</time>
      </trkpt>
      <trkpt lat="47.05658" lon="-1.22227">
        <ele>83</ele>
        <time>2020-09-13T07:36:28.000Z</time>
      </trkpt>
      <trkpt lat="47.05656" lon="-1.22225">
        <ele>83</ele>
        <time>2020-09-13T07:36:29.000Z</time>
      </trkpt>
      <trkpt lat="47.05649" lon="-1.22207">
        <ele>84</ele>
        <time>2020-09-13T07:36:33.000Z</time>
      </trkpt>
      <trkpt lat="47.05644" lon="-1.22198">
        <ele>84</ele>
        <time>2020-09-13T07:36:35.000Z</time>
      </trkpt>
      <trkpt lat="47.05627" lon="-1.22169">
        <ele>84</ele>
        <time>2020-09-13T07:36:40.000Z</time>
      </trkpt>
      <trkpt lat="47.0561" lon="-1.22143">
        <ele>84</ele>
        <time>2020-09-13T07:36:44.000Z</time>
      </trkpt>
      <trkpt lat="47.05593" lon="-1.22121">
        <ele>82</ele>
        <time>2020-09-13T07:36:48.000Z</time>
      </trkpt>
      <trkpt lat="47.05572" lon="-1.22109">
        <ele>81</ele>
        <time>2020-09-13T07:36:53.000Z</time>
      </trkpt>
      <trkpt lat="47.05552" lon="-1.2209">
        <ele>81</ele>
        <time>2020-09-13T07:36:57.000Z</time>
      </trkpt>
      <trkpt lat="47.05533" lon="-1.22079">
        <ele>81</ele>
        <time>2020-09-13T07:37:02.000Z</time>
      </trkpt>
      <trkpt lat="47.05523" lon="-1.22079">
        <ele>81</ele>
        <time>2020-09-13T07:37:05.000Z</time>
      </trkpt>
      <trkpt lat="47.05511" lon="-1.22083">
        <ele>82</ele>
        <time>2020-09-13T07:37:08.000Z</time>
      </trkpt>
      <trkpt lat="47.05506" lon="-1.22085">
        <ele>82</ele>
        <time>2020-09-13T07:37:09.000Z</time>
      </trkpt>
      <trkpt lat="47.05502" lon="-1.22088">
        <ele>82</ele>
        <time>2020-09-13T07:37:10.000Z</time>
      </trkpt>
      <trkpt lat="47.05498" lon="-1.22091">
        <ele>82</ele>
        <time>2020-09-13T07:37:12.000Z</time>
      </trkpt>
      <trkpt lat="47.05494" lon="-1.22095">
        <ele>82</ele>
        <time>2020-09-13T07:37:13.000Z</time>
      </trkpt>
      <trkpt lat="47.0549" lon="-1.22098">
        <ele>82</ele>
        <time>2020-09-13T07:37:14.000Z</time>
      </trkpt>
      <trkpt lat="47.05486" lon="-1.22102">
        <ele>82</ele>
        <time>2020-09-13T07:37:15.000Z</time>
      </trkpt>
      <trkpt lat="47.05481" lon="-1.22105">
        <ele>82</ele>
        <time>2020-09-13T07:37:17.000Z</time>
      </trkpt>
      <trkpt lat="47.05477" lon="-1.22109">
        <ele>82</ele>
        <time>2020-09-13T07:37:18.000Z</time>
      </trkpt>
      <trkpt lat="47.05472" lon="-1.22109">
        <ele>83</ele>
        <time>2020-09-13T07:37:19.000Z</time>
      </trkpt>
      <trkpt lat="47.05466" lon="-1.22107">
        <ele>83</ele>
        <time>2020-09-13T07:37:20.000Z</time>
      </trkpt>
      <trkpt lat="47.0546" lon="-1.22105">
        <ele>83</ele>
        <time>2020-09-13T07:37:22.000Z</time>
      </trkpt>
      <trkpt lat="47.05454" lon="-1.22101">
        <ele>83</ele>
        <time>2020-09-13T07:37:23.000Z</time>
      </trkpt>
      <trkpt lat="47.05449" lon="-1.22099">
        <ele>83</ele>
        <time>2020-09-13T07:37:24.000Z</time>
      </trkpt>
      <trkpt lat="47.05445" lon="-1.22096">
        <ele>83</ele>
        <time>2020-09-13T07:37:25.000Z</time>
      </trkpt>
      <trkpt lat="47.05441" lon="-1.22093">
        <ele>83</ele>
        <time>2020-09-13T07:37:27.000Z</time>
      </trkpt>
      <trkpt lat="47.05437" lon="-1.2209">
        <ele>83</ele>
        <time>2020-09-13T07:37:28.000Z</time>
      </trkpt>
      <trkpt lat="47.05434" lon="-1.22085">
        <ele>84</ele>
        <time>2020-09-13T07:37:30.000Z</time>
      </trkpt>
      <trkpt lat="47.0543" lon="-1.2208">
        <ele>84</ele>
        <time>2020-09-13T07:37:31.000Z</time>
      </trkpt>
      <trkpt lat="47.05427" lon="-1.22075">
        <ele>84</ele>
        <time>2020-09-13T07:37:33.000Z</time>
      </trkpt>
      <trkpt lat="47.05424" lon="-1.22069">
        <ele>84</ele>
        <time>2020-09-13T07:37:35.000Z</time>
      </trkpt>
      <trkpt lat="47.0542" lon="-1.22065">
        <ele>84</ele>
        <time>2020-09-13T07:37:36.000Z</time>
      </trkpt>
      <trkpt lat="47.05417" lon="-1.2206">
        <ele>85</ele>
        <time>2020-09-13T07:37:38.000Z</time>
      </trkpt>
      <trkpt lat="47.05413" lon="-1.22056">
        <ele>85</ele>
        <time>2020-09-13T07:37:39.000Z</time>
      </trkpt>
      <trkpt lat="47.0541" lon="-1.22052">
        <ele>86</ele>
        <time>2020-09-13T07:37:41.000Z</time>
      </trkpt>
      <trkpt lat="47.05406" lon="-1.22047">
        <ele>86</ele>
        <time>2020-09-13T07:37:42.000Z</time>
      </trkpt>
      <trkpt lat="47.05403" lon="-1.22042">
        <ele>86</ele>
        <time>2020-09-13T07:37:43.000Z</time>
      </trkpt>
      <trkpt lat="47.054" lon="-1.22037">
        <ele>86</ele>
        <time>2020-09-13T07:37:45.000Z</time>
      </trkpt>
      <trkpt lat="47.05396" lon="-1.22032">
        <ele>86</ele>
        <time>2020-09-13T07:37:46.000Z</time>
      </trkpt>
      <trkpt lat="47.05392" lon="-1.22026">
        <ele>86</ele>
        <time>2020-09-13T07:37:47.000Z</time>
      </trkpt>
      <trkpt lat="47.05389" lon="-1.2202">
        <ele>86</ele>
        <time>2020-09-13T07:37:48.000Z</time>
      </trkpt>
      <trkpt lat="47.05385" lon="-1.22013">
        <ele>86</ele>
        <time>2020-09-13T07:37:50.000Z</time>
      </trkpt>
      <trkpt lat="47.05381" lon="-1.22007">
        <ele>86</ele>
        <time>2020-09-13T07:37:51.000Z</time>
      </trkpt>
      <trkpt lat="47.0537" lon="-1.21972">
        <ele>85</ele>
        <time>2020-09-13T07:37:56.000Z</time>
      </trkpt>
      <trkpt lat="47.05365" lon="-1.21945">
        <ele>84</ele>
        <time>2020-09-13T07:38:02.000Z</time>
      </trkpt>
      <trkpt lat="47.05367" lon="-1.21931">
        <ele>84</ele>
        <time>2020-09-13T07:38:05.000Z</time>
      </trkpt>
      <trkpt lat="47.05369" lon="-1.21917">
        <ele>85</ele>
        <time>2020-09-13T07:38:08.000Z</time>
      </trkpt>
      <trkpt lat="47.05369" lon="-1.2191">
        <ele>85</ele>
        <time>2020-09-13T07:38:09.000Z</time>
      </trkpt>
      <trkpt lat="47.05369" lon="-1.21902">
        <ele>85</ele>
        <time>2020-09-13T07:38:10.000Z</time>
      </trkpt>
      <trkpt lat="47.05368" lon="-1.21895">
        <ele>85</ele>
        <time>2020-09-13T07:38:12.000Z</time>
      </trkpt>
      <trkpt lat="47.05367" lon="-1.21888">
        <ele>85</ele>
        <time>2020-09-13T07:38:13.000Z</time>
      </trkpt>
      <trkpt lat="47.05367" lon="-1.2188">
        <ele>85</ele>
        <time>2020-09-13T07:38:14.000Z</time>
      </trkpt>
      <trkpt lat="47.05366" lon="-1.21872">
        <ele>84</ele>
        <time>2020-09-13T07:38:15.000Z</time>
      </trkpt>
      <trkpt lat="47.05365" lon="-1.21864">
        <ele>84</ele>
        <time>2020-09-13T07:38:16.000Z</time>
      </trkpt>
      <trkpt lat="47.05363" lon="-1.21856">
        <ele>84</ele>
        <time>2020-09-13T07:38:17.000Z</time>
      </trkpt>
      <trkpt lat="47.05362" lon="-1.21847">
        <ele>84</ele>
        <time>2020-09-13T07:38:18.000Z</time>
      </trkpt>
      <trkpt lat="47.05362" lon="-1.21839">
        <ele>83</ele>
        <time>2020-09-13T07:38:19.000Z</time>
      </trkpt>
      <trkpt lat="47.0536" lon="-1.2183">
        <ele>83</ele>
        <time>2020-09-13T07:38:21.000Z</time>
      </trkpt>
      <trkpt lat="47.0536" lon="-1.21821">
        <ele>83</ele>
        <time>2020-09-13T07:38:22.000Z</time>
      </trkpt>
      <trkpt lat="47.05359" lon="-1.21815">
        <ele>82</ele>
        <time>2020-09-13T07:38:23.000Z</time>
      </trkpt>
      <trkpt lat="47.05358" lon="-1.2181">
        <ele>82</ele>
        <time>2020-09-13T07:38:23.000Z</time>
      </trkpt>
      <trkpt lat="47.05358" lon="-1.21806">
        <ele>82</ele>
        <time>2020-09-13T07:38:24.000Z</time>
      </trkpt>
      <trkpt lat="47.05357" lon="-1.21801">
        <ele>83</ele>
        <time>2020-09-13T07:38:25.000Z</time>
      </trkpt>
      <trkpt lat="47.05357" lon="-1.21798">
        <ele>82</ele>
        <time>2020-09-13T07:38:25.000Z</time>
      </trkpt>
      <trkpt lat="47.05357" lon="-1.21794">
        <ele>82</ele>
        <time>2020-09-13T07:38:26.000Z</time>
      </trkpt>
      <trkpt lat="47.05356" lon="-1.21791">
        <ele>82</ele>
        <time>2020-09-13T07:38:26.000Z</time>
      </trkpt>
      <trkpt lat="47.05356" lon="-1.21788">
        <ele>82</ele>
        <time>2020-09-13T07:38:27.000Z</time>
      </trkpt>
      <trkpt lat="47.05355" lon="-1.21781">
        <ele>82</ele>
        <time>2020-09-13T07:38:28.000Z</time>
      </trkpt>
      <trkpt lat="47.05354" lon="-1.21774">
        <ele>81</ele>
        <time>2020-09-13T07:38:29.000Z</time>
      </trkpt>
      <trkpt lat="47.05353" lon="-1.21768">
        <ele>81</ele>
        <time>2020-09-13T07:38:30.000Z</time>
      </trkpt>
      <trkpt lat="47.0535" lon="-1.21755">
        <ele>81</ele>
        <time>2020-09-13T07:38:32.000Z</time>
      </trkpt>
      <trkpt lat="47.05342" lon="-1.21723">
        <ele>80</ele>
        <time>2020-09-13T07:38:37.000Z</time>
      </trkpt>
      <trkpt lat="47.05337" lon="-1.21711">
        <ele>80</ele>
        <time>2020-09-13T07:38:39.000Z</time>
      </trkpt>
      <trkpt lat="47.05329" lon="-1.21691">
        <ele>80</ele>
        <time>2020-09-13T07:38:42.000Z</time>
      </trkpt>
      <trkpt lat="47.05318" lon="-1.2166">
        <ele>80</ele>
        <time>2020-09-13T07:38:47.000Z</time>
      </trkpt>
      <trkpt lat="47.05307" lon="-1.21631">
        <ele>80</ele>
        <time>2020-09-13T07:38:52.000Z</time>
      </trkpt>
      <trkpt lat="47.05302" lon="-1.21594">
        <ele>80</ele>
        <time>2020-09-13T07:38:57.000Z</time>
      </trkpt>
      <trkpt lat="47.053" lon="-1.21588">
        <ele>80</ele>
        <time>2020-09-13T07:38:58.000Z</time>
      </trkpt>
      <trkpt lat="47.05297" lon="-1.21582">
        <ele>80</ele>
        <time>2020-09-13T07:38:59.000Z</time>
      </trkpt>
      <trkpt lat="47.05294" lon="-1.21577">
        <ele>80</ele>
        <time>2020-09-13T07:39:00.000Z</time>
      </trkpt>
      <trkpt lat="47.05289" lon="-1.21574">
        <ele>80</ele>
        <time>2020-09-13T07:39:01.000Z</time>
      </trkpt>
      <trkpt lat="47.05284" lon="-1.21572">
        <ele>81</ele>
        <time>2020-09-13T07:39:02.000Z</time>
      </trkpt>
      <trkpt lat="47.05281" lon="-1.21572">
        <ele>81</ele>
        <time>2020-09-13T07:39:03.000Z</time>
      </trkpt>
      <trkpt lat="47.05276" lon="-1.21572">
        <ele>81</ele>
        <time>2020-09-13T07:39:04.000Z</time>
      </trkpt>
      <trkpt lat="47.05272" lon="-1.21573">
        <ele>82</ele>
        <time>2020-09-13T07:39:06.000Z</time>
      </trkpt>
      <trkpt lat="47.05267" lon="-1.21574">
        <ele>82</ele>
        <time>2020-09-13T07:39:07.000Z</time>
      </trkpt>
      <trkpt lat="47.05262" lon="-1.21575">
        <ele>83</ele>
        <time>2020-09-13T07:39:08.000Z</time>
      </trkpt>
      <trkpt lat="47.05258" lon="-1.21578">
        <ele>83</ele>
        <time>2020-09-13T07:39:09.000Z</time>
      </trkpt>
      <trkpt lat="47.05254" lon="-1.2158">
        <ele>84</ele>
        <time>2020-09-13T07:39:11.000Z</time>
      </trkpt>
      <trkpt lat="47.0525" lon="-1.21583">
        <ele>84</ele>
        <time>2020-09-13T07:39:12.000Z</time>
      </trkpt>
      <trkpt lat="47.05245" lon="-1.21583">
        <ele>85</ele>
        <time>2020-09-13T07:39:13.000Z</time>
      </trkpt>
      <trkpt lat="47.0524" lon="-1.21583">
        <ele>85</ele>
        <time>2020-09-13T07:39:15.000Z</time>
      </trkpt>
      <trkpt lat="47.05235" lon="-1.21582">
        <ele>85</ele>
        <time>2020-09-13T07:39:16.000Z</time>
      </trkpt>
      <trkpt lat="47.0523" lon="-1.21581">
        <ele>85</ele>
        <time>2020-09-13T07:39:18.000Z</time>
      </trkpt>
      <trkpt lat="47.0523" lon="-1.21581">
        <ele>85</ele>
        <time>2020-09-13T07:39:18.000Z</time>
      </trkpt>
      <trkpt lat="47.05198" lon="-1.21565">
        <ele>83</ele>
        <time>2020-09-13T07:39:35.000Z</time>
      </trkpt>
      <trkpt lat="47.05176" lon="-1.21555">
        <ele>82</ele>
        <time>2020-09-13T07:39:45.000Z</time>
      </trkpt>
      <trkpt lat="47.05158" lon="-1.2154">
        <ele>82</ele>
        <time>2020-09-13T07:39:51.000Z</time>
      </trkpt>
      <trkpt lat="47.05144" lon="-1.21517">
        <ele>82</ele>
        <time>2020-09-13T07:39:56.000Z</time>
      </trkpt>
      <trkpt lat="47.05132" lon="-1.21498">
        <ele>83</ele>
        <time>2020-09-13T07:40:01.000Z</time>
      </trkpt>
      <trkpt lat="47.05116" lon="-1.21476">
        <ele>82</ele>
        <time>2020-09-13T07:40:06.000Z</time>
      </trkpt>
      <trkpt lat="47.05104" lon="-1.21459">
        <ele>82</ele>
        <time>2020-09-13T07:40:11.000Z</time>
      </trkpt>
      <trkpt lat="47.05088" lon="-1.21449">
        <ele>84</ele>
        <time>2020-09-13T07:40:17.000Z</time>
      </trkpt>
      <trkpt lat="47.05075" lon="-1.21443">
        <ele>86</ele>
        <time>2020-09-13T07:40:22.000Z</time>
      </trkpt>
      <trkpt lat="47.05065" lon="-1.21432">
        <ele>87</ele>
        <time>2020-09-13T07:40:26.000Z</time>
      </trkpt>
      <trkpt lat="47.05061" lon="-1.21425">
        <ele>87</ele>
        <time>2020-09-13T07:40:29.000Z</time>
      </trkpt>
      <trkpt lat="47.05059" lon="-1.21419">
        <ele>87</ele>
        <time>2020-09-13T07:40:31.000Z</time>
      </trkpt>
      <trkpt lat="47.05049" lon="-1.2139">
        <ele>87</ele>
        <time>2020-09-13T07:40:33.000Z</time>
      </trkpt>
      <trkpt lat="47.05037" lon="-1.21367">
        <ele>87</ele>
        <time>2020-09-13T07:40:37.000Z</time>
      </trkpt>
      <trkpt lat="47.05027" lon="-1.21349">
        <ele>86</ele>
        <time>2020-09-13T07:40:42.000Z</time>
      </trkpt>
      <trkpt lat="47.05018" lon="-1.21329">
        <ele>85</ele>
        <time>2020-09-13T07:40:47.000Z</time>
      </trkpt>
      <trkpt lat="47.05011" lon="-1.21306">
        <ele>87</ele>
        <time>2020-09-13T07:40:52.000Z</time>
      </trkpt>
      <trkpt lat="47.05002" lon="-1.2128">
        <ele>88</ele>
        <time>2020-09-13T07:40:57.000Z</time>
      </trkpt>
      <trkpt lat="47.04995" lon="-1.21256">
        <ele>90</ele>
        <time>2020-09-13T07:41:03.000Z</time>
      </trkpt>
      <trkpt lat="47.04988" lon="-1.21231">
        <ele>91</ele>
        <time>2020-09-13T07:41:11.000Z</time>
      </trkpt>
      <trkpt lat="47.04984" lon="-1.21211">
        <ele>95</ele>
        <time>2020-09-13T07:41:24.000Z</time>
      </trkpt>
      <trkpt lat="47.04984" lon="-1.21201">
        <ele>96</ele>
        <time>2020-09-13T07:41:28.000Z</time>
      </trkpt>
      <trkpt lat="47.04987" lon="-1.21191">
        <ele>97</ele>
        <time>2020-09-13T07:41:32.000Z</time>
      </trkpt>
      <trkpt lat="47.04988" lon="-1.21186">
        <ele>97</ele>
        <time>2020-09-13T07:41:32.000Z</time>
      </trkpt>
      <trkpt lat="47.04989" lon="-1.21181">
        <ele>97</ele>
        <time>2020-09-13T07:41:33.000Z</time>
      </trkpt>
      <trkpt lat="47.04991" lon="-1.21176">
        <ele>97</ele>
        <time>2020-09-13T07:41:33.000Z</time>
      </trkpt>
      <trkpt lat="47.04993" lon="-1.21171">
        <ele>97</ele>
        <time>2020-09-13T07:41:34.000Z</time>
      </trkpt>
      <trkpt lat="47.04995" lon="-1.21164">
        <ele>97</ele>
        <time>2020-09-13T07:41:34.000Z</time>
      </trkpt>
      <trkpt lat="47.04998" lon="-1.21156">
        <ele>97</ele>
        <time>2020-09-13T07:41:35.000Z</time>
      </trkpt>
      <trkpt lat="47.05001" lon="-1.21147">
        <ele>97</ele>
        <time>2020-09-13T07:41:35.000Z</time>
      </trkpt>
      <trkpt lat="47.05003" lon="-1.21138">
        <ele>97</ele>
        <time>2020-09-13T07:41:36.000Z</time>
      </trkpt>
      <trkpt lat="47.05006" lon="-1.21132">
        <ele>97</ele>
        <time>2020-09-13T07:41:37.000Z</time>
      </trkpt>
      <trkpt lat="47.0501" lon="-1.21126">
        <ele>97</ele>
        <time>2020-09-13T07:41:38.000Z</time>
      </trkpt>
      <trkpt lat="47.05013" lon="-1.2112">
        <ele>97</ele>
        <time>2020-09-13T07:41:39.000Z</time>
      </trkpt>
      <trkpt lat="47.05016" lon="-1.21115">
        <ele>97</ele>
        <time>2020-09-13T07:41:40.000Z</time>
      </trkpt>
      <trkpt lat="47.0502" lon="-1.21112">
        <ele>97</ele>
        <time>2020-09-13T07:41:41.000Z</time>
      </trkpt>
      <trkpt lat="47.05024" lon="-1.2111">
        <ele>97</ele>
        <time>2020-09-13T07:41:42.000Z</time>
      </trkpt>
      <trkpt lat="47.05028" lon="-1.2111">
        <ele>97</ele>
        <time>2020-09-13T07:41:44.000Z</time>
      </trkpt>
      <trkpt lat="47.05032" lon="-1.2111">
        <ele>97</ele>
        <time>2020-09-13T07:41:45.000Z</time>
      </trkpt>
      <trkpt lat="47.05036" lon="-1.21109">
        <ele>97</ele>
        <time>2020-09-13T07:41:46.000Z</time>
      </trkpt>
      <trkpt lat="47.05041" lon="-1.21108">
        <ele>97</ele>
        <time>2020-09-13T07:41:48.000Z</time>
      </trkpt>
      <trkpt lat="47.05045" lon="-1.21108">
        <ele>96</ele>
        <time>2020-09-13T07:41:49.000Z</time>
      </trkpt>
      <trkpt lat="47.0505" lon="-1.21108">
        <ele>96</ele>
        <time>2020-09-13T07:41:51.000Z</time>
      </trkpt>
      <trkpt lat="47.05055" lon="-1.21107">
        <ele>95</ele>
        <time>2020-09-13T07:41:52.000Z</time>
      </trkpt>
      <trkpt lat="47.05061" lon="-1.21107">
        <ele>94</ele>
        <time>2020-09-13T07:41:54.000Z</time>
      </trkpt>
      <trkpt lat="47.05067" lon="-1.21107">
        <ele>93</ele>
        <time>2020-09-13T07:41:55.000Z</time>
      </trkpt>
      <trkpt lat="47.05074" lon="-1.21106">
        <ele>92</ele>
        <time>2020-09-13T07:41:57.000Z</time>
      </trkpt>
      <trkpt lat="47.05077" lon="-1.21105">
        <ele>92</ele>
        <time>2020-09-13T07:41:58.000Z</time>
      </trkpt>
      <trkpt lat="47.05079" lon="-1.21104">
        <ele>91</ele>
        <time>2020-09-13T07:41:58.000Z</time>
      </trkpt>
      <trkpt lat="47.0508" lon="-1.21103">
        <ele>91</ele>
        <time>2020-09-13T07:41:59.000Z</time>
      </trkpt>
      <trkpt lat="47.05081" lon="-1.21102">
        <ele>91</ele>
        <time>2020-09-13T07:42:00.000Z</time>
      </trkpt>
      <trkpt lat="47.05082" lon="-1.21099">
        <ele>91</ele>
        <time>2020-09-13T07:42:01.000Z</time>
      </trkpt>
      <trkpt lat="47.05083" lon="-1.21095">
        <ele>91</ele>
        <time>2020-09-13T07:42:02.000Z</time>
      </trkpt>
      <trkpt lat="47.05083" lon="-1.21091">
        <ele>91</ele>
        <time>2020-09-13T07:42:03.000Z</time>
      </trkpt>
      <trkpt lat="47.05084" lon="-1.21086">
        <ele>91</ele>
        <time>2020-09-13T07:42:04.000Z</time>
      </trkpt>
      <trkpt lat="47.05085" lon="-1.21081">
        <ele>91</ele>
        <time>2020-09-13T07:42:05.000Z</time>
      </trkpt>
      <trkpt lat="47.05087" lon="-1.21076">
        <ele>91</ele>
        <time>2020-09-13T07:42:07.000Z</time>
      </trkpt>
      <trkpt lat="47.05089" lon="-1.2107">
        <ele>91</ele>
        <time>2020-09-13T07:42:08.000Z</time>
      </trkpt>
      <trkpt lat="47.05091" lon="-1.21064">
        <ele>90</ele>
        <time>2020-09-13T07:42:10.000Z</time>
      </trkpt>
      <trkpt lat="47.05093" lon="-1.21062">
        <ele>90</ele>
        <time>2020-09-13T07:42:11.000Z</time>
      </trkpt>
      <trkpt lat="47.05096" lon="-1.2106">
        <ele>90</ele>
        <time>2020-09-13T07:42:12.000Z</time>
      </trkpt>
      <trkpt lat="47.05099" lon="-1.2106">
        <ele>90</ele>
        <time>2020-09-13T07:42:14.000Z</time>
      </trkpt>
      <trkpt lat="47.05103" lon="-1.21059">
        <ele>90</ele>
        <time>2020-09-13T07:42:15.000Z</time>
      </trkpt>
      <trkpt lat="47.05107" lon="-1.21052">
        <ele>89</ele>
        <time>2020-09-13T07:42:18.000Z</time>
      </trkpt>
      <trkpt lat="47.05112" lon="-1.21043">
        <ele>89</ele>
        <time>2020-09-13T07:42:21.000Z</time>
      </trkpt>
      <trkpt lat="47.05112" lon="-1.21039">
        <ele>88</ele>
        <time>2020-09-13T07:42:22.000Z</time>
      </trkpt>
      <trkpt lat="47.05112" lon="-1.21034">
        <ele>88</ele>
        <time>2020-09-13T07:42:23.000Z</time>
      </trkpt>
      <trkpt lat="47.05111" lon="-1.21029">
        <ele>88</ele>
        <time>2020-09-13T07:42:24.000Z</time>
      </trkpt>
      <trkpt lat="47.0511" lon="-1.21023">
        <ele>88</ele>
        <time>2020-09-13T07:42:25.000Z</time>
      </trkpt>
      <trkpt lat="47.05109" lon="-1.21019">
        <ele>88</ele>
        <time>2020-09-13T07:42:26.000Z</time>
      </trkpt>
      <trkpt lat="47.05108" lon="-1.21015">
        <ele>88</ele>
        <time>2020-09-13T07:42:26.000Z</time>
      </trkpt>
      <trkpt lat="47.05107" lon="-1.21011">
        <ele>88</ele>
        <time>2020-09-13T07:42:27.000Z</time>
      </trkpt>
      <trkpt lat="47.05106" lon="-1.21006">
        <ele>89</ele>
        <time>2020-09-13T07:42:28.000Z</time>
      </trkpt>
      <trkpt lat="47.05105" lon="-1.21003">
        <ele>89</ele>
        <time>2020-09-13T07:42:29.000Z</time>
      </trkpt>
      <trkpt lat="47.05104" lon="-1.21001">
        <ele>89</ele>
        <time>2020-09-13T07:42:29.000Z</time>
      </trkpt>
      <trkpt lat="47.05103" lon="-1.20998">
        <ele>89</ele>
        <time>2020-09-13T07:42:30.000Z</time>
      </trkpt>
      <trkpt lat="47.05102" lon="-1.20996">
        <ele>89</ele>
        <time>2020-09-13T07:42:31.000Z</time>
      </trkpt>
      <trkpt lat="47.05101" lon="-1.20994">
        <ele>89</ele>
        <time>2020-09-13T07:42:31.000Z</time>
      </trkpt>
      <trkpt lat="47.051" lon="-1.20992">
        <ele>89</ele>
        <time>2020-09-13T07:42:32.000Z</time>
      </trkpt>
      <trkpt lat="47.05099" lon="-1.2099">
        <ele>89</ele>
        <time>2020-09-13T07:42:32.000Z</time>
      </trkpt>
      <trkpt lat="47.05099" lon="-1.20988">
        <ele>88</ele>
        <time>2020-09-13T07:42:33.000Z</time>
      </trkpt>
      <trkpt lat="47.05097" lon="-1.20983">
        <ele>88</ele>
        <time>2020-09-13T07:42:33.000Z</time>
      </trkpt>
      <trkpt lat="47.05094" lon="-1.20977">
        <ele>88</ele>
        <time>2020-09-13T07:42:34.000Z</time>
      </trkpt>
      <trkpt lat="47.05091" lon="-1.2097">
        <ele>88</ele>
        <time>2020-09-13T07:42:34.000Z</time>
      </trkpt>
      <trkpt lat="47.05087" lon="-1.20963">
        <ele>88</ele>
        <time>2020-09-13T07:42:35.000Z</time>
      </trkpt>
      <trkpt lat="47.05085" lon="-1.20956">
        <ele>88</ele>
        <time>2020-09-13T07:42:36.000Z</time>
      </trkpt>
      <trkpt lat="47.05082" lon="-1.20949">
        <ele>88</ele>
        <time>2020-09-13T07:42:37.000Z</time>
      </trkpt>
      <trkpt lat="47.0508" lon="-1.20941">
        <ele>88</ele>
        <time>2020-09-13T07:42:39.000Z</time>
      </trkpt>
      <trkpt lat="47.05077" lon="-1.20934">
        <ele>88</ele>
        <time>2020-09-13T07:42:40.000Z</time>
      </trkpt>
      <trkpt lat="47.05069" lon="-1.20904">
        <ele>88</ele>
        <time>2020-09-13T07:42:47.000Z</time>
      </trkpt>
      <trkpt lat="47.05062" lon="-1.20879">
        <ele>89</ele>
        <time>2020-09-13T07:42:54.000Z</time>
      </trkpt>
      <trkpt lat="47.05059" lon="-1.20872">
        <ele>89</ele>
        <time>2020-09-13T07:42:56.000Z</time>
      </trkpt>
      <trkpt lat="47.05056" lon="-1.20859">
        <ele>89</ele>
        <time>2020-09-13T07:43:00.000Z</time>
      </trkpt>
      <trkpt lat="47.05053" lon="-1.20854">
        <ele>88</ele>
        <time>2020-09-13T07:43:02.000Z</time>
      </trkpt>
      <trkpt lat="47.0504" lon="-1.20832">
        <ele>87</ele>
        <time>2020-09-13T07:43:09.000Z</time>
      </trkpt>
      <trkpt lat="47.05027" lon="-1.2081">
        <ele>89</ele>
        <time>2020-09-13T07:43:16.000Z</time>
      </trkpt>
      <trkpt lat="47.05014" lon="-1.20786">
        <ele>91</ele>
        <time>2020-09-13T07:43:25.000Z</time>
      </trkpt>
      <trkpt lat="47.05013" lon="-1.20784">
        <ele>91</ele>
        <time>2020-09-13T07:43:26.000Z</time>
      </trkpt>
      <trkpt lat="47.0501" lon="-1.2078">
        <ele>91</ele>
        <time>2020-09-13T07:43:28.000Z</time>
      </trkpt>
      <trkpt lat="47.05008" lon="-1.20776">
        <ele>92</ele>
        <time>2020-09-13T07:43:30.000Z</time>
      </trkpt>
      <trkpt lat="47.05006" lon="-1.20773">
        <ele>92</ele>
        <time>2020-09-13T07:43:32.000Z</time>
      </trkpt>
      <trkpt lat="47.05004" lon="-1.2077">
        <ele>93</ele>
        <time>2020-09-13T07:43:34.000Z</time>
      </trkpt>
      <trkpt lat="47.05001" lon="-1.20766">
        <ele>94</ele>
        <time>2020-09-13T07:43:36.000Z</time>
      </trkpt>
      <trkpt lat="47.05" lon="-1.20763">
        <ele>94</ele>
        <time>2020-09-13T07:43:37.000Z</time>
      </trkpt>
      <trkpt lat="47.04998" lon="-1.20761">
        <ele>94</ele>
        <time>2020-09-13T07:43:38.000Z</time>
      </trkpt>
      <trkpt lat="47.04996" lon="-1.20755">
        <ele>95</ele>
        <time>2020-09-13T07:43:40.000Z</time>
      </trkpt>
      <trkpt lat="47.04994" lon="-1.20752">
        <ele>95</ele>
        <time>2020-09-13T07:43:41.000Z</time>
      </trkpt>
      <trkpt lat="47.04991" lon="-1.20747">
        <ele>96</ele>
        <time>2020-09-13T07:43:43.000Z</time>
      </trkpt>
      <trkpt lat="47.04988" lon="-1.20741">
        <ele>96</ele>
        <time>2020-09-13T07:43:45.000Z</time>
      </trkpt>
      <trkpt lat="47.04987" lon="-1.20739">
        <ele>97</ele>
        <time>2020-09-13T07:43:46.000Z</time>
      </trkpt>
      <trkpt lat="47.04986" lon="-1.20737">
        <ele>97</ele>
        <time>2020-09-13T07:43:47.000Z</time>
      </trkpt>
      <trkpt lat="47.04983" lon="-1.20732">
        <ele>98</ele>
        <time>2020-09-13T07:43:49.000Z</time>
      </trkpt>
      <trkpt lat="47.04981" lon="-1.20729">
        <ele>98</ele>
        <time>2020-09-13T07:43:50.000Z</time>
      </trkpt>
      <trkpt lat="47.0498" lon="-1.20727">
        <ele>98</ele>
        <time>2020-09-13T07:43:51.000Z</time>
      </trkpt>
      <trkpt lat="47.04979" lon="-1.20725">
        <ele>98</ele>
        <time>2020-09-13T07:43:52.000Z</time>
      </trkpt>
      <trkpt lat="47.04977" lon="-1.20722">
        <ele>98</ele>
        <time>2020-09-13T07:43:53.000Z</time>
      </trkpt>
      <trkpt lat="47.04974" lon="-1.20716">
        <ele>98</ele>
        <time>2020-09-13T07:43:55.000Z</time>
      </trkpt>
      <trkpt lat="47.04961" lon="-1.20691">
        <ele>100</ele>
        <time>2020-09-13T07:44:04.000Z</time>
      </trkpt>
      <trkpt lat="47.04958" lon="-1.20684">
        <ele>100</ele>
        <time>2020-09-13T07:44:06.000Z</time>
      </trkpt>
      <trkpt lat="47.04957" lon="-1.20681">
        <ele>101</ele>
        <time>2020-09-13T07:44:07.000Z</time>
      </trkpt>
      <trkpt lat="47.04956" lon="-1.20675">
        <ele>101</ele>
        <time>2020-09-13T07:44:09.000Z</time>
      </trkpt>
      <trkpt lat="47.04955" lon="-1.20672">
        <ele>101</ele>
        <time>2020-09-13T07:44:10.000Z</time>
      </trkpt>
      <trkpt lat="47.04953" lon="-1.2067">
        <ele>101</ele>
        <time>2020-09-13T07:44:11.000Z</time>
      </trkpt>
      <trkpt lat="47.04951" lon="-1.20669">
        <ele>101</ele>
        <time>2020-09-13T07:44:12.000Z</time>
      </trkpt>
      <trkpt lat="47.04948" lon="-1.20669">
        <ele>101</ele>
        <time>2020-09-13T07:44:13.000Z</time>
      </trkpt>
      <trkpt lat="47.04948" lon="-1.20669">
        <ele>101</ele>
        <time>2020-09-13T07:44:13.000Z</time>
      </trkpt>
      <trkpt lat="47.04909" lon="-1.20666">
        <ele>101</ele>
        <time>2020-09-13T07:44:40.000Z</time>
      </trkpt>
      <trkpt lat="47.04909" lon="-1.20666">
        <ele>101</ele>
        <time>2020-09-13T07:44:40.000Z</time>
      </trkpt>
      <trkpt lat="47.04873" lon="-1.20647">
        <ele>94</ele>
        <time>2020-09-13T07:45:06.000Z</time>
      </trkpt>
      <trkpt lat="47.04873" lon="-1.20647">
        <ele>94</ele>
        <time>2020-09-13T07:45:06.000Z</time>
      </trkpt>
      <trkpt lat="47.04853" lon="-1.2064">
        <ele>91</ele>
        <time>2020-09-13T07:45:38.000Z</time>
      </trkpt>
      <trkpt lat="47.04834" lon="-1.20634">
        <ele>92</ele>
        <time>2020-09-13T07:45:47.000Z</time>
      </trkpt>
      <trkpt lat="47.04813" lon="-1.20627">
        <ele>92</ele>
        <time>2020-09-13T07:45:55.000Z</time>
      </trkpt>
      <trkpt lat="47.04807" lon="-1.20625">
        <ele>92</ele>
        <time>2020-09-13T07:45:57.000Z</time>
      </trkpt>
      <trkpt lat="47.04792" lon="-1.2062">
        <ele>93</ele>
        <time>2020-09-13T07:46:02.000Z</time>
      </trkpt>
      <trkpt lat="47.04789" lon="-1.20618">
        <ele>93</ele>
        <time>2020-09-13T07:46:03.000Z</time>
      </trkpt>
      <trkpt lat="47.04787" lon="-1.20617">
        <ele>93</ele>
        <time>2020-09-13T07:46:04.000Z</time>
      </trkpt>
      <trkpt lat="47.04784" lon="-1.20616">
        <ele>94</ele>
        <time>2020-09-13T07:46:05.000Z</time>
      </trkpt>
      <trkpt lat="47.04777" lon="-1.20613">
        <ele>94</ele>
        <time>2020-09-13T07:46:09.000Z</time>
      </trkpt>
      <trkpt lat="47.04774" lon="-1.20612">
        <ele>94</ele>
        <time>2020-09-13T07:46:11.000Z</time>
      </trkpt>
      <trkpt lat="47.04774" lon="-1.20612">
        <ele>94</ele>
        <time>2020-09-13T07:46:11.000Z</time>
      </trkpt>
      <trkpt lat="47.04755" lon="-1.20616">
        <ele>96</ele>
        <time>2020-09-13T07:46:31.000Z</time>
      </trkpt>
      <trkpt lat="47.04733" lon="-1.20631">
        <ele>95</ele>
        <time>2020-09-13T07:46:36.000Z</time>
      </trkpt>
      <trkpt lat="47.04715" lon="-1.20636">
        <ele>95</ele>
        <time>2020-09-13T07:46:43.000Z</time>
      </trkpt>
      <trkpt lat="47.04691" lon="-1.20641">
        <ele>93</ele>
        <time>2020-09-13T07:46:48.000Z</time>
      </trkpt>
      <trkpt lat="47.04681" lon="-1.20635">
        <ele>93</ele>
        <time>2020-09-13T07:46:50.000Z</time>
      </trkpt>
      <trkpt lat="47.04671" lon="-1.20626">
        <ele>92</ele>
        <time>2020-09-13T07:46:53.000Z</time>
      </trkpt>
      <trkpt lat="47.04667" lon="-1.20622">
        <ele>91</ele>
        <time>2020-09-13T07:46:54.000Z</time>
      </trkpt>
      <trkpt lat="47.04663" lon="-1.20616">
        <ele>91</ele>
        <time>2020-09-13T07:46:56.000Z</time>
      </trkpt>
      <trkpt lat="47.0466" lon="-1.20611">
        <ele>90</ele>
        <time>2020-09-13T07:46:57.000Z</time>
      </trkpt>
      <trkpt lat="47.04656" lon="-1.20605">
        <ele>90</ele>
        <time>2020-09-13T07:46:59.000Z</time>
      </trkpt>
      <trkpt lat="47.04653" lon="-1.206">
        <ele>89</ele>
        <time>2020-09-13T07:47:00.000Z</time>
      </trkpt>
      <trkpt lat="47.04649" lon="-1.20596">
        <ele>88</ele>
        <time>2020-09-13T07:47:02.000Z</time>
      </trkpt>
      <trkpt lat="47.04646" lon="-1.20591">
        <ele>87</ele>
        <time>2020-09-13T07:47:03.000Z</time>
      </trkpt>
      <trkpt lat="47.04642" lon="-1.20587">
        <ele>87</ele>
        <time>2020-09-13T07:47:05.000Z</time>
      </trkpt>
      <trkpt lat="47.04639" lon="-1.20581">
        <ele>86</ele>
        <time>2020-09-13T07:47:06.000Z</time>
      </trkpt>
      <trkpt lat="47.04637" lon="-1.20574">
        <ele>86</ele>
        <time>2020-09-13T07:47:08.000Z</time>
      </trkpt>
      <trkpt lat="47.04635" lon="-1.20567">
        <ele>86</ele>
        <time>2020-09-13T07:47:09.000Z</time>
      </trkpt>
      <trkpt lat="47.04633" lon="-1.20559">
        <ele>85</ele>
        <time>2020-09-13T07:47:11.000Z</time>
      </trkpt>
      <trkpt lat="47.04631" lon="-1.20551">
        <ele>85</ele>
        <time>2020-09-13T07:47:13.000Z</time>
      </trkpt>
      <trkpt lat="47.0463" lon="-1.20543">
        <ele>84</ele>
        <time>2020-09-13T07:47:14.000Z</time>
      </trkpt>
      <trkpt lat="47.04629" lon="-1.20535">
        <ele>84</ele>
        <time>2020-09-13T07:47:16.000Z</time>
      </trkpt>
      <trkpt lat="47.04629" lon="-1.20527">
        <ele>83</ele>
        <time>2020-09-13T07:47:18.000Z</time>
      </trkpt>
      <trkpt lat="47.04628" lon="-1.20518">
        <ele>83</ele>
        <time>2020-09-13T07:47:19.000Z</time>
      </trkpt>
      <trkpt lat="47.04626" lon="-1.20509">
        <ele>83</ele>
        <time>2020-09-13T07:47:21.000Z</time>
      </trkpt>
      <trkpt lat="47.04625" lon="-1.20501">
        <ele>82</ele>
        <time>2020-09-13T07:47:22.000Z</time>
      </trkpt>
      <trkpt lat="47.04625" lon="-1.20492">
        <ele>82</ele>
        <time>2020-09-13T07:47:24.000Z</time>
      </trkpt>
      <trkpt lat="47.0462" lon="-1.20462">
        <ele>83</ele>
        <time>2020-09-13T07:47:30.000Z</time>
      </trkpt>
      <trkpt lat="47.04617" lon="-1.20431">
        <ele>84</ele>
        <time>2020-09-13T07:47:37.000Z</time>
      </trkpt>
      <trkpt lat="47.04617" lon="-1.20431">
        <ele>84</ele>
        <time>2020-09-13T07:47:37.000Z</time>
      </trkpt>
      <trkpt lat="47.04623" lon="-1.20406">
        <ele>85</ele>
        <time>2020-09-13T07:48:08.000Z</time>
      </trkpt>
      <trkpt lat="47.04628" lon="-1.20373">
        <ele>88</ele>
        <time>2020-09-13T07:48:19.000Z</time>
      </trkpt>
      <trkpt lat="47.04633" lon="-1.2035">
        <ele>88</ele>
        <time>2020-09-13T07:48:32.000Z</time>
      </trkpt>
      <trkpt lat="47.04638" lon="-1.20323">
        <ele>88</ele>
        <time>2020-09-13T07:48:45.000Z</time>
      </trkpt>
      <trkpt lat="47.04643" lon="-1.20297">
        <ele>89</ele>
        <time>2020-09-13T07:48:54.000Z</time>
      </trkpt>
      <trkpt lat="47.04648" lon="-1.20262">
        <ele>89</ele>
        <time>2020-09-13T07:49:01.000Z</time>
      </trkpt>
      <trkpt lat="47.04646" lon="-1.20235">
        <ele>89</ele>
        <time>2020-09-13T07:49:06.000Z</time>
      </trkpt>
      <trkpt lat="47.04642" lon="-1.20213">
        <ele>90</ele>
        <time>2020-09-13T07:49:12.000Z</time>
      </trkpt>
      <trkpt lat="47.04642" lon="-1.20213">
        <ele>90</ele>
        <time>2020-09-13T07:49:12.000Z</time>
      </trkpt>
      <trkpt lat="47.04617" lon="-1.20185">
        <ele>90</ele>
        <time>2020-09-13T07:49:32.000Z</time>
      </trkpt>
      <trkpt lat="47.04603" lon="-1.2018">
        <ele>91</ele>
        <time>2020-09-13T07:49:37.000Z</time>
      </trkpt>
      <trkpt lat="47.04588" lon="-1.20171">
        <ele>91</ele>
        <time>2020-09-13T07:49:40.000Z</time>
      </trkpt>
      <trkpt lat="47.04568" lon="-1.20158">
        <ele>91</ele>
        <time>2020-09-13T07:49:43.000Z</time>
      </trkpt>
      <trkpt lat="47.0455" lon="-1.20149">
        <ele>90</ele>
        <time>2020-09-13T07:49:48.000Z</time>
      </trkpt>
      <trkpt lat="47.0455" lon="-1.20149">
        <ele>90</ele>
        <time>2020-09-13T07:49:48.000Z</time>
      </trkpt>
      <trkpt lat="47.04512" lon="-1.20133">
        <ele>90</ele>
        <time>2020-09-13T07:50:07.000Z</time>
      </trkpt>
      <trkpt lat="47.04487" lon="-1.20126">
        <ele>90</ele>
        <time>2020-09-13T07:50:13.000Z</time>
      </trkpt>
      <trkpt lat="47.04466" lon="-1.20126">
        <ele>89</ele>
        <time>2020-09-13T07:50:18.000Z</time>
      </trkpt>
      <trkpt lat="47.04449" lon="-1.20125">
        <ele>88</ele>
        <time>2020-09-13T07:50:22.000Z</time>
      </trkpt>
      <trkpt lat="47.0444" lon="-1.20125">
        <ele>88</ele>
        <time>2020-09-13T07:50:26.000Z</time>
      </trkpt>
      <trkpt lat="47.0443" lon="-1.20125">
        <ele>88</ele>
        <time>2020-09-13T07:50:34.000Z</time>
      </trkpt>
      <trkpt lat="47.04427" lon="-1.20124">
        <ele>87</ele>
        <time>2020-09-13T07:50:37.000Z</time>
      </trkpt>
      <trkpt lat="47.04425" lon="-1.20124">
        <ele>87</ele>
        <time>2020-09-13T07:50:39.000Z</time>
      </trkpt>
      <trkpt lat="47.04407" lon="-1.20123">
        <ele>87</ele>
        <time>2020-09-13T07:50:41.000Z</time>
      </trkpt>
      <trkpt lat="47.04388" lon="-1.20126">
        <ele>87</ele>
        <time>2020-09-13T07:50:44.000Z</time>
      </trkpt>
      <trkpt lat="47.04377" lon="-1.20129">
        <ele>87</ele>
        <time>2020-09-13T07:50:46.000Z</time>
      </trkpt>
      <trkpt lat="47.04367" lon="-1.20132">
        <ele>86</ele>
        <time>2020-09-13T07:50:48.000Z</time>
      </trkpt>
      <trkpt lat="47.04352" lon="-1.20144">
        <ele>86</ele>
        <time>2020-09-13T07:50:53.000Z</time>
      </trkpt>
      <trkpt lat="47.0434" lon="-1.20155">
        <ele>87</ele>
        <time>2020-09-13T07:50:56.000Z</time>
      </trkpt>
      <trkpt lat="47.04322" lon="-1.20174">
        <ele>87</ele>
        <time>2020-09-13T07:50:59.000Z</time>
      </trkpt>
      <trkpt lat="47.04306" lon="-1.20192">
        <ele>88</ele>
        <time>2020-09-13T07:51:04.000Z</time>
      </trkpt>
      <trkpt lat="47.04291" lon="-1.2021">
        <ele>87</ele>
        <time>2020-09-13T07:51:09.000Z</time>
      </trkpt>
      <trkpt lat="47.0428" lon="-1.20226">
        <ele>87</ele>
        <time>2020-09-13T07:51:15.000Z</time>
      </trkpt>
      <trkpt lat="47.04263" lon="-1.20237">
        <ele>86</ele>
        <time>2020-09-13T07:51:21.000Z</time>
      </trkpt>
      <trkpt lat="47.04258" lon="-1.20237">
        <ele>86</ele>
        <time>2020-09-13T07:51:22.000Z</time>
      </trkpt>
      <trkpt lat="47.04244" lon="-1.20233">
        <ele>86</ele>
        <time>2020-09-13T07:51:27.000Z</time>
      </trkpt>
      <trkpt lat="47.04227" lon="-1.2023">
        <ele>86</ele>
        <time>2020-09-13T07:51:33.000Z</time>
      </trkpt>
      <trkpt lat="47.04209" lon="-1.20226">
        <ele>85</ele>
        <time>2020-09-13T07:51:38.000Z</time>
      </trkpt>
      <trkpt lat="47.04196" lon="-1.20217">
        <ele>86</ele>
        <time>2020-09-13T07:51:45.000Z</time>
      </trkpt>
      <trkpt lat="47.04196" lon="-1.20217">
        <ele>86</ele>
        <time>2020-09-13T07:51:45.000Z</time>
      </trkpt>
      <trkpt lat="47.04193" lon="-1.20201">
        <ele>84</ele>
        <time>2020-09-13T07:52:00.000Z</time>
      </trkpt>
      <trkpt lat="47.04188" lon="-1.20181">
        <ele>86</ele>
        <time>2020-09-13T07:52:10.000Z</time>
      </trkpt>
      <trkpt lat="47.04182" lon="-1.20158">
        <ele>93</ele>
        <time>2020-09-13T07:52:25.000Z</time>
      </trkpt>
      <trkpt lat="47.04182" lon="-1.20158">
        <ele>93</ele>
        <time>2020-09-13T07:52:25.000Z</time>
      </trkpt>
      <trkpt lat="47.04163" lon="-1.20142">
        <ele>92</ele>
        <time>2020-09-13T07:52:50.000Z</time>
      </trkpt>
      <trkpt lat="47.04141" lon="-1.20128">
        <ele>93</ele>
        <time>2020-09-13T07:52:56.000Z</time>
      </trkpt>
      <trkpt lat="47.04124" lon="-1.2012">
        <ele>93</ele>
        <time>2020-09-13T07:53:02.000Z</time>
      </trkpt>
      <trkpt lat="47.04107" lon="-1.20105">
        <ele>93</ele>
        <time>2020-09-13T07:53:12.000Z</time>
      </trkpt>
      <trkpt lat="47.04092" lon="-1.20084">
        <ele>92</ele>
        <time>2020-09-13T07:53:17.000Z</time>
      </trkpt>
      <trkpt lat="47.04079" lon="-1.20054">
        <ele>92</ele>
        <time>2020-09-13T07:53:21.000Z</time>
      </trkpt>
      <trkpt lat="47.04072" lon="-1.20025">
        <ele>92</ele>
        <time>2020-09-13T07:53:25.000Z</time>
      </trkpt>
      <trkpt lat="47.04066" lon="-1.19991">
        <ele>91</ele>
        <time>2020-09-13T07:53:30.000Z</time>
      </trkpt>
      <trkpt lat="47.04063" lon="-1.19962">
        <ele>92</ele>
        <time>2020-09-13T07:53:35.000Z</time>
      </trkpt>
      <trkpt lat="47.04062" lon="-1.19948">
        <ele>93</ele>
        <time>2020-09-13T07:53:38.000Z</time>
      </trkpt>
      <trkpt lat="47.04058" lon="-1.1993">
        <ele>93</ele>
        <time>2020-09-13T07:53:41.000Z</time>
      </trkpt>
      <trkpt lat="47.04055" lon="-1.19918">
        <ele>93</ele>
        <time>2020-09-13T07:53:43.000Z</time>
      </trkpt>
      <trkpt lat="47.04055" lon="-1.19913">
        <ele>93</ele>
        <time>2020-09-13T07:53:44.000Z</time>
      </trkpt>
      <trkpt lat="47.04058" lon="-1.19899">
        <ele>94</ele>
        <time>2020-09-13T07:53:47.000Z</time>
      </trkpt>
      <trkpt lat="47.04058" lon="-1.19872">
        <ele>94</ele>
        <time>2020-09-13T07:53:53.000Z</time>
      </trkpt>
      <trkpt lat="47.04051" lon="-1.19846">
        <ele>93</ele>
        <time>2020-09-13T07:53:57.000Z</time>
      </trkpt>
      <trkpt lat="47.04047" lon="-1.19819">
        <ele>94</ele>
        <time>2020-09-13T07:54:01.000Z</time>
      </trkpt>
      <trkpt lat="47.04045" lon="-1.19794">
        <ele>94</ele>
        <time>2020-09-13T07:54:05.000Z</time>
      </trkpt>
      <trkpt lat="47.04043" lon="-1.19764">
        <ele>96</ele>
        <time>2020-09-13T07:54:09.000Z</time>
      </trkpt>
      <trkpt lat="47.04043" lon="-1.1974">
        <ele>99</ele>
        <time>2020-09-13T07:54:16.000Z</time>
      </trkpt>
      <trkpt lat="47.04038" lon="-1.19721">
        <ele>98</ele>
        <time>2020-09-13T07:54:23.000Z</time>
      </trkpt>
      <trkpt lat="47.04034" lon="-1.19715">
        <ele>98</ele>
        <time>2020-09-13T07:54:26.000Z</time>
      </trkpt>
      <trkpt lat="47.04029" lon="-1.1971">
        <ele>98</ele>
        <time>2020-09-13T07:54:29.000Z</time>
      </trkpt>
      <trkpt lat="47.04028" lon="-1.19707">
        <ele>98</ele>
        <time>2020-09-13T07:54:30.000Z</time>
      </trkpt>
      <trkpt lat="47.04025" lon="-1.19704">
        <ele>98</ele>
        <time>2020-09-13T07:54:30.000Z</time>
      </trkpt>
      <trkpt lat="47.04023" lon="-1.19701">
        <ele>98</ele>
        <time>2020-09-13T07:54:31.000Z</time>
      </trkpt>
      <trkpt lat="47.04021" lon="-1.19698">
        <ele>98</ele>
        <time>2020-09-13T07:54:32.000Z</time>
      </trkpt>
      <trkpt lat="47.04019" lon="-1.19694">
        <ele>97</ele>
        <time>2020-09-13T07:54:33.000Z</time>
      </trkpt>
      <trkpt lat="47.04016" lon="-1.19689">
        <ele>97</ele>
        <time>2020-09-13T07:54:34.000Z</time>
      </trkpt>
      <trkpt lat="47.04014" lon="-1.19685">
        <ele>97</ele>
        <time>2020-09-13T07:54:35.000Z</time>
      </trkpt>
      <trkpt lat="47.04012" lon="-1.1968">
        <ele>97</ele>
        <time>2020-09-13T07:54:36.000Z</time>
      </trkpt>
      <trkpt lat="47.0401" lon="-1.19676">
        <ele>96</ele>
        <time>2020-09-13T07:54:37.000Z</time>
      </trkpt>
      <trkpt lat="47.04008" lon="-1.19672">
        <ele>96</ele>
        <time>2020-09-13T07:54:38.000Z</time>
      </trkpt>
      <trkpt lat="47.04005" lon="-1.19669">
        <ele>96</ele>
        <time>2020-09-13T07:54:39.000Z</time>
      </trkpt>
      <trkpt lat="47.04004" lon="-1.19665">
        <ele>95</ele>
        <time>2020-09-13T07:54:40.000Z</time>
      </trkpt>
      <trkpt lat="47.04002" lon="-1.19662">
        <ele>95</ele>
        <time>2020-09-13T07:54:41.000Z</time>
      </trkpt>
      <trkpt lat="47.04" lon="-1.19658">
        <ele>96</ele>
        <time>2020-09-13T07:54:42.000Z</time>
      </trkpt>
      <trkpt lat="47.03998" lon="-1.19654">
        <ele>96</ele>
        <time>2020-09-13T07:54:43.000Z</time>
      </trkpt>
      <trkpt lat="47.03996" lon="-1.1965">
        <ele>96</ele>
        <time>2020-09-13T07:54:44.000Z</time>
      </trkpt>
      <trkpt lat="47.03994" lon="-1.19647">
        <ele>96</ele>
        <time>2020-09-13T07:54:45.000Z</time>
      </trkpt>
      <trkpt lat="47.03992" lon="-1.19643">
        <ele>96</ele>
        <time>2020-09-13T07:54:45.000Z</time>
      </trkpt>
      <trkpt lat="47.03991" lon="-1.1964">
        <ele>96</ele>
        <time>2020-09-13T07:54:46.000Z</time>
      </trkpt>
      <trkpt lat="47.03989" lon="-1.19636">
        <ele>96</ele>
        <time>2020-09-13T07:54:47.000Z</time>
      </trkpt>
      <trkpt lat="47.03981" lon="-1.19621">
        <ele>96</ele>
        <time>2020-09-13T07:54:52.000Z</time>
      </trkpt>
      <trkpt lat="47.03975" lon="-1.19604">
        <ele>96</ele>
        <time>2020-09-13T07:54:55.000Z</time>
      </trkpt>
      <trkpt lat="47.0397" lon="-1.19581">
        <ele>97</ele>
        <time>2020-09-13T07:55:00.000Z</time>
      </trkpt>
      <trkpt lat="47.03962" lon="-1.1956">
        <ele>97</ele>
        <time>2020-09-13T07:55:06.000Z</time>
      </trkpt>
      <trkpt lat="47.03959" lon="-1.19538">
        <ele>97</ele>
        <time>2020-09-13T07:55:10.000Z</time>
      </trkpt>
      <trkpt lat="47.03959" lon="-1.19511">
        <ele>97</ele>
        <time>2020-09-13T07:55:14.000Z</time>
      </trkpt>
      <trkpt lat="47.03961" lon="-1.19473">
        <ele>97</ele>
        <time>2020-09-13T07:55:18.000Z</time>
      </trkpt>
      <trkpt lat="47.03961" lon="-1.19435">
        <ele>95</ele>
        <time>2020-09-13T07:55:23.000Z</time>
      </trkpt>
      <trkpt lat="47.03965" lon="-1.19403">
        <ele>94</ele>
        <time>2020-09-13T07:55:28.000Z</time>
      </trkpt>
      <trkpt lat="47.03971" lon="-1.19374">
        <ele>92</ele>
        <time>2020-09-13T07:55:33.000Z</time>
      </trkpt>
      <trkpt lat="47.03971" lon="-1.1935">
        <ele>92</ele>
        <time>2020-09-13T07:55:38.000Z</time>
      </trkpt>
      <trkpt lat="47.03967" lon="-1.19327">
        <ele>91</ele>
        <time>2020-09-13T07:55:44.000Z</time>
      </trkpt>
      <trkpt lat="47.03965" lon="-1.19304">
        <ele>91</ele>
        <time>2020-09-13T07:55:50.000Z</time>
      </trkpt>
      <trkpt lat="47.0396" lon="-1.19271">
        <ele>91</ele>
        <time>2020-09-13T07:55:55.000Z</time>
      </trkpt>
      <trkpt lat="47.0396" lon="-1.19255">
        <ele>91</ele>
        <time>2020-09-13T07:55:58.000Z</time>
      </trkpt>
      <trkpt lat="47.03961" lon="-1.19252">
        <ele>91</ele>
        <time>2020-09-13T07:55:59.000Z</time>
      </trkpt>
      <trkpt lat="47.03963" lon="-1.19249">
        <ele>91</ele>
        <time>2020-09-13T07:55:59.000Z</time>
      </trkpt>
      <trkpt lat="47.03965" lon="-1.19247">
        <ele>91</ele>
        <time>2020-09-13T07:56:00.000Z</time>
      </trkpt>
      <trkpt lat="47.03968" lon="-1.19244">
        <ele>91</ele>
        <time>2020-09-13T07:56:01.000Z</time>
      </trkpt>
      <trkpt lat="47.0397" lon="-1.1924">
        <ele>92</ele>
        <time>2020-09-13T07:56:04.000Z</time>
      </trkpt>
      <trkpt lat="47.03973" lon="-1.19235">
        <ele>93</ele>
        <time>2020-09-13T07:56:07.000Z</time>
      </trkpt>
      <trkpt lat="47.03976" lon="-1.1923">
        <ele>95</ele>
        <time>2020-09-13T07:56:10.000Z</time>
      </trkpt>
      <trkpt lat="47.03978" lon="-1.19225">
        <ele>96</ele>
        <time>2020-09-13T07:56:13.000Z</time>
      </trkpt>
      <trkpt lat="47.03978" lon="-1.19225">
        <ele>96</ele>
        <time>2020-09-13T07:56:13.000Z</time>
      </trkpt>
      <trkpt lat="47.03978" lon="-1.19225">
        <ele>96</ele>
        <time>2020-09-13T07:56:13.000Z</time>
      </trkpt>
      <trkpt lat="47.0399" lon="-1.19199">
        <ele>101</ele>
        <time>2020-09-13T07:57:09.000Z</time>
      </trkpt>
      <trkpt lat="47.0399" lon="-1.19199">
        <ele>101</ele>
        <time>2020-09-13T07:57:09.000Z</time>
      </trkpt>
      <trkpt lat="47.04003" lon="-1.19173">
        <ele>108</ele>
        <time>2020-09-13T07:57:37.000Z</time>
      </trkpt>
      <trkpt lat="47.04012" lon="-1.19151">
        <ele>112</ele>
        <time>2020-09-13T07:58:04.000Z</time>
      </trkpt>
      <trkpt lat="47.04018" lon="-1.19132">
        <ele>116</ele>
        <time>2020-09-13T07:58:22.000Z</time>
      </trkpt>
      <trkpt lat="47.04028" lon="-1.19114">
        <ele>116</ele>
        <time>2020-09-13T07:58:37.000Z</time>
      </trkpt>
      <trkpt lat="47.04028" lon="-1.19114">
        <ele>116</ele>
        <time>2020-09-13T07:58:37.000Z</time>
      </trkpt>
      <trkpt lat="47.04034" lon="-1.19097">
        <ele>118</ele>
        <time>2020-09-13T07:58:50.000Z</time>
      </trkpt>
      <trkpt lat="47.04045" lon="-1.19072">
        <ele>121</ele>
        <time>2020-09-13T07:59:00.000Z</time>
      </trkpt>
      <trkpt lat="47.04061" lon="-1.1905">
        <ele>124</ele>
        <time>2020-09-13T07:59:09.000Z</time>
      </trkpt>
      <trkpt lat="47.04079" lon="-1.19035">
        <ele>124</ele>
        <time>2020-09-13T07:59:19.000Z</time>
      </trkpt>
      <trkpt lat="47.04079" lon="-1.19035">
        <ele>124</ele>
        <time>2020-09-13T07:59:19.000Z</time>
      </trkpt>
      <trkpt lat="47.04091" lon="-1.19003">
        <ele>126</ele>
        <time>2020-09-13T08:04:55.000Z</time>
      </trkpt>
      <trkpt lat="47.04108" lon="-1.18991">
        <ele>127</ele>
        <time>2020-09-13T08:05:07.000Z</time>
      </trkpt>
      <trkpt lat="47.04126" lon="-1.18981">
        <ele>128</ele>
        <time>2020-09-13T08:05:18.000Z</time>
      </trkpt>
      <trkpt lat="47.0414" lon="-1.18968">
        <ele>129</ele>
        <time>2020-09-13T08:05:27.000Z</time>
      </trkpt>
      <trkpt lat="47.04153" lon="-1.18955">
        <ele>130</ele>
        <time>2020-09-13T08:05:34.000Z</time>
      </trkpt>
      <trkpt lat="47.04166" lon="-1.18939">
        <ele>131</ele>
        <time>2020-09-13T08:05:41.000Z</time>
      </trkpt>
      <trkpt lat="47.04181" lon="-1.18919">
        <ele>132</ele>
        <time>2020-09-13T08:05:48.000Z</time>
      </trkpt>
      <trkpt lat="47.04184" lon="-1.1891">
        <ele>131</ele>
        <time>2020-09-13T08:05:51.000Z</time>
      </trkpt>
      <trkpt lat="47.04185" lon="-1.18901">
        <ele>129</ele>
        <time>2020-09-13T08:05:54.000Z</time>
      </trkpt>
      <trkpt lat="47.04185" lon="-1.18897">
        <ele>129</ele>
        <time>2020-09-13T08:05:55.000Z</time>
      </trkpt>
      <trkpt lat="47.04184" lon="-1.18894">
        <ele>128</ele>
        <time>2020-09-13T08:05:55.000Z</time>
      </trkpt>
      <trkpt lat="47.04183" lon="-1.18891">
        <ele>128</ele>
        <time>2020-09-13T08:05:56.000Z</time>
      </trkpt>
      <trkpt lat="47.04182" lon="-1.18888">
        <ele>128</ele>
        <time>2020-09-13T08:05:57.000Z</time>
      </trkpt>
      <trkpt lat="47.04179" lon="-1.18883">
        <ele>128</ele>
        <time>2020-09-13T08:05:58.000Z</time>
      </trkpt>
      <trkpt lat="47.04176" lon="-1.18877">
        <ele>127</ele>
        <time>2020-09-13T08:06:00.000Z</time>
      </trkpt>
      <trkpt lat="47.04172" lon="-1.1887">
        <ele>127</ele>
        <time>2020-09-13T08:06:01.000Z</time>
      </trkpt>
      <trkpt lat="47.04168" lon="-1.18864">
        <ele>126</ele>
        <time>2020-09-13T08:06:03.000Z</time>
      </trkpt>
      <trkpt lat="47.04165" lon="-1.18858">
        <ele>126</ele>
        <time>2020-09-13T08:06:04.000Z</time>
      </trkpt>
      <trkpt lat="47.04161" lon="-1.18853">
        <ele>126</ele>
        <time>2020-09-13T08:06:06.000Z</time>
      </trkpt>
      <trkpt lat="47.04158" lon="-1.18848">
        <ele>126</ele>
        <time>2020-09-13T08:06:07.000Z</time>
      </trkpt>
      <trkpt lat="47.04155" lon="-1.18842">
        <ele>125</ele>
        <time>2020-09-13T08:06:09.000Z</time>
      </trkpt>
      <trkpt lat="47.04152" lon="-1.18836">
        <ele>125</ele>
        <time>2020-09-13T08:06:10.000Z</time>
      </trkpt>
      <trkpt lat="47.04149" lon="-1.1883">
        <ele>125</ele>
        <time>2020-09-13T08:06:11.000Z</time>
      </trkpt>
      <trkpt lat="47.04147" lon="-1.18823">
        <ele>125</ele>
        <time>2020-09-13T08:06:13.000Z</time>
      </trkpt>
      <trkpt lat="47.04145" lon="-1.18817">
        <ele>124</ele>
        <time>2020-09-13T08:06:14.000Z</time>
      </trkpt>
      <trkpt lat="47.04144" lon="-1.18813">
        <ele>124</ele>
        <time>2020-09-13T08:06:16.000Z</time>
      </trkpt>
      <trkpt lat="47.04143" lon="-1.18811">
        <ele>124</ele>
        <time>2020-09-13T08:06:17.000Z</time>
      </trkpt>
      <trkpt lat="47.04143" lon="-1.1881">
        <ele>124</ele>
        <time>2020-09-13T08:06:19.000Z</time>
      </trkpt>
      <trkpt lat="47.04143" lon="-1.18809">
        <ele>125</ele>
        <time>2020-09-13T08:06:21.000Z</time>
      </trkpt>
      <trkpt lat="47.04144" lon="-1.18807">
        <ele>125</ele>
        <time>2020-09-13T08:06:21.000Z</time>
      </trkpt>
      <trkpt lat="47.04144" lon="-1.18806">
        <ele>125</ele>
        <time>2020-09-13T08:06:22.000Z</time>
      </trkpt>
      <trkpt lat="47.04145" lon="-1.18804">
        <ele>125</ele>
        <time>2020-09-13T08:06:22.000Z</time>
      </trkpt>
      <trkpt lat="47.04145" lon="-1.18802">
        <ele>125</ele>
        <time>2020-09-13T08:06:23.000Z</time>
      </trkpt>
      <trkpt lat="47.04148" lon="-1.188">
        <ele>125</ele>
        <time>2020-09-13T08:06:24.000Z</time>
      </trkpt>
      <trkpt lat="47.04152" lon="-1.18799">
        <ele>125</ele>
        <time>2020-09-13T08:06:25.000Z</time>
      </trkpt>
      <trkpt lat="47.04155" lon="-1.18797">
        <ele>125</ele>
        <time>2020-09-13T08:06:27.000Z</time>
      </trkpt>
      <trkpt lat="47.0416" lon="-1.18795">
        <ele>125</ele>
        <time>2020-09-13T08:06:28.000Z</time>
      </trkpt>
      <trkpt lat="47.04162" lon="-1.18794">
        <ele>126</ele>
        <time>2020-09-13T08:06:29.000Z</time>
      </trkpt>
      <trkpt lat="47.04165" lon="-1.18793">
        <ele>126</ele>
        <time>2020-09-13T08:06:29.000Z</time>
      </trkpt>
      <trkpt lat="47.04167" lon="-1.18792">
        <ele>126</ele>
        <time>2020-09-13T08:06:30.000Z</time>
      </trkpt>
      <trkpt lat="47.04169" lon="-1.18791">
        <ele>126</ele>
        <time>2020-09-13T08:06:31.000Z</time>
      </trkpt>
      <trkpt lat="47.04172" lon="-1.18789">
        <ele>126</ele>
        <time>2020-09-13T08:06:32.000Z</time>
      </trkpt>
      <trkpt lat="47.04175" lon="-1.18787">
        <ele>126</ele>
        <time>2020-09-13T08:06:33.000Z</time>
      </trkpt>
      <trkpt lat="47.04179" lon="-1.18785">
        <ele>126</ele>
        <time>2020-09-13T08:06:34.000Z</time>
      </trkpt>
      <trkpt lat="47.04182" lon="-1.18783">
        <ele>126</ele>
        <time>2020-09-13T08:06:35.000Z</time>
      </trkpt>
      <trkpt lat="47.04184" lon="-1.18782">
        <ele>126</ele>
        <time>2020-09-13T08:06:36.000Z</time>
      </trkpt>
      <trkpt lat="47.04187" lon="-1.1878">
        <ele>126</ele>
        <time>2020-09-13T08:06:36.000Z</time>
      </trkpt>
      <trkpt lat="47.04189" lon="-1.18779">
        <ele>126</ele>
        <time>2020-09-13T08:06:37.000Z</time>
      </trkpt>
      <trkpt lat="47.04192" lon="-1.18778">
        <ele>126</ele>
        <time>2020-09-13T08:06:38.000Z</time>
      </trkpt>
      <trkpt lat="47.04194" lon="-1.18776">
        <ele>126</ele>
        <time>2020-09-13T08:06:39.000Z</time>
      </trkpt>
      <trkpt lat="47.04197" lon="-1.18775">
        <ele>126</ele>
        <time>2020-09-13T08:06:39.000Z</time>
      </trkpt>
      <trkpt lat="47.04199" lon="-1.18774">
        <ele>126</ele>
        <time>2020-09-13T08:06:40.000Z</time>
      </trkpt>
      <trkpt lat="47.04202" lon="-1.18772">
        <ele>126</ele>
        <time>2020-09-13T08:06:41.000Z</time>
      </trkpt>
      <trkpt lat="47.04206" lon="-1.1877">
        <ele>126</ele>
        <time>2020-09-13T08:06:42.000Z</time>
      </trkpt>
      <trkpt lat="47.04211" lon="-1.18768">
        <ele>126</ele>
        <time>2020-09-13T08:06:44.000Z</time>
      </trkpt>
      <trkpt lat="47.04217" lon="-1.18765">
        <ele>126</ele>
        <time>2020-09-13T08:06:45.000Z</time>
      </trkpt>
      <trkpt lat="47.04222" lon="-1.18763">
        <ele>126</ele>
        <time>2020-09-13T08:06:47.000Z</time>
      </trkpt>
      <trkpt lat="47.04242" lon="-1.18753">
        <ele>127</ele>
        <time>2020-09-13T08:06:53.000Z</time>
      </trkpt>
      <trkpt lat="47.04254" lon="-1.18744">
        <ele>128</ele>
        <time>2020-09-13T08:06:58.000Z</time>
      </trkpt>
      <trkpt lat="47.04254" lon="-1.1874">
        <ele>129</ele>
        <time>2020-09-13T08:06:59.000Z</time>
      </trkpt>
      <trkpt lat="47.04254" lon="-1.18736">
        <ele>129</ele>
        <time>2020-09-13T08:07:00.000Z</time>
      </trkpt>
      <trkpt lat="47.04252" lon="-1.18732">
        <ele>130</ele>
        <time>2020-09-13T08:07:01.000Z</time>
      </trkpt>
      <trkpt lat="47.0425" lon="-1.18728">
        <ele>130</ele>
        <time>2020-09-13T08:07:02.000Z</time>
      </trkpt>
      <trkpt lat="47.04248" lon="-1.18722">
        <ele>130</ele>
        <time>2020-09-13T08:07:03.000Z</time>
      </trkpt>
      <trkpt lat="47.04245" lon="-1.18716">
        <ele>130</ele>
        <time>2020-09-13T08:07:05.000Z</time>
      </trkpt>
      <trkpt lat="47.04241" lon="-1.1871">
        <ele>129</ele>
        <time>2020-09-13T08:07:06.000Z</time>
      </trkpt>
      <trkpt lat="47.04237" lon="-1.18703">
        <ele>128</ele>
        <time>2020-09-13T08:07:08.000Z</time>
      </trkpt>
      <trkpt lat="47.04233" lon="-1.18698">
        <ele>128</ele>
        <time>2020-09-13T08:07:09.000Z</time>
      </trkpt>
      <trkpt lat="47.04229" lon="-1.18692">
        <ele>128</ele>
        <time>2020-09-13T08:07:11.000Z</time>
      </trkpt>
      <trkpt lat="47.04226" lon="-1.18686">
        <ele>128</ele>
        <time>2020-09-13T08:07:12.000Z</time>
      </trkpt>
      <trkpt lat="47.04222" lon="-1.18681">
        <ele>128</ele>
        <time>2020-09-13T08:07:14.000Z</time>
      </trkpt>
      <trkpt lat="47.0422" lon="-1.18677">
        <ele>128</ele>
        <time>2020-09-13T08:07:15.000Z</time>
      </trkpt>
      <trkpt lat="47.04218" lon="-1.18674">
        <ele>128</ele>
        <time>2020-09-13T08:07:15.000Z</time>
      </trkpt>
      <trkpt lat="47.04216" lon="-1.18671">
        <ele>128</ele>
        <time>2020-09-13T08:07:16.000Z</time>
      </trkpt>
      <trkpt lat="47.04215" lon="-1.18668">
        <ele>128</ele>
        <time>2020-09-13T08:07:17.000Z</time>
      </trkpt>
      <trkpt lat="47.04214" lon="-1.18667">
        <ele>128</ele>
        <time>2020-09-13T08:07:17.000Z</time>
      </trkpt>
      <trkpt lat="47.04213" lon="-1.18666">
        <ele>128</ele>
        <time>2020-09-13T08:07:17.000Z</time>
      </trkpt>
      <trkpt lat="47.04213" lon="-1.18665">
        <ele>128</ele>
        <time>2020-09-13T08:07:18.000Z</time>
      </trkpt>
      <trkpt lat="47.04212" lon="-1.18665">
        <ele>128</ele>
        <time>2020-09-13T08:07:18.000Z</time>
      </trkpt>
      <trkpt lat="47.04211" lon="-1.18664">
        <ele>128</ele>
        <time>2020-09-13T08:07:18.000Z</time>
      </trkpt>
      <trkpt lat="47.0421" lon="-1.18663">
        <ele>128</ele>
        <time>2020-09-13T08:07:19.000Z</time>
      </trkpt>
      <trkpt lat="47.04208" lon="-1.18663">
        <ele>128</ele>
        <time>2020-09-13T08:07:19.000Z</time>
      </trkpt>
      <trkpt lat="47.04206" lon="-1.18662">
        <ele>128</ele>
        <time>2020-09-13T08:07:20.000Z</time>
      </trkpt>
      <trkpt lat="47.04182" lon="-1.18659">
        <ele>129</ele>
        <time>2020-09-13T08:07:25.000Z</time>
      </trkpt>
      <trkpt lat="47.04159" lon="-1.18656">
        <ele>129</ele>
        <time>2020-09-13T08:07:30.000Z</time>
      </trkpt>
      <trkpt lat="47.04139" lon="-1.18653">
        <ele>129</ele>
        <time>2020-09-13T08:07:34.000Z</time>
      </trkpt>
      <trkpt lat="47.04118" lon="-1.18647">
        <ele>129</ele>
        <time>2020-09-13T08:07:38.000Z</time>
      </trkpt>
      <trkpt lat="47.04098" lon="-1.1864">
        <ele>128</ele>
        <time>2020-09-13T08:07:42.000Z</time>
      </trkpt>
      <trkpt lat="47.04073" lon="-1.18634">
        <ele>129</ele>
        <time>2020-09-13T08:07:47.000Z</time>
      </trkpt>
      <trkpt lat="47.04055" lon="-1.18628">
        <ele>130</ele>
        <time>2020-09-13T08:07:52.000Z</time>
      </trkpt>
      <trkpt lat="47.04039" lon="-1.18617">
        <ele>130</ele>
        <time>2020-09-13T08:07:56.000Z</time>
      </trkpt>
      <trkpt lat="47.04021" lon="-1.186">
        <ele>129</ele>
        <time>2020-09-13T08:08:00.000Z</time>
      </trkpt>
      <trkpt lat="47.04004" lon="-1.18583">
        <ele>127</ele>
        <time>2020-09-13T08:08:04.000Z</time>
      </trkpt>
      <trkpt lat="47.03981" lon="-1.18556">
        <ele>125</ele>
        <time>2020-09-13T08:08:08.000Z</time>
      </trkpt>
      <trkpt lat="47.03965" lon="-1.18533">
        <ele>123</ele>
        <time>2020-09-13T08:08:12.000Z</time>
      </trkpt>
      <trkpt lat="47.03951" lon="-1.18501">
        <ele>120</ele>
        <time>2020-09-13T08:08:17.000Z</time>
      </trkpt>
      <trkpt lat="47.03937" lon="-1.1848">
        <ele>118</ele>
        <time>2020-09-13T08:08:22.000Z</time>
      </trkpt>
      <trkpt lat="47.03923" lon="-1.18458">
        <ele>117</ele>
        <time>2020-09-13T08:08:26.000Z</time>
      </trkpt>
      <trkpt lat="47.03906" lon="-1.18431">
        <ele>116</ele>
        <time>2020-09-13T08:08:29.000Z</time>
      </trkpt>
      <trkpt lat="47.03885" lon="-1.18412">
        <ele>115</ele>
        <time>2020-09-13T08:08:32.000Z</time>
      </trkpt>
      <trkpt lat="47.03868" lon="-1.18399">
        <ele>113</ele>
        <time>2020-09-13T08:08:36.000Z</time>
      </trkpt>
      <trkpt lat="47.03856" lon="-1.18393">
        <ele>113</ele>
        <time>2020-09-13T08:08:40.000Z</time>
      </trkpt>
      <trkpt lat="47.03841" lon="-1.18391">
        <ele>114</ele>
        <time>2020-09-13T08:08:44.000Z</time>
      </trkpt>
      <trkpt lat="47.03828" lon="-1.18388">
        <ele>113</ele>
        <time>2020-09-13T08:08:47.000Z</time>
      </trkpt>
      <trkpt lat="47.03811" lon="-1.18388">
        <ele>114</ele>
        <time>2020-09-13T08:08:49.000Z</time>
      </trkpt>
      <trkpt lat="47.03796" lon="-1.1839">
        <ele>114</ele>
        <time>2020-09-13T08:08:53.000Z</time>
      </trkpt>
      <trkpt lat="47.03792" lon="-1.1839">
        <ele>114</ele>
        <time>2020-09-13T08:08:56.000Z</time>
      </trkpt>
      <trkpt lat="47.03788" lon="-1.18389">
        <ele>114</ele>
        <time>2020-09-13T08:08:58.000Z</time>
      </trkpt>
      <trkpt lat="47.03768" lon="-1.18386">
        <ele>113</ele>
        <time>2020-09-13T08:09:00.000Z</time>
      </trkpt>
      <trkpt lat="47.03754" lon="-1.18382">
        <ele>112</ele>
        <time>2020-09-13T08:09:04.000Z</time>
      </trkpt>
      <trkpt lat="47.03748" lon="-1.18376">
        <ele>110</ele>
        <time>2020-09-13T08:09:07.000Z</time>
      </trkpt>
      <trkpt lat="47.03742" lon="-1.18368">
        <ele>109</ele>
        <time>2020-09-13T08:09:09.000Z</time>
      </trkpt>
      <trkpt lat="47.03723" lon="-1.18338">
        <ele>108</ele>
        <time>2020-09-13T08:09:11.000Z</time>
      </trkpt>
      <trkpt lat="47.03707" lon="-1.18313">
        <ele>105</ele>
        <time>2020-09-13T08:09:16.000Z</time>
      </trkpt>
      <trkpt lat="47.03698" lon="-1.18289">
        <ele>102</ele>
        <time>2020-09-13T08:09:20.000Z</time>
      </trkpt>
      <trkpt lat="47.0369" lon="-1.18258">
        <ele>99</ele>
        <time>2020-09-13T08:09:23.000Z</time>
      </trkpt>
      <trkpt lat="47.03678" lon="-1.18219">
        <ele>98</ele>
        <time>2020-09-13T08:09:26.000Z</time>
      </trkpt>
      <trkpt lat="47.03665" lon="-1.18176">
        <ele>97</ele>
        <time>2020-09-13T08:09:30.000Z</time>
      </trkpt>
      <trkpt lat="47.03654" lon="-1.18138">
        <ele>96</ele>
        <time>2020-09-13T08:09:34.000Z</time>
      </trkpt>
      <trkpt lat="47.03645" lon="-1.18105">
        <ele>95</ele>
        <time>2020-09-13T08:09:38.000Z</time>
      </trkpt>
      <trkpt lat="47.03639" lon="-1.18074">
        <ele>94</ele>
        <time>2020-09-13T08:09:42.000Z</time>
      </trkpt>
      <trkpt lat="47.03635" lon="-1.18041">
        <ele>95</ele>
        <time>2020-09-13T08:09:46.000Z</time>
      </trkpt>
      <trkpt lat="47.03632" lon="-1.18007">
        <ele>93</ele>
        <time>2020-09-13T08:09:50.000Z</time>
      </trkpt>
      <trkpt lat="47.0363" lon="-1.17969">
        <ele>92</ele>
        <time>2020-09-13T08:09:54.000Z</time>
      </trkpt>
      <trkpt lat="47.03631" lon="-1.17934">
        <ele>91</ele>
        <time>2020-09-13T08:09:58.000Z</time>
      </trkpt>
      <trkpt lat="47.03635" lon="-1.17902">
        <ele>89</ele>
        <time>2020-09-13T08:10:02.000Z</time>
      </trkpt>
      <trkpt lat="47.0364" lon="-1.1787">
        <ele>88</ele>
        <time>2020-09-13T08:10:07.000Z</time>
      </trkpt>
      <trkpt lat="47.03638" lon="-1.17835">
        <ele>86</ele>
        <time>2020-09-13T08:10:12.000Z</time>
      </trkpt>
      <trkpt lat="47.03632" lon="-1.17803">
        <ele>86</ele>
        <time>2020-09-13T08:10:16.000Z</time>
      </trkpt>
      <trkpt lat="47.03629" lon="-1.17775">
        <ele>86</ele>
        <time>2020-09-13T08:10:20.000Z</time>
      </trkpt>
      <trkpt lat="47.03627" lon="-1.17747">
        <ele>88</ele>
        <time>2020-09-13T08:10:26.000Z</time>
      </trkpt>
      <trkpt lat="47.03625" lon="-1.17724">
        <ele>89</ele>
        <time>2020-09-13T08:10:31.000Z</time>
      </trkpt>
      <trkpt lat="47.03622" lon="-1.17705">
        <ele>90</ele>
        <time>2020-09-13T08:10:36.000Z</time>
      </trkpt>
      <trkpt lat="47.03618" lon="-1.17689">
        <ele>92</ele>
        <time>2020-09-13T08:10:40.000Z</time>
      </trkpt>
      <trkpt lat="47.03614" lon="-1.17672">
        <ele>94</ele>
        <time>2020-09-13T08:10:44.000Z</time>
      </trkpt>
      <trkpt lat="47.03608" lon="-1.17652">
        <ele>94</ele>
        <time>2020-09-13T08:10:48.000Z</time>
      </trkpt>
      <trkpt lat="47.03605" lon="-1.17638">
        <ele>95</ele>
        <time>2020-09-13T08:10:52.000Z</time>
      </trkpt>
      <trkpt lat="47.03601" lon="-1.17625">
        <ele>96</ele>
        <time>2020-09-13T08:10:54.000Z</time>
      </trkpt>
      <trkpt lat="47.03595" lon="-1.17602">
        <ele>96</ele>
        <time>2020-09-13T08:10:56.000Z</time>
      </trkpt>
      <trkpt lat="47.03592" lon="-1.17571">
        <ele>97</ele>
        <time>2020-09-13T08:11:00.000Z</time>
      </trkpt>
      <trkpt lat="47.03591" lon="-1.17547">
        <ele>101</ele>
        <time>2020-09-13T08:11:07.000Z</time>
      </trkpt>
      <trkpt lat="47.03592" lon="-1.17543">
        <ele>101</ele>
        <time>2020-09-13T08:11:09.000Z</time>
      </trkpt>
      <trkpt lat="47.03594" lon="-1.1754">
        <ele>101</ele>
        <time>2020-09-13T08:11:12.000Z</time>
      </trkpt>
      <trkpt lat="47.03596" lon="-1.17537">
        <ele>101</ele>
        <time>2020-09-13T08:11:14.000Z</time>
      </trkpt>
      <trkpt lat="47.03599" lon="-1.17535">
        <ele>101</ele>
        <time>2020-09-13T08:11:17.000Z</time>
      </trkpt>
      <trkpt lat="47.03601" lon="-1.17533">
        <ele>102</ele>
        <time>2020-09-13T08:11:19.000Z</time>
      </trkpt>
      <trkpt lat="47.03604" lon="-1.17531">
        <ele>103</ele>
        <time>2020-09-13T08:11:20.000Z</time>
      </trkpt>
      <trkpt lat="47.03606" lon="-1.17529">
        <ele>103</ele>
        <time>2020-09-13T08:11:22.000Z</time>
      </trkpt>
      <trkpt lat="47.03609" lon="-1.17528">
        <ele>104</ele>
        <time>2020-09-13T08:11:24.000Z</time>
      </trkpt>
      <trkpt lat="47.03611" lon="-1.17526">
        <ele>105</ele>
        <time>2020-09-13T08:11:26.000Z</time>
      </trkpt>
      <trkpt lat="47.03614" lon="-1.17525">
        <ele>105</ele>
        <time>2020-09-13T08:11:27.000Z</time>
      </trkpt>
      <trkpt lat="47.03616" lon="-1.17525">
        <ele>105</ele>
        <time>2020-09-13T08:11:29.000Z</time>
      </trkpt>
      <trkpt lat="47.03618" lon="-1.17524">
        <ele>105</ele>
        <time>2020-09-13T08:11:31.000Z</time>
      </trkpt>
      <trkpt lat="47.03621" lon="-1.17522">
        <ele>105</ele>
        <time>2020-09-13T08:11:33.000Z</time>
      </trkpt>
      <trkpt lat="47.03624" lon="-1.17521">
        <ele>106</ele>
        <time>2020-09-13T08:11:35.000Z</time>
      </trkpt>
      <trkpt lat="47.03628" lon="-1.17519">
        <ele>107</ele>
        <time>2020-09-13T08:11:37.000Z</time>
      </trkpt>
      <trkpt lat="47.03631" lon="-1.17517">
        <ele>108</ele>
        <time>2020-09-13T08:11:39.000Z</time>
      </trkpt>
      <trkpt lat="47.03634" lon="-1.17516">
        <ele>109</ele>
        <time>2020-09-13T08:11:41.000Z</time>
      </trkpt>
      <trkpt lat="47.03637" lon="-1.17514">
        <ele>110</ele>
        <time>2020-09-13T08:11:43.000Z</time>
      </trkpt>
      <trkpt lat="47.0364" lon="-1.17513">
        <ele>111</ele>
        <time>2020-09-13T08:11:46.000Z</time>
      </trkpt>
      <trkpt lat="47.03643" lon="-1.17511">
        <ele>113</ele>
        <time>2020-09-13T08:11:48.000Z</time>
      </trkpt>
      <trkpt lat="47.03646" lon="-1.1751">
        <ele>114</ele>
        <time>2020-09-13T08:11:51.000Z</time>
      </trkpt>
      <trkpt lat="47.03649" lon="-1.17509">
        <ele>116</ele>
        <time>2020-09-13T08:11:54.000Z</time>
      </trkpt>
      <trkpt lat="47.03651" lon="-1.17508">
        <ele>118</ele>
        <time>2020-09-13T08:11:57.000Z</time>
      </trkpt>
      <trkpt lat="47.03654" lon="-1.17508">
        <ele>119</ele>
        <time>2020-09-13T08:12:00.000Z</time>
      </trkpt>
      <trkpt lat="47.03664" lon="-1.17504">
        <ele>122</ele>
        <time>2020-09-13T08:12:12.000Z</time>
      </trkpt>
      <trkpt lat="47.03672" lon="-1.17502">
        <ele>126</ele>
        <time>2020-09-13T08:12:23.000Z</time>
      </trkpt>
      <trkpt lat="47.03679" lon="-1.175">
        <ele>130</ele>
        <time>2020-09-13T08:12:32.000Z</time>
      </trkpt>
      <trkpt lat="47.03686" lon="-1.17497">
        <ele>135</ele>
        <time>2020-09-13T08:12:41.000Z</time>
      </trkpt>
      <trkpt lat="47.03694" lon="-1.17494">
        <ele>137</ele>
        <time>2020-09-13T08:12:46.000Z</time>
      </trkpt>
      <trkpt lat="47.03697" lon="-1.17492">
        <ele>139</ele>
        <time>2020-09-13T08:12:51.000Z</time>
      </trkpt>
      <trkpt lat="47.03699" lon="-1.17491">
        <ele>139</ele>
        <time>2020-09-13T08:12:54.000Z</time>
      </trkpt>
      <trkpt lat="47.037" lon="-1.1749">
        <ele>139</ele>
        <time>2020-09-13T08:12:56.000Z</time>
      </trkpt>
      <trkpt lat="47.03706" lon="-1.17486">
        <ele>139</ele>
        <time>2020-09-13T08:12:58.000Z</time>
      </trkpt>
      <trkpt lat="47.03713" lon="-1.17481">
        <ele>139</ele>
        <time>2020-09-13T08:13:01.000Z</time>
      </trkpt>
      <trkpt lat="47.03718" lon="-1.17477">
        <ele>140</ele>
        <time>2020-09-13T08:13:03.000Z</time>
      </trkpt>
      <trkpt lat="47.03723" lon="-1.17473">
        <ele>141</ele>
        <time>2020-09-13T08:13:06.000Z</time>
      </trkpt>
      <trkpt lat="47.0373" lon="-1.17463">
        <ele>140</ele>
        <time>2020-09-13T08:13:18.000Z</time>
      </trkpt>
      <trkpt lat="47.03735" lon="-1.17452">
        <ele>132</ele>
        <time>2020-09-13T08:13:23.000Z</time>
      </trkpt>
      <trkpt lat="47.03739" lon="-1.17439">
        <ele>126</ele>
        <time>2020-09-13T08:13:28.000Z</time>
      </trkpt>
      <trkpt lat="47.0374" lon="-1.17416">
        <ele>121</ele>
        <time>2020-09-13T08:13:36.000Z</time>
      </trkpt>
      <trkpt lat="47.03736" lon="-1.17393">
        <ele>116</ele>
        <time>2020-09-13T08:13:42.000Z</time>
      </trkpt>
      <trkpt lat="47.03732" lon="-1.17364">
        <ele>116</ele>
        <time>2020-09-13T08:13:48.000Z</time>
      </trkpt>
      <trkpt lat="47.03727" lon="-1.17331">
        <ele>116</ele>
        <time>2020-09-13T08:13:53.000Z</time>
      </trkpt>
      <trkpt lat="47.03727" lon="-1.17293">
        <ele>115</ele>
        <time>2020-09-13T08:13:58.000Z</time>
      </trkpt>
      <trkpt lat="47.03731" lon="-1.17276">
        <ele>115</ele>
        <time>2020-09-13T08:14:00.000Z</time>
      </trkpt>
      <trkpt lat="47.03737" lon="-1.1726">
        <ele>115</ele>
        <time>2020-09-13T08:14:02.000Z</time>
      </trkpt>
      <trkpt lat="47.03739" lon="-1.17253">
        <ele>115</ele>
        <time>2020-09-13T08:14:03.000Z</time>
      </trkpt>
      <trkpt lat="47.0374" lon="-1.17245">
        <ele>115</ele>
        <time>2020-09-13T08:14:04.000Z</time>
      </trkpt>
      <trkpt lat="47.03741" lon="-1.17238">
        <ele>115</ele>
        <time>2020-09-13T08:14:05.000Z</time>
      </trkpt>
      <trkpt lat="47.03743" lon="-1.17231">
        <ele>115</ele>
        <time>2020-09-13T08:14:06.000Z</time>
      </trkpt>
      <trkpt lat="47.03743" lon="-1.17223">
        <ele>115</ele>
        <time>2020-09-13T08:14:07.000Z</time>
      </trkpt>
      <trkpt lat="47.03742" lon="-1.17215">
        <ele>115</ele>
        <time>2020-09-13T08:14:08.000Z</time>
      </trkpt>
      <trkpt lat="47.03741" lon="-1.17206">
        <ele>115</ele>
        <time>2020-09-13T08:14:10.000Z</time>
      </trkpt>
      <trkpt lat="47.03741" lon="-1.17198">
        <ele>114</ele>
        <time>2020-09-13T08:14:11.000Z</time>
      </trkpt>
      <trkpt lat="47.0374" lon="-1.1719">
        <ele>114</ele>
        <time>2020-09-13T08:14:12.000Z</time>
      </trkpt>
      <trkpt lat="47.03738" lon="-1.17182">
        <ele>114</ele>
        <time>2020-09-13T08:14:13.000Z</time>
      </trkpt>
      <trkpt lat="47.03736" lon="-1.17174">
        <ele>114</ele>
        <time>2020-09-13T08:14:15.000Z</time>
      </trkpt>
      <trkpt lat="47.03735" lon="-1.17166">
        <ele>114</ele>
        <time>2020-09-13T08:14:16.000Z</time>
      </trkpt>
      <trkpt lat="47.03734" lon="-1.17161">
        <ele>114</ele>
        <time>2020-09-13T08:14:17.000Z</time>
      </trkpt>
      <trkpt lat="47.03733" lon="-1.17158">
        <ele>114</ele>
        <time>2020-09-13T08:14:17.000Z</time>
      </trkpt>
      <trkpt lat="47.03733" lon="-1.17155">
        <ele>115</ele>
        <time>2020-09-13T08:14:18.000Z</time>
      </trkpt>
      <trkpt lat="47.03733" lon="-1.17153">
        <ele>115</ele>
        <time>2020-09-13T08:14:19.000Z</time>
      </trkpt>
      <trkpt lat="47.03732" lon="-1.17149">
        <ele>115</ele>
        <time>2020-09-13T08:14:20.000Z</time>
      </trkpt>
      <trkpt lat="47.0373" lon="-1.17145">
        <ele>115</ele>
        <time>2020-09-13T08:14:21.000Z</time>
      </trkpt>
      <trkpt lat="47.03729" lon="-1.17141">
        <ele>115</ele>
        <time>2020-09-13T08:14:23.000Z</time>
      </trkpt>
      <trkpt lat="47.03727" lon="-1.17137">
        <ele>114</ele>
        <time>2020-09-13T08:14:24.000Z</time>
      </trkpt>
      <trkpt lat="47.03725" lon="-1.1713">
        <ele>115</ele>
        <time>2020-09-13T08:14:26.000Z</time>
      </trkpt>
      <trkpt lat="47.03719" lon="-1.17107">
        <ele>114</ele>
        <time>2020-09-13T08:14:31.000Z</time>
      </trkpt>
      <trkpt lat="47.03709" lon="-1.17075">
        <ele>115</ele>
        <time>2020-09-13T08:14:38.000Z</time>
      </trkpt>
      <trkpt lat="47.037" lon="-1.17047">
        <ele>115</ele>
        <time>2020-09-13T08:14:44.000Z</time>
      </trkpt>
      <trkpt lat="47.03696" lon="-1.17037">
        <ele>115</ele>
        <time>2020-09-13T08:14:46.000Z</time>
      </trkpt>
      <trkpt lat="47.03694" lon="-1.17026">
        <ele>115</ele>
        <time>2020-09-13T08:14:48.000Z</time>
      </trkpt>
      <trkpt lat="47.03692" lon="-1.17014">
        <ele>115</ele>
        <time>2020-09-13T08:14:50.000Z</time>
      </trkpt>
      <trkpt lat="47.03689" lon="-1.16983">
        <ele>116</ele>
        <time>2020-09-13T08:14:55.000Z</time>
      </trkpt>
      <trkpt lat="47.03687" lon="-1.16948">
        <ele>116</ele>
        <time>2020-09-13T08:15:00.000Z</time>
      </trkpt>
      <trkpt lat="47.03688" lon="-1.16928">
        <ele>116</ele>
        <time>2020-09-13T08:15:03.000Z</time>
      </trkpt>
      <trkpt lat="47.0369" lon="-1.16916">
        <ele>116</ele>
        <time>2020-09-13T08:15:05.000Z</time>
      </trkpt>
      <trkpt lat="47.03698" lon="-1.16887">
        <ele>118</ele>
        <time>2020-09-13T08:15:12.000Z</time>
      </trkpt>
      <trkpt lat="47.03704" lon="-1.16855">
        <ele>119</ele>
        <time>2020-09-13T08:15:19.000Z</time>
      </trkpt>
      <trkpt lat="47.03706" lon="-1.16842">
        <ele>119</ele>
        <time>2020-09-13T08:15:22.000Z</time>
      </trkpt>
      <trkpt lat="47.03706" lon="-1.16824">
        <ele>120</ele>
        <time>2020-09-13T08:15:26.000Z</time>
      </trkpt>
      <trkpt lat="47.03705" lon="-1.16792">
        <ele>120</ele>
        <time>2020-09-13T08:15:33.000Z</time>
      </trkpt>
      <trkpt lat="47.03701" lon="-1.16759">
        <ele>121</ele>
        <time>2020-09-13T08:15:40.000Z</time>
      </trkpt>
      <trkpt lat="47.03694" lon="-1.16728">
        <ele>121</ele>
        <time>2020-09-13T08:15:47.000Z</time>
      </trkpt>
      <trkpt lat="47.03685" lon="-1.16696">
        <ele>122</ele>
        <time>2020-09-13T08:15:54.000Z</time>
      </trkpt>
      <trkpt lat="47.03677" lon="-1.16664">
        <ele>123</ele>
        <time>2020-09-13T08:16:01.000Z</time>
      </trkpt>
      <trkpt lat="47.03672" lon="-1.16632">
        <ele>123</ele>
        <time>2020-09-13T08:16:07.000Z</time>
      </trkpt>
      <trkpt lat="47.03666" lon="-1.16596">
        <ele>123</ele>
        <time>2020-09-13T08:16:13.000Z</time>
      </trkpt>
      <trkpt lat="47.03662" lon="-1.16563">
        <ele>123</ele>
        <time>2020-09-13T08:16:19.000Z</time>
      </trkpt>
      <trkpt lat="47.03661" lon="-1.16549">
        <ele>123</ele>
        <time>2020-09-13T08:16:22.000Z</time>
      </trkpt>
      <trkpt lat="47.03658" lon="-1.16531">
        <ele>123</ele>
        <time>2020-09-13T08:16:26.000Z</time>
      </trkpt>
      <trkpt lat="47.03653" lon="-1.16499">
        <ele>125</ele>
        <time>2020-09-13T08:16:33.000Z</time>
      </trkpt>
      <trkpt lat="47.03647" lon="-1.1647">
        <ele>126</ele>
        <time>2020-09-13T08:16:40.000Z</time>
      </trkpt>
      <trkpt lat="47.03641" lon="-1.16436">
        <ele>127</ele>
        <time>2020-09-13T08:16:47.000Z</time>
      </trkpt>
      <trkpt lat="47.03639" lon="-1.1642">
        <ele>126</ele>
        <time>2020-09-13T08:16:50.000Z</time>
      </trkpt>
      <trkpt lat="47.03638" lon="-1.16415">
        <ele>126</ele>
        <time>2020-09-13T08:16:51.000Z</time>
      </trkpt>
      <trkpt lat="47.03637" lon="-1.16405">
        <ele>126</ele>
        <time>2020-09-13T08:16:53.000Z</time>
      </trkpt>
      <trkpt lat="47.03632" lon="-1.16365">
        <ele>126</ele>
        <time>2020-09-13T08:16:59.000Z</time>
      </trkpt>
      <trkpt lat="47.0363" lon="-1.1633">
        <ele>125</ele>
        <time>2020-09-13T08:17:04.000Z</time>
      </trkpt>
      <trkpt lat="47.03629" lon="-1.16293">
        <ele>125</ele>
        <time>2020-09-13T08:17:09.000Z</time>
      </trkpt>
      <trkpt lat="47.03627" lon="-1.16255">
        <ele>125</ele>
        <time>2020-09-13T08:17:14.000Z</time>
      </trkpt>
      <trkpt lat="47.03624" lon="-1.16219">
        <ele>126</ele>
        <time>2020-09-13T08:17:19.000Z</time>
      </trkpt>
      <trkpt lat="47.03623" lon="-1.16212">
        <ele>126</ele>
        <time>2020-09-13T08:17:20.000Z</time>
      </trkpt>
      <trkpt lat="47.0362" lon="-1.16183">
        <ele>125</ele>
        <time>2020-09-13T08:17:24.000Z</time>
      </trkpt>
      <trkpt lat="47.03614" lon="-1.16145">
        <ele>125</ele>
        <time>2020-09-13T08:17:29.000Z</time>
      </trkpt>
      <trkpt lat="47.03608" lon="-1.16108">
        <ele>125</ele>
        <time>2020-09-13T08:17:34.000Z</time>
      </trkpt>
      <trkpt lat="47.036" lon="-1.1607">
        <ele>125</ele>
        <time>2020-09-13T08:17:39.000Z</time>
      </trkpt>
      <trkpt lat="47.03601" lon="-1.16053">
        <ele>124</ele>
        <time>2020-09-13T08:17:41.000Z</time>
      </trkpt>
      <trkpt lat="47.03604" lon="-1.16035">
        <ele>124</ele>
        <time>2020-09-13T08:17:43.000Z</time>
      </trkpt>
      <trkpt lat="47.03605" lon="-1.16027">
        <ele>124</ele>
        <time>2020-09-13T08:17:44.000Z</time>
      </trkpt>
      <trkpt lat="47.03606" lon="-1.16019">
        <ele>124</ele>
        <time>2020-09-13T08:17:45.000Z</time>
      </trkpt>
      <trkpt lat="47.03608" lon="-1.16012">
        <ele>124</ele>
        <time>2020-09-13T08:17:46.000Z</time>
      </trkpt>
      <trkpt lat="47.03609" lon="-1.16004">
        <ele>124</ele>
        <time>2020-09-13T08:17:47.000Z</time>
      </trkpt>
      <trkpt lat="47.03611" lon="-1.15997">
        <ele>123</ele>
        <time>2020-09-13T08:17:48.000Z</time>
      </trkpt>
      <trkpt lat="47.03612" lon="-1.1599">
        <ele>123</ele>
        <time>2020-09-13T08:17:50.000Z</time>
      </trkpt>
      <trkpt lat="47.03613" lon="-1.15983">
        <ele>122</ele>
        <time>2020-09-13T08:17:51.000Z</time>
      </trkpt>
      <trkpt lat="47.03614" lon="-1.15976">
        <ele>122</ele>
        <time>2020-09-13T08:17:53.000Z</time>
      </trkpt>
      <trkpt lat="47.03615" lon="-1.15969">
        <ele>122</ele>
        <time>2020-09-13T08:17:54.000Z</time>
      </trkpt>
      <trkpt lat="47.03615" lon="-1.15963">
        <ele>121</ele>
        <time>2020-09-13T08:17:55.000Z</time>
      </trkpt>
      <trkpt lat="47.03615" lon="-1.15957">
        <ele>120</ele>
        <time>2020-09-13T08:17:57.000Z</time>
      </trkpt>
      <trkpt lat="47.03616" lon="-1.15951">
        <ele>120</ele>
        <time>2020-09-13T08:17:58.000Z</time>
      </trkpt>
      <trkpt lat="47.03615" lon="-1.15945">
        <ele>120</ele>
        <time>2020-09-13T08:17:59.000Z</time>
      </trkpt>
      <trkpt lat="47.03615" lon="-1.15938">
        <ele>119</ele>
        <time>2020-09-13T08:18:00.000Z</time>
      </trkpt>
      <trkpt lat="47.03614" lon="-1.15932">
        <ele>119</ele>
        <time>2020-09-13T08:18:01.000Z</time>
      </trkpt>
      <trkpt lat="47.03613" lon="-1.15925">
        <ele>119</ele>
        <time>2020-09-13T08:18:02.000Z</time>
      </trkpt>
      <trkpt lat="47.03613" lon="-1.15919">
        <ele>119</ele>
        <time>2020-09-13T08:18:03.000Z</time>
      </trkpt>
      <trkpt lat="47.03612" lon="-1.15914">
        <ele>119</ele>
        <time>2020-09-13T08:18:04.000Z</time>
      </trkpt>
      <trkpt lat="47.03611" lon="-1.15908">
        <ele>119</ele>
        <time>2020-09-13T08:18:06.000Z</time>
      </trkpt>
      <trkpt lat="47.03611" lon="-1.15902">
        <ele>119</ele>
        <time>2020-09-13T08:18:07.000Z</time>
      </trkpt>
      <trkpt lat="47.03606" lon="-1.15895">
        <ele>118</ele>
        <time>2020-09-13T08:18:10.000Z</time>
      </trkpt>
      <trkpt lat="47.03601" lon="-1.15889">
        <ele>118</ele>
        <time>2020-09-13T08:18:14.000Z</time>
      </trkpt>
      <trkpt lat="47.03598" lon="-1.15886">
        <ele>118</ele>
        <time>2020-09-13T08:18:17.000Z</time>
      </trkpt>
      <trkpt lat="47.03596" lon="-1.15882">
        <ele>119</ele>
        <time>2020-09-13T08:18:21.000Z</time>
      </trkpt>
      <trkpt lat="47.03593" lon="-1.15878">
        <ele>119</ele>
        <time>2020-09-13T08:18:24.000Z</time>
      </trkpt>
      <trkpt lat="47.0359" lon="-1.15875">
        <ele>120</ele>
        <time>2020-09-13T08:18:28.000Z</time>
      </trkpt>
      <trkpt lat="47.03588" lon="-1.15873">
        <ele>120</ele>
        <time>2020-09-13T08:18:29.000Z</time>
      </trkpt>
      <trkpt lat="47.03587" lon="-1.15872">
        <ele>121</ele>
        <time>2020-09-13T08:18:31.000Z</time>
      </trkpt>
      <trkpt lat="47.03586" lon="-1.15871">
        <ele>121</ele>
        <time>2020-09-13T08:18:32.000Z</time>
      </trkpt>
      <trkpt lat="47.03585" lon="-1.15871">
        <ele>122</ele>
        <time>2020-09-13T08:18:34.000Z</time>
      </trkpt>
      <trkpt lat="47.03584" lon="-1.1587">
        <ele>122</ele>
        <time>2020-09-13T08:18:35.000Z</time>
      </trkpt>
      <trkpt lat="47.03582" lon="-1.1587">
        <ele>122</ele>
        <time>2020-09-13T08:18:36.000Z</time>
      </trkpt>
      <trkpt lat="47.03582" lon="-1.15869">
        <ele>122</ele>
        <time>2020-09-13T08:18:37.000Z</time>
      </trkpt>
      <trkpt lat="47.0358" lon="-1.15869">
        <ele>123</ele>
        <time>2020-09-13T08:18:38.000Z</time>
      </trkpt>
      <trkpt lat="47.03579" lon="-1.15868">
        <ele>123</ele>
        <time>2020-09-13T08:18:39.000Z</time>
      </trkpt>
      <trkpt lat="47.03577" lon="-1.15868">
        <ele>123</ele>
        <time>2020-09-13T08:18:39.000Z</time>
      </trkpt>
      <trkpt lat="47.03576" lon="-1.15867">
        <ele>123</ele>
        <time>2020-09-13T08:18:40.000Z</time>
      </trkpt>
      <trkpt lat="47.03574" lon="-1.15867">
        <ele>124</ele>
        <time>2020-09-13T08:18:41.000Z</time>
      </trkpt>
      <trkpt lat="47.03573" lon="-1.15866">
        <ele>124</ele>
        <time>2020-09-13T08:18:42.000Z</time>
      </trkpt>
      <trkpt lat="47.03572" lon="-1.15866">
        <ele>124</ele>
        <time>2020-09-13T08:18:43.000Z</time>
      </trkpt>
      <trkpt lat="47.03571" lon="-1.15866">
        <ele>125</ele>
        <time>2020-09-13T08:18:44.000Z</time>
      </trkpt>
      <trkpt lat="47.0357" lon="-1.15865">
        <ele>125</ele>
        <time>2020-09-13T08:18:45.000Z</time>
      </trkpt>
      <trkpt lat="47.03564" lon="-1.15863">
        <ele>129</ele>
        <time>2020-09-13T08:18:50.000Z</time>
      </trkpt>
      <trkpt lat="47.03554" lon="-1.15856">
        <ele>132</ele>
        <time>2020-09-13T08:18:56.000Z</time>
      </trkpt>
      <trkpt lat="47.0354" lon="-1.15846">
        <ele>134</ele>
        <time>2020-09-13T08:19:03.000Z</time>
      </trkpt>
      <trkpt lat="47.0354" lon="-1.15846">
        <ele>134</ele>
        <time>2020-09-13T08:19:03.000Z</time>
      </trkpt>
      <trkpt lat="47.03516" lon="-1.15837">
        <ele>133</ele>
        <time>2020-09-13T08:19:49.000Z</time>
      </trkpt>
      <trkpt lat="47.03501" lon="-1.15824">
        <ele>135</ele>
        <time>2020-09-13T08:20:02.000Z</time>
      </trkpt>
      <trkpt lat="47.03489" lon="-1.15816">
        <ele>135</ele>
        <time>2020-09-13T08:20:09.000Z</time>
      </trkpt>
      <trkpt lat="47.03476" lon="-1.15802">
        <ele>135</ele>
        <time>2020-09-13T08:20:13.000Z</time>
      </trkpt>
      <trkpt lat="47.03465" lon="-1.15784">
        <ele>136</ele>
        <time>2020-09-13T08:20:17.000Z</time>
      </trkpt>
      <trkpt lat="47.03449" lon="-1.15766">
        <ele>136</ele>
        <time>2020-09-13T08:20:22.000Z</time>
      </trkpt>
      <trkpt lat="47.03436" lon="-1.15744">
        <ele>135</ele>
        <time>2020-09-13T08:20:28.000Z</time>
      </trkpt>
      <trkpt lat="47.03431" lon="-1.15722">
        <ele>135</ele>
        <time>2020-09-13T08:20:34.000Z</time>
      </trkpt>
      <trkpt lat="47.03427" lon="-1.15691">
        <ele>135</ele>
        <time>2020-09-13T08:20:39.000Z</time>
      </trkpt>
      <trkpt lat="47.03421" lon="-1.15657">
        <ele>133</ele>
        <time>2020-09-13T08:20:44.000Z</time>
      </trkpt>
      <trkpt lat="47.0341" lon="-1.15628">
        <ele>131</ele>
        <time>2020-09-13T08:20:50.000Z</time>
      </trkpt>
      <trkpt lat="47.03394" lon="-1.15607">
        <ele>128</ele>
        <time>2020-09-13T08:20:56.000Z</time>
      </trkpt>
      <trkpt lat="47.03375" lon="-1.15585">
        <ele>126</ele>
        <time>2020-09-13T08:21:01.000Z</time>
      </trkpt>
      <trkpt lat="47.03355" lon="-1.15558">
        <ele>125</ele>
        <time>2020-09-13T08:21:05.000Z</time>
      </trkpt>
      <trkpt lat="47.03342" lon="-1.15535">
        <ele>123</ele>
        <time>2020-09-13T08:21:10.000Z</time>
      </trkpt>
      <trkpt lat="47.03337" lon="-1.15509">
        <ele>123</ele>
        <time>2020-09-13T08:21:15.000Z</time>
      </trkpt>
      <trkpt lat="47.03325" lon="-1.15484">
        <ele>123</ele>
        <time>2020-09-13T08:21:20.000Z</time>
      </trkpt>
      <trkpt lat="47.03317" lon="-1.15452">
        <ele>125</ele>
        <time>2020-09-13T08:21:26.000Z</time>
      </trkpt>
      <trkpt lat="47.03306" lon="-1.15424">
        <ele>125</ele>
        <time>2020-09-13T08:21:31.000Z</time>
      </trkpt>
      <trkpt lat="47.03292" lon="-1.154">
        <ele>125</ele>
        <time>2020-09-13T08:21:37.000Z</time>
      </trkpt>
      <trkpt lat="47.03281" lon="-1.15378">
        <ele>125</ele>
        <time>2020-09-13T08:21:42.000Z</time>
      </trkpt>
      <trkpt lat="47.03271" lon="-1.15346">
        <ele>127</ele>
        <time>2020-09-13T08:21:47.000Z</time>
      </trkpt>
      <trkpt lat="47.03267" lon="-1.15314">
        <ele>129</ele>
        <time>2020-09-13T08:21:53.000Z</time>
      </trkpt>
      <trkpt lat="47.03266" lon="-1.15289">
        <ele>131</ele>
        <time>2020-09-13T08:21:58.000Z</time>
      </trkpt>
      <trkpt lat="47.03263" lon="-1.15263">
        <ele>130</ele>
        <time>2020-09-13T08:22:10.000Z</time>
      </trkpt>
      <trkpt lat="47.03256" lon="-1.15236">
        <ele>130</ele>
        <time>2020-09-13T08:22:15.000Z</time>
      </trkpt>
      <trkpt lat="47.03251" lon="-1.15211">
        <ele>130</ele>
        <time>2020-09-13T08:22:25.000Z</time>
      </trkpt>
      <trkpt lat="47.03246" lon="-1.15184">
        <ele>128</ele>
        <time>2020-09-13T08:22:35.000Z</time>
      </trkpt>
      <trkpt lat="47.03242" lon="-1.15161">
        <ele>127</ele>
        <time>2020-09-13T08:22:44.000Z</time>
      </trkpt>
      <trkpt lat="47.03238" lon="-1.15132">
        <ele>127</ele>
        <time>2020-09-13T08:22:51.000Z</time>
      </trkpt>
      <trkpt lat="47.03233" lon="-1.15103">
        <ele>127</ele>
        <time>2020-09-13T08:22:56.000Z</time>
      </trkpt>
      <trkpt lat="47.03228" lon="-1.1507">
        <ele>126</ele>
        <time>2020-09-13T08:23:02.000Z</time>
      </trkpt>
      <trkpt lat="47.03219" lon="-1.1504">
        <ele>127</ele>
        <time>2020-09-13T08:23:09.000Z</time>
      </trkpt>
      <trkpt lat="47.03206" lon="-1.15019">
        <ele>125</ele>
        <time>2020-09-13T08:23:14.000Z</time>
      </trkpt>
      <trkpt lat="47.03189" lon="-1.15002">
        <ele>125</ele>
        <time>2020-09-13T08:23:20.000Z</time>
      </trkpt>
      <trkpt lat="47.03172" lon="-1.14986">
        <ele>124</ele>
        <time>2020-09-13T08:23:25.000Z</time>
      </trkpt>
      <trkpt lat="47.03152" lon="-1.1497">
        <ele>124</ele>
        <time>2020-09-13T08:23:30.000Z</time>
      </trkpt>
      <trkpt lat="47.03134" lon="-1.14963">
        <ele>122</ele>
        <time>2020-09-13T08:23:36.000Z</time>
      </trkpt>
      <trkpt lat="47.03119" lon="-1.14962">
        <ele>121</ele>
        <time>2020-09-13T08:23:43.000Z</time>
      </trkpt>
      <trkpt lat="47.03102" lon="-1.14962">
        <ele>120</ele>
        <time>2020-09-13T08:23:46.000Z</time>
      </trkpt>
      <trkpt lat="47.03075" lon="-1.14961">
        <ele>119</ele>
        <time>2020-09-13T08:23:49.000Z</time>
      </trkpt>
      <trkpt lat="47.03064" lon="-1.14954">
        <ele>119</ele>
        <time>2020-09-13T08:23:51.000Z</time>
      </trkpt>
      <trkpt lat="47.03054" lon="-1.14945">
        <ele>118</ele>
        <time>2020-09-13T08:23:53.000Z</time>
      </trkpt>
      <trkpt lat="47.03051" lon="-1.14941">
        <ele>118</ele>
        <time>2020-09-13T08:23:54.000Z</time>
      </trkpt>
      <trkpt lat="47.03048" lon="-1.14936">
        <ele>118</ele>
        <time>2020-09-13T08:23:55.000Z</time>
      </trkpt>
      <trkpt lat="47.03045" lon="-1.14932">
        <ele>117</ele>
        <time>2020-09-13T08:23:56.000Z</time>
      </trkpt>
      <trkpt lat="47.03042" lon="-1.14927">
        <ele>117</ele>
        <time>2020-09-13T08:23:57.000Z</time>
      </trkpt>
      <trkpt lat="47.0304" lon="-1.14923">
        <ele>117</ele>
        <time>2020-09-13T08:23:58.000Z</time>
      </trkpt>
      <trkpt lat="47.03038" lon="-1.14918">
        <ele>116</ele>
        <time>2020-09-13T08:24:00.000Z</time>
      </trkpt>
      <trkpt lat="47.03036" lon="-1.14914">
        <ele>116</ele>
        <time>2020-09-13T08:24:01.000Z</time>
      </trkpt>
      <trkpt lat="47.03034" lon="-1.1491">
        <ele>116</ele>
        <time>2020-09-13T08:24:03.000Z</time>
      </trkpt>
      <trkpt lat="47.03031" lon="-1.14904">
        <ele>115</ele>
        <time>2020-09-13T08:24:04.000Z</time>
      </trkpt>
      <trkpt lat="47.03028" lon="-1.14898">
        <ele>115</ele>
        <time>2020-09-13T08:24:05.000Z</time>
      </trkpt>
      <trkpt lat="47.03024" lon="-1.14892">
        <ele>115</ele>
        <time>2020-09-13T08:24:07.000Z</time>
      </trkpt>
      <trkpt lat="47.0302" lon="-1.14886">
        <ele>115</ele>
        <time>2020-09-13T08:24:08.000Z</time>
      </trkpt>
      <trkpt lat="47.03018" lon="-1.14881">
        <ele>114</ele>
        <time>2020-09-13T08:24:09.000Z</time>
      </trkpt>
      <trkpt lat="47.03016" lon="-1.14877">
        <ele>114</ele>
        <time>2020-09-13T08:24:10.000Z</time>
      </trkpt>
      <trkpt lat="47.03015" lon="-1.14873">
        <ele>114</ele>
        <time>2020-09-13T08:24:11.000Z</time>
      </trkpt>
      <trkpt lat="47.03013" lon="-1.1487">
        <ele>113</ele>
        <time>2020-09-13T08:24:12.000Z</time>
      </trkpt>
      <trkpt lat="47.03011" lon="-1.14863">
        <ele>113</ele>
        <time>2020-09-13T08:24:13.000Z</time>
      </trkpt>
      <trkpt lat="47.03008" lon="-1.14856">
        <ele>113</ele>
        <time>2020-09-13T08:24:13.000Z</time>
      </trkpt>
      <trkpt lat="47.03006" lon="-1.14849">
        <ele>112</ele>
        <time>2020-09-13T08:24:14.000Z</time>
      </trkpt>
      <trkpt lat="47.03003" lon="-1.1484">
        <ele>112</ele>
        <time>2020-09-13T08:24:15.000Z</time>
      </trkpt>
      <trkpt lat="47.02999" lon="-1.14817">
        <ele>111</ele>
        <time>2020-09-13T08:24:20.000Z</time>
      </trkpt>
      <trkpt lat="47.02996" lon="-1.14803">
        <ele>109</ele>
        <time>2020-09-13T08:24:24.000Z</time>
      </trkpt>
      <trkpt lat="47.02993" lon="-1.14792">
        <ele>110</ele>
        <time>2020-09-13T08:24:26.000Z</time>
      </trkpt>
      <trkpt lat="47.02987" lon="-1.14759">
        <ele>110</ele>
        <time>2020-09-13T08:24:28.000Z</time>
      </trkpt>
      <trkpt lat="47.02975" lon="-1.14735">
        <ele>108</ele>
        <time>2020-09-13T08:24:32.000Z</time>
      </trkpt>
      <trkpt lat="47.02967" lon="-1.14729">
        <ele>107</ele>
        <time>2020-09-13T08:24:34.000Z</time>
      </trkpt>
      <trkpt lat="47.02957" lon="-1.14726">
        <ele>104</ele>
        <time>2020-09-13T08:24:36.000Z</time>
      </trkpt>
      <trkpt lat="47.02948" lon="-1.14727">
        <ele>103</ele>
        <time>2020-09-13T08:24:39.000Z</time>
      </trkpt>
      <trkpt lat="47.0294" lon="-1.14731">
        <ele>102</ele>
        <time>2020-09-13T08:24:42.000Z</time>
      </trkpt>
      <trkpt lat="47.02937" lon="-1.14735">
        <ele>101</ele>
        <time>2020-09-13T08:24:45.000Z</time>
      </trkpt>
      <trkpt lat="47.02936" lon="-1.1474">
        <ele>100</ele>
        <time>2020-09-13T08:24:48.000Z</time>
      </trkpt>
      <trkpt lat="47.02935" lon="-1.14746">
        <ele>98</ele>
        <time>2020-09-13T08:24:51.000Z</time>
      </trkpt>
      <trkpt lat="47.02934" lon="-1.14753">
        <ele>97</ele>
        <time>2020-09-13T08:24:54.000Z</time>
      </trkpt>
      <trkpt lat="47.02932" lon="-1.14758">
        <ele>97</ele>
        <time>2020-09-13T08:24:55.000Z</time>
      </trkpt>
      <trkpt lat="47.0293" lon="-1.14764">
        <ele>97</ele>
        <time>2020-09-13T08:24:56.000Z</time>
      </trkpt>
      <trkpt lat="47.02927" lon="-1.14769">
        <ele>97</ele>
        <time>2020-09-13T08:24:57.000Z</time>
      </trkpt>
      <trkpt lat="47.02925" lon="-1.14775">
        <ele>98</ele>
        <time>2020-09-13T08:24:58.000Z</time>
      </trkpt>
      <trkpt lat="47.02922" lon="-1.14781">
        <ele>98</ele>
        <time>2020-09-13T08:24:59.000Z</time>
      </trkpt>
      <trkpt lat="47.0292" lon="-1.14788">
        <ele>98</ele>
        <time>2020-09-13T08:25:00.000Z</time>
      </trkpt>
      <trkpt lat="47.02917" lon="-1.14795">
        <ele>99</ele>
        <time>2020-09-13T08:25:01.000Z</time>
      </trkpt>
      <trkpt lat="47.02915" lon="-1.14803">
        <ele>99</ele>
        <time>2020-09-13T08:25:02.000Z</time>
      </trkpt>
      <trkpt lat="47.02913" lon="-1.14809">
        <ele>100</ele>
        <time>2020-09-13T08:25:03.000Z</time>
      </trkpt>
      <trkpt lat="47.02911" lon="-1.14814">
        <ele>100</ele>
        <time>2020-09-13T08:25:04.000Z</time>
      </trkpt>
      <trkpt lat="47.02909" lon="-1.14819">
        <ele>100</ele>
        <time>2020-09-13T08:25:05.000Z</time>
      </trkpt>
      <trkpt lat="47.02908" lon="-1.14824">
        <ele>100</ele>
        <time>2020-09-13T08:25:06.000Z</time>
      </trkpt>
      <trkpt lat="47.02906" lon="-1.14827">
        <ele>100</ele>
        <time>2020-09-13T08:25:06.000Z</time>
      </trkpt>
      <trkpt lat="47.02906" lon="-1.1483">
        <ele>100</ele>
        <time>2020-09-13T08:25:07.000Z</time>
      </trkpt>
      <trkpt lat="47.02906" lon="-1.14832">
        <ele>100</ele>
        <time>2020-09-13T08:25:07.000Z</time>
      </trkpt>
      <trkpt lat="47.02905" lon="-1.14834">
        <ele>100</ele>
        <time>2020-09-13T08:25:08.000Z</time>
      </trkpt>
      <trkpt lat="47.02905" lon="-1.14842">
        <ele>99</ele>
        <time>2020-09-13T08:25:09.000Z</time>
      </trkpt>
      <trkpt lat="47.02904" lon="-1.14851">
        <ele>99</ele>
        <time>2020-09-13T08:25:11.000Z</time>
      </trkpt>
      <trkpt lat="47.02903" lon="-1.14862">
        <ele>98</ele>
        <time>2020-09-13T08:25:12.000Z</time>
      </trkpt>
      <trkpt lat="47.02902" lon="-1.14874">
        <ele>98</ele>
        <time>2020-09-13T08:25:14.000Z</time>
      </trkpt>
      <trkpt lat="47.02901" lon="-1.14915">
        <ele>97</ele>
        <time>2020-09-13T08:25:18.000Z</time>
      </trkpt>
      <trkpt lat="47.02902" lon="-1.14953">
        <ele>95</ele>
        <time>2020-09-13T08:25:22.000Z</time>
      </trkpt>
      <trkpt lat="47.02902" lon="-1.14991">
        <ele>94</ele>
        <time>2020-09-13T08:25:27.000Z</time>
      </trkpt>
      <trkpt lat="47.02899" lon="-1.1501">
        <ele>92</ele>
        <time>2020-09-13T08:25:33.000Z</time>
      </trkpt>
      <trkpt lat="47.029" lon="-1.15017">
        <ele>92</ele>
        <time>2020-09-13T08:25:35.000Z</time>
      </trkpt>
      <trkpt lat="47.02902" lon="-1.15023">
        <ele>92</ele>
        <time>2020-09-13T08:25:37.000Z</time>
      </trkpt>
      <trkpt lat="47.02902" lon="-1.15027">
        <ele>92</ele>
        <time>2020-09-13T08:25:37.000Z</time>
      </trkpt>
      <trkpt lat="47.02902" lon="-1.15032">
        <ele>92</ele>
        <time>2020-09-13T08:25:38.000Z</time>
      </trkpt>
      <trkpt lat="47.02901" lon="-1.15037">
        <ele>92</ele>
        <time>2020-09-13T08:25:38.000Z</time>
      </trkpt>
      <trkpt lat="47.02901" lon="-1.15043">
        <ele>93</ele>
        <time>2020-09-13T08:25:39.000Z</time>
      </trkpt>
      <trkpt lat="47.029" lon="-1.15047">
        <ele>93</ele>
        <time>2020-09-13T08:25:39.000Z</time>
      </trkpt>
      <trkpt lat="47.029" lon="-1.15052">
        <ele>93</ele>
        <time>2020-09-13T08:25:40.000Z</time>
      </trkpt>
      <trkpt lat="47.02899" lon="-1.15057">
        <ele>93</ele>
        <time>2020-09-13T08:25:40.000Z</time>
      </trkpt>
      <trkpt lat="47.02898" lon="-1.15061">
        <ele>93</ele>
        <time>2020-09-13T08:25:41.000Z</time>
      </trkpt>
      <trkpt lat="47.02897" lon="-1.15068">
        <ele>93</ele>
        <time>2020-09-13T08:25:42.000Z</time>
      </trkpt>
      <trkpt lat="47.02895" lon="-1.15076">
        <ele>93</ele>
        <time>2020-09-13T08:25:43.000Z</time>
      </trkpt>
      <trkpt lat="47.02894" lon="-1.15085">
        <ele>93</ele>
        <time>2020-09-13T08:25:45.000Z</time>
      </trkpt>
      <trkpt lat="47.02893" lon="-1.15094">
        <ele>93</ele>
        <time>2020-09-13T08:25:46.000Z</time>
      </trkpt>
      <trkpt lat="47.02893" lon="-1.15094">
        <ele>93</ele>
        <time>2020-09-13T08:25:46.000Z</time>
      </trkpt>
      <trkpt lat="47.02877" lon="-1.15124">
        <ele>98</ele>
        <time>2020-09-13T08:26:11.000Z</time>
      </trkpt>
      <trkpt lat="47.02868" lon="-1.15137">
        <ele>101</ele>
        <time>2020-09-13T08:26:27.000Z</time>
      </trkpt>
      <trkpt lat="47.02858" lon="-1.15145">
        <ele>103</ele>
        <time>2020-09-13T08:26:40.000Z</time>
      </trkpt>
      <trkpt lat="47.02855" lon="-1.15145">
        <ele>104</ele>
        <time>2020-09-13T08:26:43.000Z</time>
      </trkpt>
      <trkpt lat="47.02851" lon="-1.15145">
        <ele>104</ele>
        <time>2020-09-13T08:26:47.000Z</time>
      </trkpt>
      <trkpt lat="47.0285" lon="-1.15145">
        <ele>105</ele>
        <time>2020-09-13T08:26:48.000Z</time>
      </trkpt>
      <trkpt lat="47.02849" lon="-1.15145">
        <ele>105</ele>
        <time>2020-09-13T08:26:49.000Z</time>
      </trkpt>
      <trkpt lat="47.02849" lon="-1.15145">
        <ele>105</ele>
        <time>2020-09-13T08:26:50.000Z</time>
      </trkpt>
      <trkpt lat="47.02848" lon="-1.15145">
        <ele>105</ele>
        <time>2020-09-13T08:26:51.000Z</time>
      </trkpt>
      <trkpt lat="47.02848" lon="-1.15145">
        <ele>105</ele>
        <time>2020-09-13T08:26:51.000Z</time>
      </trkpt>
      <trkpt lat="47.02847" lon="-1.15145">
        <ele>105</ele>
        <time>2020-09-13T08:26:52.000Z</time>
      </trkpt>
      <trkpt lat="47.02847" lon="-1.15145">
        <ele>105</ele>
        <time>2020-09-13T08:26:52.000Z</time>
      </trkpt>
      <trkpt lat="47.02847" lon="-1.15145">
        <ele>106</ele>
        <time>2020-09-13T08:26:53.000Z</time>
      </trkpt>
      <trkpt lat="47.02845" lon="-1.15145">
        <ele>106</ele>
        <time>2020-09-13T08:26:53.000Z</time>
      </trkpt>
      <trkpt lat="47.02843" lon="-1.15145">
        <ele>106</ele>
        <time>2020-09-13T08:26:54.000Z</time>
      </trkpt>
      <trkpt lat="47.0284" lon="-1.15145">
        <ele>106</ele>
        <time>2020-09-13T08:26:54.000Z</time>
      </trkpt>
      <trkpt lat="47.02838" lon="-1.15145">
        <ele>107</ele>
        <time>2020-09-13T08:26:55.000Z</time>
      </trkpt>
      <trkpt lat="47.02837" lon="-1.15145">
        <ele>107</ele>
        <time>2020-09-13T08:26:56.000Z</time>
      </trkpt>
      <trkpt lat="47.02836" lon="-1.15145">
        <ele>107</ele>
        <time>2020-09-13T08:26:57.000Z</time>
      </trkpt>
      <trkpt lat="47.02836" lon="-1.15145">
        <ele>107</ele>
        <time>2020-09-13T08:26:58.000Z</time>
      </trkpt>
      <trkpt lat="47.02836" lon="-1.15145">
        <ele>107</ele>
        <time>2020-09-13T08:26:59.000Z</time>
      </trkpt>
      <trkpt lat="47.02836" lon="-1.15145">
        <ele>108</ele>
        <time>2020-09-13T08:26:59.000Z</time>
      </trkpt>
      <trkpt lat="47.02835" lon="-1.15145">
        <ele>108</ele>
        <time>2020-09-13T08:27:00.000Z</time>
      </trkpt>
      <trkpt lat="47.02835" lon="-1.15145">
        <ele>108</ele>
        <time>2020-09-13T08:27:00.000Z</time>
      </trkpt>
      <trkpt lat="47.02835" lon="-1.15145">
        <ele>108</ele>
        <time>2020-09-13T08:27:01.000Z</time>
      </trkpt>
      <trkpt lat="47.02826" lon="-1.15146">
        <ele>108</ele>
        <time>2020-09-13T08:27:03.000Z</time>
      </trkpt>
      <trkpt lat="47.02823" lon="-1.15147">
        <ele>109</ele>
        <time>2020-09-13T08:27:08.000Z</time>
      </trkpt>
      <trkpt lat="47.02821" lon="-1.15147">
        <ele>109</ele>
        <time>2020-09-13T08:27:10.000Z</time>
      </trkpt>
      <trkpt lat="47.02813" lon="-1.15148">
        <ele>109</ele>
        <time>2020-09-13T08:27:12.000Z</time>
      </trkpt>
      <trkpt lat="47.0281" lon="-1.15149">
        <ele>111</ele>
        <time>2020-09-13T08:27:17.000Z</time>
      </trkpt>
      <trkpt lat="47.02808" lon="-1.15149">
        <ele>112</ele>
        <time>2020-09-13T08:27:20.000Z</time>
      </trkpt>
      <trkpt lat="47.02807" lon="-1.15149">
        <ele>113</ele>
        <time>2020-09-13T08:27:22.000Z</time>
      </trkpt>
      <trkpt lat="47.02807" lon="-1.15149">
        <ele>113</ele>
        <time>2020-09-13T08:27:22.000Z</time>
      </trkpt>
      <trkpt lat="47.02766" lon="-1.15151">
        <ele>119</ele>
        <time>2020-09-13T08:28:15.000Z</time>
      </trkpt>
      <trkpt lat="47.02766" lon="-1.15151">
        <ele>119</ele>
        <time>2020-09-13T08:28:15.000Z</time>
      </trkpt>
      <trkpt lat="47.02747" lon="-1.15154">
        <ele>117</ele>
        <time>2020-09-13T08:28:33.000Z</time>
      </trkpt>
      <trkpt lat="47.02734" lon="-1.15155">
        <ele>114</ele>
        <time>2020-09-13T08:28:47.000Z</time>
      </trkpt>
      <trkpt lat="47.02724" lon="-1.15154">
        <ele>113</ele>
        <time>2020-09-13T08:28:55.000Z</time>
      </trkpt>
      <trkpt lat="47.02719" lon="-1.15154">
        <ele>113</ele>
        <time>2020-09-13T08:29:02.000Z</time>
      </trkpt>
      <trkpt lat="47.02719" lon="-1.15154">
        <ele>113</ele>
        <time>2020-09-13T08:29:02.000Z</time>
      </trkpt>
      <trkpt lat="47.02691" lon="-1.15146">
        <ele>116</ele>
        <time>2020-09-13T08:29:28.000Z</time>
      </trkpt>
      <trkpt lat="47.02691" lon="-1.15146">
        <ele>116</ele>
        <time>2020-09-13T08:29:28.000Z</time>
      </trkpt>
      <trkpt lat="47.02663" lon="-1.15137">
        <ele>120</ele>
        <time>2020-09-13T08:29:59.000Z</time>
      </trkpt>
      <trkpt lat="47.02652" lon="-1.15135">
        <ele>124</ele>
        <time>2020-09-13T08:30:17.000Z</time>
      </trkpt>
      <trkpt lat="47.02644" lon="-1.15131">
        <ele>126</ele>
        <time>2020-09-13T08:30:27.000Z</time>
      </trkpt>
      <trkpt lat="47.02633" lon="-1.15125">
        <ele>127</ele>
        <time>2020-09-13T08:30:45.000Z</time>
      </trkpt>
      <trkpt lat="47.02623" lon="-1.15125">
        <ele>126</ele>
        <time>2020-09-13T08:30:59.000Z</time>
      </trkpt>
      <trkpt lat="47.02614" lon="-1.15124">
        <ele>126</ele>
        <time>2020-09-13T08:31:04.000Z</time>
      </trkpt>
      <trkpt lat="47.02602" lon="-1.15118">
        <ele>125</ele>
        <time>2020-09-13T08:31:10.000Z</time>
      </trkpt>
      <trkpt lat="47.0259" lon="-1.15111">
        <ele>126</ele>
        <time>2020-09-13T08:31:17.000Z</time>
      </trkpt>
      <trkpt lat="47.02581" lon="-1.15107">
        <ele>129</ele>
        <time>2020-09-13T08:31:23.000Z</time>
      </trkpt>
      <trkpt lat="47.0257" lon="-1.15101">
        <ele>131</ele>
        <time>2020-09-13T08:31:29.000Z</time>
      </trkpt>
      <trkpt lat="47.02557" lon="-1.1509">
        <ele>130</ele>
        <time>2020-09-13T08:31:34.000Z</time>
      </trkpt>
      <trkpt lat="47.02544" lon="-1.15075">
        <ele>129</ele>
        <time>2020-09-13T08:31:42.000Z</time>
      </trkpt>
      <trkpt lat="47.02532" lon="-1.15054">
        <ele>131</ele>
        <time>2020-09-13T08:31:50.000Z</time>
      </trkpt>
      <trkpt lat="47.02517" lon="-1.15032">
        <ele>132</ele>
        <time>2020-09-13T08:31:57.000Z</time>
      </trkpt>
      <trkpt lat="47.02503" lon="-1.15016">
        <ele>134</ele>
        <time>2020-09-13T08:32:04.000Z</time>
      </trkpt>
      <trkpt lat="47.02488" lon="-1.15">
        <ele>136</ele>
        <time>2020-09-13T08:32:13.000Z</time>
      </trkpt>
      <trkpt lat="47.02472" lon="-1.14982">
        <ele>138</ele>
        <time>2020-09-13T08:32:21.000Z</time>
      </trkpt>
      <trkpt lat="47.02452" lon="-1.14962">
        <ele>138</ele>
        <time>2020-09-13T08:32:28.000Z</time>
      </trkpt>
      <trkpt lat="47.02436" lon="-1.14944">
        <ele>137</ele>
        <time>2020-09-13T08:32:34.000Z</time>
      </trkpt>
      <trkpt lat="47.02425" lon="-1.14916">
        <ele>137</ele>
        <time>2020-09-13T08:32:41.000Z</time>
      </trkpt>
      <trkpt lat="47.02416" lon="-1.1489">
        <ele>137</ele>
        <time>2020-09-13T08:32:48.000Z</time>
      </trkpt>
      <trkpt lat="47.02405" lon="-1.14867">
        <ele>135</ele>
        <time>2020-09-13T08:32:55.000Z</time>
      </trkpt>
      <trkpt lat="47.02396" lon="-1.14847">
        <ele>133</ele>
        <time>2020-09-13T08:33:02.000Z</time>
      </trkpt>
      <trkpt lat="47.02389" lon="-1.1482">
        <ele>133</ele>
        <time>2020-09-13T08:33:08.000Z</time>
      </trkpt>
      <trkpt lat="47.0238" lon="-1.14795">
        <ele>132</ele>
        <time>2020-09-13T08:33:14.000Z</time>
      </trkpt>
      <trkpt lat="47.02367" lon="-1.14771">
        <ele>131</ele>
        <time>2020-09-13T08:33:20.000Z</time>
      </trkpt>
      <trkpt lat="47.02351" lon="-1.14745">
        <ele>131</ele>
        <time>2020-09-13T08:33:27.000Z</time>
      </trkpt>
      <trkpt lat="47.02331" lon="-1.14729">
        <ele>133</ele>
        <time>2020-09-13T08:33:33.000Z</time>
      </trkpt>
      <trkpt lat="47.0231" lon="-1.14725">
        <ele>133</ele>
        <time>2020-09-13T08:33:39.000Z</time>
      </trkpt>
      <trkpt lat="47.02288" lon="-1.14723">
        <ele>133</ele>
        <time>2020-09-13T08:33:46.000Z</time>
      </trkpt>
      <trkpt lat="47.02267" lon="-1.14719">
        <ele>134</ele>
        <time>2020-09-13T08:33:53.000Z</time>
      </trkpt>
      <trkpt lat="47.02263" lon="-1.14715">
        <ele>134</ele>
        <time>2020-09-13T08:33:54.000Z</time>
      </trkpt>
      <trkpt lat="47.02259" lon="-1.1471">
        <ele>135</ele>
        <time>2020-09-13T08:33:56.000Z</time>
      </trkpt>
      <trkpt lat="47.02256" lon="-1.14703">
        <ele>135</ele>
        <time>2020-09-13T08:33:57.000Z</time>
      </trkpt>
      <trkpt lat="47.02253" lon="-1.14697">
        <ele>136</ele>
        <time>2020-09-13T08:33:59.000Z</time>
      </trkpt>
      <trkpt lat="47.0225" lon="-1.14691">
        <ele>136</ele>
        <time>2020-09-13T08:34:00.000Z</time>
      </trkpt>
      <trkpt lat="47.02247" lon="-1.14686">
        <ele>136</ele>
        <time>2020-09-13T08:34:02.000Z</time>
      </trkpt>
      <trkpt lat="47.02244" lon="-1.14681">
        <ele>136</ele>
        <time>2020-09-13T08:34:03.000Z</time>
      </trkpt>
      <trkpt lat="47.02242" lon="-1.14676">
        <ele>136</ele>
        <time>2020-09-13T08:34:05.000Z</time>
      </trkpt>
      <trkpt lat="47.02239" lon="-1.14669">
        <ele>137</ele>
        <time>2020-09-13T08:34:06.000Z</time>
      </trkpt>
      <trkpt lat="47.02237" lon="-1.14661">
        <ele>137</ele>
        <time>2020-09-13T08:34:08.000Z</time>
      </trkpt>
      <trkpt lat="47.02234" lon="-1.14653">
        <ele>138</ele>
        <time>2020-09-13T08:34:09.000Z</time>
      </trkpt>
      <trkpt lat="47.02232" lon="-1.14645">
        <ele>138</ele>
        <time>2020-09-13T08:34:11.000Z</time>
      </trkpt>
      <trkpt lat="47.0223" lon="-1.14638">
        <ele>138</ele>
        <time>2020-09-13T08:34:12.000Z</time>
      </trkpt>
      <trkpt lat="47.02227" lon="-1.1463">
        <ele>138</ele>
        <time>2020-09-13T08:34:13.000Z</time>
      </trkpt>
      <trkpt lat="47.02225" lon="-1.14623">
        <ele>138</ele>
        <time>2020-09-13T08:34:15.000Z</time>
      </trkpt>
      <trkpt lat="47.02223" lon="-1.14616">
        <ele>138</ele>
        <time>2020-09-13T08:34:16.000Z</time>
      </trkpt>
      <trkpt lat="47.0222" lon="-1.14609">
        <ele>137</ele>
        <time>2020-09-13T08:34:17.000Z</time>
      </trkpt>
      <trkpt lat="47.02217" lon="-1.14601">
        <ele>137</ele>
        <time>2020-09-13T08:34:18.000Z</time>
      </trkpt>
      <trkpt lat="47.02214" lon="-1.14594">
        <ele>137</ele>
        <time>2020-09-13T08:34:20.000Z</time>
      </trkpt>
      <trkpt lat="47.02211" lon="-1.14587">
        <ele>136</ele>
        <time>2020-09-13T08:34:21.000Z</time>
      </trkpt>
      <trkpt lat="47.02209" lon="-1.14584">
        <ele>136</ele>
        <time>2020-09-13T08:34:21.000Z</time>
      </trkpt>
      <trkpt lat="47.02209" lon="-1.14582">
        <ele>136</ele>
        <time>2020-09-13T08:34:21.000Z</time>
      </trkpt>
      <trkpt lat="47.02209" lon="-1.14582">
        <ele>136</ele>
        <time>2020-09-13T08:34:22.000Z</time>
      </trkpt>
      <trkpt lat="47.02209" lon="-1.14582">
        <ele>136</ele>
        <time>2020-09-13T08:34:22.000Z</time>
      </trkpt>
      <trkpt lat="47.022" lon="-1.14554">
        <ele>135</ele>
        <time>2020-09-13T08:34:27.000Z</time>
      </trkpt>
      <trkpt lat="47.02199" lon="-1.14547">
        <ele>135</ele>
        <time>2020-09-13T08:34:28.000Z</time>
      </trkpt>
      <trkpt lat="47.02197" lon="-1.14541">
        <ele>135</ele>
        <time>2020-09-13T08:34:29.000Z</time>
      </trkpt>
      <trkpt lat="47.02195" lon="-1.14533">
        <ele>134</ele>
        <time>2020-09-13T08:34:30.000Z</time>
      </trkpt>
      <trkpt lat="47.0219" lon="-1.14519">
        <ele>134</ele>
        <time>2020-09-13T08:34:32.000Z</time>
      </trkpt>
      <trkpt lat="47.02187" lon="-1.14512">
        <ele>134</ele>
        <time>2020-09-13T08:34:33.000Z</time>
      </trkpt>
      <trkpt lat="47.02184" lon="-1.14505">
        <ele>134</ele>
        <time>2020-09-13T08:34:34.000Z</time>
      </trkpt>
      <trkpt lat="47.02181" lon="-1.14498">
        <ele>133</ele>
        <time>2020-09-13T08:34:35.000Z</time>
      </trkpt>
      <trkpt lat="47.02176" lon="-1.14484">
        <ele>133</ele>
        <time>2020-09-13T08:34:37.000Z</time>
      </trkpt>
      <trkpt lat="47.02162" lon="-1.14447">
        <ele>132</ele>
        <time>2020-09-13T08:34:42.000Z</time>
      </trkpt>
      <trkpt lat="47.02151" lon="-1.1441">
        <ele>132</ele>
        <time>2020-09-13T08:34:47.000Z</time>
      </trkpt>
      <trkpt lat="47.02143" lon="-1.14377">
        <ele>132</ele>
        <time>2020-09-13T08:34:51.000Z</time>
      </trkpt>
      <trkpt lat="47.02137" lon="-1.14345">
        <ele>131</ele>
        <time>2020-09-13T08:34:55.000Z</time>
      </trkpt>
      <trkpt lat="47.02129" lon="-1.14311">
        <ele>129</ele>
        <time>2020-09-13T08:34:59.000Z</time>
      </trkpt>
      <trkpt lat="47.02126" lon="-1.14295">
        <ele>128</ele>
        <time>2020-09-13T08:35:01.000Z</time>
      </trkpt>
      <trkpt lat="47.02122" lon="-1.14279">
        <ele>128</ele>
        <time>2020-09-13T08:35:03.000Z</time>
      </trkpt>
      <trkpt lat="47.02113" lon="-1.14238">
        <ele>127</ele>
        <time>2020-09-13T08:35:08.000Z</time>
      </trkpt>
      <trkpt lat="47.02103" lon="-1.14204">
        <ele>126</ele>
        <time>2020-09-13T08:35:12.000Z</time>
      </trkpt>
      <trkpt lat="47.02091" lon="-1.14171">
        <ele>124</ele>
        <time>2020-09-13T08:35:16.000Z</time>
      </trkpt>
      <trkpt lat="47.02078" lon="-1.14135">
        <ele>122</ele>
        <time>2020-09-13T08:35:21.000Z</time>
      </trkpt>
      <trkpt lat="47.02076" lon="-1.14115">
        <ele>122</ele>
        <time>2020-09-13T08:35:23.000Z</time>
      </trkpt>
      <trkpt lat="47.02076" lon="-1.14094">
        <ele>122</ele>
        <time>2020-09-13T08:35:26.000Z</time>
      </trkpt>
      <trkpt lat="47.02081" lon="-1.14076">
        <ele>122</ele>
        <time>2020-09-13T08:35:28.000Z</time>
      </trkpt>
      <trkpt lat="47.02089" lon="-1.14059">
        <ele>123</ele>
        <time>2020-09-13T08:35:30.000Z</time>
      </trkpt>
      <trkpt lat="47.02093" lon="-1.14052">
        <ele>123</ele>
        <time>2020-09-13T08:35:31.000Z</time>
      </trkpt>
      <trkpt lat="47.02097" lon="-1.14046">
        <ele>123</ele>
        <time>2020-09-13T08:35:32.000Z</time>
      </trkpt>
      <trkpt lat="47.021" lon="-1.1404">
        <ele>123</ele>
        <time>2020-09-13T08:35:33.000Z</time>
      </trkpt>
      <trkpt lat="47.02105" lon="-1.14034">
        <ele>123</ele>
        <time>2020-09-13T08:35:34.000Z</time>
      </trkpt>
      <trkpt lat="47.02109" lon="-1.14028">
        <ele>123</ele>
        <time>2020-09-13T08:35:35.000Z</time>
      </trkpt>
      <trkpt lat="47.02113" lon="-1.14022">
        <ele>123</ele>
        <time>2020-09-13T08:35:36.000Z</time>
      </trkpt>
      <trkpt lat="47.02118" lon="-1.14016">
        <ele>123</ele>
        <time>2020-09-13T08:35:38.000Z</time>
      </trkpt>
      <trkpt lat="47.02122" lon="-1.1401">
        <ele>124</ele>
        <time>2020-09-13T08:35:39.000Z</time>
      </trkpt>
      <trkpt lat="47.02127" lon="-1.14004">
        <ele>124</ele>
        <time>2020-09-13T08:35:40.000Z</time>
      </trkpt>
      <trkpt lat="47.02131" lon="-1.13999">
        <ele>124</ele>
        <time>2020-09-13T08:35:41.000Z</time>
      </trkpt>
      <trkpt lat="47.02135" lon="-1.13994">
        <ele>124</ele>
        <time>2020-09-13T08:35:43.000Z</time>
      </trkpt>
      <trkpt lat="47.02139" lon="-1.13988">
        <ele>125</ele>
        <time>2020-09-13T08:35:44.000Z</time>
      </trkpt>
      <trkpt lat="47.02144" lon="-1.13983">
        <ele>125</ele>
        <time>2020-09-13T08:35:45.000Z</time>
      </trkpt>
      <trkpt lat="47.02148" lon="-1.13977">
        <ele>125</ele>
        <time>2020-09-13T08:35:46.000Z</time>
      </trkpt>
      <trkpt lat="47.02153" lon="-1.13972">
        <ele>125</ele>
        <time>2020-09-13T08:35:48.000Z</time>
      </trkpt>
      <trkpt lat="47.02157" lon="-1.13967">
        <ele>125</ele>
        <time>2020-09-13T08:35:49.000Z</time>
      </trkpt>
      <trkpt lat="47.02161" lon="-1.13961">
        <ele>125</ele>
        <time>2020-09-13T08:35:50.000Z</time>
      </trkpt>
      <trkpt lat="47.02165" lon="-1.13955">
        <ele>126</ele>
        <time>2020-09-13T08:35:51.000Z</time>
      </trkpt>
      <trkpt lat="47.02169" lon="-1.13949">
        <ele>126</ele>
        <time>2020-09-13T08:35:53.000Z</time>
      </trkpt>
      <trkpt lat="47.02172" lon="-1.13943">
        <ele>126</ele>
        <time>2020-09-13T08:35:54.000Z</time>
      </trkpt>
      <trkpt lat="47.02188" lon="-1.13917">
        <ele>127</ele>
        <time>2020-09-13T08:35:59.000Z</time>
      </trkpt>
      <trkpt lat="47.02203" lon="-1.13891">
        <ele>129</ele>
        <time>2020-09-13T08:36:04.000Z</time>
      </trkpt>
      <trkpt lat="47.02219" lon="-1.13866">
        <ele>130</ele>
        <time>2020-09-13T08:36:09.000Z</time>
      </trkpt>
      <trkpt lat="47.02234" lon="-1.13838">
        <ele>132</ele>
        <time>2020-09-13T08:36:14.000Z</time>
      </trkpt>
      <trkpt lat="47.02248" lon="-1.13813">
        <ele>133</ele>
        <time>2020-09-13T08:36:19.000Z</time>
      </trkpt>
      <trkpt lat="47.02264" lon="-1.13792">
        <ele>134</ele>
        <time>2020-09-13T08:36:24.000Z</time>
      </trkpt>
      <trkpt lat="47.02269" lon="-1.1378">
        <ele>134</ele>
        <time>2020-09-13T08:36:26.000Z</time>
      </trkpt>
      <trkpt lat="47.02272" lon="-1.13768">
        <ele>134</ele>
        <time>2020-09-13T08:36:29.000Z</time>
      </trkpt>
      <trkpt lat="47.02273" lon="-1.13764">
        <ele>135</ele>
        <time>2020-09-13T08:36:30.000Z</time>
      </trkpt>
      <trkpt lat="47.02274" lon="-1.13763">
        <ele>135</ele>
        <time>2020-09-13T08:36:31.000Z</time>
      </trkpt>
      <trkpt lat="47.02275" lon="-1.13762">
        <ele>135</ele>
        <time>2020-09-13T08:36:32.000Z</time>
      </trkpt>
      <trkpt lat="47.02277" lon="-1.13761">
        <ele>135</ele>
        <time>2020-09-13T08:36:33.000Z</time>
      </trkpt>
      <trkpt lat="47.02278" lon="-1.1376">
        <ele>135</ele>
        <time>2020-09-13T08:36:33.000Z</time>
      </trkpt>
      <trkpt lat="47.02279" lon="-1.13759">
        <ele>136</ele>
        <time>2020-09-13T08:36:34.000Z</time>
      </trkpt>
      <trkpt lat="47.02279" lon="-1.13758">
        <ele>136</ele>
        <time>2020-09-13T08:36:34.000Z</time>
      </trkpt>
      <trkpt lat="47.0228" lon="-1.13757">
        <ele>136</ele>
        <time>2020-09-13T08:36:35.000Z</time>
      </trkpt>
      <trkpt lat="47.02283" lon="-1.13754">
        <ele>136</ele>
        <time>2020-09-13T08:36:35.000Z</time>
      </trkpt>
      <trkpt lat="47.02286" lon="-1.13749">
        <ele>136</ele>
        <time>2020-09-13T08:36:36.000Z</time>
      </trkpt>
      <trkpt lat="47.0229" lon="-1.13745">
        <ele>136</ele>
        <time>2020-09-13T08:36:36.000Z</time>
      </trkpt>
      <trkpt lat="47.02294" lon="-1.1374">
        <ele>136</ele>
        <time>2020-09-13T08:36:37.000Z</time>
      </trkpt>
      <trkpt lat="47.02298" lon="-1.13734">
        <ele>136</ele>
        <time>2020-09-13T08:36:38.000Z</time>
      </trkpt>
      <trkpt lat="47.02302" lon="-1.13727">
        <ele>136</ele>
        <time>2020-09-13T08:36:38.000Z</time>
      </trkpt>
      <trkpt lat="47.02306" lon="-1.1372">
        <ele>136</ele>
        <time>2020-09-13T08:36:39.000Z</time>
      </trkpt>
      <trkpt lat="47.02311" lon="-1.13712">
        <ele>136</ele>
        <time>2020-09-13T08:36:40.000Z</time>
      </trkpt>
      <trkpt lat="47.02314" lon="-1.13706">
        <ele>137</ele>
        <time>2020-09-13T08:36:41.000Z</time>
      </trkpt>
      <trkpt lat="47.02317" lon="-1.137">
        <ele>137</ele>
        <time>2020-09-13T08:36:41.000Z</time>
      </trkpt>
      <trkpt lat="47.02319" lon="-1.13694">
        <ele>137</ele>
        <time>2020-09-13T08:36:42.000Z</time>
      </trkpt>
      <trkpt lat="47.02322" lon="-1.13688">
        <ele>137</ele>
        <time>2020-09-13T08:36:43.000Z</time>
      </trkpt>
      <trkpt lat="47.0233" lon="-1.13658">
        <ele>137</ele>
        <time>2020-09-13T08:36:47.000Z</time>
      </trkpt>
      <trkpt lat="47.02337" lon="-1.13638">
        <ele>137</ele>
        <time>2020-09-13T08:36:52.000Z</time>
      </trkpt>
      <trkpt lat="47.02338" lon="-1.1362">
        <ele>136</ele>
        <time>2020-09-13T08:36:57.000Z</time>
      </trkpt>
      <trkpt lat="47.02337" lon="-1.13612">
        <ele>136</ele>
        <time>2020-09-13T08:36:59.000Z</time>
      </trkpt>
      <trkpt lat="47.02333" lon="-1.13604">
        <ele>135</ele>
        <time>2020-09-13T08:37:02.000Z</time>
      </trkpt>
      <trkpt lat="47.02333" lon="-1.13598">
        <ele>135</ele>
        <time>2020-09-13T08:37:03.000Z</time>
      </trkpt>
      <trkpt lat="47.02332" lon="-1.13593">
        <ele>134</ele>
        <time>2020-09-13T08:37:05.000Z</time>
      </trkpt>
      <trkpt lat="47.02332" lon="-1.13587">
        <ele>132</ele>
        <time>2020-09-13T08:37:06.000Z</time>
      </trkpt>
      <trkpt lat="47.02331" lon="-1.13581">
        <ele>131</ele>
        <time>2020-09-13T08:37:08.000Z</time>
      </trkpt>
      <trkpt lat="47.0233" lon="-1.13574">
        <ele>131</ele>
        <time>2020-09-13T08:37:09.000Z</time>
      </trkpt>
      <trkpt lat="47.0233" lon="-1.13568">
        <ele>130</ele>
        <time>2020-09-13T08:37:09.000Z</time>
      </trkpt>
      <trkpt lat="47.02329" lon="-1.13561">
        <ele>129</ele>
        <time>2020-09-13T08:37:10.000Z</time>
      </trkpt>
      <trkpt lat="47.02329" lon="-1.13555">
        <ele>129</ele>
        <time>2020-09-13T08:37:11.000Z</time>
      </trkpt>
      <trkpt lat="47.02328" lon="-1.13546">
        <ele>128</ele>
        <time>2020-09-13T08:37:12.000Z</time>
      </trkpt>
      <trkpt lat="47.02327" lon="-1.13536">
        <ele>128</ele>
        <time>2020-09-13T08:37:12.000Z</time>
      </trkpt>
      <trkpt lat="47.02327" lon="-1.13525">
        <ele>127</ele>
        <time>2020-09-13T08:37:13.000Z</time>
      </trkpt>
      <trkpt lat="47.02326" lon="-1.13514">
        <ele>127</ele>
        <time>2020-09-13T08:37:14.000Z</time>
      </trkpt>
      <trkpt lat="47.02325" lon="-1.13504">
        <ele>126</ele>
        <time>2020-09-13T08:37:15.000Z</time>
      </trkpt>
      <trkpt lat="47.02325" lon="-1.13495">
        <ele>125</ele>
        <time>2020-09-13T08:37:15.000Z</time>
      </trkpt>
      <trkpt lat="47.02325" lon="-1.13486">
        <ele>125</ele>
        <time>2020-09-13T08:37:16.000Z</time>
      </trkpt>
      <trkpt lat="47.02325" lon="-1.13477">
        <ele>124</ele>
        <time>2020-09-13T08:37:17.000Z</time>
      </trkpt>
      <trkpt lat="47.02324" lon="-1.13468">
        <ele>123</ele>
        <time>2020-09-13T08:37:18.000Z</time>
      </trkpt>
      <trkpt lat="47.02324" lon="-1.13459">
        <ele>122</ele>
        <time>2020-09-13T08:37:19.000Z</time>
      </trkpt>
      <trkpt lat="47.02323" lon="-1.13451">
        <ele>121</ele>
        <time>2020-09-13T08:37:20.000Z</time>
      </trkpt>
      <trkpt lat="47.02323" lon="-1.13442">
        <ele>119</ele>
        <time>2020-09-13T08:37:21.000Z</time>
      </trkpt>
      <trkpt lat="47.02318" lon="-1.1343">
        <ele>116</ele>
        <time>2020-09-13T08:37:23.000Z</time>
      </trkpt>
      <trkpt lat="47.02312" lon="-1.1342">
        <ele>113</ele>
        <time>2020-09-13T08:37:26.000Z</time>
      </trkpt>
      <trkpt lat="47.02309" lon="-1.13416">
        <ele>112</ele>
        <time>2020-09-13T08:37:27.000Z</time>
      </trkpt>
      <trkpt lat="47.02306" lon="-1.13412">
        <ele>112</ele>
        <time>2020-09-13T08:37:27.000Z</time>
      </trkpt>
      <trkpt lat="47.02303" lon="-1.13408">
        <ele>112</ele>
        <time>2020-09-13T08:37:28.000Z</time>
      </trkpt>
      <trkpt lat="47.02299" lon="-1.13405">
        <ele>112</ele>
        <time>2020-09-13T08:37:29.000Z</time>
      </trkpt>
      <trkpt lat="47.02296" lon="-1.13401">
        <ele>111</ele>
        <time>2020-09-13T08:37:30.000Z</time>
      </trkpt>
      <trkpt lat="47.02293" lon="-1.13396">
        <ele>111</ele>
        <time>2020-09-13T08:37:30.000Z</time>
      </trkpt>
      <trkpt lat="47.02289" lon="-1.13391">
        <ele>110</ele>
        <time>2020-09-13T08:37:31.000Z</time>
      </trkpt>
      <trkpt lat="47.02286" lon="-1.13386">
        <ele>110</ele>
        <time>2020-09-13T08:37:32.000Z</time>
      </trkpt>
      <trkpt lat="47.02282" lon="-1.13383">
        <ele>109</ele>
        <time>2020-09-13T08:37:33.000Z</time>
      </trkpt>
      <trkpt lat="47.02279" lon="-1.13381">
        <ele>109</ele>
        <time>2020-09-13T08:37:34.000Z</time>
      </trkpt>
      <trkpt lat="47.02276" lon="-1.13379">
        <ele>108</ele>
        <time>2020-09-13T08:37:36.000Z</time>
      </trkpt>
      <trkpt lat="47.02273" lon="-1.13377">
        <ele>107</ele>
        <time>2020-09-13T08:37:37.000Z</time>
      </trkpt>
      <trkpt lat="47.0227" lon="-1.13374">
        <ele>106</ele>
        <time>2020-09-13T08:37:38.000Z</time>
      </trkpt>
      <trkpt lat="47.02267" lon="-1.13372">
        <ele>106</ele>
        <time>2020-09-13T08:37:39.000Z</time>
      </trkpt>
      <trkpt lat="47.02264" lon="-1.13368">
        <ele>105</ele>
        <time>2020-09-13T08:37:40.000Z</time>
      </trkpt>
      <trkpt lat="47.02262" lon="-1.13365">
        <ele>105</ele>
        <time>2020-09-13T08:37:41.000Z</time>
      </trkpt>
      <trkpt lat="47.02259" lon="-1.13361">
        <ele>104</ele>
        <time>2020-09-13T08:37:42.000Z</time>
      </trkpt>
      <trkpt lat="47.02257" lon="-1.13357">
        <ele>104</ele>
        <time>2020-09-13T08:37:42.000Z</time>
      </trkpt>
      <trkpt lat="47.02255" lon="-1.13353">
        <ele>103</ele>
        <time>2020-09-13T08:37:43.000Z</time>
      </trkpt>
      <trkpt lat="47.02253" lon="-1.13348">
        <ele>103</ele>
        <time>2020-09-13T08:37:44.000Z</time>
      </trkpt>
      <trkpt lat="47.02241" lon="-1.1332">
        <ele>101</ele>
        <time>2020-09-13T08:37:47.000Z</time>
      </trkpt>
      <trkpt lat="47.0224" lon="-1.13311">
        <ele>100</ele>
        <time>2020-09-13T08:37:49.000Z</time>
      </trkpt>
      <trkpt lat="47.0224" lon="-1.13305">
        <ele>99</ele>
        <time>2020-09-13T08:37:51.000Z</time>
      </trkpt>
      <trkpt lat="47.0224" lon="-1.133">
        <ele>99</ele>
        <time>2020-09-13T08:37:52.000Z</time>
      </trkpt>
      <trkpt lat="47.0224" lon="-1.13296">
        <ele>98</ele>
        <time>2020-09-13T08:37:52.000Z</time>
      </trkpt>
      <trkpt lat="47.02241" lon="-1.13291">
        <ele>98</ele>
        <time>2020-09-13T08:37:53.000Z</time>
      </trkpt>
      <trkpt lat="47.02241" lon="-1.13287">
        <ele>97</ele>
        <time>2020-09-13T08:37:54.000Z</time>
      </trkpt>
      <trkpt lat="47.02241" lon="-1.13281">
        <ele>97</ele>
        <time>2020-09-13T08:37:54.000Z</time>
      </trkpt>
      <trkpt lat="47.02242" lon="-1.13274">
        <ele>97</ele>
        <time>2020-09-13T08:37:55.000Z</time>
      </trkpt>
      <trkpt lat="47.02242" lon="-1.13267">
        <ele>97</ele>
        <time>2020-09-13T08:37:55.000Z</time>
      </trkpt>
      <trkpt lat="47.02242" lon="-1.13259">
        <ele>96</ele>
        <time>2020-09-13T08:37:56.000Z</time>
      </trkpt>
      <trkpt lat="47.02242" lon="-1.13252">
        <ele>96</ele>
        <time>2020-09-13T08:37:57.000Z</time>
      </trkpt>
      <trkpt lat="47.02242" lon="-1.13244">
        <ele>96</ele>
        <time>2020-09-13T08:37:58.000Z</time>
      </trkpt>
      <trkpt lat="47.02242" lon="-1.13236">
        <ele>95</ele>
        <time>2020-09-13T08:37:59.000Z</time>
      </trkpt>
      <trkpt lat="47.02242" lon="-1.13229">
        <ele>95</ele>
        <time>2020-09-13T08:38:00.000Z</time>
      </trkpt>
      <trkpt lat="47.02241" lon="-1.1322">
        <ele>94</ele>
        <time>2020-09-13T08:38:01.000Z</time>
      </trkpt>
      <trkpt lat="47.0224" lon="-1.13212">
        <ele>93</ele>
        <time>2020-09-13T08:38:02.000Z</time>
      </trkpt>
      <trkpt lat="47.02239" lon="-1.13204">
        <ele>92</ele>
        <time>2020-09-13T08:38:04.000Z</time>
      </trkpt>
      <trkpt lat="47.02238" lon="-1.13195">
        <ele>91</ele>
        <time>2020-09-13T08:38:05.000Z</time>
      </trkpt>
      <trkpt lat="47.02237" lon="-1.13189">
        <ele>90</ele>
        <time>2020-09-13T08:38:06.000Z</time>
      </trkpt>
      <trkpt lat="47.02236" lon="-1.13184">
        <ele>90</ele>
        <time>2020-09-13T08:38:06.000Z</time>
      </trkpt>
      <trkpt lat="47.02235" lon="-1.1318">
        <ele>90</ele>
        <time>2020-09-13T08:38:07.000Z</time>
      </trkpt>
      <trkpt lat="47.02234" lon="-1.13176">
        <ele>89</ele>
        <time>2020-09-13T08:38:08.000Z</time>
      </trkpt>
      <trkpt lat="47.0223" lon="-1.13164">
        <ele>89</ele>
        <time>2020-09-13T08:38:10.000Z</time>
      </trkpt>
      <trkpt lat="47.02228" lon="-1.13158">
        <ele>88</ele>
        <time>2020-09-13T08:38:11.000Z</time>
      </trkpt>
      <trkpt lat="47.02217" lon="-1.13134">
        <ele>87</ele>
        <time>2020-09-13T08:38:15.000Z</time>
      </trkpt>
      <trkpt lat="47.02208" lon="-1.13101">
        <ele>86</ele>
        <time>2020-09-13T08:38:20.000Z</time>
      </trkpt>
      <trkpt lat="47.02198" lon="-1.13072">
        <ele>86</ele>
        <time>2020-09-13T08:38:25.000Z</time>
      </trkpt>
      <trkpt lat="47.02187" lon="-1.13037">
        <ele>86</ele>
        <time>2020-09-13T08:38:31.000Z</time>
      </trkpt>
      <trkpt lat="47.02182" lon="-1.1302">
        <ele>87</ele>
        <time>2020-09-13T08:38:34.000Z</time>
      </trkpt>
      <trkpt lat="47.02176" lon="-1.13005">
        <ele>87</ele>
        <time>2020-09-13T08:38:37.000Z</time>
      </trkpt>
      <trkpt lat="47.02162" lon="-1.12979">
        <ele>87</ele>
        <time>2020-09-13T08:38:43.000Z</time>
      </trkpt>
      <trkpt lat="47.02147" lon="-1.12952">
        <ele>86</ele>
        <time>2020-09-13T08:38:49.000Z</time>
      </trkpt>
      <trkpt lat="47.02144" lon="-1.12938">
        <ele>87</ele>
        <time>2020-09-13T08:38:52.000Z</time>
      </trkpt>
      <trkpt lat="47.02144" lon="-1.12922">
        <ele>87</ele>
        <time>2020-09-13T08:38:55.000Z</time>
      </trkpt>
      <trkpt lat="47.02143" lon="-1.12915">
        <ele>87</ele>
        <time>2020-09-13T08:38:56.000Z</time>
      </trkpt>
      <trkpt lat="47.02142" lon="-1.12908">
        <ele>88</ele>
        <time>2020-09-13T08:38:57.000Z</time>
      </trkpt>
      <trkpt lat="47.02142" lon="-1.12901">
        <ele>88</ele>
        <time>2020-09-13T08:38:59.000Z</time>
      </trkpt>
      <trkpt lat="47.0214" lon="-1.12894">
        <ele>88</ele>
        <time>2020-09-13T08:39:00.000Z</time>
      </trkpt>
      <trkpt lat="47.02139" lon="-1.12886">
        <ele>88</ele>
        <time>2020-09-13T08:39:01.000Z</time>
      </trkpt>
      <trkpt lat="47.02137" lon="-1.12879">
        <ele>88</ele>
        <time>2020-09-13T08:39:02.000Z</time>
      </trkpt>
      <trkpt lat="47.02135" lon="-1.12872">
        <ele>89</ele>
        <time>2020-09-13T08:39:03.000Z</time>
      </trkpt>
      <trkpt lat="47.02134" lon="-1.12865">
        <ele>89</ele>
        <time>2020-09-13T08:39:04.000Z</time>
      </trkpt>
      <trkpt lat="47.02131" lon="-1.1286">
        <ele>89</ele>
        <time>2020-09-13T08:39:05.000Z</time>
      </trkpt>
      <trkpt lat="47.02129" lon="-1.12855">
        <ele>89</ele>
        <time>2020-09-13T08:39:06.000Z</time>
      </trkpt>
      <trkpt lat="47.02126" lon="-1.1285">
        <ele>89</ele>
        <time>2020-09-13T08:39:07.000Z</time>
      </trkpt>
      <trkpt lat="47.02123" lon="-1.12845">
        <ele>89</ele>
        <time>2020-09-13T08:39:08.000Z</time>
      </trkpt>
      <trkpt lat="47.0212" lon="-1.12842">
        <ele>89</ele>
        <time>2020-09-13T08:39:09.000Z</time>
      </trkpt>
      <trkpt lat="47.02118" lon="-1.12839">
        <ele>89</ele>
        <time>2020-09-13T08:39:10.000Z</time>
      </trkpt>
      <trkpt lat="47.02116" lon="-1.12836">
        <ele>89</ele>
        <time>2020-09-13T08:39:11.000Z</time>
      </trkpt>
      <trkpt lat="47.02114" lon="-1.12833">
        <ele>90</ele>
        <time>2020-09-13T08:39:12.000Z</time>
      </trkpt>
      <trkpt lat="47.02112" lon="-1.1283">
        <ele>90</ele>
        <time>2020-09-13T08:39:13.000Z</time>
      </trkpt>
      <trkpt lat="47.0211" lon="-1.12826">
        <ele>90</ele>
        <time>2020-09-13T08:39:14.000Z</time>
      </trkpt>
      <trkpt lat="47.02108" lon="-1.12822">
        <ele>90</ele>
        <time>2020-09-13T08:39:15.000Z</time>
      </trkpt>
      <trkpt lat="47.02106" lon="-1.12819">
        <ele>90</ele>
        <time>2020-09-13T08:39:16.000Z</time>
      </trkpt>
      <trkpt lat="47.02106" lon="-1.12819">
        <ele>90</ele>
        <time>2020-09-13T08:39:16.000Z</time>
      </trkpt>
      <trkpt lat="47.02102" lon="-1.12798">
        <ele>98</ele>
        <time>2020-09-13T08:40:07.000Z</time>
      </trkpt>
      <trkpt lat="47.02104" lon="-1.12773">
        <ele>100</ele>
        <time>2020-09-13T08:40:16.000Z</time>
      </trkpt>
      <trkpt lat="47.02105" lon="-1.12744">
        <ele>98</ele>
        <time>2020-09-13T08:40:22.000Z</time>
      </trkpt>
      <trkpt lat="47.02111" lon="-1.1272">
        <ele>96</ele>
        <time>2020-09-13T08:40:26.000Z</time>
      </trkpt>
      <trkpt lat="47.02116" lon="-1.12695">
        <ele>96</ele>
        <time>2020-09-13T08:40:29.000Z</time>
      </trkpt>
      <trkpt lat="47.02117" lon="-1.12665">
        <ele>97</ele>
        <time>2020-09-13T08:40:33.000Z</time>
      </trkpt>
      <trkpt lat="47.02121" lon="-1.12636">
        <ele>98</ele>
        <time>2020-09-13T08:40:38.000Z</time>
      </trkpt>
      <trkpt lat="47.02126" lon="-1.12611">
        <ele>99</ele>
        <time>2020-09-13T08:40:43.000Z</time>
      </trkpt>
      <trkpt lat="47.02127" lon="-1.12582">
        <ele>99</ele>
        <time>2020-09-13T08:40:48.000Z</time>
      </trkpt>
      <trkpt lat="47.02128" lon="-1.12553">
        <ele>100</ele>
        <time>2020-09-13T08:40:54.000Z</time>
      </trkpt>
      <trkpt lat="47.02128" lon="-1.12523">
        <ele>100</ele>
        <time>2020-09-13T08:40:59.000Z</time>
      </trkpt>
      <trkpt lat="47.02129" lon="-1.12494">
        <ele>101</ele>
        <time>2020-09-13T08:41:04.000Z</time>
      </trkpt>
      <trkpt lat="47.02129" lon="-1.12474">
        <ele>100</ele>
        <time>2020-09-13T08:41:09.000Z</time>
      </trkpt>
      <trkpt lat="47.02128" lon="-1.12451">
        <ele>100</ele>
        <time>2020-09-13T08:41:12.000Z</time>
      </trkpt>
      <trkpt lat="47.02127" lon="-1.12418">
        <ele>101</ele>
        <time>2020-09-13T08:41:15.000Z</time>
      </trkpt>
      <trkpt lat="47.02126" lon="-1.12388">
        <ele>102</ele>
        <time>2020-09-13T08:41:19.000Z</time>
      </trkpt>
      <trkpt lat="47.02126" lon="-1.12364">
        <ele>104</ele>
        <time>2020-09-13T08:41:24.000Z</time>
      </trkpt>
      <trkpt lat="47.02125" lon="-1.12352">
        <ele>105</ele>
        <time>2020-09-13T08:41:28.000Z</time>
      </trkpt>
      <trkpt lat="47.02125" lon="-1.12345">
        <ele>105</ele>
        <time>2020-09-13T08:41:30.000Z</time>
      </trkpt>
      <trkpt lat="47.02124" lon="-1.1232">
        <ele>105</ele>
        <time>2020-09-13T08:41:32.000Z</time>
      </trkpt>
      <trkpt lat="47.02122" lon="-1.12293">
        <ele>105</ele>
        <time>2020-09-13T08:41:35.000Z</time>
      </trkpt>
      <trkpt lat="47.02119" lon="-1.1226">
        <ele>106</ele>
        <time>2020-09-13T08:41:39.000Z</time>
      </trkpt>
      <trkpt lat="47.02114" lon="-1.12224">
        <ele>106</ele>
        <time>2020-09-13T08:41:43.000Z</time>
      </trkpt>
      <trkpt lat="47.0211" lon="-1.12193">
        <ele>106</ele>
        <time>2020-09-13T08:41:47.000Z</time>
      </trkpt>
      <trkpt lat="47.02105" lon="-1.12167">
        <ele>106</ele>
        <time>2020-09-13T08:41:50.000Z</time>
      </trkpt>
      <trkpt lat="47.02098" lon="-1.12136">
        <ele>107</ele>
        <time>2020-09-13T08:41:53.000Z</time>
      </trkpt>
      <trkpt lat="47.02094" lon="-1.12111">
        <ele>108</ele>
        <time>2020-09-13T08:41:58.000Z</time>
      </trkpt>
      <trkpt lat="47.02092" lon="-1.12105">
        <ele>108</ele>
        <time>2020-09-13T08:42:01.000Z</time>
      </trkpt>
      <trkpt lat="47.0209" lon="-1.12099">
        <ele>107</ele>
        <time>2020-09-13T08:42:03.000Z</time>
      </trkpt>
      <trkpt lat="47.0208" lon="-1.12067">
        <ele>107</ele>
        <time>2020-09-13T08:42:05.000Z</time>
      </trkpt>
      <trkpt lat="47.02073" lon="-1.12044">
        <ele>107</ele>
        <time>2020-09-13T08:42:08.000Z</time>
      </trkpt>
      <trkpt lat="47.02071" lon="-1.12034">
        <ele>106</ele>
        <time>2020-09-13T08:42:12.000Z</time>
      </trkpt>
      <trkpt lat="47.02071" lon="-1.12027">
        <ele>106</ele>
        <time>2020-09-13T08:42:14.000Z</time>
      </trkpt>
      <trkpt lat="47.02069" lon="-1.12002">
        <ele>106</ele>
        <time>2020-09-13T08:42:16.000Z</time>
      </trkpt>
      <trkpt lat="47.02067" lon="-1.11976">
        <ele>106</ele>
        <time>2020-09-13T08:42:20.000Z</time>
      </trkpt>
      <trkpt lat="47.02063" lon="-1.11951">
        <ele>106</ele>
        <time>2020-09-13T08:42:24.000Z</time>
      </trkpt>
      <trkpt lat="47.0206" lon="-1.11932">
        <ele>105</ele>
        <time>2020-09-13T08:42:28.000Z</time>
      </trkpt>
      <trkpt lat="47.02056" lon="-1.11914">
        <ele>104</ele>
        <time>2020-09-13T08:42:30.000Z</time>
      </trkpt>
      <trkpt lat="47.02053" lon="-1.11895">
        <ele>104</ele>
        <time>2020-09-13T08:42:34.000Z</time>
      </trkpt>
      <trkpt lat="47.02051" lon="-1.11882">
        <ele>104</ele>
        <time>2020-09-13T08:42:36.000Z</time>
      </trkpt>
      <trkpt lat="47.02045" lon="-1.11858">
        <ele>104</ele>
        <time>2020-09-13T08:42:38.000Z</time>
      </trkpt>
      <trkpt lat="47.0204" lon="-1.11834">
        <ele>104</ele>
        <time>2020-09-13T08:42:41.000Z</time>
      </trkpt>
      <trkpt lat="47.02037" lon="-1.11824">
        <ele>103</ele>
        <time>2020-09-13T08:42:45.000Z</time>
      </trkpt>
      <trkpt lat="47.02033" lon="-1.11816">
        <ele>101</ele>
        <time>2020-09-13T08:42:47.000Z</time>
      </trkpt>
      <trkpt lat="47.02023" lon="-1.11795">
        <ele>101</ele>
        <time>2020-09-13T08:42:49.000Z</time>
      </trkpt>
      <trkpt lat="47.02017" lon="-1.11776">
        <ele>100</ele>
        <time>2020-09-13T08:42:53.000Z</time>
      </trkpt>
      <trkpt lat="47.02012" lon="-1.11756">
        <ele>99</ele>
        <time>2020-09-13T08:42:56.000Z</time>
      </trkpt>
      <trkpt lat="47.0201" lon="-1.11749">
        <ele>98</ele>
        <time>2020-09-13T08:42:59.000Z</time>
      </trkpt>
      <trkpt lat="47.02007" lon="-1.11743">
        <ele>97</ele>
        <time>2020-09-13T08:43:01.000Z</time>
      </trkpt>
      <trkpt lat="47.01989" lon="-1.11716">
        <ele>95</ele>
        <time>2020-09-13T08:43:03.000Z</time>
      </trkpt>
      <trkpt lat="47.01974" lon="-1.11689">
        <ele>94</ele>
        <time>2020-09-13T08:43:06.000Z</time>
      </trkpt>
      <trkpt lat="47.01957" lon="-1.11663">
        <ele>93</ele>
        <time>2020-09-13T08:43:10.000Z</time>
      </trkpt>
      <trkpt lat="47.01944" lon="-1.11644">
        <ele>93</ele>
        <time>2020-09-13T08:43:14.000Z</time>
      </trkpt>
      <trkpt lat="47.01933" lon="-1.11625">
        <ele>94</ele>
        <time>2020-09-13T08:43:18.000Z</time>
      </trkpt>
      <trkpt lat="47.01923" lon="-1.11615">
        <ele>95</ele>
        <time>2020-09-13T08:43:22.000Z</time>
      </trkpt>
      <trkpt lat="47.01918" lon="-1.11609">
        <ele>95</ele>
        <time>2020-09-13T08:43:24.000Z</time>
      </trkpt>
      <trkpt lat="47.019" lon="-1.11593">
        <ele>95</ele>
        <time>2020-09-13T08:43:26.000Z</time>
      </trkpt>
      <trkpt lat="47.01883" lon="-1.11571">
        <ele>97</ele>
        <time>2020-09-13T08:43:30.000Z</time>
      </trkpt>
      <trkpt lat="47.01871" lon="-1.1155">
        <ele>99</ele>
        <time>2020-09-13T08:43:35.000Z</time>
      </trkpt>
      <trkpt lat="47.01867" lon="-1.11546">
        <ele>100</ele>
        <time>2020-09-13T08:43:38.000Z</time>
      </trkpt>
      <trkpt lat="47.01865" lon="-1.11545">
        <ele>100</ele>
        <time>2020-09-13T08:43:41.000Z</time>
      </trkpt>
      <trkpt lat="47.01863" lon="-1.11547">
        <ele>101</ele>
        <time>2020-09-13T08:43:43.000Z</time>
      </trkpt>
      <trkpt lat="47.01861" lon="-1.1155">
        <ele>102</ele>
        <time>2020-09-13T08:43:46.000Z</time>
      </trkpt>
      <trkpt lat="47.01859" lon="-1.11554">
        <ele>103</ele>
        <time>2020-09-13T08:43:48.000Z</time>
      </trkpt>
      <trkpt lat="47.01857" lon="-1.11559">
        <ele>104</ele>
        <time>2020-09-13T08:43:51.000Z</time>
      </trkpt>
      <trkpt lat="47.01855" lon="-1.11561">
        <ele>105</ele>
        <time>2020-09-13T08:43:52.000Z</time>
      </trkpt>
      <trkpt lat="47.01854" lon="-1.11564">
        <ele>106</ele>
        <time>2020-09-13T08:43:54.000Z</time>
      </trkpt>
      <trkpt lat="47.01852" lon="-1.11566">
        <ele>106</ele>
        <time>2020-09-13T08:43:55.000Z</time>
      </trkpt>
      <trkpt lat="47.0185" lon="-1.11568">
        <ele>107</ele>
        <time>2020-09-13T08:43:57.000Z</time>
      </trkpt>
      <trkpt lat="47.01848" lon="-1.11571">
        <ele>107</ele>
        <time>2020-09-13T08:43:58.000Z</time>
      </trkpt>
      <trkpt lat="47.01847" lon="-1.11573">
        <ele>108</ele>
        <time>2020-09-13T08:43:59.000Z</time>
      </trkpt>
      <trkpt lat="47.01845" lon="-1.11576">
        <ele>108</ele>
        <time>2020-09-13T08:44:01.000Z</time>
      </trkpt>
      <trkpt lat="47.01844" lon="-1.11578">
        <ele>109</ele>
        <time>2020-09-13T08:44:02.000Z</time>
      </trkpt>
      <trkpt lat="47.01842" lon="-1.11582">
        <ele>109</ele>
        <time>2020-09-13T08:44:03.000Z</time>
      </trkpt>
      <trkpt lat="47.0184" lon="-1.11586">
        <ele>110</ele>
        <time>2020-09-13T08:44:03.000Z</time>
      </trkpt>
      <trkpt lat="47.01838" lon="-1.1159">
        <ele>110</ele>
        <time>2020-09-13T08:44:04.000Z</time>
      </trkpt>
      <trkpt lat="47.01836" lon="-1.11594">
        <ele>110</ele>
        <time>2020-09-13T08:44:05.000Z</time>
      </trkpt>
      <trkpt lat="47.01834" lon="-1.11599">
        <ele>110</ele>
        <time>2020-09-13T08:44:06.000Z</time>
      </trkpt>
      <trkpt lat="47.01831" lon="-1.11604">
        <ele>110</ele>
        <time>2020-09-13T08:44:07.000Z</time>
      </trkpt>
      <trkpt lat="47.01829" lon="-1.1161">
        <ele>110</ele>
        <time>2020-09-13T08:44:09.000Z</time>
      </trkpt>
      <trkpt lat="47.01826" lon="-1.11616">
        <ele>110</ele>
        <time>2020-09-13T08:44:10.000Z</time>
      </trkpt>
      <trkpt lat="47.01823" lon="-1.1162">
        <ele>111</ele>
        <time>2020-09-13T08:44:13.000Z</time>
      </trkpt>
      <trkpt lat="47.01821" lon="-1.11624">
        <ele>112</ele>
        <time>2020-09-13T08:44:16.000Z</time>
      </trkpt>
      <trkpt lat="47.01819" lon="-1.11629">
        <ele>113</ele>
        <time>2020-09-13T08:44:20.000Z</time>
      </trkpt>
      <trkpt lat="47.01817" lon="-1.11632">
        <ele>115</ele>
        <time>2020-09-13T08:44:23.000Z</time>
      </trkpt>
      <trkpt lat="47.01817" lon="-1.11632">
        <ele>115</ele>
        <time>2020-09-13T08:44:23.000Z</time>
      </trkpt>
      <trkpt lat="47.01802" lon="-1.11648">
        <ele>116</ele>
        <time>2020-09-13T08:44:54.000Z</time>
      </trkpt>
      <trkpt lat="47.01802" lon="-1.11648">
        <ele>116</ele>
        <time>2020-09-13T08:44:54.000Z</time>
      </trkpt>
      <trkpt lat="47.01813" lon="-1.11637">
        <ele>100</ele>
        <time>2020-09-13T08:52:02.000Z</time>
      </trkpt>
      <trkpt lat="47.01813" lon="-1.11637">
        <ele>100</ele>
        <time>2020-09-13T08:52:02.000Z</time>
      </trkpt>
      <trkpt lat="47.01806" lon="-1.11673">
        <ele>103</ele>
        <time>2020-09-13T08:52:48.000Z</time>
      </trkpt>
      <trkpt lat="47.01806" lon="-1.11673">
        <ele>103</ele>
        <time>2020-09-13T08:52:48.000Z</time>
      </trkpt>
      <trkpt lat="47.01786" lon="-1.1172">
        <ele>113</ele>
        <time>2020-09-13T08:53:28.000Z</time>
      </trkpt>
      <trkpt lat="47.01786" lon="-1.1172">
        <ele>113</ele>
        <time>2020-09-13T08:53:28.000Z</time>
      </trkpt>
      <trkpt lat="47.01767" lon="-1.11735">
        <ele>115</ele>
        <time>2020-09-13T08:53:50.000Z</time>
      </trkpt>
      <trkpt lat="47.01734" lon="-1.1175">
        <ele>120</ele>
        <time>2020-09-13T08:54:13.000Z</time>
      </trkpt>
      <trkpt lat="47.01734" lon="-1.1175">
        <ele>120</ele>
        <time>2020-09-13T08:54:13.000Z</time>
      </trkpt>
      <trkpt lat="47.01694" lon="-1.11769">
        <ele>121</ele>
        <time>2020-09-13T08:55:17.000Z</time>
      </trkpt>
      <trkpt lat="47.01694" lon="-1.11769">
        <ele>121</ele>
        <time>2020-09-13T08:55:17.000Z</time>
      </trkpt>
      <trkpt lat="47.01653" lon="-1.11764">
        <ele>122</ele>
        <time>2020-09-13T08:55:43.000Z</time>
      </trkpt>
      <trkpt lat="47.01617" lon="-1.11774">
        <ele>121</ele>
        <time>2020-09-13T08:55:57.000Z</time>
      </trkpt>
      <trkpt lat="47.01611" lon="-1.11782">
        <ele>122</ele>
        <time>2020-09-13T08:56:00.000Z</time>
      </trkpt>
      <trkpt lat="47.01607" lon="-1.11793">
        <ele>122</ele>
        <time>2020-09-13T08:56:04.000Z</time>
      </trkpt>
      <trkpt lat="47.01604" lon="-1.11805">
        <ele>123</ele>
        <time>2020-09-13T08:56:07.000Z</time>
      </trkpt>
      <trkpt lat="47.01601" lon="-1.11819">
        <ele>124</ele>
        <time>2020-09-13T08:56:11.000Z</time>
      </trkpt>
      <trkpt lat="47.01598" lon="-1.1183">
        <ele>124</ele>
        <time>2020-09-13T08:56:13.000Z</time>
      </trkpt>
      <trkpt lat="47.01595" lon="-1.11842">
        <ele>125</ele>
        <time>2020-09-13T08:56:15.000Z</time>
      </trkpt>
      <trkpt lat="47.01592" lon="-1.11854">
        <ele>127</ele>
        <time>2020-09-13T08:56:17.000Z</time>
      </trkpt>
      <trkpt lat="47.01589" lon="-1.11867">
        <ele>128</ele>
        <time>2020-09-13T08:56:19.000Z</time>
      </trkpt>
      <trkpt lat="47.01587" lon="-1.11877">
        <ele>129</ele>
        <time>2020-09-13T08:56:22.000Z</time>
      </trkpt>
      <trkpt lat="47.01585" lon="-1.11886">
        <ele>129</ele>
        <time>2020-09-13T08:56:25.000Z</time>
      </trkpt>
      <trkpt lat="47.01584" lon="-1.11895">
        <ele>130</ele>
        <time>2020-09-13T08:56:29.000Z</time>
      </trkpt>
      <trkpt lat="47.01582" lon="-1.11903">
        <ele>131</ele>
        <time>2020-09-13T08:56:32.000Z</time>
      </trkpt>
      <trkpt lat="47.01577" lon="-1.11902">
        <ele>131</ele>
        <time>2020-09-13T08:56:35.000Z</time>
      </trkpt>
      <trkpt lat="47.01569" lon="-1.11896">
        <ele>131</ele>
        <time>2020-09-13T08:56:37.000Z</time>
      </trkpt>
      <trkpt lat="47.01561" lon="-1.11887">
        <ele>130</ele>
        <time>2020-09-13T08:56:40.000Z</time>
      </trkpt>
      <trkpt lat="47.01552" lon="-1.11876">
        <ele>129</ele>
        <time>2020-09-13T08:56:43.000Z</time>
      </trkpt>
      <trkpt lat="47.01544" lon="-1.11872">
        <ele>129</ele>
        <time>2020-09-13T08:56:45.000Z</time>
      </trkpt>
      <trkpt lat="47.01535" lon="-1.11868">
        <ele>129</ele>
        <time>2020-09-13T08:56:47.000Z</time>
      </trkpt>
      <trkpt lat="47.01526" lon="-1.11865">
        <ele>128</ele>
        <time>2020-09-13T08:56:49.000Z</time>
      </trkpt>
      <trkpt lat="47.01517" lon="-1.11862">
        <ele>128</ele>
        <time>2020-09-13T08:56:51.000Z</time>
      </trkpt>
      <trkpt lat="47.01512" lon="-1.1186">
        <ele>127</ele>
        <time>2020-09-13T08:56:52.000Z</time>
      </trkpt>
      <trkpt lat="47.01507" lon="-1.11859">
        <ele>127</ele>
        <time>2020-09-13T08:56:53.000Z</time>
      </trkpt>
      <trkpt lat="47.01504" lon="-1.11859">
        <ele>127</ele>
        <time>2020-09-13T08:56:54.000Z</time>
      </trkpt>
      <trkpt lat="47.01501" lon="-1.11859">
        <ele>126</ele>
        <time>2020-09-13T08:56:55.000Z</time>
      </trkpt>
      <trkpt lat="47.01497" lon="-1.11862">
        <ele>126</ele>
        <time>2020-09-13T08:56:57.000Z</time>
      </trkpt>
      <trkpt lat="47.01492" lon="-1.11865">
        <ele>125</ele>
        <time>2020-09-13T08:56:58.000Z</time>
      </trkpt>
      <trkpt lat="47.01488" lon="-1.1187">
        <ele>125</ele>
        <time>2020-09-13T08:57:00.000Z</time>
      </trkpt>
      <trkpt lat="47.01484" lon="-1.11875">
        <ele>124</ele>
        <time>2020-09-13T08:57:02.000Z</time>
      </trkpt>
      <trkpt lat="47.01476" lon="-1.11882">
        <ele>122</ele>
        <time>2020-09-13T08:57:04.000Z</time>
      </trkpt>
      <trkpt lat="47.01468" lon="-1.1189">
        <ele>121</ele>
        <time>2020-09-13T08:57:06.000Z</time>
      </trkpt>
      <trkpt lat="47.0146" lon="-1.11898">
        <ele>119</ele>
        <time>2020-09-13T08:57:09.000Z</time>
      </trkpt>
      <trkpt lat="47.0145" lon="-1.11907">
        <ele>117</ele>
        <time>2020-09-13T08:57:11.000Z</time>
      </trkpt>
      <trkpt lat="47.01444" lon="-1.11914">
        <ele>116</ele>
        <time>2020-09-13T08:57:12.000Z</time>
      </trkpt>
      <trkpt lat="47.0144" lon="-1.1192">
        <ele>116</ele>
        <time>2020-09-13T08:57:13.000Z</time>
      </trkpt>
      <trkpt lat="47.01435" lon="-1.11925">
        <ele>115</ele>
        <time>2020-09-13T08:57:15.000Z</time>
      </trkpt>
      <trkpt lat="47.01432" lon="-1.1193">
        <ele>115</ele>
        <time>2020-09-13T08:57:16.000Z</time>
      </trkpt>
      <trkpt lat="47.01429" lon="-1.11935">
        <ele>115</ele>
        <time>2020-09-13T08:57:17.000Z</time>
      </trkpt>
      <trkpt lat="47.01426" lon="-1.11939">
        <ele>115</ele>
        <time>2020-09-13T08:57:18.000Z</time>
      </trkpt>
      <trkpt lat="47.01424" lon="-1.11942">
        <ele>115</ele>
        <time>2020-09-13T08:57:19.000Z</time>
      </trkpt>
      <trkpt lat="47.01422" lon="-1.11945">
        <ele>114</ele>
        <time>2020-09-13T08:57:20.000Z</time>
      </trkpt>
      <trkpt lat="47.01419" lon="-1.11949">
        <ele>114</ele>
        <time>2020-09-13T08:57:21.000Z</time>
      </trkpt>
      <trkpt lat="47.01417" lon="-1.11952">
        <ele>114</ele>
        <time>2020-09-13T08:57:21.000Z</time>
      </trkpt>
      <trkpt lat="47.01414" lon="-1.11956">
        <ele>114</ele>
        <time>2020-09-13T08:57:22.000Z</time>
      </trkpt>
      <trkpt lat="47.01412" lon="-1.1196">
        <ele>114</ele>
        <time>2020-09-13T08:57:23.000Z</time>
      </trkpt>
      <trkpt lat="47.01409" lon="-1.11966">
        <ele>114</ele>
        <time>2020-09-13T08:57:24.000Z</time>
      </trkpt>
      <trkpt lat="47.01406" lon="-1.11974">
        <ele>114</ele>
        <time>2020-09-13T08:57:25.000Z</time>
      </trkpt>
      <trkpt lat="47.01403" lon="-1.11982">
        <ele>114</ele>
        <time>2020-09-13T08:57:27.000Z</time>
      </trkpt>
      <trkpt lat="47.014" lon="-1.11991">
        <ele>114</ele>
        <time>2020-09-13T08:57:28.000Z</time>
      </trkpt>
      <trkpt lat="47.01399" lon="-1.11995">
        <ele>113</ele>
        <time>2020-09-13T08:57:31.000Z</time>
      </trkpt>
      <trkpt lat="47.01384" lon="-1.11988">
        <ele>112</ele>
        <time>2020-09-13T08:57:35.000Z</time>
      </trkpt>
      <trkpt lat="47.01364" lon="-1.11978">
        <ele>110</ele>
        <time>2020-09-13T08:57:40.000Z</time>
      </trkpt>
      <trkpt lat="47.0136" lon="-1.11976">
        <ele>110</ele>
        <time>2020-09-13T08:57:40.000Z</time>
      </trkpt>
      <trkpt lat="47.01357" lon="-1.11975">
        <ele>110</ele>
        <time>2020-09-13T08:57:41.000Z</time>
      </trkpt>
      <trkpt lat="47.01355" lon="-1.11975">
        <ele>109</ele>
        <time>2020-09-13T08:57:41.000Z</time>
      </trkpt>
      <trkpt lat="47.01354" lon="-1.11975">
        <ele>109</ele>
        <time>2020-09-13T08:57:42.000Z</time>
      </trkpt>
      <trkpt lat="47.01353" lon="-1.11973">
        <ele>109</ele>
        <time>2020-09-13T08:57:42.000Z</time>
      </trkpt>
      <trkpt lat="47.01353" lon="-1.11972">
        <ele>109</ele>
        <time>2020-09-13T08:57:43.000Z</time>
      </trkpt>
      <trkpt lat="47.01353" lon="-1.11971">
        <ele>109</ele>
        <time>2020-09-13T08:57:43.000Z</time>
      </trkpt>
      <trkpt lat="47.01353" lon="-1.11969">
        <ele>109</ele>
        <time>2020-09-13T08:57:44.000Z</time>
      </trkpt>
      <trkpt lat="47.01361" lon="-1.11951">
        <ele>107</ele>
        <time>2020-09-13T08:57:48.000Z</time>
      </trkpt>
      <trkpt lat="47.01373" lon="-1.11925">
        <ele>104</ele>
        <time>2020-09-13T08:57:52.000Z</time>
      </trkpt>
      <trkpt lat="47.01376" lon="-1.11917">
        <ele>104</ele>
        <time>2020-09-13T08:57:53.000Z</time>
      </trkpt>
      <trkpt lat="47.01379" lon="-1.1191">
        <ele>103</ele>
        <time>2020-09-13T08:57:55.000Z</time>
      </trkpt>
      <trkpt lat="47.01381" lon="-1.11905">
        <ele>103</ele>
        <time>2020-09-13T08:57:56.000Z</time>
      </trkpt>
      <trkpt lat="47.01382" lon="-1.11899">
        <ele>103</ele>
        <time>2020-09-13T08:57:58.000Z</time>
      </trkpt>
      <trkpt lat="47.01385" lon="-1.11894">
        <ele>102</ele>
        <time>2020-09-13T08:57:59.000Z</time>
      </trkpt>
      <trkpt lat="47.01389" lon="-1.11889">
        <ele>102</ele>
        <time>2020-09-13T08:58:00.000Z</time>
      </trkpt>
      <trkpt lat="47.01392" lon="-1.11884">
        <ele>102</ele>
        <time>2020-09-13T08:58:01.000Z</time>
      </trkpt>
      <trkpt lat="47.01396" lon="-1.11879">
        <ele>102</ele>
        <time>2020-09-13T08:58:02.000Z</time>
      </trkpt>
      <trkpt lat="47.01401" lon="-1.11874">
        <ele>102</ele>
        <time>2020-09-13T08:58:03.000Z</time>
      </trkpt>
      <trkpt lat="47.01405" lon="-1.11869">
        <ele>101</ele>
        <time>2020-09-13T08:58:04.000Z</time>
      </trkpt>
      <trkpt lat="47.01411" lon="-1.11863">
        <ele>101</ele>
        <time>2020-09-13T08:58:06.000Z</time>
      </trkpt>
      <trkpt lat="47.01416" lon="-1.11857">
        <ele>100</ele>
        <time>2020-09-13T08:58:07.000Z</time>
      </trkpt>
      <trkpt lat="47.01417" lon="-1.11852">
        <ele>100</ele>
        <time>2020-09-13T08:58:08.000Z</time>
      </trkpt>
      <trkpt lat="47.01417" lon="-1.11847">
        <ele>100</ele>
        <time>2020-09-13T08:58:09.000Z</time>
      </trkpt>
      <trkpt lat="47.01416" lon="-1.11841">
        <ele>100</ele>
        <time>2020-09-13T08:58:10.000Z</time>
      </trkpt>
      <trkpt lat="47.01414" lon="-1.11836">
        <ele>100</ele>
        <time>2020-09-13T08:58:11.000Z</time>
      </trkpt>
      <trkpt lat="47.01415" lon="-1.11826">
        <ele>100</ele>
        <time>2020-09-13T08:58:13.000Z</time>
      </trkpt>
      <trkpt lat="47.01417" lon="-1.11814">
        <ele>100</ele>
        <time>2020-09-13T08:58:15.000Z</time>
      </trkpt>
      <trkpt lat="47.01419" lon="-1.11801">
        <ele>101</ele>
        <time>2020-09-13T08:58:17.000Z</time>
      </trkpt>
      <trkpt lat="47.01421" lon="-1.11787">
        <ele>101</ele>
        <time>2020-09-13T08:58:19.000Z</time>
      </trkpt>
      <trkpt lat="47.01422" lon="-1.11775">
        <ele>101</ele>
        <time>2020-09-13T08:58:21.000Z</time>
      </trkpt>
      <trkpt lat="47.01424" lon="-1.11763">
        <ele>102</ele>
        <time>2020-09-13T08:58:24.000Z</time>
      </trkpt>
      <trkpt lat="47.01425" lon="-1.11751">
        <ele>102</ele>
        <time>2020-09-13T08:58:26.000Z</time>
      </trkpt>
      <trkpt lat="47.01426" lon="-1.1174">
        <ele>102</ele>
        <time>2020-09-13T08:58:29.000Z</time>
      </trkpt>
      <trkpt lat="47.01428" lon="-1.11727">
        <ele>102</ele>
        <time>2020-09-13T08:58:31.000Z</time>
      </trkpt>
      <trkpt lat="47.01429" lon="-1.11714">
        <ele>101</ele>
        <time>2020-09-13T08:58:33.000Z</time>
      </trkpt>
      <trkpt lat="47.01431" lon="-1.11702">
        <ele>101</ele>
        <time>2020-09-13T08:58:36.000Z</time>
      </trkpt>
      <trkpt lat="47.01432" lon="-1.11689">
        <ele>100</ele>
        <time>2020-09-13T08:58:38.000Z</time>
      </trkpt>
      <trkpt lat="47.01435" lon="-1.11676">
        <ele>100</ele>
        <time>2020-09-13T08:58:41.000Z</time>
      </trkpt>
      <trkpt lat="47.01439" lon="-1.11663">
        <ele>99</ele>
        <time>2020-09-13T08:58:43.000Z</time>
      </trkpt>
      <trkpt lat="47.01444" lon="-1.1165">
        <ele>99</ele>
        <time>2020-09-13T08:58:46.000Z</time>
      </trkpt>
      <trkpt lat="47.01449" lon="-1.11638">
        <ele>98</ele>
        <time>2020-09-13T08:58:49.000Z</time>
      </trkpt>
      <trkpt lat="47.01452" lon="-1.1163">
        <ele>98</ele>
        <time>2020-09-13T08:58:50.000Z</time>
      </trkpt>
      <trkpt lat="47.01454" lon="-1.11626">
        <ele>98</ele>
        <time>2020-09-13T08:58:51.000Z</time>
      </trkpt>
      <trkpt lat="47.01455" lon="-1.11622">
        <ele>98</ele>
        <time>2020-09-13T08:58:52.000Z</time>
      </trkpt>
      <trkpt lat="47.01457" lon="-1.1162">
        <ele>98</ele>
        <time>2020-09-13T08:58:53.000Z</time>
      </trkpt>
      <trkpt lat="47.01465" lon="-1.11603">
        <ele>98</ele>
        <time>2020-09-13T08:58:58.000Z</time>
      </trkpt>
      <trkpt lat="47.01468" lon="-1.11593">
        <ele>98</ele>
        <time>2020-09-13T08:59:02.000Z</time>
      </trkpt>
      <trkpt lat="47.01493" lon="-1.11552">
        <ele>101</ele>
        <time>2020-09-13T08:59:17.000Z</time>
      </trkpt>
      <trkpt lat="47.01493" lon="-1.11552">
        <ele>101</ele>
        <time>2020-09-13T08:59:17.000Z</time>
      </trkpt>
      <trkpt lat="47.015" lon="-1.11534">
        <ele>105</ele>
        <time>2020-09-13T08:59:35.000Z</time>
      </trkpt>
      <trkpt lat="47.015" lon="-1.11534">
        <ele>105</ele>
        <time>2020-09-13T08:59:35.000Z</time>
      </trkpt>
      <trkpt lat="47.01508" lon="-1.1151">
        <ele>110</ele>
        <time>2020-09-13T09:00:24.000Z</time>
      </trkpt>
      <trkpt lat="47.01516" lon="-1.1146">
        <ele>112</ele>
        <time>2020-09-13T09:00:41.000Z</time>
      </trkpt>
      <trkpt lat="47.01531" lon="-1.11412">
        <ele>111</ele>
        <time>2020-09-13T09:00:47.000Z</time>
      </trkpt>
      <trkpt lat="47.01549" lon="-1.11362">
        <ele>110</ele>
        <time>2020-09-13T09:00:51.000Z</time>
      </trkpt>
      <trkpt lat="47.01571" lon="-1.11316">
        <ele>110</ele>
        <time>2020-09-13T09:00:55.000Z</time>
      </trkpt>
      <trkpt lat="47.01576" lon="-1.11302">
        <ele>109</ele>
        <time>2020-09-13T09:00:56.000Z</time>
      </trkpt>
      <trkpt lat="47.01586" lon="-1.11262">
        <ele>107</ele>
        <time>2020-09-13T09:00:59.000Z</time>
      </trkpt>
      <trkpt lat="47.01595" lon="-1.112">
        <ele>105</ele>
        <time>2020-09-13T09:01:04.000Z</time>
      </trkpt>
      <trkpt lat="47.01597" lon="-1.1118">
        <ele>105</ele>
        <time>2020-09-13T09:01:06.000Z</time>
      </trkpt>
      <trkpt lat="47.01601" lon="-1.11142">
        <ele>104</ele>
        <time>2020-09-13T09:01:10.000Z</time>
      </trkpt>
      <trkpt lat="47.01607" lon="-1.11083">
        <ele>103</ele>
        <time>2020-09-13T09:01:17.000Z</time>
      </trkpt>
      <trkpt lat="47.01615" lon="-1.11029">
        <ele>103</ele>
        <time>2020-09-13T09:01:24.000Z</time>
      </trkpt>
      <trkpt lat="47.01625" lon="-1.11003">
        <ele>105</ele>
        <time>2020-09-13T09:01:30.000Z</time>
      </trkpt>
      <trkpt lat="47.01629" lon="-1.10999">
        <ele>105</ele>
        <time>2020-09-13T09:01:31.000Z</time>
      </trkpt>
      <trkpt lat="47.01633" lon="-1.10996">
        <ele>105</ele>
        <time>2020-09-13T09:01:32.000Z</time>
      </trkpt>
      <trkpt lat="47.01638" lon="-1.10994">
        <ele>105</ele>
        <time>2020-09-13T09:01:34.000Z</time>
      </trkpt>
      <trkpt lat="47.01642" lon="-1.10993">
        <ele>105</ele>
        <time>2020-09-13T09:01:35.000Z</time>
      </trkpt>
      <trkpt lat="47.01645" lon="-1.10993">
        <ele>105</ele>
        <time>2020-09-13T09:01:36.000Z</time>
      </trkpt>
      <trkpt lat="47.01648" lon="-1.10995">
        <ele>104</ele>
        <time>2020-09-13T09:01:37.000Z</time>
      </trkpt>
      <trkpt lat="47.01651" lon="-1.10998">
        <ele>104</ele>
        <time>2020-09-13T09:01:38.000Z</time>
      </trkpt>
      <trkpt lat="47.01653" lon="-1.11001">
        <ele>104</ele>
        <time>2020-09-13T09:01:39.000Z</time>
      </trkpt>
      <trkpt lat="47.01654" lon="-1.11009">
        <ele>103</ele>
        <time>2020-09-13T09:01:40.000Z</time>
      </trkpt>
      <trkpt lat="47.01655" lon="-1.11018">
        <ele>103</ele>
        <time>2020-09-13T09:01:42.000Z</time>
      </trkpt>
      <trkpt lat="47.01655" lon="-1.11029">
        <ele>103</ele>
        <time>2020-09-13T09:01:43.000Z</time>
      </trkpt>
      <trkpt lat="47.01654" lon="-1.11041">
        <ele>102</ele>
        <time>2020-09-13T09:01:45.000Z</time>
      </trkpt>
      <trkpt lat="47.01654" lon="-1.11053">
        <ele>102</ele>
        <time>2020-09-13T09:01:47.000Z</time>
      </trkpt>
      <trkpt lat="47.01654" lon="-1.11066">
        <ele>102</ele>
        <time>2020-09-13T09:01:48.000Z</time>
      </trkpt>
      <trkpt lat="47.01654" lon="-1.11079">
        <ele>102</ele>
        <time>2020-09-13T09:01:50.000Z</time>
      </trkpt>
      <trkpt lat="47.01654" lon="-1.11092">
        <ele>102</ele>
        <time>2020-09-13T09:01:52.000Z</time>
      </trkpt>
      <trkpt lat="47.01661" lon="-1.11116">
        <ele>101</ele>
        <time>2020-09-13T09:01:55.000Z</time>
      </trkpt>
      <trkpt lat="47.01671" lon="-1.11138">
        <ele>101</ele>
        <time>2020-09-13T09:01:59.000Z</time>
      </trkpt>
      <trkpt lat="47.01676" lon="-1.11149">
        <ele>101</ele>
        <time>2020-09-13T09:02:01.000Z</time>
      </trkpt>
      <trkpt lat="47.01681" lon="-1.1116">
        <ele>101</ele>
        <time>2020-09-13T09:02:03.000Z</time>
      </trkpt>
      <trkpt lat="47.01686" lon="-1.1117">
        <ele>100</ele>
        <time>2020-09-13T09:02:05.000Z</time>
      </trkpt>
      <trkpt lat="47.01691" lon="-1.11181">
        <ele>100</ele>
        <time>2020-09-13T09:02:07.000Z</time>
      </trkpt>
      <trkpt lat="47.01698" lon="-1.1119">
        <ele>99</ele>
        <time>2020-09-13T09:02:09.000Z</time>
      </trkpt>
      <trkpt lat="47.01704" lon="-1.11199">
        <ele>98</ele>
        <time>2020-09-13T09:02:10.000Z</time>
      </trkpt>
      <trkpt lat="47.01712" lon="-1.11207">
        <ele>98</ele>
        <time>2020-09-13T09:02:12.000Z</time>
      </trkpt>
      <trkpt lat="47.01719" lon="-1.11214">
        <ele>97</ele>
        <time>2020-09-13T09:02:14.000Z</time>
      </trkpt>
      <trkpt lat="47.01726" lon="-1.11223">
        <ele>97</ele>
        <time>2020-09-13T09:02:16.000Z</time>
      </trkpt>
      <trkpt lat="47.01734" lon="-1.11231">
        <ele>96</ele>
        <time>2020-09-13T09:02:18.000Z</time>
      </trkpt>
      <trkpt lat="47.01741" lon="-1.11239">
        <ele>97</ele>
        <time>2020-09-13T09:02:21.000Z</time>
      </trkpt>
      <trkpt lat="47.01749" lon="-1.11247">
        <ele>97</ele>
        <time>2020-09-13T09:02:23.000Z</time>
      </trkpt>
      <trkpt lat="47.01757" lon="-1.11254">
        <ele>97</ele>
        <time>2020-09-13T09:02:25.000Z</time>
      </trkpt>
      <trkpt lat="47.01765" lon="-1.1126">
        <ele>97</ele>
        <time>2020-09-13T09:02:27.000Z</time>
      </trkpt>
      <trkpt lat="47.01773" lon="-1.11265">
        <ele>97</ele>
        <time>2020-09-13T09:02:30.000Z</time>
      </trkpt>
      <trkpt lat="47.01781" lon="-1.1127">
        <ele>97</ele>
        <time>2020-09-13T09:02:32.000Z</time>
      </trkpt>
      <trkpt lat="47.0179" lon="-1.11274">
        <ele>97</ele>
        <time>2020-09-13T09:02:33.000Z</time>
      </trkpt>
      <trkpt lat="47.01798" lon="-1.11278">
        <ele>97</ele>
        <time>2020-09-13T09:02:35.000Z</time>
      </trkpt>
      <trkpt lat="47.01806" lon="-1.11281">
        <ele>97</ele>
        <time>2020-09-13T09:02:36.000Z</time>
      </trkpt>
      <trkpt lat="47.01814" lon="-1.11284">
        <ele>97</ele>
        <time>2020-09-13T09:02:38.000Z</time>
      </trkpt>
      <trkpt lat="47.01849" lon="-1.11295">
        <ele>97</ele>
        <time>2020-09-13T09:02:44.000Z</time>
      </trkpt>
      <trkpt lat="47.01858" lon="-1.11302">
        <ele>97</ele>
        <time>2020-09-13T09:02:47.000Z</time>
      </trkpt>
      <trkpt lat="47.01864" lon="-1.11316">
        <ele>97</ele>
        <time>2020-09-13T09:02:49.000Z</time>
      </trkpt>
      <trkpt lat="47.01871" lon="-1.11334">
        <ele>96</ele>
        <time>2020-09-13T09:02:52.000Z</time>
      </trkpt>
      <trkpt lat="47.01875" lon="-1.11345">
        <ele>96</ele>
        <time>2020-09-13T09:02:54.000Z</time>
      </trkpt>
      <trkpt lat="47.01879" lon="-1.11357">
        <ele>96</ele>
        <time>2020-09-13T09:02:55.000Z</time>
      </trkpt>
      <trkpt lat="47.01883" lon="-1.11369">
        <ele>96</ele>
        <time>2020-09-13T09:02:57.000Z</time>
      </trkpt>
      <trkpt lat="47.01888" lon="-1.11382">
        <ele>96</ele>
        <time>2020-09-13T09:02:59.000Z</time>
      </trkpt>
      <trkpt lat="47.01892" lon="-1.11393">
        <ele>96</ele>
        <time>2020-09-13T09:03:01.000Z</time>
      </trkpt>
      <trkpt lat="47.01897" lon="-1.11405">
        <ele>97</ele>
        <time>2020-09-13T09:03:03.000Z</time>
      </trkpt>
      <trkpt lat="47.01902" lon="-1.11416">
        <ele>98</ele>
        <time>2020-09-13T09:03:05.000Z</time>
      </trkpt>
      <trkpt lat="47.01907" lon="-1.11427">
        <ele>98</ele>
        <time>2020-09-13T09:03:07.000Z</time>
      </trkpt>
      <trkpt lat="47.01913" lon="-1.11437">
        <ele>99</ele>
        <time>2020-09-13T09:03:09.000Z</time>
      </trkpt>
      <trkpt lat="47.01919" lon="-1.11447">
        <ele>99</ele>
        <time>2020-09-13T09:03:11.000Z</time>
      </trkpt>
      <trkpt lat="47.01926" lon="-1.11456">
        <ele>99</ele>
        <time>2020-09-13T09:03:13.000Z</time>
      </trkpt>
      <trkpt lat="47.01932" lon="-1.11465">
        <ele>99</ele>
        <time>2020-09-13T09:03:15.000Z</time>
      </trkpt>
      <trkpt lat="47.01938" lon="-1.11474">
        <ele>99</ele>
        <time>2020-09-13T09:03:17.000Z</time>
      </trkpt>
      <trkpt lat="47.01944" lon="-1.11482">
        <ele>99</ele>
        <time>2020-09-13T09:03:19.000Z</time>
      </trkpt>
      <trkpt lat="47.0195" lon="-1.1149">
        <ele>99</ele>
        <time>2020-09-13T09:03:21.000Z</time>
      </trkpt>
      <trkpt lat="47.01955" lon="-1.11497">
        <ele>100</ele>
        <time>2020-09-13T09:03:23.000Z</time>
      </trkpt>
      <trkpt lat="47.0196" lon="-1.11507">
        <ele>100</ele>
        <time>2020-09-13T09:03:25.000Z</time>
      </trkpt>
      <trkpt lat="47.01966" lon="-1.11518">
        <ele>100</ele>
        <time>2020-09-13T09:03:26.000Z</time>
      </trkpt>
      <trkpt lat="47.0197" lon="-1.1153">
        <ele>101</ele>
        <time>2020-09-13T09:03:28.000Z</time>
      </trkpt>
      <trkpt lat="47.01975" lon="-1.11542">
        <ele>101</ele>
        <time>2020-09-13T09:03:30.000Z</time>
      </trkpt>
      <trkpt lat="47.02001" lon="-1.11575">
        <ele>103</ele>
        <time>2020-09-13T09:03:37.000Z</time>
      </trkpt>
      <trkpt lat="47.0201" lon="-1.11585">
        <ele>102</ele>
        <time>2020-09-13T09:03:39.000Z</time>
      </trkpt>
      <trkpt lat="47.02028" lon="-1.11608">
        <ele>102</ele>
        <time>2020-09-13T09:03:43.000Z</time>
      </trkpt>
      <trkpt lat="47.02059" lon="-1.11636">
        <ele>98</ele>
        <time>2020-09-13T09:03:51.000Z</time>
      </trkpt>
      <trkpt lat="47.02082" lon="-1.1167">
        <ele>96</ele>
        <time>2020-09-13T09:03:59.000Z</time>
      </trkpt>
      <trkpt lat="47.02087" lon="-1.11693">
        <ele>96</ele>
        <time>2020-09-13T09:04:04.000Z</time>
      </trkpt>
      <trkpt lat="47.02088" lon="-1.11719">
        <ele>97</ele>
        <time>2020-09-13T09:04:09.000Z</time>
      </trkpt>
      <trkpt lat="47.02089" lon="-1.11731">
        <ele>97</ele>
        <time>2020-09-13T09:04:10.000Z</time>
      </trkpt>
      <trkpt lat="47.02091" lon="-1.11742">
        <ele>97</ele>
        <time>2020-09-13T09:04:12.000Z</time>
      </trkpt>
      <trkpt lat="47.02093" lon="-1.11754">
        <ele>98</ele>
        <time>2020-09-13T09:04:13.000Z</time>
      </trkpt>
      <trkpt lat="47.02095" lon="-1.11766">
        <ele>98</ele>
        <time>2020-09-13T09:04:15.000Z</time>
      </trkpt>
      <trkpt lat="47.02098" lon="-1.11778">
        <ele>99</ele>
        <time>2020-09-13T09:04:17.000Z</time>
      </trkpt>
      <trkpt lat="47.02102" lon="-1.1179">
        <ele>99</ele>
        <time>2020-09-13T09:04:18.000Z</time>
      </trkpt>
      <trkpt lat="47.02106" lon="-1.11803">
        <ele>100</ele>
        <time>2020-09-13T09:04:20.000Z</time>
      </trkpt>
      <trkpt lat="47.02111" lon="-1.11815">
        <ele>100</ele>
        <time>2020-09-13T09:04:22.000Z</time>
      </trkpt>
      <trkpt lat="47.02114" lon="-1.11823">
        <ele>101</ele>
        <time>2020-09-13T09:04:23.000Z</time>
      </trkpt>
      <trkpt lat="47.02117" lon="-1.11829">
        <ele>101</ele>
        <time>2020-09-13T09:04:24.000Z</time>
      </trkpt>
      <trkpt lat="47.0212" lon="-1.11834">
        <ele>102</ele>
        <time>2020-09-13T09:04:25.000Z</time>
      </trkpt>
      <trkpt lat="47.02123" lon="-1.11839">
        <ele>102</ele>
        <time>2020-09-13T09:04:26.000Z</time>
      </trkpt>
      <trkpt lat="47.02125" lon="-1.11844">
        <ele>103</ele>
        <time>2020-09-13T09:04:27.000Z</time>
      </trkpt>
      <trkpt lat="47.02127" lon="-1.11849">
        <ele>103</ele>
        <time>2020-09-13T09:04:27.000Z</time>
      </trkpt>
      <trkpt lat="47.02128" lon="-1.11854">
        <ele>103</ele>
        <time>2020-09-13T09:04:28.000Z</time>
      </trkpt>
      <trkpt lat="47.0213" lon="-1.11859">
        <ele>103</ele>
        <time>2020-09-13T09:04:29.000Z</time>
      </trkpt>
      <trkpt lat="47.02132" lon="-1.11869">
        <ele>104</ele>
        <time>2020-09-13T09:04:30.000Z</time>
      </trkpt>
      <trkpt lat="47.02134" lon="-1.11881">
        <ele>104</ele>
        <time>2020-09-13T09:04:32.000Z</time>
      </trkpt>
      <trkpt lat="47.02137" lon="-1.11895">
        <ele>105</ele>
        <time>2020-09-13T09:04:33.000Z</time>
      </trkpt>
      <trkpt lat="47.02139" lon="-1.11909">
        <ele>105</ele>
        <time>2020-09-13T09:04:35.000Z</time>
      </trkpt>
      <trkpt lat="47.02148" lon="-1.11946">
        <ele>106</ele>
        <time>2020-09-13T09:04:40.000Z</time>
      </trkpt>
      <trkpt lat="47.0215" lon="-1.11959">
        <ele>105</ele>
        <time>2020-09-13T09:04:42.000Z</time>
      </trkpt>
      <trkpt lat="47.02155" lon="-1.11988">
        <ele>105</ele>
        <time>2020-09-13T09:04:47.000Z</time>
      </trkpt>
      <trkpt lat="47.02158" lon="-1.12008">
        <ele>104</ele>
        <time>2020-09-13T09:04:51.000Z</time>
      </trkpt>
      <trkpt lat="47.0216" lon="-1.12021">
        <ele>104</ele>
        <time>2020-09-13T09:04:54.000Z</time>
      </trkpt>
      <trkpt lat="47.0216" lon="-1.1203">
        <ele>104</ele>
        <time>2020-09-13T09:04:56.000Z</time>
      </trkpt>
      <trkpt lat="47.02163" lon="-1.12042">
        <ele>103</ele>
        <time>2020-09-13T09:04:59.000Z</time>
      </trkpt>
      <trkpt lat="47.02164" lon="-1.12058">
        <ele>102</ele>
        <time>2020-09-13T09:05:02.000Z</time>
      </trkpt>
      <trkpt lat="47.02171" lon="-1.12108">
        <ele>101</ele>
        <time>2020-09-13T09:05:10.000Z</time>
      </trkpt>
      <trkpt lat="47.02175" lon="-1.12163">
        <ele>98</ele>
        <time>2020-09-13T09:05:18.000Z</time>
      </trkpt>
      <trkpt lat="47.02183" lon="-1.12215">
        <ele>98</ele>
        <time>2020-09-13T09:05:26.000Z</time>
      </trkpt>
      <trkpt lat="47.02192" lon="-1.12266">
        <ele>98</ele>
        <time>2020-09-13T09:05:35.000Z</time>
      </trkpt>
      <trkpt lat="47.02197" lon="-1.12315">
        <ele>97</ele>
        <time>2020-09-13T09:05:43.000Z</time>
      </trkpt>
      <trkpt lat="47.02194" lon="-1.12365">
        <ele>98</ele>
        <time>2020-09-13T09:05:51.000Z</time>
      </trkpt>
      <trkpt lat="47.02191" lon="-1.12414">
        <ele>101</ele>
        <time>2020-09-13T09:05:59.000Z</time>
      </trkpt>
      <trkpt lat="47.02193" lon="-1.12434">
        <ele>101</ele>
        <time>2020-09-13T09:06:02.000Z</time>
      </trkpt>
      <trkpt lat="47.022" lon="-1.12462">
        <ele>101</ele>
        <time>2020-09-13T09:06:07.000Z</time>
      </trkpt>
      <trkpt lat="47.02214" lon="-1.12504">
        <ele>101</ele>
        <time>2020-09-13T09:06:13.000Z</time>
      </trkpt>
      <trkpt lat="47.02223" lon="-1.12555">
        <ele>103</ele>
        <time>2020-09-13T09:06:20.000Z</time>
      </trkpt>
      <trkpt lat="47.02235" lon="-1.12601">
        <ele>103</ele>
        <time>2020-09-13T09:06:27.000Z</time>
      </trkpt>
      <trkpt lat="47.02252" lon="-1.12648">
        <ele>102</ele>
        <time>2020-09-13T09:06:35.000Z</time>
      </trkpt>
      <trkpt lat="47.02281" lon="-1.12687">
        <ele>102</ele>
        <time>2020-09-13T09:06:42.000Z</time>
      </trkpt>
      <trkpt lat="47.02293" lon="-1.12698">
        <ele>101</ele>
        <time>2020-09-13T09:06:45.000Z</time>
      </trkpt>
      <trkpt lat="47.02313" lon="-1.12712">
        <ele>98</ele>
        <time>2020-09-13T09:06:50.000Z</time>
      </trkpt>
      <trkpt lat="47.02348" lon="-1.12729">
        <ele>95</ele>
        <time>2020-09-13T09:06:58.000Z</time>
      </trkpt>
      <trkpt lat="47.0238" lon="-1.1275">
        <ele>94</ele>
        <time>2020-09-13T09:07:08.000Z</time>
      </trkpt>
      <trkpt lat="47.02389" lon="-1.12763">
        <ele>94</ele>
        <time>2020-09-13T09:07:12.000Z</time>
      </trkpt>
      <trkpt lat="47.02393" lon="-1.12776">
        <ele>93</ele>
        <time>2020-09-13T09:07:15.000Z</time>
      </trkpt>
      <trkpt lat="47.02395" lon="-1.12791">
        <ele>93</ele>
        <time>2020-09-13T09:07:18.000Z</time>
      </trkpt>
      <trkpt lat="47.02396" lon="-1.12802">
        <ele>93</ele>
        <time>2020-09-13T09:07:20.000Z</time>
      </trkpt>
      <trkpt lat="47.02398" lon="-1.12814">
        <ele>93</ele>
        <time>2020-09-13T09:07:22.000Z</time>
      </trkpt>
      <trkpt lat="47.024" lon="-1.12827">
        <ele>93</ele>
        <time>2020-09-13T09:07:24.000Z</time>
      </trkpt>
      <trkpt lat="47.02402" lon="-1.12841">
        <ele>92</ele>
        <time>2020-09-13T09:07:26.000Z</time>
      </trkpt>
      <trkpt lat="47.02403" lon="-1.12853">
        <ele>92</ele>
        <time>2020-09-13T09:07:28.000Z</time>
      </trkpt>
      <trkpt lat="47.02404" lon="-1.12866">
        <ele>92</ele>
        <time>2020-09-13T09:07:30.000Z</time>
      </trkpt>
      <trkpt lat="47.02406" lon="-1.12878">
        <ele>91</ele>
        <time>2020-09-13T09:07:33.000Z</time>
      </trkpt>
      <trkpt lat="47.02407" lon="-1.12891">
        <ele>91</ele>
        <time>2020-09-13T09:07:35.000Z</time>
      </trkpt>
      <trkpt lat="47.02408" lon="-1.12903">
        <ele>91</ele>
        <time>2020-09-13T09:07:38.000Z</time>
      </trkpt>
      <trkpt lat="47.02409" lon="-1.12915">
        <ele>91</ele>
        <time>2020-09-13T09:07:40.000Z</time>
      </trkpt>
      <trkpt lat="47.02411" lon="-1.12927">
        <ele>91</ele>
        <time>2020-09-13T09:07:43.000Z</time>
      </trkpt>
      <trkpt lat="47.02412" lon="-1.12938">
        <ele>91</ele>
        <time>2020-09-13T09:07:46.000Z</time>
      </trkpt>
      <trkpt lat="47.02412" lon="-1.12949">
        <ele>91</ele>
        <time>2020-09-13T09:07:50.000Z</time>
      </trkpt>
      <trkpt lat="47.02411" lon="-1.12959">
        <ele>91</ele>
        <time>2020-09-13T09:07:54.000Z</time>
      </trkpt>
      <trkpt lat="47.02409" lon="-1.12969">
        <ele>91</ele>
        <time>2020-09-13T09:07:59.000Z</time>
      </trkpt>
      <trkpt lat="47.02407" lon="-1.12979">
        <ele>92</ele>
        <time>2020-09-13T09:08:03.000Z</time>
      </trkpt>
      <trkpt lat="47.02399" lon="-1.12998">
        <ele>95</ele>
        <time>2020-09-13T09:08:12.000Z</time>
      </trkpt>
      <trkpt lat="47.02389" lon="-1.13015">
        <ele>101</ele>
        <time>2020-09-13T09:08:22.000Z</time>
      </trkpt>
      <trkpt lat="47.02385" lon="-1.13024">
        <ele>103</ele>
        <time>2020-09-13T09:08:26.000Z</time>
      </trkpt>
      <trkpt lat="47.02381" lon="-1.13034">
        <ele>105</ele>
        <time>2020-09-13T09:08:30.000Z</time>
      </trkpt>
      <trkpt lat="47.02377" lon="-1.13044">
        <ele>107</ele>
        <time>2020-09-13T09:08:35.000Z</time>
      </trkpt>
      <trkpt lat="47.02373" lon="-1.13055">
        <ele>108</ele>
        <time>2020-09-13T09:08:39.000Z</time>
      </trkpt>
      <trkpt lat="47.0237" lon="-1.13078">
        <ele>109</ele>
        <time>2020-09-13T09:08:45.000Z</time>
      </trkpt>
      <trkpt lat="47.0237" lon="-1.13102">
        <ele>109</ele>
        <time>2020-09-13T09:08:51.000Z</time>
      </trkpt>
      <trkpt lat="47.02369" lon="-1.13113">
        <ele>109</ele>
        <time>2020-09-13T09:08:53.000Z</time>
      </trkpt>
      <trkpt lat="47.02369" lon="-1.13124">
        <ele>108</ele>
        <time>2020-09-13T09:08:55.000Z</time>
      </trkpt>
      <trkpt lat="47.02368" lon="-1.13134">
        <ele>108</ele>
        <time>2020-09-13T09:08:58.000Z</time>
      </trkpt>
      <trkpt lat="47.02367" lon="-1.13145">
        <ele>108</ele>
        <time>2020-09-13T09:09:00.000Z</time>
      </trkpt>
      <trkpt lat="47.02365" lon="-1.13155">
        <ele>107</ele>
        <time>2020-09-13T09:09:01.000Z</time>
      </trkpt>
      <trkpt lat="47.02362" lon="-1.13166">
        <ele>107</ele>
        <time>2020-09-13T09:09:02.000Z</time>
      </trkpt>
      <trkpt lat="47.02358" lon="-1.13177">
        <ele>106</ele>
        <time>2020-09-13T09:09:03.000Z</time>
      </trkpt>
      <trkpt lat="47.02354" lon="-1.13188">
        <ele>106</ele>
        <time>2020-09-13T09:09:04.000Z</time>
      </trkpt>
      <trkpt lat="47.02352" lon="-1.13198">
        <ele>106</ele>
        <time>2020-09-13T09:09:05.000Z</time>
      </trkpt>
      <trkpt lat="47.0235" lon="-1.13208">
        <ele>105</ele>
        <time>2020-09-13T09:09:06.000Z</time>
      </trkpt>
      <trkpt lat="47.02349" lon="-1.13217">
        <ele>105</ele>
        <time>2020-09-13T09:09:07.000Z</time>
      </trkpt>
      <trkpt lat="47.02347" lon="-1.13226">
        <ele>105</ele>
        <time>2020-09-13T09:09:08.000Z</time>
      </trkpt>
      <trkpt lat="47.02346" lon="-1.13231">
        <ele>105</ele>
        <time>2020-09-13T09:09:08.000Z</time>
      </trkpt>
      <trkpt lat="47.02346" lon="-1.13233">
        <ele>105</ele>
        <time>2020-09-13T09:09:08.000Z</time>
      </trkpt>
      <trkpt lat="47.02346" lon="-1.13234">
        <ele>105</ele>
        <time>2020-09-13T09:09:09.000Z</time>
      </trkpt>
      <trkpt lat="47.02347" lon="-1.13234">
        <ele>105</ele>
        <time>2020-09-13T09:09:09.000Z</time>
      </trkpt>
      <trkpt lat="47.02348" lon="-1.13236">
        <ele>105</ele>
        <time>2020-09-13T09:09:09.000Z</time>
      </trkpt>
      <trkpt lat="47.02349" lon="-1.13238">
        <ele>105</ele>
        <time>2020-09-13T09:09:10.000Z</time>
      </trkpt>
      <trkpt lat="47.0235" lon="-1.1324">
        <ele>105</ele>
        <time>2020-09-13T09:09:10.000Z</time>
      </trkpt>
      <trkpt lat="47.02351" lon="-1.13242">
        <ele>105</ele>
        <time>2020-09-13T09:09:11.000Z</time>
      </trkpt>
      <trkpt lat="47.02357" lon="-1.13247">
        <ele>105</ele>
        <time>2020-09-13T09:09:13.000Z</time>
      </trkpt>
      <trkpt lat="47.02365" lon="-1.13251">
        <ele>105</ele>
        <time>2020-09-13T09:09:15.000Z</time>
      </trkpt>
      <trkpt lat="47.02367" lon="-1.13252">
        <ele>105</ele>
        <time>2020-09-13T09:09:15.000Z</time>
      </trkpt>
      <trkpt lat="47.02369" lon="-1.13253">
        <ele>105</ele>
        <time>2020-09-13T09:09:16.000Z</time>
      </trkpt>
      <trkpt lat="47.0237" lon="-1.13254">
        <ele>105</ele>
        <time>2020-09-13T09:09:16.000Z</time>
      </trkpt>
      <trkpt lat="47.0237" lon="-1.13255">
        <ele>105</ele>
        <time>2020-09-13T09:09:17.000Z</time>
      </trkpt>
      <trkpt lat="47.02372" lon="-1.13256">
        <ele>105</ele>
        <time>2020-09-13T09:09:17.000Z</time>
      </trkpt>
      <trkpt lat="47.02373" lon="-1.13257">
        <ele>105</ele>
        <time>2020-09-13T09:09:18.000Z</time>
      </trkpt>
      <trkpt lat="47.02374" lon="-1.13258">
        <ele>105</ele>
        <time>2020-09-13T09:09:18.000Z</time>
      </trkpt>
      <trkpt lat="47.02375" lon="-1.13259">
        <ele>105</ele>
        <time>2020-09-13T09:09:19.000Z</time>
      </trkpt>
      <trkpt lat="47.02377" lon="-1.13261">
        <ele>105</ele>
        <time>2020-09-13T09:09:20.000Z</time>
      </trkpt>
      <trkpt lat="47.02378" lon="-1.13263">
        <ele>105</ele>
        <time>2020-09-13T09:09:21.000Z</time>
      </trkpt>
      <trkpt lat="47.0238" lon="-1.13265">
        <ele>105</ele>
        <time>2020-09-13T09:09:22.000Z</time>
      </trkpt>
      <trkpt lat="47.02382" lon="-1.13267">
        <ele>105</ele>
        <time>2020-09-13T09:09:23.000Z</time>
      </trkpt>
      <trkpt lat="47.02383" lon="-1.13271">
        <ele>104</ele>
        <time>2020-09-13T09:09:24.000Z</time>
      </trkpt>
      <trkpt lat="47.02386" lon="-1.13275">
        <ele>104</ele>
        <time>2020-09-13T09:09:25.000Z</time>
      </trkpt>
      <trkpt lat="47.02388" lon="-1.13279">
        <ele>103</ele>
        <time>2020-09-13T09:09:27.000Z</time>
      </trkpt>
      <trkpt lat="47.0239" lon="-1.13283">
        <ele>103</ele>
        <time>2020-09-13T09:09:28.000Z</time>
      </trkpt>
      <trkpt lat="47.02394" lon="-1.13288">
        <ele>103</ele>
        <time>2020-09-13T09:09:30.000Z</time>
      </trkpt>
      <trkpt lat="47.02397" lon="-1.13293">
        <ele>102</ele>
        <time>2020-09-13T09:09:31.000Z</time>
      </trkpt>
      <trkpt lat="47.02401" lon="-1.13298">
        <ele>101</ele>
        <time>2020-09-13T09:09:33.000Z</time>
      </trkpt>
      <trkpt lat="47.02405" lon="-1.13303">
        <ele>101</ele>
        <time>2020-09-13T09:09:35.000Z</time>
      </trkpt>
      <trkpt lat="47.02417" lon="-1.13319">
        <ele>99</ele>
        <time>2020-09-13T09:09:41.000Z</time>
      </trkpt>
      <trkpt lat="47.02421" lon="-1.13331">
        <ele>99</ele>
        <time>2020-09-13T09:09:42.000Z</time>
      </trkpt>
      <trkpt lat="47.02425" lon="-1.13346">
        <ele>98</ele>
        <time>2020-09-13T09:09:44.000Z</time>
      </trkpt>
      <trkpt lat="47.02427" lon="-1.13356">
        <ele>98</ele>
        <time>2020-09-13T09:09:45.000Z</time>
      </trkpt>
      <trkpt lat="47.02429" lon="-1.13368">
        <ele>97</ele>
        <time>2020-09-13T09:09:46.000Z</time>
      </trkpt>
      <trkpt lat="47.02431" lon="-1.1338">
        <ele>97</ele>
        <time>2020-09-13T09:09:48.000Z</time>
      </trkpt>
      <trkpt lat="47.02434" lon="-1.13393">
        <ele>96</ele>
        <time>2020-09-13T09:09:49.000Z</time>
      </trkpt>
      <trkpt lat="47.02444" lon="-1.13413">
        <ele>95</ele>
        <time>2020-09-13T09:09:52.000Z</time>
      </trkpt>
      <trkpt lat="47.02456" lon="-1.1343">
        <ele>94</ele>
        <time>2020-09-13T09:09:56.000Z</time>
      </trkpt>
      <trkpt lat="47.0246" lon="-1.1344">
        <ele>94</ele>
        <time>2020-09-13T09:09:58.000Z</time>
      </trkpt>
      <trkpt lat="47.02464" lon="-1.13451">
        <ele>93</ele>
        <time>2020-09-13T09:10:00.000Z</time>
      </trkpt>
      <trkpt lat="47.02468" lon="-1.13462">
        <ele>93</ele>
        <time>2020-09-13T09:10:02.000Z</time>
      </trkpt>
      <trkpt lat="47.02471" lon="-1.13473">
        <ele>92</ele>
        <time>2020-09-13T09:10:04.000Z</time>
      </trkpt>
      <trkpt lat="47.02473" lon="-1.13483">
        <ele>92</ele>
        <time>2020-09-13T09:10:08.000Z</time>
      </trkpt>
      <trkpt lat="47.02475" lon="-1.13492">
        <ele>92</ele>
        <time>2020-09-13T09:10:12.000Z</time>
      </trkpt>
      <trkpt lat="47.02477" lon="-1.135">
        <ele>92</ele>
        <time>2020-09-13T09:10:17.000Z</time>
      </trkpt>
      <trkpt lat="47.02478" lon="-1.13508">
        <ele>92</ele>
        <time>2020-09-13T09:10:21.000Z</time>
      </trkpt>
      <trkpt lat="47.0248" lon="-1.13515">
        <ele>92</ele>
        <time>2020-09-13T09:10:22.000Z</time>
      </trkpt>
      <trkpt lat="47.02482" lon="-1.1352">
        <ele>92</ele>
        <time>2020-09-13T09:10:24.000Z</time>
      </trkpt>
      <trkpt lat="47.02485" lon="-1.13524">
        <ele>91</ele>
        <time>2020-09-13T09:10:25.000Z</time>
      </trkpt>
      <trkpt lat="47.02488" lon="-1.13528">
        <ele>91</ele>
        <time>2020-09-13T09:10:27.000Z</time>
      </trkpt>
      <trkpt lat="47.02491" lon="-1.13532">
        <ele>91</ele>
        <time>2020-09-13T09:10:28.000Z</time>
      </trkpt>
      <trkpt lat="47.02494" lon="-1.13535">
        <ele>91</ele>
        <time>2020-09-13T09:10:30.000Z</time>
      </trkpt>
      <trkpt lat="47.02497" lon="-1.13537">
        <ele>91</ele>
        <time>2020-09-13T09:10:31.000Z</time>
      </trkpt>
      <trkpt lat="47.025" lon="-1.13539">
        <ele>91</ele>
        <time>2020-09-13T09:10:33.000Z</time>
      </trkpt>
      <trkpt lat="47.025" lon="-1.13539">
        <ele>91</ele>
        <time>2020-09-13T09:10:33.000Z</time>
      </trkpt>
      <trkpt lat="47.0251" lon="-1.13547">
        <ele>91</ele>
        <time>2020-09-13T09:12:04.000Z</time>
      </trkpt>
      <trkpt lat="47.02527" lon="-1.13584">
        <ele>89</ele>
        <time>2020-09-13T09:12:21.000Z</time>
      </trkpt>
      <trkpt lat="47.02549" lon="-1.13618">
        <ele>91</ele>
        <time>2020-09-13T09:12:38.000Z</time>
      </trkpt>
      <trkpt lat="47.02563" lon="-1.13661">
        <ele>94</ele>
        <time>2020-09-13T09:12:50.000Z</time>
      </trkpt>
      <trkpt lat="47.02576" lon="-1.13707">
        <ele>95</ele>
        <time>2020-09-13T09:12:59.000Z</time>
      </trkpt>
      <trkpt lat="47.02581" lon="-1.13729">
        <ele>96</ele>
        <time>2020-09-13T09:13:03.000Z</time>
      </trkpt>
      <trkpt lat="47.02592" lon="-1.13756">
        <ele>95</ele>
        <time>2020-09-13T09:13:09.000Z</time>
      </trkpt>
      <trkpt lat="47.02609" lon="-1.13806">
        <ele>93</ele>
        <time>2020-09-13T09:13:17.000Z</time>
      </trkpt>
      <trkpt lat="47.02623" lon="-1.13855">
        <ele>94</ele>
        <time>2020-09-13T09:13:25.000Z</time>
      </trkpt>
      <trkpt lat="47.02636" lon="-1.13907">
        <ele>93</ele>
        <time>2020-09-13T09:13:34.000Z</time>
      </trkpt>
      <trkpt lat="47.02651" lon="-1.13958">
        <ele>94</ele>
        <time>2020-09-13T09:13:40.000Z</time>
      </trkpt>
      <trkpt lat="47.02666" lon="-1.14006">
        <ele>94</ele>
        <time>2020-09-13T09:13:46.000Z</time>
      </trkpt>
      <trkpt lat="47.02672" lon="-1.14023">
        <ele>94</ele>
        <time>2020-09-13T09:13:49.000Z</time>
      </trkpt>
      <trkpt lat="47.02676" lon="-1.14033">
        <ele>94</ele>
        <time>2020-09-13T09:13:51.000Z</time>
      </trkpt>
      <trkpt lat="47.02678" lon="-1.14036">
        <ele>94</ele>
        <time>2020-09-13T09:13:52.000Z</time>
      </trkpt>
      <trkpt lat="47.02683" lon="-1.14042">
        <ele>92</ele>
        <time>2020-09-13T09:13:56.000Z</time>
      </trkpt>
      <trkpt lat="47.02684" lon="-1.14046">
        <ele>92</ele>
        <time>2020-09-13T09:13:57.000Z</time>
      </trkpt>
      <trkpt lat="47.02685" lon="-1.14049">
        <ele>92</ele>
        <time>2020-09-13T09:13:58.000Z</time>
      </trkpt>
      <trkpt lat="47.02687" lon="-1.14059">
        <ele>92</ele>
        <time>2020-09-13T09:14:00.000Z</time>
      </trkpt>
      <trkpt lat="47.02689" lon="-1.14073">
        <ele>93</ele>
        <time>2020-09-13T09:14:03.000Z</time>
      </trkpt>
      <trkpt lat="47.02692" lon="-1.14088">
        <ele>93</ele>
        <time>2020-09-13T09:14:05.000Z</time>
      </trkpt>
      <trkpt lat="47.02694" lon="-1.14105">
        <ele>94</ele>
        <time>2020-09-13T09:14:08.000Z</time>
      </trkpt>
      <trkpt lat="47.02697" lon="-1.14118">
        <ele>94</ele>
        <time>2020-09-13T09:14:10.000Z</time>
      </trkpt>
      <trkpt lat="47.027" lon="-1.1413">
        <ele>94</ele>
        <time>2020-09-13T09:14:12.000Z</time>
      </trkpt>
      <trkpt lat="47.02703" lon="-1.14142">
        <ele>95</ele>
        <time>2020-09-13T09:14:14.000Z</time>
      </trkpt>
      <trkpt lat="47.02706" lon="-1.14154">
        <ele>95</ele>
        <time>2020-09-13T09:14:16.000Z</time>
      </trkpt>
      <trkpt lat="47.02708" lon="-1.14167">
        <ele>95</ele>
        <time>2020-09-13T09:14:18.000Z</time>
      </trkpt>
      <trkpt lat="47.02711" lon="-1.14179">
        <ele>95</ele>
        <time>2020-09-13T09:14:19.000Z</time>
      </trkpt>
      <trkpt lat="47.02714" lon="-1.14192">
        <ele>95</ele>
        <time>2020-09-13T09:14:21.000Z</time>
      </trkpt>
      <trkpt lat="47.02716" lon="-1.14204">
        <ele>94</ele>
        <time>2020-09-13T09:14:23.000Z</time>
      </trkpt>
      <trkpt lat="47.02718" lon="-1.14217">
        <ele>95</ele>
        <time>2020-09-13T09:14:25.000Z</time>
      </trkpt>
      <trkpt lat="47.0272" lon="-1.1423">
        <ele>95</ele>
        <time>2020-09-13T09:14:26.000Z</time>
      </trkpt>
      <trkpt lat="47.02722" lon="-1.14243">
        <ele>95</ele>
        <time>2020-09-13T09:14:28.000Z</time>
      </trkpt>
      <trkpt lat="47.02724" lon="-1.14256">
        <ele>95</ele>
        <time>2020-09-13T09:14:30.000Z</time>
      </trkpt>
      <trkpt lat="47.02725" lon="-1.14269">
        <ele>94</ele>
        <time>2020-09-13T09:14:31.000Z</time>
      </trkpt>
      <trkpt lat="47.02725" lon="-1.14282">
        <ele>94</ele>
        <time>2020-09-13T09:14:33.000Z</time>
      </trkpt>
      <trkpt lat="47.02726" lon="-1.14295">
        <ele>93</ele>
        <time>2020-09-13T09:14:34.000Z</time>
      </trkpt>
      <trkpt lat="47.02726" lon="-1.14309">
        <ele>93</ele>
        <time>2020-09-13T09:14:36.000Z</time>
      </trkpt>
      <trkpt lat="47.02725" lon="-1.14365">
        <ele>93</ele>
        <time>2020-09-13T09:14:43.000Z</time>
      </trkpt>
      <trkpt lat="47.02729" lon="-1.14401">
        <ele>93</ele>
        <time>2020-09-13T09:14:48.000Z</time>
      </trkpt>
      <trkpt lat="47.02732" lon="-1.14421">
        <ele>93</ele>
        <time>2020-09-13T09:14:51.000Z</time>
      </trkpt>
      <trkpt lat="47.02748" lon="-1.14466">
        <ele>94</ele>
        <time>2020-09-13T09:14:57.000Z</time>
      </trkpt>
      <trkpt lat="47.02771" lon="-1.1451">
        <ele>96</ele>
        <time>2020-09-13T09:15:02.000Z</time>
      </trkpt>
      <trkpt lat="47.02796" lon="-1.14548">
        <ele>96</ele>
        <time>2020-09-13T09:15:07.000Z</time>
      </trkpt>
      <trkpt lat="47.02824" lon="-1.14583">
        <ele>94</ele>
        <time>2020-09-13T09:15:12.000Z</time>
      </trkpt>
      <trkpt lat="47.02853" lon="-1.1462">
        <ele>92</ele>
        <time>2020-09-13T09:15:18.000Z</time>
      </trkpt>
      <trkpt lat="47.02883" lon="-1.14655">
        <ele>90</ele>
        <time>2020-09-13T09:15:25.000Z</time>
      </trkpt>
      <trkpt lat="47.02913" lon="-1.14685">
        <ele>89</ele>
        <time>2020-09-13T09:15:36.000Z</time>
      </trkpt>
      <trkpt lat="47.02924" lon="-1.14701">
        <ele>89</ele>
        <time>2020-09-13T09:15:40.000Z</time>
      </trkpt>
      <trkpt lat="47.02931" lon="-1.14718">
        <ele>88</ele>
        <time>2020-09-13T09:15:44.000Z</time>
      </trkpt>
      <trkpt lat="47.02936" lon="-1.14724">
        <ele>88</ele>
        <time>2020-09-13T09:15:46.000Z</time>
      </trkpt>
      <trkpt lat="47.02943" lon="-1.14732">
        <ele>88</ele>
        <time>2020-09-13T09:15:49.000Z</time>
      </trkpt>
      <trkpt lat="47.02945" lon="-1.14737">
        <ele>88</ele>
        <time>2020-09-13T09:15:50.000Z</time>
      </trkpt>
      <trkpt lat="47.02946" lon="-1.14744">
        <ele>88</ele>
        <time>2020-09-13T09:15:52.000Z</time>
      </trkpt>
      <trkpt lat="47.02945" lon="-1.14752">
        <ele>89</ele>
        <time>2020-09-13T09:15:54.000Z</time>
      </trkpt>
      <trkpt lat="47.02943" lon="-1.14762">
        <ele>90</ele>
        <time>2020-09-13T09:15:56.000Z</time>
      </trkpt>
      <trkpt lat="47.0294" lon="-1.1477">
        <ele>90</ele>
        <time>2020-09-13T09:15:57.000Z</time>
      </trkpt>
      <trkpt lat="47.02937" lon="-1.14776">
        <ele>90</ele>
        <time>2020-09-13T09:15:59.000Z</time>
      </trkpt>
      <trkpt lat="47.02932" lon="-1.14785">
        <ele>91</ele>
        <time>2020-09-13T09:16:01.000Z</time>
      </trkpt>
      <trkpt lat="47.02927" lon="-1.14795">
        <ele>91</ele>
        <time>2020-09-13T09:16:03.000Z</time>
      </trkpt>
      <trkpt lat="47.02921" lon="-1.14807">
        <ele>91</ele>
        <time>2020-09-13T09:16:05.000Z</time>
      </trkpt>
      <trkpt lat="47.02914" lon="-1.14819">
        <ele>91</ele>
        <time>2020-09-13T09:16:07.000Z</time>
      </trkpt>
      <trkpt lat="47.0291" lon="-1.1483">
        <ele>91</ele>
        <time>2020-09-13T09:16:09.000Z</time>
      </trkpt>
      <trkpt lat="47.02907" lon="-1.14841">
        <ele>91</ele>
        <time>2020-09-13T09:16:10.000Z</time>
      </trkpt>
      <trkpt lat="47.02905" lon="-1.14852">
        <ele>91</ele>
        <time>2020-09-13T09:16:12.000Z</time>
      </trkpt>
      <trkpt lat="47.02902" lon="-1.14863">
        <ele>91</ele>
        <time>2020-09-13T09:16:14.000Z</time>
      </trkpt>
      <trkpt lat="47.029" lon="-1.14875">
        <ele>91</ele>
        <time>2020-09-13T09:16:15.000Z</time>
      </trkpt>
      <trkpt lat="47.029" lon="-1.14888">
        <ele>91</ele>
        <time>2020-09-13T09:16:16.000Z</time>
      </trkpt>
      <trkpt lat="47.029" lon="-1.14901">
        <ele>90</ele>
        <time>2020-09-13T09:16:18.000Z</time>
      </trkpt>
      <trkpt lat="47.029" lon="-1.14915">
        <ele>90</ele>
        <time>2020-09-13T09:16:19.000Z</time>
      </trkpt>
      <trkpt lat="47.029" lon="-1.14928">
        <ele>90</ele>
        <time>2020-09-13T09:16:20.000Z</time>
      </trkpt>
      <trkpt lat="47.029" lon="-1.14941">
        <ele>89</ele>
        <time>2020-09-13T09:16:21.000Z</time>
      </trkpt>
      <trkpt lat="47.029" lon="-1.14955">
        <ele>88</ele>
        <time>2020-09-13T09:16:23.000Z</time>
      </trkpt>
      <trkpt lat="47.02901" lon="-1.14968">
        <ele>88</ele>
        <time>2020-09-13T09:16:24.000Z</time>
      </trkpt>
      <trkpt lat="47.02901" lon="-1.14982">
        <ele>87</ele>
        <time>2020-09-13T09:16:26.000Z</time>
      </trkpt>
      <trkpt lat="47.02902" lon="-1.14996">
        <ele>87</ele>
        <time>2020-09-13T09:16:29.000Z</time>
      </trkpt>
      <trkpt lat="47.02902" lon="-1.1501">
        <ele>87</ele>
        <time>2020-09-13T09:16:31.000Z</time>
      </trkpt>
      <trkpt lat="47.02903" lon="-1.15024">
        <ele>86</ele>
        <time>2020-09-13T09:16:34.000Z</time>
      </trkpt>
      <trkpt lat="47.029" lon="-1.15076">
        <ele>86</ele>
        <time>2020-09-13T09:16:40.000Z</time>
      </trkpt>
      <trkpt lat="47.0289" lon="-1.15125">
        <ele>87</ele>
        <time>2020-09-13T09:16:50.000Z</time>
      </trkpt>
      <trkpt lat="47.02889" lon="-1.15135">
        <ele>87</ele>
        <time>2020-09-13T09:16:53.000Z</time>
      </trkpt>
      <trkpt lat="47.0289" lon="-1.15136">
        <ele>87</ele>
        <time>2020-09-13T09:16:53.000Z</time>
      </trkpt>
      <trkpt lat="47.0289" lon="-1.15137">
        <ele>87</ele>
        <time>2020-09-13T09:16:54.000Z</time>
      </trkpt>
      <trkpt lat="47.02891" lon="-1.15138">
        <ele>88</ele>
        <time>2020-09-13T09:16:54.000Z</time>
      </trkpt>
      <trkpt lat="47.02892" lon="-1.15139">
        <ele>88</ele>
        <time>2020-09-13T09:16:55.000Z</time>
      </trkpt>
      <trkpt lat="47.029" lon="-1.15142">
        <ele>88</ele>
        <time>2020-09-13T09:16:59.000Z</time>
      </trkpt>
      <trkpt lat="47.02911" lon="-1.15144">
        <ele>89</ele>
        <time>2020-09-13T09:17:04.000Z</time>
      </trkpt>
      <trkpt lat="47.02914" lon="-1.15145">
        <ele>89</ele>
        <time>2020-09-13T09:17:05.000Z</time>
      </trkpt>
      <trkpt lat="47.02916" lon="-1.15147">
        <ele>89</ele>
        <time>2020-09-13T09:17:06.000Z</time>
      </trkpt>
      <trkpt lat="47.02919" lon="-1.15148">
        <ele>89</ele>
        <time>2020-09-13T09:17:07.000Z</time>
      </trkpt>
      <trkpt lat="47.0292" lon="-1.15149">
        <ele>89</ele>
        <time>2020-09-13T09:17:08.000Z</time>
      </trkpt>
      <trkpt lat="47.02923" lon="-1.1515">
        <ele>89</ele>
        <time>2020-09-13T09:17:09.000Z</time>
      </trkpt>
      <trkpt lat="47.02925" lon="-1.1515">
        <ele>89</ele>
        <time>2020-09-13T09:17:10.000Z</time>
      </trkpt>
      <trkpt lat="47.02928" lon="-1.15151">
        <ele>89</ele>
        <time>2020-09-13T09:17:11.000Z</time>
      </trkpt>
      <trkpt lat="47.02931" lon="-1.15151">
        <ele>89</ele>
        <time>2020-09-13T09:17:12.000Z</time>
      </trkpt>
      <trkpt lat="47.02933" lon="-1.15152">
        <ele>89</ele>
        <time>2020-09-13T09:17:13.000Z</time>
      </trkpt>
      <trkpt lat="47.02935" lon="-1.15153">
        <ele>89</ele>
        <time>2020-09-13T09:17:13.000Z</time>
      </trkpt>
      <trkpt lat="47.02936" lon="-1.15154">
        <ele>89</ele>
        <time>2020-09-13T09:17:14.000Z</time>
      </trkpt>
      <trkpt lat="47.02938" lon="-1.15155">
        <ele>89</ele>
        <time>2020-09-13T09:17:15.000Z</time>
      </trkpt>
      <trkpt lat="47.0294" lon="-1.1516">
        <ele>89</ele>
        <time>2020-09-13T09:17:16.000Z</time>
      </trkpt>
      <trkpt lat="47.02942" lon="-1.15165">
        <ele>89</ele>
        <time>2020-09-13T09:17:18.000Z</time>
      </trkpt>
      <trkpt lat="47.02942" lon="-1.15169">
        <ele>89</ele>
        <time>2020-09-13T09:17:19.000Z</time>
      </trkpt>
      <trkpt lat="47.02943" lon="-1.15174">
        <ele>89</ele>
        <time>2020-09-13T09:17:20.000Z</time>
      </trkpt>
      <trkpt lat="47.02943" lon="-1.15179">
        <ele>90</ele>
        <time>2020-09-13T09:17:21.000Z</time>
      </trkpt>
      <trkpt lat="47.02943" lon="-1.15184">
        <ele>90</ele>
        <time>2020-09-13T09:17:22.000Z</time>
      </trkpt>
      <trkpt lat="47.02952" lon="-1.15198">
        <ele>90</ele>
        <time>2020-09-13T09:17:29.000Z</time>
      </trkpt>
      <trkpt lat="47.02964" lon="-1.15215">
        <ele>91</ele>
        <time>2020-09-13T09:17:37.000Z</time>
      </trkpt>
      <trkpt lat="47.02964" lon="-1.15215">
        <ele>91</ele>
        <time>2020-09-13T09:17:37.000Z</time>
      </trkpt>
      <trkpt lat="47.02995" lon="-1.15278">
        <ele>92</ele>
        <time>2020-09-13T09:18:10.000Z</time>
      </trkpt>
      <trkpt lat="47.03006" lon="-1.15325">
        <ele>93</ele>
        <time>2020-09-13T09:18:17.000Z</time>
      </trkpt>
      <trkpt lat="47.0301" lon="-1.15375">
        <ele>98</ele>
        <time>2020-09-13T09:18:26.000Z</time>
      </trkpt>
      <trkpt lat="47.03016" lon="-1.15413">
        <ele>101</ele>
        <time>2020-09-13T09:18:33.000Z</time>
      </trkpt>
      <trkpt lat="47.03026" lon="-1.15452">
        <ele>104</ele>
        <time>2020-09-13T09:18:39.000Z</time>
      </trkpt>
      <trkpt lat="47.03034" lon="-1.15464">
        <ele>105</ele>
        <time>2020-09-13T09:18:41.000Z</time>
      </trkpt>
      <trkpt lat="47.03044" lon="-1.15474">
        <ele>106</ele>
        <time>2020-09-13T09:18:44.000Z</time>
      </trkpt>
      <trkpt lat="47.03048" lon="-1.15481">
        <ele>106</ele>
        <time>2020-09-13T09:18:45.000Z</time>
      </trkpt>
      <trkpt lat="47.03052" lon="-1.15489">
        <ele>106</ele>
        <time>2020-09-13T09:18:46.000Z</time>
      </trkpt>
      <trkpt lat="47.03056" lon="-1.15498">
        <ele>107</ele>
        <time>2020-09-13T09:18:48.000Z</time>
      </trkpt>
      <trkpt lat="47.03059" lon="-1.15507">
        <ele>107</ele>
        <time>2020-09-13T09:18:49.000Z</time>
      </trkpt>
      <trkpt lat="47.03063" lon="-1.15514">
        <ele>107</ele>
        <time>2020-09-13T09:18:50.000Z</time>
      </trkpt>
      <trkpt lat="47.03067" lon="-1.1552">
        <ele>107</ele>
        <time>2020-09-13T09:18:52.000Z</time>
      </trkpt>
      <trkpt lat="47.0307" lon="-1.15526">
        <ele>107</ele>
        <time>2020-09-13T09:18:53.000Z</time>
      </trkpt>
      <trkpt lat="47.03074" lon="-1.15532">
        <ele>107</ele>
        <time>2020-09-13T09:18:55.000Z</time>
      </trkpt>
      <trkpt lat="47.03077" lon="-1.15536">
        <ele>107</ele>
        <time>2020-09-13T09:18:56.000Z</time>
      </trkpt>
      <trkpt lat="47.0308" lon="-1.15539">
        <ele>107</ele>
        <time>2020-09-13T09:18:57.000Z</time>
      </trkpt>
      <trkpt lat="47.03082" lon="-1.15542">
        <ele>106</ele>
        <time>2020-09-13T09:18:58.000Z</time>
      </trkpt>
      <trkpt lat="47.03085" lon="-1.15544">
        <ele>106</ele>
        <time>2020-09-13T09:18:59.000Z</time>
      </trkpt>
      <trkpt lat="47.03088" lon="-1.15546">
        <ele>106</ele>
        <time>2020-09-13T09:19:00.000Z</time>
      </trkpt>
      <trkpt lat="47.03091" lon="-1.15548">
        <ele>106</ele>
        <time>2020-09-13T09:19:00.000Z</time>
      </trkpt>
      <trkpt lat="47.03094" lon="-1.1555">
        <ele>105</ele>
        <time>2020-09-13T09:19:01.000Z</time>
      </trkpt>
      <trkpt lat="47.03097" lon="-1.15552">
        <ele>105</ele>
        <time>2020-09-13T09:19:02.000Z</time>
      </trkpt>
      <trkpt lat="47.03102" lon="-1.15555">
        <ele>105</ele>
        <time>2020-09-13T09:19:02.000Z</time>
      </trkpt>
      <trkpt lat="47.03109" lon="-1.15559">
        <ele>105</ele>
        <time>2020-09-13T09:19:03.000Z</time>
      </trkpt>
      <trkpt lat="47.03115" lon="-1.15562">
        <ele>105</ele>
        <time>2020-09-13T09:19:03.000Z</time>
      </trkpt>
      <trkpt lat="47.03122" lon="-1.15566">
        <ele>105</ele>
        <time>2020-09-13T09:19:04.000Z</time>
      </trkpt>
      <trkpt lat="47.03148" lon="-1.15578">
        <ele>103</ele>
        <time>2020-09-13T09:19:08.000Z</time>
      </trkpt>
      <trkpt lat="47.03153" lon="-1.15587">
        <ele>102</ele>
        <time>2020-09-13T09:19:10.000Z</time>
      </trkpt>
      <trkpt lat="47.03157" lon="-1.15597">
        <ele>102</ele>
        <time>2020-09-13T09:19:12.000Z</time>
      </trkpt>
      <trkpt lat="47.0316" lon="-1.15609">
        <ele>102</ele>
        <time>2020-09-13T09:19:14.000Z</time>
      </trkpt>
      <trkpt lat="47.03163" lon="-1.15622">
        <ele>101</ele>
        <time>2020-09-13T09:19:16.000Z</time>
      </trkpt>
      <trkpt lat="47.03165" lon="-1.15634">
        <ele>101</ele>
        <time>2020-09-13T09:19:18.000Z</time>
      </trkpt>
      <trkpt lat="47.03165" lon="-1.15646">
        <ele>100</ele>
        <time>2020-09-13T09:19:20.000Z</time>
      </trkpt>
      <trkpt lat="47.03166" lon="-1.15657">
        <ele>100</ele>
        <time>2020-09-13T09:19:22.000Z</time>
      </trkpt>
      <trkpt lat="47.03166" lon="-1.1567">
        <ele>99</ele>
        <time>2020-09-13T09:19:24.000Z</time>
      </trkpt>
      <trkpt lat="47.03168" lon="-1.15681">
        <ele>98</ele>
        <time>2020-09-13T09:19:27.000Z</time>
      </trkpt>
      <trkpt lat="47.03169" lon="-1.15692">
        <ele>97</ele>
        <time>2020-09-13T09:19:31.000Z</time>
      </trkpt>
      <trkpt lat="47.03171" lon="-1.15703">
        <ele>95</ele>
        <time>2020-09-13T09:19:34.000Z</time>
      </trkpt>
      <trkpt lat="47.03173" lon="-1.15714">
        <ele>93</ele>
        <time>2020-09-13T09:19:38.000Z</time>
      </trkpt>
      <trkpt lat="47.03173" lon="-1.15714">
        <ele>93</ele>
        <time>2020-09-13T09:19:38.000Z</time>
      </trkpt>
      <trkpt lat="47.03175" lon="-1.15757">
        <ele>96</ele>
        <time>2020-09-13T09:20:42.000Z</time>
      </trkpt>
      <trkpt lat="47.03172" lon="-1.15809">
        <ele>100</ele>
        <time>2020-09-13T09:20:53.000Z</time>
      </trkpt>
      <trkpt lat="47.03173" lon="-1.15859">
        <ele>101</ele>
        <time>2020-09-13T09:21:01.000Z</time>
      </trkpt>
      <trkpt lat="47.03172" lon="-1.15908">
        <ele>101</ele>
        <time>2020-09-13T09:21:08.000Z</time>
      </trkpt>
      <trkpt lat="47.03161" lon="-1.15951">
        <ele>99</ele>
        <time>2020-09-13T09:21:25.000Z</time>
      </trkpt>
      <trkpt lat="47.03152" lon="-1.15967">
        <ele>101</ele>
        <time>2020-09-13T09:21:36.000Z</time>
      </trkpt>
      <trkpt lat="47.03141" lon="-1.15982">
        <ele>104</ele>
        <time>2020-09-13T09:21:47.000Z</time>
      </trkpt>
      <trkpt lat="47.03134" lon="-1.15988">
        <ele>105</ele>
        <time>2020-09-13T09:21:53.000Z</time>
      </trkpt>
      <trkpt lat="47.03126" lon="-1.15993">
        <ele>106</ele>
        <time>2020-09-13T09:22:00.000Z</time>
      </trkpt>
      <trkpt lat="47.03118" lon="-1.15998">
        <ele>108</ele>
        <time>2020-09-13T09:22:06.000Z</time>
      </trkpt>
      <trkpt lat="47.0311" lon="-1.16002">
        <ele>109</ele>
        <time>2020-09-13T09:22:13.000Z</time>
      </trkpt>
      <trkpt lat="47.03101" lon="-1.16019">
        <ele>110</ele>
        <time>2020-09-13T09:22:26.000Z</time>
      </trkpt>
      <trkpt lat="47.03096" lon="-1.16039">
        <ele>112</ele>
        <time>2020-09-13T09:22:39.000Z</time>
      </trkpt>
      <trkpt lat="47.03094" lon="-1.16049">
        <ele>113</ele>
        <time>2020-09-13T09:22:45.000Z</time>
      </trkpt>
      <trkpt lat="47.03092" lon="-1.16059">
        <ele>113</ele>
        <time>2020-09-13T09:22:52.000Z</time>
      </trkpt>
      <trkpt lat="47.0309" lon="-1.16069">
        <ele>114</ele>
        <time>2020-09-13T09:22:58.000Z</time>
      </trkpt>
      <trkpt lat="47.03089" lon="-1.16079">
        <ele>115</ele>
        <time>2020-09-13T09:23:05.000Z</time>
      </trkpt>
      <trkpt lat="47.03089" lon="-1.16079">
        <ele>115</ele>
        <time>2020-09-13T09:23:05.000Z</time>
      </trkpt>
      <trkpt lat="47.03086" lon="-1.16133">
        <ele>116</ele>
        <time>2020-09-13T09:23:38.000Z</time>
      </trkpt>
      <trkpt lat="47.03073" lon="-1.16174">
        <ele>120</ele>
        <time>2020-09-13T09:24:15.000Z</time>
      </trkpt>
      <trkpt lat="47.03068" lon="-1.16209">
        <ele>122</ele>
        <time>2020-09-13T09:24:32.000Z</time>
      </trkpt>
      <trkpt lat="47.03065" lon="-1.16213">
        <ele>122</ele>
        <time>2020-09-13T09:24:34.000Z</time>
      </trkpt>
      <trkpt lat="47.03062" lon="-1.16216">
        <ele>123</ele>
        <time>2020-09-13T09:24:36.000Z</time>
      </trkpt>
      <trkpt lat="47.03059" lon="-1.16217">
        <ele>124</ele>
        <time>2020-09-13T09:24:38.000Z</time>
      </trkpt>
      <trkpt lat="47.03056" lon="-1.16218">
        <ele>125</ele>
        <time>2020-09-13T09:24:40.000Z</time>
      </trkpt>
      <trkpt lat="47.0305" lon="-1.16222">
        <ele>127</ele>
        <time>2020-09-13T09:24:45.000Z</time>
      </trkpt>
      <trkpt lat="47.03043" lon="-1.16227">
        <ele>129</ele>
        <time>2020-09-13T09:24:50.000Z</time>
      </trkpt>
      <trkpt lat="47.03035" lon="-1.16233">
        <ele>130</ele>
        <time>2020-09-13T09:24:56.000Z</time>
      </trkpt>
      <trkpt lat="47.03026" lon="-1.16238">
        <ele>132</ele>
        <time>2020-09-13T09:25:01.000Z</time>
      </trkpt>
      <trkpt lat="47.0302" lon="-1.16246">
        <ele>134</ele>
        <time>2020-09-13T09:25:09.000Z</time>
      </trkpt>
      <trkpt lat="47.03013" lon="-1.16254">
        <ele>135</ele>
        <time>2020-09-13T09:25:17.000Z</time>
      </trkpt>
      <trkpt lat="47.03007" lon="-1.16263">
        <ele>136</ele>
        <time>2020-09-13T09:25:25.000Z</time>
      </trkpt>
      <trkpt lat="47.03001" lon="-1.16272">
        <ele>137</ele>
        <time>2020-09-13T09:25:33.000Z</time>
      </trkpt>
      <trkpt lat="47.02996" lon="-1.16282">
        <ele>137</ele>
        <time>2020-09-13T09:25:37.000Z</time>
      </trkpt>
      <trkpt lat="47.02991" lon="-1.16292">
        <ele>136</ele>
        <time>2020-09-13T09:25:41.000Z</time>
      </trkpt>
      <trkpt lat="47.02987" lon="-1.16304">
        <ele>135</ele>
        <time>2020-09-13T09:25:46.000Z</time>
      </trkpt>
      <trkpt lat="47.02983" lon="-1.16315">
        <ele>134</ele>
        <time>2020-09-13T09:25:50.000Z</time>
      </trkpt>
      <trkpt lat="47.02978" lon="-1.16325">
        <ele>134</ele>
        <time>2020-09-13T09:25:53.000Z</time>
      </trkpt>
      <trkpt lat="47.02973" lon="-1.16336">
        <ele>133</ele>
        <time>2020-09-13T09:25:57.000Z</time>
      </trkpt>
      <trkpt lat="47.02967" lon="-1.16346">
        <ele>133</ele>
        <time>2020-09-13T09:26:00.000Z</time>
      </trkpt>
      <trkpt lat="47.02962" lon="-1.16356">
        <ele>132</ele>
        <time>2020-09-13T09:26:04.000Z</time>
      </trkpt>
      <trkpt lat="47.02956" lon="-1.16367">
        <ele>132</ele>
        <time>2020-09-13T09:26:07.000Z</time>
      </trkpt>
      <trkpt lat="47.02951" lon="-1.16378">
        <ele>132</ele>
        <time>2020-09-13T09:26:11.000Z</time>
      </trkpt>
      <trkpt lat="47.02946" lon="-1.16389">
        <ele>132</ele>
        <time>2020-09-13T09:26:14.000Z</time>
      </trkpt>
      <trkpt lat="47.0294" lon="-1.164">
        <ele>132</ele>
        <time>2020-09-13T09:26:18.000Z</time>
      </trkpt>
      <trkpt lat="47.02911" lon="-1.16434">
        <ele>129</ele>
        <time>2020-09-13T09:26:28.000Z</time>
      </trkpt>
      <trkpt lat="47.02906" lon="-1.1645">
        <ele>129</ele>
        <time>2020-09-13T09:26:31.000Z</time>
      </trkpt>
      <trkpt lat="47.02904" lon="-1.16467">
        <ele>128</ele>
        <time>2020-09-13T09:26:35.000Z</time>
      </trkpt>
      <trkpt lat="47.02904" lon="-1.16473">
        <ele>128</ele>
        <time>2020-09-13T09:26:36.000Z</time>
      </trkpt>
      <trkpt lat="47.02905" lon="-1.16478">
        <ele>128</ele>
        <time>2020-09-13T09:26:37.000Z</time>
      </trkpt>
      <trkpt lat="47.02907" lon="-1.16482">
        <ele>127</ele>
        <time>2020-09-13T09:26:38.000Z</time>
      </trkpt>
      <trkpt lat="47.02909" lon="-1.16486">
        <ele>127</ele>
        <time>2020-09-13T09:26:39.000Z</time>
      </trkpt>
      <trkpt lat="47.0291" lon="-1.16496">
        <ele>127</ele>
        <time>2020-09-13T09:26:41.000Z</time>
      </trkpt>
      <trkpt lat="47.02913" lon="-1.16508">
        <ele>126</ele>
        <time>2020-09-13T09:26:44.000Z</time>
      </trkpt>
      <trkpt lat="47.02914" lon="-1.16522">
        <ele>126</ele>
        <time>2020-09-13T09:26:46.000Z</time>
      </trkpt>
      <trkpt lat="47.02917" lon="-1.16536">
        <ele>125</ele>
        <time>2020-09-13T09:26:49.000Z</time>
      </trkpt>
      <trkpt lat="47.02919" lon="-1.16548">
        <ele>125</ele>
        <time>2020-09-13T09:26:52.000Z</time>
      </trkpt>
      <trkpt lat="47.0292" lon="-1.16561">
        <ele>126</ele>
        <time>2020-09-13T09:26:54.000Z</time>
      </trkpt>
      <trkpt lat="47.02922" lon="-1.16574">
        <ele>126</ele>
        <time>2020-09-13T09:26:57.000Z</time>
      </trkpt>
      <trkpt lat="47.02924" lon="-1.16586">
        <ele>126</ele>
        <time>2020-09-13T09:27:00.000Z</time>
      </trkpt>
      <trkpt lat="47.02926" lon="-1.16599">
        <ele>127</ele>
        <time>2020-09-13T09:27:03.000Z</time>
      </trkpt>
      <trkpt lat="47.02928" lon="-1.16611">
        <ele>127</ele>
        <time>2020-09-13T09:27:06.000Z</time>
      </trkpt>
      <trkpt lat="47.0293" lon="-1.16623">
        <ele>127</ele>
        <time>2020-09-13T09:27:10.000Z</time>
      </trkpt>
      <trkpt lat="47.02933" lon="-1.16635">
        <ele>127</ele>
        <time>2020-09-13T09:27:13.000Z</time>
      </trkpt>
      <trkpt lat="47.02935" lon="-1.16648">
        <ele>127</ele>
        <time>2020-09-13T09:27:15.000Z</time>
      </trkpt>
      <trkpt lat="47.02937" lon="-1.16661">
        <ele>127</ele>
        <time>2020-09-13T09:27:18.000Z</time>
      </trkpt>
      <trkpt lat="47.02939" lon="-1.16675">
        <ele>126</ele>
        <time>2020-09-13T09:27:20.000Z</time>
      </trkpt>
      <trkpt lat="47.02941" lon="-1.16688">
        <ele>126</ele>
        <time>2020-09-13T09:27:23.000Z</time>
      </trkpt>
      <trkpt lat="47.02943" lon="-1.16698">
        <ele>126</ele>
        <time>2020-09-13T09:27:25.000Z</time>
      </trkpt>
      <trkpt lat="47.02946" lon="-1.16707">
        <ele>126</ele>
        <time>2020-09-13T09:27:26.000Z</time>
      </trkpt>
      <trkpt lat="47.02948" lon="-1.16715">
        <ele>126</ele>
        <time>2020-09-13T09:27:28.000Z</time>
      </trkpt>
      <trkpt lat="47.0295" lon="-1.16723">
        <ele>126</ele>
        <time>2020-09-13T09:27:30.000Z</time>
      </trkpt>
      <trkpt lat="47.02953" lon="-1.1674">
        <ele>126</ele>
        <time>2020-09-13T09:27:33.000Z</time>
      </trkpt>
      <trkpt lat="47.02957" lon="-1.16762">
        <ele>126</ele>
        <time>2020-09-13T09:27:37.000Z</time>
      </trkpt>
      <trkpt lat="47.02961" lon="-1.16779">
        <ele>125</ele>
        <time>2020-09-13T09:27:40.000Z</time>
      </trkpt>
      <trkpt lat="47.02963" lon="-1.16789">
        <ele>125</ele>
        <time>2020-09-13T09:27:42.000Z</time>
      </trkpt>
      <trkpt lat="47.02975" lon="-1.16843">
        <ele>125</ele>
        <time>2020-09-13T09:27:52.000Z</time>
      </trkpt>
      <trkpt lat="47.02987" lon="-1.16893">
        <ele>124</ele>
        <time>2020-09-13T09:28:01.000Z</time>
      </trkpt>
      <trkpt lat="47.02997" lon="-1.16945">
        <ele>125</ele>
        <time>2020-09-13T09:28:11.000Z</time>
      </trkpt>
      <trkpt lat="47.02999" lon="-1.16999">
        <ele>125</ele>
        <time>2020-09-13T09:28:21.000Z</time>
      </trkpt>
      <trkpt lat="47.02999" lon="-1.17055">
        <ele>126</ele>
        <time>2020-09-13T09:28:31.000Z</time>
      </trkpt>
      <trkpt lat="47.03006" lon="-1.17104">
        <ele>126</ele>
        <time>2020-09-13T09:28:39.000Z</time>
      </trkpt>
      <trkpt lat="47.03016" lon="-1.17151">
        <ele>128</ele>
        <time>2020-09-13T09:28:46.000Z</time>
      </trkpt>
      <trkpt lat="47.03023" lon="-1.17203">
        <ele>128</ele>
        <time>2020-09-13T09:28:53.000Z</time>
      </trkpt>
      <trkpt lat="47.03031" lon="-1.17258">
        <ele>129</ele>
        <time>2020-09-13T09:29:01.000Z</time>
      </trkpt>
      <trkpt lat="47.03037" lon="-1.17307">
        <ele>130</ele>
        <time>2020-09-13T09:29:08.000Z</time>
      </trkpt>
      <trkpt lat="47.03046" lon="-1.17358">
        <ele>128</ele>
        <time>2020-09-13T09:29:14.000Z</time>
      </trkpt>
      <trkpt lat="47.0305" lon="-1.1741">
        <ele>127</ele>
        <time>2020-09-13T09:29:19.000Z</time>
      </trkpt>
      <trkpt lat="47.03052" lon="-1.17464">
        <ele>125</ele>
        <time>2020-09-13T09:29:25.000Z</time>
      </trkpt>
      <trkpt lat="47.03049" lon="-1.17498">
        <ele>125</ele>
        <time>2020-09-13T09:29:29.000Z</time>
      </trkpt>
      <trkpt lat="47.03051" lon="-1.1752">
        <ele>124</ele>
        <time>2020-09-13T09:29:32.000Z</time>
      </trkpt>
      <trkpt lat="47.03059" lon="-1.17534">
        <ele>124</ele>
        <time>2020-09-13T09:29:35.000Z</time>
      </trkpt>
      <trkpt lat="47.03069" lon="-1.1755">
        <ele>124</ele>
        <time>2020-09-13T09:29:38.000Z</time>
      </trkpt>
      <trkpt lat="47.03073" lon="-1.17571">
        <ele>124</ele>
        <time>2020-09-13T09:29:40.000Z</time>
      </trkpt>
      <trkpt lat="47.03074" lon="-1.17595">
        <ele>124</ele>
        <time>2020-09-13T09:29:43.000Z</time>
      </trkpt>
      <trkpt lat="47.03075" lon="-1.17607">
        <ele>124</ele>
        <time>2020-09-13T09:29:44.000Z</time>
      </trkpt>
      <trkpt lat="47.03075" lon="-1.17618">
        <ele>124</ele>
        <time>2020-09-13T09:29:45.000Z</time>
      </trkpt>
      <trkpt lat="47.03075" lon="-1.17629">
        <ele>123</ele>
        <time>2020-09-13T09:29:47.000Z</time>
      </trkpt>
      <trkpt lat="47.03075" lon="-1.1764">
        <ele>123</ele>
        <time>2020-09-13T09:29:48.000Z</time>
      </trkpt>
      <trkpt lat="47.03077" lon="-1.17653">
        <ele>123</ele>
        <time>2020-09-13T09:29:49.000Z</time>
      </trkpt>
      <trkpt lat="47.03078" lon="-1.17667">
        <ele>122</ele>
        <time>2020-09-13T09:29:51.000Z</time>
      </trkpt>
      <trkpt lat="47.0308" lon="-1.17681">
        <ele>121</ele>
        <time>2020-09-13T09:29:52.000Z</time>
      </trkpt>
      <trkpt lat="47.03082" lon="-1.17695">
        <ele>121</ele>
        <time>2020-09-13T09:29:54.000Z</time>
      </trkpt>
      <trkpt lat="47.03083" lon="-1.17709">
        <ele>120</ele>
        <time>2020-09-13T09:29:56.000Z</time>
      </trkpt>
      <trkpt lat="47.03083" lon="-1.17722">
        <ele>119</ele>
        <time>2020-09-13T09:29:57.000Z</time>
      </trkpt>
      <trkpt lat="47.03083" lon="-1.17736">
        <ele>118</ele>
        <time>2020-09-13T09:29:59.000Z</time>
      </trkpt>
      <trkpt lat="47.03082" lon="-1.1775">
        <ele>117</ele>
        <time>2020-09-13T09:30:01.000Z</time>
      </trkpt>
      <trkpt lat="47.03083" lon="-1.17763">
        <ele>117</ele>
        <time>2020-09-13T09:30:02.000Z</time>
      </trkpt>
      <trkpt lat="47.03084" lon="-1.17777">
        <ele>116</ele>
        <time>2020-09-13T09:30:04.000Z</time>
      </trkpt>
      <trkpt lat="47.03085" lon="-1.1779">
        <ele>116</ele>
        <time>2020-09-13T09:30:05.000Z</time>
      </trkpt>
      <trkpt lat="47.03086" lon="-1.17804">
        <ele>115</ele>
        <time>2020-09-13T09:30:07.000Z</time>
      </trkpt>
      <trkpt lat="47.03086" lon="-1.1781">
        <ele>115</ele>
        <time>2020-09-13T09:30:07.000Z</time>
      </trkpt>
      <trkpt lat="47.03087" lon="-1.17814">
        <ele>115</ele>
        <time>2020-09-13T09:30:08.000Z</time>
      </trkpt>
      <trkpt lat="47.03086" lon="-1.17817">
        <ele>115</ele>
        <time>2020-09-13T09:30:08.000Z</time>
      </trkpt>
      <trkpt lat="47.03086" lon="-1.17818">
        <ele>116</ele>
        <time>2020-09-13T09:30:09.000Z</time>
      </trkpt>
      <trkpt lat="47.03088" lon="-1.1782">
        <ele>116</ele>
        <time>2020-09-13T09:30:09.000Z</time>
      </trkpt>
      <trkpt lat="47.03089" lon="-1.17822">
        <ele>116</ele>
        <time>2020-09-13T09:30:10.000Z</time>
      </trkpt>
      <trkpt lat="47.03091" lon="-1.17824">
        <ele>116</ele>
        <time>2020-09-13T09:30:10.000Z</time>
      </trkpt>
      <trkpt lat="47.03093" lon="-1.17825">
        <ele>116</ele>
        <time>2020-09-13T09:30:11.000Z</time>
      </trkpt>
      <trkpt lat="47.03099" lon="-1.17823">
        <ele>115</ele>
        <time>2020-09-13T09:30:12.000Z</time>
      </trkpt>
      <trkpt lat="47.03106" lon="-1.17818">
        <ele>115</ele>
        <time>2020-09-13T09:30:14.000Z</time>
      </trkpt>
      <trkpt lat="47.03115" lon="-1.17813">
        <ele>114</ele>
        <time>2020-09-13T09:30:15.000Z</time>
      </trkpt>
      <trkpt lat="47.03124" lon="-1.17806">
        <ele>113</ele>
        <time>2020-09-13T09:30:17.000Z</time>
      </trkpt>
      <trkpt lat="47.03131" lon="-1.17803">
        <ele>113</ele>
        <time>2020-09-13T09:30:19.000Z</time>
      </trkpt>
      <trkpt lat="47.03136" lon="-1.178">
        <ele>113</ele>
        <time>2020-09-13T09:30:22.000Z</time>
      </trkpt>
      <trkpt lat="47.03142" lon="-1.17798">
        <ele>113</ele>
        <time>2020-09-13T09:30:24.000Z</time>
      </trkpt>
      <trkpt lat="47.03148" lon="-1.17795">
        <ele>113</ele>
        <time>2020-09-13T09:30:27.000Z</time>
      </trkpt>
      <trkpt lat="47.03151" lon="-1.17794">
        <ele>113</ele>
        <time>2020-09-13T09:30:28.000Z</time>
      </trkpt>
      <trkpt lat="47.03154" lon="-1.17793">
        <ele>114</ele>
        <time>2020-09-13T09:30:29.000Z</time>
      </trkpt>
      <trkpt lat="47.03157" lon="-1.17792">
        <ele>114</ele>
        <time>2020-09-13T09:30:31.000Z</time>
      </trkpt>
      <trkpt lat="47.03159" lon="-1.17792">
        <ele>114</ele>
        <time>2020-09-13T09:30:32.000Z</time>
      </trkpt>
      <trkpt lat="47.03163" lon="-1.17791">
        <ele>114</ele>
        <time>2020-09-13T09:30:34.000Z</time>
      </trkpt>
      <trkpt lat="47.03168" lon="-1.1779">
        <ele>114</ele>
        <time>2020-09-13T09:30:35.000Z</time>
      </trkpt>
      <trkpt lat="47.03173" lon="-1.17789">
        <ele>114</ele>
        <time>2020-09-13T09:30:37.000Z</time>
      </trkpt>
      <trkpt lat="47.03178" lon="-1.17788">
        <ele>115</ele>
        <time>2020-09-13T09:30:39.000Z</time>
      </trkpt>
      <trkpt lat="47.03181" lon="-1.17787">
        <ele>115</ele>
        <time>2020-09-13T09:30:40.000Z</time>
      </trkpt>
      <trkpt lat="47.03184" lon="-1.17786">
        <ele>115</ele>
        <time>2020-09-13T09:30:40.000Z</time>
      </trkpt>
      <trkpt lat="47.03186" lon="-1.17785">
        <ele>115</ele>
        <time>2020-09-13T09:30:41.000Z</time>
      </trkpt>
      <trkpt lat="47.03187" lon="-1.17785">
        <ele>115</ele>
        <time>2020-09-13T09:30:42.000Z</time>
      </trkpt>
      <trkpt lat="47.03189" lon="-1.17784">
        <ele>115</ele>
        <time>2020-09-13T09:30:42.000Z</time>
      </trkpt>
      <trkpt lat="47.03191" lon="-1.17784">
        <ele>116</ele>
        <time>2020-09-13T09:30:43.000Z</time>
      </trkpt>
      <trkpt lat="47.03192" lon="-1.17783">
        <ele>116</ele>
        <time>2020-09-13T09:30:43.000Z</time>
      </trkpt>
      <trkpt lat="47.03193" lon="-1.17783">
        <ele>116</ele>
        <time>2020-09-13T09:30:44.000Z</time>
      </trkpt>
      <trkpt lat="47.03209" lon="-1.17781">
        <ele>116</ele>
        <time>2020-09-13T09:30:49.000Z</time>
      </trkpt>
      <trkpt lat="47.0323" lon="-1.17785">
        <ele>118</ele>
        <time>2020-09-13T09:30:55.000Z</time>
      </trkpt>
      <trkpt lat="47.03267" lon="-1.17787">
        <ele>119</ele>
        <time>2020-09-13T09:31:04.000Z</time>
      </trkpt>
      <trkpt lat="47.03283" lon="-1.17788">
        <ele>119</ele>
        <time>2020-09-13T09:31:07.000Z</time>
      </trkpt>
      <trkpt lat="47.03293" lon="-1.17782">
        <ele>119</ele>
        <time>2020-09-13T09:31:09.000Z</time>
      </trkpt>
      <trkpt lat="47.03304" lon="-1.17773">
        <ele>118</ele>
        <time>2020-09-13T09:31:11.000Z</time>
      </trkpt>
      <trkpt lat="47.03311" lon="-1.17768">
        <ele>118</ele>
        <time>2020-09-13T09:31:12.000Z</time>
      </trkpt>
      <trkpt lat="47.03318" lon="-1.17762">
        <ele>118</ele>
        <time>2020-09-13T09:31:14.000Z</time>
      </trkpt>
      <trkpt lat="47.03326" lon="-1.17756">
        <ele>117</ele>
        <time>2020-09-13T09:31:15.000Z</time>
      </trkpt>
      <trkpt lat="47.03334" lon="-1.1775">
        <ele>117</ele>
        <time>2020-09-13T09:31:17.000Z</time>
      </trkpt>
      <trkpt lat="47.03342" lon="-1.17743">
        <ele>117</ele>
        <time>2020-09-13T09:31:18.000Z</time>
      </trkpt>
      <trkpt lat="47.0335" lon="-1.17735">
        <ele>117</ele>
        <time>2020-09-13T09:31:19.000Z</time>
      </trkpt>
      <trkpt lat="47.03359" lon="-1.17727">
        <ele>116</ele>
        <time>2020-09-13T09:31:21.000Z</time>
      </trkpt>
      <trkpt lat="47.03367" lon="-1.17718">
        <ele>116</ele>
        <time>2020-09-13T09:31:22.000Z</time>
      </trkpt>
      <trkpt lat="47.03376" lon="-1.1771">
        <ele>116</ele>
        <time>2020-09-13T09:31:23.000Z</time>
      </trkpt>
      <trkpt lat="47.03384" lon="-1.17701">
        <ele>115</ele>
        <time>2020-09-13T09:31:24.000Z</time>
      </trkpt>
      <trkpt lat="47.03392" lon="-1.17692">
        <ele>115</ele>
        <time>2020-09-13T09:31:26.000Z</time>
      </trkpt>
      <trkpt lat="47.034" lon="-1.17684">
        <ele>115</ele>
        <time>2020-09-13T09:31:27.000Z</time>
      </trkpt>
      <trkpt lat="47.03408" lon="-1.17675">
        <ele>114</ele>
        <time>2020-09-13T09:31:28.000Z</time>
      </trkpt>
      <trkpt lat="47.03415" lon="-1.17666">
        <ele>114</ele>
        <time>2020-09-13T09:31:29.000Z</time>
      </trkpt>
      <trkpt lat="47.03423" lon="-1.17658">
        <ele>114</ele>
        <time>2020-09-13T09:31:30.000Z</time>
      </trkpt>
      <trkpt lat="47.03431" lon="-1.17649">
        <ele>113</ele>
        <time>2020-09-13T09:31:31.000Z</time>
      </trkpt>
      <trkpt lat="47.03439" lon="-1.17643">
        <ele>113</ele>
        <time>2020-09-13T09:31:32.000Z</time>
      </trkpt>
      <trkpt lat="47.03447" lon="-1.17637">
        <ele>112</ele>
        <time>2020-09-13T09:31:34.000Z</time>
      </trkpt>
      <trkpt lat="47.03455" lon="-1.17631">
        <ele>112</ele>
        <time>2020-09-13T09:31:35.000Z</time>
      </trkpt>
      <trkpt lat="47.03462" lon="-1.17626">
        <ele>111</ele>
        <time>2020-09-13T09:31:37.000Z</time>
      </trkpt>
      <trkpt lat="47.03468" lon="-1.17625">
        <ele>110</ele>
        <time>2020-09-13T09:31:38.000Z</time>
      </trkpt>
      <trkpt lat="47.03472" lon="-1.17627">
        <ele>110</ele>
        <time>2020-09-13T09:31:39.000Z</time>
      </trkpt>
      <trkpt lat="47.03476" lon="-1.1763">
        <ele>110</ele>
        <time>2020-09-13T09:31:40.000Z</time>
      </trkpt>
      <trkpt lat="47.03479" lon="-1.17634">
        <ele>109</ele>
        <time>2020-09-13T09:31:41.000Z</time>
      </trkpt>
      <trkpt lat="47.03482" lon="-1.17638">
        <ele>109</ele>
        <time>2020-09-13T09:31:42.000Z</time>
      </trkpt>
      <trkpt lat="47.03484" lon="-1.17644">
        <ele>109</ele>
        <time>2020-09-13T09:31:43.000Z</time>
      </trkpt>
      <trkpt lat="47.03487" lon="-1.17651">
        <ele>109</ele>
        <time>2020-09-13T09:31:44.000Z</time>
      </trkpt>
      <trkpt lat="47.03489" lon="-1.17659">
        <ele>109</ele>
        <time>2020-09-13T09:31:45.000Z</time>
      </trkpt>
      <trkpt lat="47.03492" lon="-1.17668">
        <ele>109</ele>
        <time>2020-09-13T09:31:46.000Z</time>
      </trkpt>
      <trkpt lat="47.03496" lon="-1.17679">
        <ele>108</ele>
        <time>2020-09-13T09:31:47.000Z</time>
      </trkpt>
      <trkpt lat="47.035" lon="-1.17691">
        <ele>108</ele>
        <time>2020-09-13T09:31:49.000Z</time>
      </trkpt>
      <trkpt lat="47.03504" lon="-1.17703">
        <ele>108</ele>
        <time>2020-09-13T09:31:50.000Z</time>
      </trkpt>
      <trkpt lat="47.03507" lon="-1.17715">
        <ele>108</ele>
        <time>2020-09-13T09:31:51.000Z</time>
      </trkpt>
      <trkpt lat="47.0351" lon="-1.17727">
        <ele>107</ele>
        <time>2020-09-13T09:31:52.000Z</time>
      </trkpt>
      <trkpt lat="47.03512" lon="-1.1774">
        <ele>107</ele>
        <time>2020-09-13T09:31:54.000Z</time>
      </trkpt>
      <trkpt lat="47.03514" lon="-1.17753">
        <ele>106</ele>
        <time>2020-09-13T09:31:55.000Z</time>
      </trkpt>
      <trkpt lat="47.03518" lon="-1.17767">
        <ele>105</ele>
        <time>2020-09-13T09:31:56.000Z</time>
      </trkpt>
      <trkpt lat="47.03522" lon="-1.1778">
        <ele>105</ele>
        <time>2020-09-13T09:31:57.000Z</time>
      </trkpt>
      <trkpt lat="47.03526" lon="-1.17794">
        <ele>104</ele>
        <time>2020-09-13T09:31:59.000Z</time>
      </trkpt>
      <trkpt lat="47.0353" lon="-1.17808">
        <ele>103</ele>
        <time>2020-09-13T09:32:00.000Z</time>
      </trkpt>
      <trkpt lat="47.03532" lon="-1.17821">
        <ele>102</ele>
        <time>2020-09-13T09:32:01.000Z</time>
      </trkpt>
      <trkpt lat="47.03533" lon="-1.17834">
        <ele>101</ele>
        <time>2020-09-13T09:32:03.000Z</time>
      </trkpt>
      <trkpt lat="47.03534" lon="-1.17846">
        <ele>100</ele>
        <time>2020-09-13T09:32:04.000Z</time>
      </trkpt>
      <trkpt lat="47.03535" lon="-1.17859">
        <ele>98</ele>
        <time>2020-09-13T09:32:06.000Z</time>
      </trkpt>
      <trkpt lat="47.03535" lon="-1.17859">
        <ele>98</ele>
        <time>2020-09-13T09:32:06.000Z</time>
      </trkpt>
      <trkpt lat="47.03547" lon="-1.17921">
        <ele>96</ele>
        <time>2020-09-13T09:33:01.000Z</time>
      </trkpt>
      <trkpt lat="47.03545" lon="-1.17956">
        <ele>98</ele>
        <time>2020-09-13T09:33:15.000Z</time>
      </trkpt>
      <trkpt lat="47.03545" lon="-1.17956">
        <ele>98</ele>
        <time>2020-09-13T09:33:15.000Z</time>
      </trkpt>
      <trkpt lat="47.03545" lon="-1.17956">
        <ele>98</ele>
        <time>2020-09-13T09:33:15.000Z</time>
      </trkpt>
      <trkpt lat="47.03545" lon="-1.17956">
        <ele>98</ele>
        <time>2020-09-13T09:33:15.000Z</time>
      </trkpt>
      <trkpt lat="47.03548" lon="-1.18037">
        <ele>96</ele>
        <time>2020-09-13T09:34:51.000Z</time>
      </trkpt>
      <trkpt lat="47.03551" lon="-1.18086">
        <ele>99</ele>
        <time>2020-09-13T09:35:05.000Z</time>
      </trkpt>
      <trkpt lat="47.03562" lon="-1.18134">
        <ele>100</ele>
        <time>2020-09-13T09:35:15.000Z</time>
      </trkpt>
      <trkpt lat="47.03575" lon="-1.1818">
        <ele>100</ele>
        <time>2020-09-13T09:35:21.000Z</time>
      </trkpt>
      <trkpt lat="47.03592" lon="-1.18226">
        <ele>97</ele>
        <time>2020-09-13T09:35:31.000Z</time>
      </trkpt>
      <trkpt lat="47.03601" lon="-1.18268">
        <ele>97</ele>
        <time>2020-09-13T09:35:44.000Z</time>
      </trkpt>
      <trkpt lat="47.03608" lon="-1.18311">
        <ele>97</ele>
        <time>2020-09-13T09:35:54.000Z</time>
      </trkpt>
      <trkpt lat="47.03606" lon="-1.18358">
        <ele>96</ele>
        <time>2020-09-13T09:36:07.000Z</time>
      </trkpt>
      <trkpt lat="47.03601" lon="-1.18407">
        <ele>94</ele>
        <time>2020-09-13T09:36:20.000Z</time>
      </trkpt>
      <trkpt lat="47.03606" lon="-1.18454">
        <ele>93</ele>
        <time>2020-09-13T09:36:35.000Z</time>
      </trkpt>
      <trkpt lat="47.03606" lon="-1.18454">
        <ele>93</ele>
        <time>2020-09-13T09:36:35.000Z</time>
      </trkpt>
      <trkpt lat="47.03615" lon="-1.18473">
        <ele>92</ele>
        <time>2020-09-13T09:38:07.000Z</time>
      </trkpt>
      <trkpt lat="47.03615" lon="-1.18473">
        <ele>92</ele>
        <time>2020-09-13T09:38:07.000Z</time>
      </trkpt>
      <trkpt lat="47.03604" lon="-1.18499">
        <ele>93</ele>
        <time>2020-09-13T09:39:02.000Z</time>
      </trkpt>
      <trkpt lat="47.03606" lon="-1.1853">
        <ele>95</ele>
        <time>2020-09-13T09:39:08.000Z</time>
      </trkpt>
      <trkpt lat="47.0361" lon="-1.18534">
        <ele>95</ele>
        <time>2020-09-13T09:39:09.000Z</time>
      </trkpt>
      <trkpt lat="47.03614" lon="-1.18537">
        <ele>94</ele>
        <time>2020-09-13T09:39:10.000Z</time>
      </trkpt>
      <trkpt lat="47.0362" lon="-1.1854">
        <ele>93</ele>
        <time>2020-09-13T09:39:12.000Z</time>
      </trkpt>
      <trkpt lat="47.03626" lon="-1.18542">
        <ele>92</ele>
        <time>2020-09-13T09:39:13.000Z</time>
      </trkpt>
      <trkpt lat="47.03633" lon="-1.18545">
        <ele>92</ele>
        <time>2020-09-13T09:39:15.000Z</time>
      </trkpt>
      <trkpt lat="47.03641" lon="-1.18549">
        <ele>93</ele>
        <time>2020-09-13T09:39:18.000Z</time>
      </trkpt>
      <trkpt lat="47.0365" lon="-1.18553">
        <ele>93</ele>
        <time>2020-09-13T09:39:20.000Z</time>
      </trkpt>
      <trkpt lat="47.03659" lon="-1.18557">
        <ele>94</ele>
        <time>2020-09-13T09:39:23.000Z</time>
      </trkpt>
      <trkpt lat="47.03663" lon="-1.18565">
        <ele>94</ele>
        <time>2020-09-13T09:39:25.000Z</time>
      </trkpt>
      <trkpt lat="47.03667" lon="-1.18576">
        <ele>95</ele>
        <time>2020-09-13T09:39:28.000Z</time>
      </trkpt>
      <trkpt lat="47.0367" lon="-1.18588">
        <ele>95</ele>
        <time>2020-09-13T09:39:30.000Z</time>
      </trkpt>
      <trkpt lat="47.03672" lon="-1.18601">
        <ele>96</ele>
        <time>2020-09-13T09:39:33.000Z</time>
      </trkpt>
      <trkpt lat="47.03674" lon="-1.18613">
        <ele>96</ele>
        <time>2020-09-13T09:39:35.000Z</time>
      </trkpt>
      <trkpt lat="47.03675" lon="-1.18624">
        <ele>96</ele>
        <time>2020-09-13T09:39:38.000Z</time>
      </trkpt>
      <trkpt lat="47.03675" lon="-1.18636">
        <ele>97</ele>
        <time>2020-09-13T09:39:40.000Z</time>
      </trkpt>
      <trkpt lat="47.03676" lon="-1.18648">
        <ele>97</ele>
        <time>2020-09-13T09:39:43.000Z</time>
      </trkpt>
      <trkpt lat="47.03678" lon="-1.18661">
        <ele>98</ele>
        <time>2020-09-13T09:39:44.000Z</time>
      </trkpt>
      <trkpt lat="47.0368" lon="-1.18674">
        <ele>97</ele>
        <time>2020-09-13T09:39:46.000Z</time>
      </trkpt>
      <trkpt lat="47.03682" lon="-1.18687">
        <ele>97</ele>
        <time>2020-09-13T09:39:47.000Z</time>
      </trkpt>
      <trkpt lat="47.03684" lon="-1.187">
        <ele>97</ele>
        <time>2020-09-13T09:39:49.000Z</time>
      </trkpt>
      <trkpt lat="47.03693" lon="-1.18719">
        <ele>96</ele>
        <time>2020-09-13T09:39:53.000Z</time>
      </trkpt>
      <trkpt lat="47.03703" lon="-1.18736">
        <ele>96</ele>
        <time>2020-09-13T09:39:57.000Z</time>
      </trkpt>
      <trkpt lat="47.03709" lon="-1.18743">
        <ele>95</ele>
        <time>2020-09-13T09:39:58.000Z</time>
      </trkpt>
      <trkpt lat="47.03715" lon="-1.1875">
        <ele>95</ele>
        <time>2020-09-13T09:40:00.000Z</time>
      </trkpt>
      <trkpt lat="47.0372" lon="-1.18757">
        <ele>95</ele>
        <time>2020-09-13T09:40:01.000Z</time>
      </trkpt>
      <trkpt lat="47.03727" lon="-1.18763">
        <ele>94</ele>
        <time>2020-09-13T09:40:03.000Z</time>
      </trkpt>
      <trkpt lat="47.03733" lon="-1.18771">
        <ele>94</ele>
        <time>2020-09-13T09:40:04.000Z</time>
      </trkpt>
      <trkpt lat="47.03738" lon="-1.18779">
        <ele>93</ele>
        <time>2020-09-13T09:40:06.000Z</time>
      </trkpt>
      <trkpt lat="47.03745" lon="-1.18787">
        <ele>93</ele>
        <time>2020-09-13T09:40:07.000Z</time>
      </trkpt>
      <trkpt lat="47.0375" lon="-1.18795">
        <ele>92</ele>
        <time>2020-09-13T09:40:09.000Z</time>
      </trkpt>
      <trkpt lat="47.03755" lon="-1.18806">
        <ele>92</ele>
        <time>2020-09-13T09:40:10.000Z</time>
      </trkpt>
      <trkpt lat="47.0376" lon="-1.18818">
        <ele>92</ele>
        <time>2020-09-13T09:40:12.000Z</time>
      </trkpt>
      <trkpt lat="47.03764" lon="-1.18831">
        <ele>92</ele>
        <time>2020-09-13T09:40:13.000Z</time>
      </trkpt>
      <trkpt lat="47.03769" lon="-1.18844">
        <ele>92</ele>
        <time>2020-09-13T09:40:15.000Z</time>
      </trkpt>
      <trkpt lat="47.03771" lon="-1.1885">
        <ele>92</ele>
        <time>2020-09-13T09:40:16.000Z</time>
      </trkpt>
      <trkpt lat="47.03773" lon="-1.18855">
        <ele>92</ele>
        <time>2020-09-13T09:40:17.000Z</time>
      </trkpt>
      <trkpt lat="47.03774" lon="-1.18858">
        <ele>92</ele>
        <time>2020-09-13T09:40:18.000Z</time>
      </trkpt>
      <trkpt lat="47.03775" lon="-1.1886">
        <ele>92</ele>
        <time>2020-09-13T09:40:19.000Z</time>
      </trkpt>
      <trkpt lat="47.03783" lon="-1.18868">
        <ele>91</ele>
        <time>2020-09-13T09:40:22.000Z</time>
      </trkpt>
      <trkpt lat="47.03794" lon="-1.18876">
        <ele>91</ele>
        <time>2020-09-13T09:40:26.000Z</time>
      </trkpt>
      <trkpt lat="47.03802" lon="-1.18896">
        <ele>89</ele>
        <time>2020-09-13T09:40:30.000Z</time>
      </trkpt>
      <trkpt lat="47.03809" lon="-1.18922">
        <ele>88</ele>
        <time>2020-09-13T09:40:35.000Z</time>
      </trkpt>
      <trkpt lat="47.03814" lon="-1.18932">
        <ele>87</ele>
        <time>2020-09-13T09:40:38.000Z</time>
      </trkpt>
      <trkpt lat="47.03819" lon="-1.18941">
        <ele>86</ele>
        <time>2020-09-13T09:40:41.000Z</time>
      </trkpt>
      <trkpt lat="47.03825" lon="-1.18951">
        <ele>85</ele>
        <time>2020-09-13T09:40:44.000Z</time>
      </trkpt>
      <trkpt lat="47.0383" lon="-1.1896">
        <ele>84</ele>
        <time>2020-09-13T09:40:47.000Z</time>
      </trkpt>
      <trkpt lat="47.03835" lon="-1.18968">
        <ele>84</ele>
        <time>2020-09-13T09:40:49.000Z</time>
      </trkpt>
      <trkpt lat="47.0384" lon="-1.18976">
        <ele>84</ele>
        <time>2020-09-13T09:40:52.000Z</time>
      </trkpt>
      <trkpt lat="47.03845" lon="-1.18983">
        <ele>84</ele>
        <time>2020-09-13T09:40:54.000Z</time>
      </trkpt>
      <trkpt lat="47.0385" lon="-1.1899">
        <ele>84</ele>
        <time>2020-09-13T09:40:57.000Z</time>
      </trkpt>
      <trkpt lat="47.03855" lon="-1.18999">
        <ele>84</ele>
        <time>2020-09-13T09:40:59.000Z</time>
      </trkpt>
      <trkpt lat="47.0386" lon="-1.19008">
        <ele>85</ele>
        <time>2020-09-13T09:41:01.000Z</time>
      </trkpt>
      <trkpt lat="47.03865" lon="-1.19018">
        <ele>85</ele>
        <time>2020-09-13T09:41:03.000Z</time>
      </trkpt>
      <trkpt lat="47.0387" lon="-1.19028">
        <ele>85</ele>
        <time>2020-09-13T09:41:05.000Z</time>
      </trkpt>
      <trkpt lat="47.0387" lon="-1.19028">
        <ele>85</ele>
        <time>2020-09-13T09:41:05.000Z</time>
      </trkpt>
      <trkpt lat="47.03876" lon="-1.19081">
        <ele>88</ele>
        <time>2020-09-13T09:41:43.000Z</time>
      </trkpt>
      <trkpt lat="47.03876" lon="-1.19081">
        <ele>88</ele>
        <time>2020-09-13T09:41:43.000Z</time>
      </trkpt>
      <trkpt lat="47.03859" lon="-1.19147">
        <ele>98</ele>
        <time>2020-09-13T09:42:50.000Z</time>
      </trkpt>
      <trkpt lat="47.03859" lon="-1.19147">
        <ele>98</ele>
        <time>2020-09-13T09:42:50.000Z</time>
      </trkpt>
      <trkpt lat="47.0385" lon="-1.19193">
        <ele>108</ele>
        <time>2020-09-13T09:43:26.000Z</time>
      </trkpt>
      <trkpt lat="47.0385" lon="-1.19193">
        <ele>108</ele>
        <time>2020-09-13T09:43:26.000Z</time>
      </trkpt>
      <trkpt lat="47.03851" lon="-1.19215">
        <ele>107</ele>
        <time>2020-09-13T09:43:46.000Z</time>
      </trkpt>
      <trkpt lat="47.03851" lon="-1.19215">
        <ele>107</ele>
        <time>2020-09-13T09:43:46.000Z</time>
      </trkpt>
      <trkpt lat="47.0384" lon="-1.19253">
        <ele>106</ele>
        <time>2020-09-13T09:44:10.000Z</time>
      </trkpt>
      <trkpt lat="47.0384" lon="-1.19253">
        <ele>106</ele>
        <time>2020-09-13T09:44:10.000Z</time>
      </trkpt>
      <trkpt lat="47.03829" lon="-1.19251">
        <ele>113</ele>
        <time>2020-09-13T09:44:48.000Z</time>
      </trkpt>
      <trkpt lat="47.03797" lon="-1.19233">
        <ele>118</ele>
        <time>2020-09-13T09:45:10.000Z</time>
      </trkpt>
      <trkpt lat="47.03789" lon="-1.19236">
        <ele>118</ele>
        <time>2020-09-13T09:45:15.000Z</time>
      </trkpt>
      <trkpt lat="47.03782" lon="-1.19242">
        <ele>118</ele>
        <time>2020-09-13T09:45:20.000Z</time>
      </trkpt>
      <trkpt lat="47.03774" lon="-1.1925">
        <ele>118</ele>
        <time>2020-09-13T09:45:26.000Z</time>
      </trkpt>
      <trkpt lat="47.03766" lon="-1.19259">
        <ele>117</ele>
        <time>2020-09-13T09:45:31.000Z</time>
      </trkpt>
      <trkpt lat="47.03759" lon="-1.19266">
        <ele>117</ele>
        <time>2020-09-13T09:45:34.000Z</time>
      </trkpt>
      <trkpt lat="47.03752" lon="-1.19273">
        <ele>118</ele>
        <time>2020-09-13T09:45:38.000Z</time>
      </trkpt>
      <trkpt lat="47.03745" lon="-1.19281">
        <ele>118</ele>
        <time>2020-09-13T09:45:41.000Z</time>
      </trkpt>
      <trkpt lat="47.03738" lon="-1.19289">
        <ele>119</ele>
        <time>2020-09-13T09:45:45.000Z</time>
      </trkpt>
      <trkpt lat="47.03735" lon="-1.19294">
        <ele>119</ele>
        <time>2020-09-13T09:45:46.000Z</time>
      </trkpt>
      <trkpt lat="47.03733" lon="-1.19298">
        <ele>119</ele>
        <time>2020-09-13T09:45:48.000Z</time>
      </trkpt>
      <trkpt lat="47.03731" lon="-1.19302">
        <ele>119</ele>
        <time>2020-09-13T09:45:49.000Z</time>
      </trkpt>
      <trkpt lat="47.0373" lon="-1.19305">
        <ele>119</ele>
        <time>2020-09-13T09:45:51.000Z</time>
      </trkpt>
      <trkpt lat="47.03726" lon="-1.19308">
        <ele>119</ele>
        <time>2020-09-13T09:45:55.000Z</time>
      </trkpt>
      <trkpt lat="47.0372" lon="-1.1931">
        <ele>119</ele>
        <time>2020-09-13T09:45:59.000Z</time>
      </trkpt>
      <trkpt lat="47.03714" lon="-1.19311">
        <ele>119</ele>
        <time>2020-09-13T09:46:04.000Z</time>
      </trkpt>
      <trkpt lat="47.03708" lon="-1.19312">
        <ele>119</ele>
        <time>2020-09-13T09:46:08.000Z</time>
      </trkpt>
      <trkpt lat="47.03699" lon="-1.19314">
        <ele>119</ele>
        <time>2020-09-13T09:46:10.000Z</time>
      </trkpt>
      <trkpt lat="47.0369" lon="-1.19316">
        <ele>119</ele>
        <time>2020-09-13T09:46:13.000Z</time>
      </trkpt>
      <trkpt lat="47.03681" lon="-1.19317">
        <ele>118</ele>
        <time>2020-09-13T09:46:15.000Z</time>
      </trkpt>
      <trkpt lat="47.03671" lon="-1.19319">
        <ele>118</ele>
        <time>2020-09-13T09:46:18.000Z</time>
      </trkpt>
      <trkpt lat="47.03662" lon="-1.1932">
        <ele>117</ele>
        <time>2020-09-13T09:46:21.000Z</time>
      </trkpt>
      <trkpt lat="47.03653" lon="-1.19321">
        <ele>117</ele>
        <time>2020-09-13T09:46:23.000Z</time>
      </trkpt>
      <trkpt lat="47.03644" lon="-1.19322">
        <ele>116</ele>
        <time>2020-09-13T09:46:26.000Z</time>
      </trkpt>
      <trkpt lat="47.03635" lon="-1.19323">
        <ele>116</ele>
        <time>2020-09-13T09:46:29.000Z</time>
      </trkpt>
      <trkpt lat="47.03626" lon="-1.19324">
        <ele>115</ele>
        <time>2020-09-13T09:46:31.000Z</time>
      </trkpt>
      <trkpt lat="47.03617" lon="-1.19324">
        <ele>115</ele>
        <time>2020-09-13T09:46:33.000Z</time>
      </trkpt>
      <trkpt lat="47.03608" lon="-1.19325">
        <ele>115</ele>
        <time>2020-09-13T09:46:35.000Z</time>
      </trkpt>
      <trkpt lat="47.03598" lon="-1.19326">
        <ele>114</ele>
        <time>2020-09-13T09:46:37.000Z</time>
      </trkpt>
      <trkpt lat="47.03589" lon="-1.19327">
        <ele>114</ele>
        <time>2020-09-13T09:46:39.000Z</time>
      </trkpt>
      <trkpt lat="47.0358" lon="-1.19329">
        <ele>114</ele>
        <time>2020-09-13T09:46:41.000Z</time>
      </trkpt>
      <trkpt lat="47.03571" lon="-1.1933">
        <ele>114</ele>
        <time>2020-09-13T09:46:43.000Z</time>
      </trkpt>
      <trkpt lat="47.03563" lon="-1.19332">
        <ele>114</ele>
        <time>2020-09-13T09:46:45.000Z</time>
      </trkpt>
      <trkpt lat="47.03554" lon="-1.19334">
        <ele>114</ele>
        <time>2020-09-13T09:46:47.000Z</time>
      </trkpt>
      <trkpt lat="47.03545" lon="-1.19336">
        <ele>114</ele>
        <time>2020-09-13T09:46:49.000Z</time>
      </trkpt>
      <trkpt lat="47.03537" lon="-1.19339">
        <ele>114</ele>
        <time>2020-09-13T09:46:51.000Z</time>
      </trkpt>
      <trkpt lat="47.03528" lon="-1.19341">
        <ele>114</ele>
        <time>2020-09-13T09:46:53.000Z</time>
      </trkpt>
      <trkpt lat="47.03494" lon="-1.19355">
        <ele>114</ele>
        <time>2020-09-13T09:47:04.000Z</time>
      </trkpt>
      <trkpt lat="47.0346" lon="-1.19373">
        <ele>112</ele>
        <time>2020-09-13T09:47:13.000Z</time>
      </trkpt>
      <trkpt lat="47.03434" lon="-1.19391">
        <ele>112</ele>
        <time>2020-09-13T09:47:21.000Z</time>
      </trkpt>
      <trkpt lat="47.0343" lon="-1.19391">
        <ele>112</ele>
        <time>2020-09-13T09:47:22.000Z</time>
      </trkpt>
      <trkpt lat="47.03428" lon="-1.19391">
        <ele>112</ele>
        <time>2020-09-13T09:47:22.000Z</time>
      </trkpt>
      <trkpt lat="47.03426" lon="-1.19389">
        <ele>112</ele>
        <time>2020-09-13T09:47:23.000Z</time>
      </trkpt>
      <trkpt lat="47.03425" lon="-1.19386">
        <ele>112</ele>
        <time>2020-09-13T09:47:24.000Z</time>
      </trkpt>
      <trkpt lat="47.03418" lon="-1.19383">
        <ele>111</ele>
        <time>2020-09-13T09:47:26.000Z</time>
      </trkpt>
      <trkpt lat="47.0341" lon="-1.1938">
        <ele>111</ele>
        <time>2020-09-13T09:47:28.000Z</time>
      </trkpt>
      <trkpt lat="47.034" lon="-1.19376">
        <ele>110</ele>
        <time>2020-09-13T09:47:31.000Z</time>
      </trkpt>
      <trkpt lat="47.03391" lon="-1.19372">
        <ele>109</ele>
        <time>2020-09-13T09:47:33.000Z</time>
      </trkpt>
      <trkpt lat="47.03382" lon="-1.19373">
        <ele>109</ele>
        <time>2020-09-13T09:47:34.000Z</time>
      </trkpt>
      <trkpt lat="47.03378" lon="-1.19378">
        <ele>109</ele>
        <time>2020-09-13T09:47:36.000Z</time>
      </trkpt>
      <trkpt lat="47.03371" lon="-1.1939">
        <ele>110</ele>
        <time>2020-09-13T09:47:40.000Z</time>
      </trkpt>
      <trkpt lat="47.03364" lon="-1.19404">
        <ele>110</ele>
        <time>2020-09-13T09:47:44.000Z</time>
      </trkpt>
      <trkpt lat="47.03358" lon="-1.19412">
        <ele>110</ele>
        <time>2020-09-13T09:47:47.000Z</time>
      </trkpt>
      <trkpt lat="47.03351" lon="-1.19421">
        <ele>110</ele>
        <time>2020-09-13T09:47:49.000Z</time>
      </trkpt>
      <trkpt lat="47.03344" lon="-1.19431">
        <ele>110</ele>
        <time>2020-09-13T09:47:52.000Z</time>
      </trkpt>
      <trkpt lat="47.03336" lon="-1.1944">
        <ele>110</ele>
        <time>2020-09-13T09:47:55.000Z</time>
      </trkpt>
      <trkpt lat="47.03336" lon="-1.1944">
        <ele>110</ele>
        <time>2020-09-13T09:47:55.000Z</time>
      </trkpt>
      <trkpt lat="47.03328" lon="-1.19445">
        <ele>110</ele>
        <time>2020-09-13T09:48:31.000Z</time>
      </trkpt>
      <trkpt lat="47.03328" lon="-1.19445">
        <ele>110</ele>
        <time>2020-09-13T09:48:31.000Z</time>
      </trkpt>
      <trkpt lat="47.03318" lon="-1.19464">
        <ele>108</ele>
        <time>2020-09-13T09:53:45.000Z</time>
      </trkpt>
      <trkpt lat="47.0329" lon="-1.19498">
        <ele>110</ele>
        <time>2020-09-13T09:54:00.000Z</time>
      </trkpt>
      <trkpt lat="47.03261" lon="-1.19526">
        <ele>114</ele>
        <time>2020-09-13T09:54:16.000Z</time>
      </trkpt>
      <trkpt lat="47.03249" lon="-1.1954">
        <ele>115</ele>
        <time>2020-09-13T09:54:22.000Z</time>
      </trkpt>
      <trkpt lat="47.03245" lon="-1.19554">
        <ele>115</ele>
        <time>2020-09-13T09:54:28.000Z</time>
      </trkpt>
      <trkpt lat="47.03241" lon="-1.19571">
        <ele>115</ele>
        <time>2020-09-13T09:54:34.000Z</time>
      </trkpt>
      <trkpt lat="47.03241" lon="-1.19582">
        <ele>114</ele>
        <time>2020-09-13T09:54:37.000Z</time>
      </trkpt>
      <trkpt lat="47.03242" lon="-1.19595">
        <ele>114</ele>
        <time>2020-09-13T09:54:41.000Z</time>
      </trkpt>
      <trkpt lat="47.03242" lon="-1.1961">
        <ele>113</ele>
        <time>2020-09-13T09:54:44.000Z</time>
      </trkpt>
      <trkpt lat="47.03243" lon="-1.19624">
        <ele>112</ele>
        <time>2020-09-13T09:54:48.000Z</time>
      </trkpt>
      <trkpt lat="47.03244" lon="-1.19638">
        <ele>112</ele>
        <time>2020-09-13T09:54:51.000Z</time>
      </trkpt>
      <trkpt lat="47.03244" lon="-1.19651">
        <ele>111</ele>
        <time>2020-09-13T09:54:54.000Z</time>
      </trkpt>
      <trkpt lat="47.03245" lon="-1.19664">
        <ele>111</ele>
        <time>2020-09-13T09:54:58.000Z</time>
      </trkpt>
      <trkpt lat="47.03245" lon="-1.19678">
        <ele>111</ele>
        <time>2020-09-13T09:55:01.000Z</time>
      </trkpt>
      <trkpt lat="47.03246" lon="-1.19687">
        <ele>111</ele>
        <time>2020-09-13T09:55:02.000Z</time>
      </trkpt>
      <trkpt lat="47.03246" lon="-1.19695">
        <ele>111</ele>
        <time>2020-09-13T09:55:04.000Z</time>
      </trkpt>
      <trkpt lat="47.03246" lon="-1.19703">
        <ele>111</ele>
        <time>2020-09-13T09:55:05.000Z</time>
      </trkpt>
      <trkpt lat="47.03246" lon="-1.19709">
        <ele>111</ele>
        <time>2020-09-13T09:55:07.000Z</time>
      </trkpt>
      <trkpt lat="47.03245" lon="-1.19716">
        <ele>111</ele>
        <time>2020-09-13T09:55:08.000Z</time>
      </trkpt>
      <trkpt lat="47.03245" lon="-1.19723">
        <ele>111</ele>
        <time>2020-09-13T09:55:09.000Z</time>
      </trkpt>
      <trkpt lat="47.03244" lon="-1.19729">
        <ele>110</ele>
        <time>2020-09-13T09:55:10.000Z</time>
      </trkpt>
      <trkpt lat="47.03243" lon="-1.19736">
        <ele>110</ele>
        <time>2020-09-13T09:55:11.000Z</time>
      </trkpt>
      <trkpt lat="47.03242" lon="-1.19742">
        <ele>110</ele>
        <time>2020-09-13T09:55:12.000Z</time>
      </trkpt>
      <trkpt lat="47.03242" lon="-1.19748">
        <ele>110</ele>
        <time>2020-09-13T09:55:12.000Z</time>
      </trkpt>
      <trkpt lat="47.03242" lon="-1.19754">
        <ele>110</ele>
        <time>2020-09-13T09:55:13.000Z</time>
      </trkpt>
      <trkpt lat="47.03242" lon="-1.19759">
        <ele>110</ele>
        <time>2020-09-13T09:55:14.000Z</time>
      </trkpt>
      <trkpt lat="47.03244" lon="-1.19776">
        <ele>109</ele>
        <time>2020-09-13T09:55:16.000Z</time>
      </trkpt>
      <trkpt lat="47.03247" lon="-1.19791">
        <ele>109</ele>
        <time>2020-09-13T09:55:18.000Z</time>
      </trkpt>
      <trkpt lat="47.03261" lon="-1.19838">
        <ele>108</ele>
        <time>2020-09-13T09:55:25.000Z</time>
      </trkpt>
      <trkpt lat="47.03263" lon="-1.19845">
        <ele>107</ele>
        <time>2020-09-13T09:55:26.000Z</time>
      </trkpt>
      <trkpt lat="47.03279" lon="-1.19894">
        <ele>106</ele>
        <time>2020-09-13T09:55:34.000Z</time>
      </trkpt>
      <trkpt lat="47.03289" lon="-1.19946">
        <ele>107</ele>
        <time>2020-09-13T09:55:43.000Z</time>
      </trkpt>
      <trkpt lat="47.033" lon="-1.2">
        <ele>106</ele>
        <time>2020-09-13T09:55:51.000Z</time>
      </trkpt>
      <trkpt lat="47.03303" lon="-1.20012">
        <ele>106</ele>
        <time>2020-09-13T09:55:53.000Z</time>
      </trkpt>
      <trkpt lat="47.03307" lon="-1.20037">
        <ele>107</ele>
        <time>2020-09-13T09:55:58.000Z</time>
      </trkpt>
      <trkpt lat="47.0331" lon="-1.20052">
        <ele>107</ele>
        <time>2020-09-13T09:56:01.000Z</time>
      </trkpt>
      <trkpt lat="47.03321" lon="-1.20104">
        <ele>107</ele>
        <time>2020-09-13T09:56:13.000Z</time>
      </trkpt>
      <trkpt lat="47.03328" lon="-1.20159">
        <ele>110</ele>
        <time>2020-09-13T09:56:29.000Z</time>
      </trkpt>
      <trkpt lat="47.03336" lon="-1.2021">
        <ele>114</ele>
        <time>2020-09-13T09:56:43.000Z</time>
      </trkpt>
      <trkpt lat="47.0334" lon="-1.20245">
        <ele>114</ele>
        <time>2020-09-13T09:56:51.000Z</time>
      </trkpt>
      <trkpt lat="47.0334" lon="-1.20262">
        <ele>114</ele>
        <time>2020-09-13T09:56:54.000Z</time>
      </trkpt>
      <trkpt lat="47.03339" lon="-1.20284">
        <ele>115</ele>
        <time>2020-09-13T09:56:58.000Z</time>
      </trkpt>
      <trkpt lat="47.03341" lon="-1.20302">
        <ele>115</ele>
        <time>2020-09-13T09:57:01.000Z</time>
      </trkpt>
      <trkpt lat="47.03342" lon="-1.20313">
        <ele>115</ele>
        <time>2020-09-13T09:57:03.000Z</time>
      </trkpt>
      <trkpt lat="47.03344" lon="-1.2032">
        <ele>115</ele>
        <time>2020-09-13T09:57:04.000Z</time>
      </trkpt>
      <trkpt lat="47.03349" lon="-1.20345">
        <ele>114</ele>
        <time>2020-09-13T09:57:08.000Z</time>
      </trkpt>
      <trkpt lat="47.03353" lon="-1.20364">
        <ele>114</ele>
        <time>2020-09-13T09:57:11.000Z</time>
      </trkpt>
      <trkpt lat="47.03354" lon="-1.20371">
        <ele>113</ele>
        <time>2020-09-13T09:57:12.000Z</time>
      </trkpt>
      <trkpt lat="47.03356" lon="-1.20384">
        <ele>112</ele>
        <time>2020-09-13T09:57:14.000Z</time>
      </trkpt>
      <trkpt lat="47.03358" lon="-1.20396">
        <ele>112</ele>
        <time>2020-09-13T09:57:16.000Z</time>
      </trkpt>
      <trkpt lat="47.03359" lon="-1.20403">
        <ele>111</ele>
        <time>2020-09-13T09:57:17.000Z</time>
      </trkpt>
      <trkpt lat="47.0336" lon="-1.2041">
        <ele>111</ele>
        <time>2020-09-13T09:57:18.000Z</time>
      </trkpt>
      <trkpt lat="47.03362" lon="-1.20416">
        <ele>111</ele>
        <time>2020-09-13T09:57:19.000Z</time>
      </trkpt>
      <trkpt lat="47.03373" lon="-1.20459">
        <ele>110</ele>
        <time>2020-09-13T09:57:26.000Z</time>
      </trkpt>
      <trkpt lat="47.03378" lon="-1.20468">
        <ele>110</ele>
        <time>2020-09-13T09:57:28.000Z</time>
      </trkpt>
      <trkpt lat="47.0338" lon="-1.2047">
        <ele>110</ele>
        <time>2020-09-13T09:57:29.000Z</time>
      </trkpt>
      <trkpt lat="47.03382" lon="-1.20471">
        <ele>110</ele>
        <time>2020-09-13T09:57:29.000Z</time>
      </trkpt>
      <trkpt lat="47.03386" lon="-1.20472">
        <ele>110</ele>
        <time>2020-09-13T09:57:30.000Z</time>
      </trkpt>
      <trkpt lat="47.03389" lon="-1.20473">
        <ele>110</ele>
        <time>2020-09-13T09:57:31.000Z</time>
      </trkpt>
      <trkpt lat="47.03394" lon="-1.20473">
        <ele>110</ele>
        <time>2020-09-13T09:57:32.000Z</time>
      </trkpt>
      <trkpt lat="47.034" lon="-1.20472">
        <ele>110</ele>
        <time>2020-09-13T09:57:34.000Z</time>
      </trkpt>
      <trkpt lat="47.03407" lon="-1.20471">
        <ele>110</ele>
        <time>2020-09-13T09:57:35.000Z</time>
      </trkpt>
      <trkpt lat="47.03415" lon="-1.2047">
        <ele>110</ele>
        <time>2020-09-13T09:57:37.000Z</time>
      </trkpt>
      <trkpt lat="47.03423" lon="-1.20469">
        <ele>110</ele>
        <time>2020-09-13T09:57:39.000Z</time>
      </trkpt>
      <trkpt lat="47.03432" lon="-1.20469">
        <ele>110</ele>
        <time>2020-09-13T09:57:41.000Z</time>
      </trkpt>
      <trkpt lat="47.03443" lon="-1.20469">
        <ele>110</ele>
        <time>2020-09-13T09:57:44.000Z</time>
      </trkpt>
      <trkpt lat="47.03453" lon="-1.20469">
        <ele>110</ele>
        <time>2020-09-13T09:57:46.000Z</time>
      </trkpt>
      <trkpt lat="47.03463" lon="-1.20469">
        <ele>110</ele>
        <time>2020-09-13T09:57:48.000Z</time>
      </trkpt>
      <trkpt lat="47.03471" lon="-1.20468">
        <ele>109</ele>
        <time>2020-09-13T09:57:49.000Z</time>
      </trkpt>
      <trkpt lat="47.0348" lon="-1.20468">
        <ele>109</ele>
        <time>2020-09-13T09:57:51.000Z</time>
      </trkpt>
      <trkpt lat="47.03489" lon="-1.20467">
        <ele>109</ele>
        <time>2020-09-13T09:57:53.000Z</time>
      </trkpt>
      <trkpt lat="47.03498" lon="-1.20467">
        <ele>110</ele>
        <time>2020-09-13T09:57:54.000Z</time>
      </trkpt>
      <trkpt lat="47.03507" lon="-1.20466">
        <ele>110</ele>
        <time>2020-09-13T09:57:56.000Z</time>
      </trkpt>
      <trkpt lat="47.03516" lon="-1.20466">
        <ele>111</ele>
        <time>2020-09-13T09:57:57.000Z</time>
      </trkpt>
      <trkpt lat="47.03526" lon="-1.20466">
        <ele>111</ele>
        <time>2020-09-13T09:57:59.000Z</time>
      </trkpt>
      <trkpt lat="47.03532" lon="-1.20466">
        <ele>111</ele>
        <time>2020-09-13T09:58:00.000Z</time>
      </trkpt>
      <trkpt lat="47.03539" lon="-1.20467">
        <ele>112</ele>
        <time>2020-09-13T09:58:01.000Z</time>
      </trkpt>
      <trkpt lat="47.03544" lon="-1.20467">
        <ele>112</ele>
        <time>2020-09-13T09:58:02.000Z</time>
      </trkpt>
      <trkpt lat="47.0355" lon="-1.20468">
        <ele>112</ele>
        <time>2020-09-13T09:58:03.000Z</time>
      </trkpt>
      <trkpt lat="47.03561" lon="-1.2047">
        <ele>112</ele>
        <time>2020-09-13T09:58:05.000Z</time>
      </trkpt>
      <trkpt lat="47.03593" lon="-1.20487">
        <ele>111</ele>
        <time>2020-09-13T09:58:13.000Z</time>
      </trkpt>
      <trkpt lat="47.03625" lon="-1.2051">
        <ele>111</ele>
        <time>2020-09-13T09:58:18.000Z</time>
      </trkpt>
      <trkpt lat="47.03648" lon="-1.20533">
        <ele>110</ele>
        <time>2020-09-13T09:58:21.000Z</time>
      </trkpt>
      <trkpt lat="47.03656" lon="-1.20538">
        <ele>109</ele>
        <time>2020-09-13T09:58:22.000Z</time>
      </trkpt>
      <trkpt lat="47.03691" lon="-1.20549">
        <ele>108</ele>
        <time>2020-09-13T09:58:27.000Z</time>
      </trkpt>
      <trkpt lat="47.03698" lon="-1.20545">
        <ele>108</ele>
        <time>2020-09-13T09:58:28.000Z</time>
      </trkpt>
      <trkpt lat="47.03705" lon="-1.2054">
        <ele>107</ele>
        <time>2020-09-13T09:58:29.000Z</time>
      </trkpt>
      <trkpt lat="47.03711" lon="-1.20532">
        <ele>107</ele>
        <time>2020-09-13T09:58:31.000Z</time>
      </trkpt>
      <trkpt lat="47.03717" lon="-1.20524">
        <ele>106</ele>
        <time>2020-09-13T09:58:32.000Z</time>
      </trkpt>
      <trkpt lat="47.03724" lon="-1.20518">
        <ele>106</ele>
        <time>2020-09-13T09:58:33.000Z</time>
      </trkpt>
      <trkpt lat="47.0373" lon="-1.20513">
        <ele>105</ele>
        <time>2020-09-13T09:58:34.000Z</time>
      </trkpt>
      <trkpt lat="47.03737" lon="-1.20508">
        <ele>105</ele>
        <time>2020-09-13T09:58:36.000Z</time>
      </trkpt>
      <trkpt lat="47.03743" lon="-1.20503">
        <ele>104</ele>
        <time>2020-09-13T09:58:37.000Z</time>
      </trkpt>
      <trkpt lat="47.0375" lon="-1.205">
        <ele>104</ele>
        <time>2020-09-13T09:58:38.000Z</time>
      </trkpt>
      <trkpt lat="47.03757" lon="-1.20496">
        <ele>104</ele>
        <time>2020-09-13T09:58:39.000Z</time>
      </trkpt>
      <trkpt lat="47.03764" lon="-1.20494">
        <ele>103</ele>
        <time>2020-09-13T09:58:40.000Z</time>
      </trkpt>
      <trkpt lat="47.03772" lon="-1.20491">
        <ele>103</ele>
        <time>2020-09-13T09:58:41.000Z</time>
      </trkpt>
      <trkpt lat="47.03779" lon="-1.20486">
        <ele>102</ele>
        <time>2020-09-13T09:58:42.000Z</time>
      </trkpt>
      <trkpt lat="47.03787" lon="-1.20479">
        <ele>102</ele>
        <time>2020-09-13T09:58:44.000Z</time>
      </trkpt>
      <trkpt lat="47.03795" lon="-1.20472">
        <ele>101</ele>
        <time>2020-09-13T09:58:45.000Z</time>
      </trkpt>
      <trkpt lat="47.03803" lon="-1.20464">
        <ele>100</ele>
        <time>2020-09-13T09:58:47.000Z</time>
      </trkpt>
      <trkpt lat="47.0381" lon="-1.20457">
        <ele>100</ele>
        <time>2020-09-13T09:58:48.000Z</time>
      </trkpt>
      <trkpt lat="47.03817" lon="-1.2045">
        <ele>99</ele>
        <time>2020-09-13T09:58:50.000Z</time>
      </trkpt>
      <trkpt lat="47.03825" lon="-1.20442">
        <ele>99</ele>
        <time>2020-09-13T09:58:51.000Z</time>
      </trkpt>
      <trkpt lat="47.03832" lon="-1.20435">
        <ele>99</ele>
        <time>2020-09-13T09:58:53.000Z</time>
      </trkpt>
      <trkpt lat="47.03837" lon="-1.20428">
        <ele>98</ele>
        <time>2020-09-13T09:58:54.000Z</time>
      </trkpt>
      <trkpt lat="47.03842" lon="-1.20422">
        <ele>98</ele>
        <time>2020-09-13T09:58:55.000Z</time>
      </trkpt>
      <trkpt lat="47.03846" lon="-1.20416">
        <ele>98</ele>
        <time>2020-09-13T09:58:56.000Z</time>
      </trkpt>
      <trkpt lat="47.03851" lon="-1.2041">
        <ele>98</ele>
        <time>2020-09-13T09:58:57.000Z</time>
      </trkpt>
      <trkpt lat="47.03859" lon="-1.20392">
        <ele>97</ele>
        <time>2020-09-13T09:58:59.000Z</time>
      </trkpt>
      <trkpt lat="47.03866" lon="-1.20372">
        <ele>96</ele>
        <time>2020-09-13T09:59:01.000Z</time>
      </trkpt>
      <trkpt lat="47.03882" lon="-1.20342">
        <ele>95</ele>
        <time>2020-09-13T09:59:04.000Z</time>
      </trkpt>
      <trkpt lat="47.03897" lon="-1.20315">
        <ele>94</ele>
        <time>2020-09-13T09:59:07.000Z</time>
      </trkpt>
      <trkpt lat="47.03909" lon="-1.20305">
        <ele>93</ele>
        <time>2020-09-13T09:59:09.000Z</time>
      </trkpt>
      <trkpt lat="47.03945" lon="-1.20293">
        <ele>93</ele>
        <time>2020-09-13T09:59:15.000Z</time>
      </trkpt>
      <trkpt lat="47.03974" lon="-1.20279">
        <ele>90</ele>
        <time>2020-09-13T09:59:21.000Z</time>
      </trkpt>
      <trkpt lat="47.04001" lon="-1.20272">
        <ele>89</ele>
        <time>2020-09-13T09:59:28.000Z</time>
      </trkpt>
      <trkpt lat="47.04033" lon="-1.20264">
        <ele>88</ele>
        <time>2020-09-13T09:59:33.000Z</time>
      </trkpt>
      <trkpt lat="47.04047" lon="-1.20263">
        <ele>89</ele>
        <time>2020-09-13T09:59:36.000Z</time>
      </trkpt>
      <trkpt lat="47.04068" lon="-1.20271">
        <ele>87</ele>
        <time>2020-09-13T09:59:41.000Z</time>
      </trkpt>
      <trkpt lat="47.04103" lon="-1.2029">
        <ele>88</ele>
        <time>2020-09-13T09:59:47.000Z</time>
      </trkpt>
      <trkpt lat="47.04116" lon="-1.20297">
        <ele>88</ele>
        <time>2020-09-13T09:59:49.000Z</time>
      </trkpt>
      <trkpt lat="47.04134" lon="-1.20313">
        <ele>87</ele>
        <time>2020-09-13T09:59:54.000Z</time>
      </trkpt>
      <trkpt lat="47.04164" lon="-1.20335">
        <ele>84</ele>
        <time>2020-09-13T10:00:07.000Z</time>
      </trkpt>
      <trkpt lat="47.04193" lon="-1.20362">
        <ele>85</ele>
        <time>2020-09-13T10:00:23.000Z</time>
      </trkpt>
      <trkpt lat="47.04193" lon="-1.20362">
        <ele>85</ele>
        <time>2020-09-13T10:00:23.000Z</time>
      </trkpt>
      <trkpt lat="47.04212" lon="-1.20424">
        <ele>90</ele>
        <time>2020-09-13T10:02:19.000Z</time>
      </trkpt>
      <trkpt lat="47.04212" lon="-1.20424">
        <ele>90</ele>
        <time>2020-09-13T10:02:19.000Z</time>
      </trkpt>
      <trkpt lat="47.04221" lon="-1.20452">
        <ele>91</ele>
        <time>2020-09-13T10:02:47.000Z</time>
      </trkpt>
      <trkpt lat="47.04221" lon="-1.20452">
        <ele>91</ele>
        <time>2020-09-13T10:02:47.000Z</time>
      </trkpt>
      <trkpt lat="47.04227" lon="-1.20466">
        <ele>97</ele>
        <time>2020-09-13T10:03:17.000Z</time>
      </trkpt>
      <trkpt lat="47.04227" lon="-1.20466">
        <ele>97</ele>
        <time>2020-09-13T10:03:17.000Z</time>
      </trkpt>
      <trkpt lat="47.04229" lon="-1.2048">
        <ele>101</ele>
        <time>2020-09-13T10:03:43.000Z</time>
      </trkpt>
      <trkpt lat="47.04229" lon="-1.2048">
        <ele>101</ele>
        <time>2020-09-13T10:03:43.000Z</time>
      </trkpt>
      <trkpt lat="47.04229" lon="-1.2048">
        <ele>101</ele>
        <time>2020-09-13T10:03:43.000Z</time>
      </trkpt>
      <trkpt lat="47.04228" lon="-1.20511">
        <ele>105</ele>
        <time>2020-09-13T10:04:46.000Z</time>
      </trkpt>
      <trkpt lat="47.04237" lon="-1.20559">
        <ele>106</ele>
        <time>2020-09-13T10:05:03.000Z</time>
      </trkpt>
      <trkpt lat="47.04243" lon="-1.2061">
        <ele>105</ele>
        <time>2020-09-13T10:05:17.000Z</time>
      </trkpt>
      <trkpt lat="47.0425" lon="-1.20662">
        <ele>107</ele>
        <time>2020-09-13T10:05:33.000Z</time>
      </trkpt>
      <trkpt lat="47.0426" lon="-1.20709">
        <ele>111</ele>
        <time>2020-09-13T10:05:55.000Z</time>
      </trkpt>
      <trkpt lat="47.04272" lon="-1.20755">
        <ele>113</ele>
        <time>2020-09-13T10:06:12.000Z</time>
      </trkpt>
      <trkpt lat="47.04285" lon="-1.20801">
        <ele>118</ele>
        <time>2020-09-13T10:06:34.000Z</time>
      </trkpt>
      <trkpt lat="47.04285" lon="-1.20801">
        <ele>118</ele>
        <time>2020-09-13T10:06:34.000Z</time>
      </trkpt>
      <trkpt lat="47.04294" lon="-1.20827">
        <ele>121</ele>
        <time>2020-09-13T10:07:05.000Z</time>
      </trkpt>
      <trkpt lat="47.04294" lon="-1.20827">
        <ele>121</ele>
        <time>2020-09-13T10:07:05.000Z</time>
      </trkpt>
      <trkpt lat="47.04315" lon="-1.20874">
        <ele>118</ele>
        <time>2020-09-13T10:07:57.000Z</time>
      </trkpt>
      <trkpt lat="47.04342" lon="-1.20915">
        <ele>115</ele>
        <time>2020-09-13T10:08:07.000Z</time>
      </trkpt>
      <trkpt lat="47.04353" lon="-1.20931">
        <ele>114</ele>
        <time>2020-09-13T10:08:11.000Z</time>
      </trkpt>
      <trkpt lat="47.04362" lon="-1.20937">
        <ele>114</ele>
        <time>2020-09-13T10:08:14.000Z</time>
      </trkpt>
      <trkpt lat="47.04374" lon="-1.20942">
        <ele>115</ele>
        <time>2020-09-13T10:08:17.000Z</time>
      </trkpt>
      <trkpt lat="47.04377" lon="-1.20944">
        <ele>115</ele>
        <time>2020-09-13T10:08:18.000Z</time>
      </trkpt>
      <trkpt lat="47.0438" lon="-1.20945">
        <ele>115</ele>
        <time>2020-09-13T10:08:19.000Z</time>
      </trkpt>
      <trkpt lat="47.04383" lon="-1.20946">
        <ele>115</ele>
        <time>2020-09-13T10:08:20.000Z</time>
      </trkpt>
      <trkpt lat="47.04386" lon="-1.20946">
        <ele>116</ele>
        <time>2020-09-13T10:08:21.000Z</time>
      </trkpt>
      <trkpt lat="47.04387" lon="-1.20948">
        <ele>116</ele>
        <time>2020-09-13T10:08:21.000Z</time>
      </trkpt>
      <trkpt lat="47.04388" lon="-1.20949">
        <ele>116</ele>
        <time>2020-09-13T10:08:22.000Z</time>
      </trkpt>
      <trkpt lat="47.04388" lon="-1.20951">
        <ele>116</ele>
        <time>2020-09-13T10:08:22.000Z</time>
      </trkpt>
      <trkpt lat="47.04388" lon="-1.20953">
        <ele>116</ele>
        <time>2020-09-13T10:08:23.000Z</time>
      </trkpt>
      <trkpt lat="47.04385" lon="-1.20961">
        <ele>116</ele>
        <time>2020-09-13T10:08:26.000Z</time>
      </trkpt>
      <trkpt lat="47.04381" lon="-1.2097">
        <ele>115</ele>
        <time>2020-09-13T10:08:28.000Z</time>
      </trkpt>
      <trkpt lat="47.04375" lon="-1.20982">
        <ele>115</ele>
        <time>2020-09-13T10:08:31.000Z</time>
      </trkpt>
      <trkpt lat="47.04369" lon="-1.20994">
        <ele>114</ele>
        <time>2020-09-13T10:08:34.000Z</time>
      </trkpt>
      <trkpt lat="47.04367" lon="-1.21002">
        <ele>114</ele>
        <time>2020-09-13T10:08:36.000Z</time>
      </trkpt>
      <trkpt lat="47.04365" lon="-1.21009">
        <ele>114</ele>
        <time>2020-09-13T10:08:38.000Z</time>
      </trkpt>
      <trkpt lat="47.04363" lon="-1.21016">
        <ele>114</ele>
        <time>2020-09-13T10:08:40.000Z</time>
      </trkpt>
      <trkpt lat="47.04362" lon="-1.21022">
        <ele>115</ele>
        <time>2020-09-13T10:08:42.000Z</time>
      </trkpt>
      <trkpt lat="47.04363" lon="-1.21029">
        <ele>115</ele>
        <time>2020-09-13T10:08:44.000Z</time>
      </trkpt>
      <trkpt lat="47.04365" lon="-1.21036">
        <ele>115</ele>
        <time>2020-09-13T10:08:45.000Z</time>
      </trkpt>
      <trkpt lat="47.04367" lon="-1.21043">
        <ele>115</ele>
        <time>2020-09-13T10:08:47.000Z</time>
      </trkpt>
      <trkpt lat="47.0437" lon="-1.21049">
        <ele>115</ele>
        <time>2020-09-13T10:08:49.000Z</time>
      </trkpt>
      <trkpt lat="47.04373" lon="-1.21057">
        <ele>115</ele>
        <time>2020-09-13T10:08:51.000Z</time>
      </trkpt>
      <trkpt lat="47.04375" lon="-1.21065">
        <ele>115</ele>
        <time>2020-09-13T10:08:52.000Z</time>
      </trkpt>
      <trkpt lat="47.04378" lon="-1.21073">
        <ele>114</ele>
        <time>2020-09-13T10:08:54.000Z</time>
      </trkpt>
      <trkpt lat="47.0438" lon="-1.21082">
        <ele>114</ele>
        <time>2020-09-13T10:08:56.000Z</time>
      </trkpt>
      <trkpt lat="47.04382" lon="-1.21088">
        <ele>113</ele>
        <time>2020-09-13T10:08:57.000Z</time>
      </trkpt>
      <trkpt lat="47.04382" lon="-1.21093">
        <ele>113</ele>
        <time>2020-09-13T10:08:58.000Z</time>
      </trkpt>
      <trkpt lat="47.04382" lon="-1.21097">
        <ele>113</ele>
        <time>2020-09-13T10:08:59.000Z</time>
      </trkpt>
      <trkpt lat="47.04382" lon="-1.21101">
        <ele>113</ele>
        <time>2020-09-13T10:09:00.000Z</time>
      </trkpt>
      <trkpt lat="47.0438" lon="-1.21112">
        <ele>113</ele>
        <time>2020-09-13T10:09:03.000Z</time>
      </trkpt>
      <trkpt lat="47.04377" lon="-1.21124">
        <ele>113</ele>
        <time>2020-09-13T10:09:06.000Z</time>
      </trkpt>
      <trkpt lat="47.04374" lon="-1.21139">
        <ele>113</ele>
        <time>2020-09-13T10:09:09.000Z</time>
      </trkpt>
      <trkpt lat="47.0437" lon="-1.21154">
        <ele>113</ele>
        <time>2020-09-13T10:09:12.000Z</time>
      </trkpt>
      <trkpt lat="47.04369" lon="-1.21163">
        <ele>113</ele>
        <time>2020-09-13T10:09:13.000Z</time>
      </trkpt>
      <trkpt lat="47.04369" lon="-1.21171">
        <ele>113</ele>
        <time>2020-09-13T10:09:15.000Z</time>
      </trkpt>
      <trkpt lat="47.0437" lon="-1.21178">
        <ele>113</ele>
        <time>2020-09-13T10:09:16.000Z</time>
      </trkpt>
      <trkpt lat="47.04372" lon="-1.21185">
        <ele>113</ele>
        <time>2020-09-13T10:09:18.000Z</time>
      </trkpt>
      <trkpt lat="47.04376" lon="-1.21195">
        <ele>113</ele>
        <time>2020-09-13T10:09:20.000Z</time>
      </trkpt>
      <trkpt lat="47.04383" lon="-1.21203">
        <ele>112</ele>
        <time>2020-09-13T10:09:22.000Z</time>
      </trkpt>
      <trkpt lat="47.04388" lon="-1.21208">
        <ele>112</ele>
        <time>2020-09-13T10:09:24.000Z</time>
      </trkpt>
      <trkpt lat="47.04394" lon="-1.21213">
        <ele>112</ele>
        <time>2020-09-13T10:09:25.000Z</time>
      </trkpt>
      <trkpt lat="47.044" lon="-1.21218">
        <ele>112</ele>
        <time>2020-09-13T10:09:27.000Z</time>
      </trkpt>
      <trkpt lat="47.04408" lon="-1.21223">
        <ele>112</ele>
        <time>2020-09-13T10:09:29.000Z</time>
      </trkpt>
      <trkpt lat="47.04414" lon="-1.21224">
        <ele>112</ele>
        <time>2020-09-13T10:09:31.000Z</time>
      </trkpt>
      <trkpt lat="47.04418" lon="-1.2122">
        <ele>112</ele>
        <time>2020-09-13T10:09:33.000Z</time>
      </trkpt>
      <trkpt lat="47.04424" lon="-1.21215">
        <ele>112</ele>
        <time>2020-09-13T10:09:35.000Z</time>
      </trkpt>
      <trkpt lat="47.0443" lon="-1.21208">
        <ele>113</ele>
        <time>2020-09-13T10:09:37.000Z</time>
      </trkpt>
      <trkpt lat="47.04438" lon="-1.212">
        <ele>113</ele>
        <time>2020-09-13T10:09:39.000Z</time>
      </trkpt>
      <trkpt lat="47.04447" lon="-1.21191">
        <ele>113</ele>
        <time>2020-09-13T10:09:41.000Z</time>
      </trkpt>
      <trkpt lat="47.04455" lon="-1.21185">
        <ele>113</ele>
        <time>2020-09-13T10:09:43.000Z</time>
      </trkpt>
      <trkpt lat="47.04463" lon="-1.2118">
        <ele>113</ele>
        <time>2020-09-13T10:09:45.000Z</time>
      </trkpt>
      <trkpt lat="47.04472" lon="-1.21175">
        <ele>113</ele>
        <time>2020-09-13T10:09:47.000Z</time>
      </trkpt>
      <trkpt lat="47.04481" lon="-1.21171">
        <ele>113</ele>
        <time>2020-09-13T10:09:49.000Z</time>
      </trkpt>
      <trkpt lat="47.04486" lon="-1.21168">
        <ele>113</ele>
        <time>2020-09-13T10:09:50.000Z</time>
      </trkpt>
      <trkpt lat="47.0449" lon="-1.21167">
        <ele>113</ele>
        <time>2020-09-13T10:09:50.000Z</time>
      </trkpt>
      <trkpt lat="47.04492" lon="-1.21166">
        <ele>113</ele>
        <time>2020-09-13T10:09:51.000Z</time>
      </trkpt>
      <trkpt lat="47.04494" lon="-1.21166">
        <ele>112</ele>
        <time>2020-09-13T10:09:52.000Z</time>
      </trkpt>
      <trkpt lat="47.04506" lon="-1.21169">
        <ele>112</ele>
        <time>2020-09-13T10:09:54.000Z</time>
      </trkpt>
      <trkpt lat="47.04519" lon="-1.21175">
        <ele>111</ele>
        <time>2020-09-13T10:09:56.000Z</time>
      </trkpt>
      <trkpt lat="47.04525" lon="-1.21178">
        <ele>111</ele>
        <time>2020-09-13T10:09:57.000Z</time>
      </trkpt>
      <trkpt lat="47.0453" lon="-1.21181">
        <ele>111</ele>
        <time>2020-09-13T10:09:58.000Z</time>
      </trkpt>
      <trkpt lat="47.04536" lon="-1.21185">
        <ele>111</ele>
        <time>2020-09-13T10:09:59.000Z</time>
      </trkpt>
      <trkpt lat="47.04541" lon="-1.21188">
        <ele>111</ele>
        <time>2020-09-13T10:10:00.000Z</time>
      </trkpt>
      <trkpt lat="47.04545" lon="-1.2119">
        <ele>111</ele>
        <time>2020-09-13T10:10:00.000Z</time>
      </trkpt>
      <trkpt lat="47.04548" lon="-1.2119">
        <ele>111</ele>
        <time>2020-09-13T10:10:01.000Z</time>
      </trkpt>
      <trkpt lat="47.04551" lon="-1.21191">
        <ele>110</ele>
        <time>2020-09-13T10:10:01.000Z</time>
      </trkpt>
      <trkpt lat="47.04553" lon="-1.21191">
        <ele>110</ele>
        <time>2020-09-13T10:10:02.000Z</time>
      </trkpt>
      <trkpt lat="47.04559" lon="-1.21189">
        <ele>110</ele>
        <time>2020-09-13T10:10:03.000Z</time>
      </trkpt>
      <trkpt lat="47.04566" lon="-1.21185">
        <ele>110</ele>
        <time>2020-09-13T10:10:04.000Z</time>
      </trkpt>
      <trkpt lat="47.04574" lon="-1.21176">
        <ele>110</ele>
        <time>2020-09-13T10:10:05.000Z</time>
      </trkpt>
      <trkpt lat="47.04583" lon="-1.21163">
        <ele>110</ele>
        <time>2020-09-13T10:10:07.000Z</time>
      </trkpt>
      <trkpt lat="47.04585" lon="-1.2116">
        <ele>110</ele>
        <time>2020-09-13T10:10:07.000Z</time>
      </trkpt>
      <trkpt lat="47.04587" lon="-1.21159">
        <ele>110</ele>
        <time>2020-09-13T10:10:08.000Z</time>
      </trkpt>
      <trkpt lat="47.04588" lon="-1.21158">
        <ele>110</ele>
        <time>2020-09-13T10:10:08.000Z</time>
      </trkpt>
      <trkpt lat="47.0459" lon="-1.21158">
        <ele>110</ele>
        <time>2020-09-13T10:10:09.000Z</time>
      </trkpt>
      <trkpt lat="47.04595" lon="-1.21163">
        <ele>110</ele>
        <time>2020-09-13T10:10:10.000Z</time>
      </trkpt>
      <trkpt lat="47.04602" lon="-1.21172">
        <ele>109</ele>
        <time>2020-09-13T10:10:11.000Z</time>
      </trkpt>
      <trkpt lat="47.04609" lon="-1.21182">
        <ele>108</ele>
        <time>2020-09-13T10:10:13.000Z</time>
      </trkpt>
      <trkpt lat="47.04617" lon="-1.21193">
        <ele>107</ele>
        <time>2020-09-13T10:10:14.000Z</time>
      </trkpt>
      <trkpt lat="47.04626" lon="-1.21201">
        <ele>107</ele>
        <time>2020-09-13T10:10:15.000Z</time>
      </trkpt>
      <trkpt lat="47.04634" lon="-1.2121">
        <ele>106</ele>
        <time>2020-09-13T10:10:16.000Z</time>
      </trkpt>
      <trkpt lat="47.04644" lon="-1.21219">
        <ele>106</ele>
        <time>2020-09-13T10:10:17.000Z</time>
      </trkpt>
      <trkpt lat="47.04653" lon="-1.21228">
        <ele>105</ele>
        <time>2020-09-13T10:10:18.000Z</time>
      </trkpt>
      <trkpt lat="47.04661" lon="-1.21235">
        <ele>105</ele>
        <time>2020-09-13T10:10:19.000Z</time>
      </trkpt>
      <trkpt lat="47.04668" lon="-1.21243">
        <ele>104</ele>
        <time>2020-09-13T10:10:20.000Z</time>
      </trkpt>
      <trkpt lat="47.04675" lon="-1.2125">
        <ele>104</ele>
        <time>2020-09-13T10:10:21.000Z</time>
      </trkpt>
      <trkpt lat="47.04682" lon="-1.21258">
        <ele>104</ele>
        <time>2020-09-13T10:10:22.000Z</time>
      </trkpt>
      <trkpt lat="47.04689" lon="-1.21266">
        <ele>103</ele>
        <time>2020-09-13T10:10:24.000Z</time>
      </trkpt>
      <trkpt lat="47.04697" lon="-1.21275">
        <ele>102</ele>
        <time>2020-09-13T10:10:25.000Z</time>
      </trkpt>
      <trkpt lat="47.04704" lon="-1.21285">
        <ele>101</ele>
        <time>2020-09-13T10:10:27.000Z</time>
      </trkpt>
      <trkpt lat="47.04711" lon="-1.21295">
        <ele>100</ele>
        <time>2020-09-13T10:10:29.000Z</time>
      </trkpt>
      <trkpt lat="47.04715" lon="-1.213">
        <ele>100</ele>
        <time>2020-09-13T10:10:30.000Z</time>
      </trkpt>
      <trkpt lat="47.04718" lon="-1.21303">
        <ele>99</ele>
        <time>2020-09-13T10:10:30.000Z</time>
      </trkpt>
      <trkpt lat="47.04719" lon="-1.21306">
        <ele>99</ele>
        <time>2020-09-13T10:10:31.000Z</time>
      </trkpt>
      <trkpt lat="47.0472" lon="-1.21307">
        <ele>99</ele>
        <time>2020-09-13T10:10:32.000Z</time>
      </trkpt>
      <trkpt lat="47.04722" lon="-1.2131">
        <ele>98</ele>
        <time>2020-09-13T10:10:32.000Z</time>
      </trkpt>
      <trkpt lat="47.04723" lon="-1.21312">
        <ele>98</ele>
        <time>2020-09-13T10:10:33.000Z</time>
      </trkpt>
      <trkpt lat="47.04725" lon="-1.21314">
        <ele>98</ele>
        <time>2020-09-13T10:10:33.000Z</time>
      </trkpt>
      <trkpt lat="47.04726" lon="-1.21316">
        <ele>98</ele>
        <time>2020-09-13T10:10:34.000Z</time>
      </trkpt>
      <trkpt lat="47.04728" lon="-1.2132">
        <ele>98</ele>
        <time>2020-09-13T10:10:35.000Z</time>
      </trkpt>
      <trkpt lat="47.0473" lon="-1.21325">
        <ele>98</ele>
        <time>2020-09-13T10:10:36.000Z</time>
      </trkpt>
      <trkpt lat="47.04732" lon="-1.2133">
        <ele>98</ele>
        <time>2020-09-13T10:10:37.000Z</time>
      </trkpt>
      <trkpt lat="47.04733" lon="-1.21335">
        <ele>98</ele>
        <time>2020-09-13T10:10:38.000Z</time>
      </trkpt>
      <trkpt lat="47.04741" lon="-1.21354">
        <ele>97</ele>
        <time>2020-09-13T10:10:44.000Z</time>
      </trkpt>
      <trkpt lat="47.04749" lon="-1.21361">
        <ele>97</ele>
        <time>2020-09-13T10:10:46.000Z</time>
      </trkpt>
      <trkpt lat="47.0476" lon="-1.21367">
        <ele>97</ele>
        <time>2020-09-13T10:10:49.000Z</time>
      </trkpt>
      <trkpt lat="47.04767" lon="-1.21373">
        <ele>96</ele>
        <time>2020-09-13T10:10:51.000Z</time>
      </trkpt>
      <trkpt lat="47.04774" lon="-1.2138">
        <ele>96</ele>
        <time>2020-09-13T10:10:53.000Z</time>
      </trkpt>
      <trkpt lat="47.04781" lon="-1.21387">
        <ele>96</ele>
        <time>2020-09-13T10:10:55.000Z</time>
      </trkpt>
      <trkpt lat="47.04788" lon="-1.21396">
        <ele>96</ele>
        <time>2020-09-13T10:10:57.000Z</time>
      </trkpt>
      <trkpt lat="47.04796" lon="-1.21397">
        <ele>96</ele>
        <time>2020-09-13T10:11:00.000Z</time>
      </trkpt>
      <trkpt lat="47.04803" lon="-1.21396">
        <ele>95</ele>
        <time>2020-09-13T10:11:03.000Z</time>
      </trkpt>
      <trkpt lat="47.04811" lon="-1.21393">
        <ele>95</ele>
        <time>2020-09-13T10:11:07.000Z</time>
      </trkpt>
      <trkpt lat="47.04819" lon="-1.2139">
        <ele>94</ele>
        <time>2020-09-13T10:11:10.000Z</time>
      </trkpt>
      <trkpt lat="47.04827" lon="-1.21386">
        <ele>94</ele>
        <time>2020-09-13T10:11:12.000Z</time>
      </trkpt>
      <trkpt lat="47.04834" lon="-1.21381">
        <ele>94</ele>
        <time>2020-09-13T10:11:14.000Z</time>
      </trkpt>
      <trkpt lat="47.04842" lon="-1.21376">
        <ele>94</ele>
        <time>2020-09-13T10:11:17.000Z</time>
      </trkpt>
      <trkpt lat="47.04849" lon="-1.2137">
        <ele>94</ele>
        <time>2020-09-13T10:11:19.000Z</time>
      </trkpt>
      <trkpt lat="47.04856" lon="-1.21363">
        <ele>94</ele>
        <time>2020-09-13T10:11:21.000Z</time>
      </trkpt>
      <trkpt lat="47.04863" lon="-1.21355">
        <ele>94</ele>
        <time>2020-09-13T10:11:23.000Z</time>
      </trkpt>
      <trkpt lat="47.0487" lon="-1.21347">
        <ele>95</ele>
        <time>2020-09-13T10:11:25.000Z</time>
      </trkpt>
      <trkpt lat="47.04876" lon="-1.21339">
        <ele>95</ele>
        <time>2020-09-13T10:11:27.000Z</time>
      </trkpt>
      <trkpt lat="47.04881" lon="-1.21332">
        <ele>95</ele>
        <time>2020-09-13T10:11:28.000Z</time>
      </trkpt>
      <trkpt lat="47.04885" lon="-1.21327">
        <ele>95</ele>
        <time>2020-09-13T10:11:30.000Z</time>
      </trkpt>
      <trkpt lat="47.04889" lon="-1.21321">
        <ele>95</ele>
        <time>2020-09-13T10:11:31.000Z</time>
      </trkpt>
      <trkpt lat="47.04892" lon="-1.21316">
        <ele>95</ele>
        <time>2020-09-13T10:11:33.000Z</time>
      </trkpt>
      <trkpt lat="47.04895" lon="-1.21311">
        <ele>95</ele>
        <time>2020-09-13T10:11:34.000Z</time>
      </trkpt>
      <trkpt lat="47.04896" lon="-1.21307">
        <ele>96</ele>
        <time>2020-09-13T10:11:34.000Z</time>
      </trkpt>
      <trkpt lat="47.04897" lon="-1.21303">
        <ele>96</ele>
        <time>2020-09-13T10:11:35.000Z</time>
      </trkpt>
      <trkpt lat="47.04898" lon="-1.21298">
        <ele>96</ele>
        <time>2020-09-13T10:11:36.000Z</time>
      </trkpt>
      <trkpt lat="47.049" lon="-1.21289">
        <ele>96</ele>
        <time>2020-09-13T10:11:37.000Z</time>
      </trkpt>
      <trkpt lat="47.04902" lon="-1.21277">
        <ele>96</ele>
        <time>2020-09-13T10:11:39.000Z</time>
      </trkpt>
      <trkpt lat="47.04903" lon="-1.21264">
        <ele>96</ele>
        <time>2020-09-13T10:11:40.000Z</time>
      </trkpt>
      <trkpt lat="47.04906" lon="-1.2125">
        <ele>96</ele>
        <time>2020-09-13T10:11:42.000Z</time>
      </trkpt>
      <trkpt lat="47.04911" lon="-1.21214">
        <ele>98</ele>
        <time>2020-09-13T10:11:46.000Z</time>
      </trkpt>
      <trkpt lat="47.04916" lon="-1.21201">
        <ele>98</ele>
        <time>2020-09-13T10:11:48.000Z</time>
      </trkpt>
      <trkpt lat="47.04938" lon="-1.21155">
        <ele>96</ele>
        <time>2020-09-13T10:11:54.000Z</time>
      </trkpt>
      <trkpt lat="47.04961" lon="-1.21112">
        <ele>94</ele>
        <time>2020-09-13T10:11:59.000Z</time>
      </trkpt>
      <trkpt lat="47.04973" lon="-1.21096">
        <ele>93</ele>
        <time>2020-09-13T10:12:03.000Z</time>
      </trkpt>
      <trkpt lat="47.04976" lon="-1.21096">
        <ele>92</ele>
        <time>2020-09-13T10:12:04.000Z</time>
      </trkpt>
      <trkpt lat="47.04979" lon="-1.21098">
        <ele>92</ele>
        <time>2020-09-13T10:12:05.000Z</time>
      </trkpt>
      <trkpt lat="47.04982" lon="-1.211">
        <ele>92</ele>
        <time>2020-09-13T10:12:06.000Z</time>
      </trkpt>
      <trkpt lat="47.04985" lon="-1.21103">
        <ele>92</ele>
        <time>2020-09-13T10:12:07.000Z</time>
      </trkpt>
      <trkpt lat="47.04987" lon="-1.21107">
        <ele>91</ele>
        <time>2020-09-13T10:12:08.000Z</time>
      </trkpt>
      <trkpt lat="47.04988" lon="-1.21113">
        <ele>91</ele>
        <time>2020-09-13T10:12:08.000Z</time>
      </trkpt>
      <trkpt lat="47.04989" lon="-1.21119">
        <ele>91</ele>
        <time>2020-09-13T10:12:09.000Z</time>
      </trkpt>
      <trkpt lat="47.04989" lon="-1.21125">
        <ele>91</ele>
        <time>2020-09-13T10:12:10.000Z</time>
      </trkpt>
      <trkpt lat="47.04989" lon="-1.21132">
        <ele>91</ele>
        <time>2020-09-13T10:12:11.000Z</time>
      </trkpt>
      <trkpt lat="47.04988" lon="-1.21138">
        <ele>91</ele>
        <time>2020-09-13T10:12:11.000Z</time>
      </trkpt>
      <trkpt lat="47.04988" lon="-1.21145">
        <ele>91</ele>
        <time>2020-09-13T10:12:12.000Z</time>
      </trkpt>
      <trkpt lat="47.04987" lon="-1.21152">
        <ele>92</ele>
        <time>2020-09-13T10:12:13.000Z</time>
      </trkpt>
      <trkpt lat="47.04987" lon="-1.21156">
        <ele>92</ele>
        <time>2020-09-13T10:12:13.000Z</time>
      </trkpt>
      <trkpt lat="47.04986" lon="-1.21161">
        <ele>92</ele>
        <time>2020-09-13T10:12:14.000Z</time>
      </trkpt>
      <trkpt lat="47.04986" lon="-1.21164">
        <ele>92</ele>
        <time>2020-09-13T10:12:14.000Z</time>
      </trkpt>
      <trkpt lat="47.04986" lon="-1.21168">
        <ele>92</ele>
        <time>2020-09-13T10:12:15.000Z</time>
      </trkpt>
      <trkpt lat="47.04986" lon="-1.21172">
        <ele>92</ele>
        <time>2020-09-13T10:12:15.000Z</time>
      </trkpt>
      <trkpt lat="47.04986" lon="-1.21177">
        <ele>92</ele>
        <time>2020-09-13T10:12:16.000Z</time>
      </trkpt>
      <trkpt lat="47.04986" lon="-1.21182">
        <ele>92</ele>
        <time>2020-09-13T10:12:16.000Z</time>
      </trkpt>
      <trkpt lat="47.04986" lon="-1.21187">
        <ele>92</ele>
        <time>2020-09-13T10:12:17.000Z</time>
      </trkpt>
      <trkpt lat="47.04987" lon="-1.21193">
        <ele>92</ele>
        <time>2020-09-13T10:12:17.000Z</time>
      </trkpt>
      <trkpt lat="47.04987" lon="-1.21199">
        <ele>92</ele>
        <time>2020-09-13T10:12:18.000Z</time>
      </trkpt>
      <trkpt lat="47.04988" lon="-1.21205">
        <ele>92</ele>
        <time>2020-09-13T10:12:18.000Z</time>
      </trkpt>
      <trkpt lat="47.04989" lon="-1.21212">
        <ele>91</ele>
        <time>2020-09-13T10:12:19.000Z</time>
      </trkpt>
      <trkpt lat="47.0499" lon="-1.21216">
        <ele>91</ele>
        <time>2020-09-13T10:12:19.000Z</time>
      </trkpt>
      <trkpt lat="47.0499" lon="-1.21219">
        <ele>91</ele>
        <time>2020-09-13T10:12:19.000Z</time>
      </trkpt>
      <trkpt lat="47.04991" lon="-1.21222">
        <ele>91</ele>
        <time>2020-09-13T10:12:20.000Z</time>
      </trkpt>
      <trkpt lat="47.04992" lon="-1.21225">
        <ele>91</ele>
        <time>2020-09-13T10:12:20.000Z</time>
      </trkpt>
      <trkpt lat="47.05004" lon="-1.21265">
        <ele>89</ele>
        <time>2020-09-13T10:12:23.000Z</time>
      </trkpt>
      <trkpt lat="47.05009" lon="-1.21279">
        <ele>88</ele>
        <time>2020-09-13T10:12:24.000Z</time>
      </trkpt>
      <trkpt lat="47.05019" lon="-1.21303">
        <ele>87</ele>
        <time>2020-09-13T10:12:26.000Z</time>
      </trkpt>
      <trkpt lat="47.05023" lon="-1.21315">
        <ele>87</ele>
        <time>2020-09-13T10:12:27.000Z</time>
      </trkpt>
      <trkpt lat="47.05032" lon="-1.21333">
        <ele>86</ele>
        <time>2020-09-13T10:12:29.000Z</time>
      </trkpt>
      <trkpt lat="47.05046" lon="-1.21355">
        <ele>85</ele>
        <time>2020-09-13T10:12:34.000Z</time>
      </trkpt>
      <trkpt lat="47.05053" lon="-1.21366">
        <ele>86</ele>
        <time>2020-09-13T10:12:38.000Z</time>
      </trkpt>
      <trkpt lat="47.05057" lon="-1.21379">
        <ele>87</ele>
        <time>2020-09-13T10:12:43.000Z</time>
      </trkpt>
      <trkpt lat="47.0506" lon="-1.21395">
        <ele>88</ele>
        <time>2020-09-13T10:12:48.000Z</time>
      </trkpt>
      <trkpt lat="47.05064" lon="-1.21404">
        <ele>88</ele>
        <time>2020-09-13T10:12:51.000Z</time>
      </trkpt>
      <trkpt lat="47.05069" lon="-1.21413">
        <ele>87</ele>
        <time>2020-09-13T10:12:54.000Z</time>
      </trkpt>
      <trkpt lat="47.05074" lon="-1.21423">
        <ele>87</ele>
        <time>2020-09-13T10:12:57.000Z</time>
      </trkpt>
      <trkpt lat="47.0508" lon="-1.21433">
        <ele>86</ele>
        <time>2020-09-13T10:13:00.000Z</time>
      </trkpt>
      <trkpt lat="47.05082" lon="-1.21438">
        <ele>86</ele>
        <time>2020-09-13T10:13:01.000Z</time>
      </trkpt>
      <trkpt lat="47.05083" lon="-1.21442">
        <ele>86</ele>
        <time>2020-09-13T10:13:01.000Z</time>
      </trkpt>
      <trkpt lat="47.05083" lon="-1.21444">
        <ele>86</ele>
        <time>2020-09-13T10:13:02.000Z</time>
      </trkpt>
      <trkpt lat="47.05083" lon="-1.21445">
        <ele>86</ele>
        <time>2020-09-13T10:13:03.000Z</time>
      </trkpt>
      <trkpt lat="47.05084" lon="-1.21453">
        <ele>85</ele>
        <time>2020-09-13T10:13:06.000Z</time>
      </trkpt>
      <trkpt lat="47.05084" lon="-1.21462">
        <ele>85</ele>
        <time>2020-09-13T10:13:08.000Z</time>
      </trkpt>
      <trkpt lat="47.05084" lon="-1.21473">
        <ele>84</ele>
        <time>2020-09-13T10:13:11.000Z</time>
      </trkpt>
      <trkpt lat="47.05084" lon="-1.21484">
        <ele>83</ele>
        <time>2020-09-13T10:13:14.000Z</time>
      </trkpt>
      <trkpt lat="47.05091" lon="-1.21504">
        <ele>81</ele>
        <time>2020-09-13T10:13:23.000Z</time>
      </trkpt>
      <trkpt lat="47.05103" lon="-1.21523">
        <ele>79</ele>
        <time>2020-09-13T10:13:33.000Z</time>
      </trkpt>
      <trkpt lat="47.05108" lon="-1.21531">
        <ele>78</ele>
        <time>2020-09-13T10:13:36.000Z</time>
      </trkpt>
      <trkpt lat="47.05114" lon="-1.21539">
        <ele>78</ele>
        <time>2020-09-13T10:13:39.000Z</time>
      </trkpt>
      <trkpt lat="47.0512" lon="-1.21546">
        <ele>77</ele>
        <time>2020-09-13T10:13:42.000Z</time>
      </trkpt>
      <trkpt lat="47.05127" lon="-1.21553">
        <ele>77</ele>
        <time>2020-09-13T10:13:45.000Z</time>
      </trkpt>
      <trkpt lat="47.05132" lon="-1.21561">
        <ele>76</ele>
        <time>2020-09-13T10:13:47.000Z</time>
      </trkpt>
      <trkpt lat="47.05137" lon="-1.2157">
        <ele>76</ele>
        <time>2020-09-13T10:13:50.000Z</time>
      </trkpt>
      <trkpt lat="47.05143" lon="-1.21579">
        <ele>76</ele>
        <time>2020-09-13T10:13:52.000Z</time>
      </trkpt>
      <trkpt lat="47.05148" lon="-1.21588">
        <ele>76</ele>
        <time>2020-09-13T10:13:55.000Z</time>
      </trkpt>
      <trkpt lat="47.05153" lon="-1.21597">
        <ele>76</ele>
        <time>2020-09-13T10:13:58.000Z</time>
      </trkpt>
      <trkpt lat="47.05158" lon="-1.21605">
        <ele>76</ele>
        <time>2020-09-13T10:14:01.000Z</time>
      </trkpt>
      <trkpt lat="47.05164" lon="-1.21614">
        <ele>76</ele>
        <time>2020-09-13T10:14:04.000Z</time>
      </trkpt>
      <trkpt lat="47.05169" lon="-1.21623">
        <ele>76</ele>
        <time>2020-09-13T10:14:07.000Z</time>
      </trkpt>
      <trkpt lat="47.05173" lon="-1.21632">
        <ele>77</ele>
        <time>2020-09-13T10:14:10.000Z</time>
      </trkpt>
      <trkpt lat="47.05178" lon="-1.21642">
        <ele>77</ele>
        <time>2020-09-13T10:14:14.000Z</time>
      </trkpt>
      <trkpt lat="47.05182" lon="-1.21651">
        <ele>78</ele>
        <time>2020-09-13T10:14:17.000Z</time>
      </trkpt>
      <trkpt lat="47.05185" lon="-1.21661">
        <ele>78</ele>
        <time>2020-09-13T10:14:21.000Z</time>
      </trkpt>
      <trkpt lat="47.05185" lon="-1.21661">
        <ele>78</ele>
        <time>2020-09-13T10:14:21.000Z</time>
      </trkpt>
      <trkpt lat="47.05188" lon="-1.21687">
        <ele>81</ele>
        <time>2020-09-13T10:14:37.000Z</time>
      </trkpt>
      <trkpt lat="47.05188" lon="-1.21687">
        <ele>81</ele>
        <time>2020-09-13T10:14:37.000Z</time>
      </trkpt>
      <trkpt lat="47.05184" lon="-1.21744">
        <ele>83</ele>
        <time>2020-09-13T10:15:30.000Z</time>
      </trkpt>
      <trkpt lat="47.05196" lon="-1.21788">
        <ele>89</ele>
        <time>2020-09-13T10:15:45.000Z</time>
      </trkpt>
      <trkpt lat="47.05204" lon="-1.21835">
        <ele>90</ele>
        <time>2020-09-13T10:15:59.000Z</time>
      </trkpt>
      <trkpt lat="47.05202" lon="-1.21855">
        <ele>90</ele>
        <time>2020-09-13T10:16:10.000Z</time>
      </trkpt>
      <trkpt lat="47.05197" lon="-1.21875">
        <ele>90</ele>
        <time>2020-09-13T10:16:21.000Z</time>
      </trkpt>
      <trkpt lat="47.05197" lon="-1.21875">
        <ele>90</ele>
        <time>2020-09-13T10:16:21.000Z</time>
      </trkpt>
      <trkpt lat="47.05144" lon="-1.21894">
        <ele>91</ele>
        <time>2020-09-13T10:16:56.000Z</time>
      </trkpt>
      <trkpt lat="47.05112" lon="-1.21894">
        <ele>95</ele>
        <time>2020-09-13T10:17:20.000Z</time>
      </trkpt>
      <trkpt lat="47.05086" lon="-1.21905">
        <ele>99</ele>
        <time>2020-09-13T10:17:40.000Z</time>
      </trkpt>
      <trkpt lat="47.05057" lon="-1.21916">
        <ele>105</ele>
        <time>2020-09-13T10:17:57.000Z</time>
      </trkpt>
      <trkpt lat="47.05032" lon="-1.21934">
        <ele>112</ele>
        <time>2020-09-13T10:18:18.000Z</time>
      </trkpt>
      <trkpt lat="47.05007" lon="-1.2196">
        <ele>117</ele>
        <time>2020-09-13T10:18:36.000Z</time>
      </trkpt>
      <trkpt lat="47.05007" lon="-1.2196">
        <ele>117</ele>
        <time>2020-09-13T10:18:36.000Z</time>
      </trkpt>
      <trkpt lat="47.05007" lon="-1.2196">
        <ele>117</ele>
        <time>2020-09-13T10:18:36.000Z</time>
      </trkpt>
      <trkpt lat="47.05001" lon="-1.21997">
        <ele>106</ele>
        <time>2020-09-13T10:19:32.000Z</time>
      </trkpt>
      <trkpt lat="47.05001" lon="-1.21997">
        <ele>106</ele>
        <time>2020-09-13T10:19:32.000Z</time>
      </trkpt>
      <trkpt lat="47.04996" lon="-1.21988">
        <ele>104</ele>
        <time>2020-09-13T10:20:15.000Z</time>
      </trkpt>
      <trkpt lat="47.04996" lon="-1.21988">
        <ele>104</ele>
        <time>2020-09-13T10:20:15.000Z</time>
      </trkpt>
      <trkpt lat="47.04996" lon="-1.21988">
        <ele>104</ele>
        <time>2020-09-13T10:20:15.000Z</time>
      </trkpt>
      <trkpt lat="47.04997" lon="-1.22014">
        <ele>111</ele>
        <time>2020-09-13T10:23:41.000Z</time>
      </trkpt>
      <trkpt lat="47.0499" lon="-1.22061">
        <ele>110</ele>
        <time>2020-09-13T10:23:55.000Z</time>
      </trkpt>
      <trkpt lat="47.04989" lon="-1.22115">
        <ele>107</ele>
        <time>2020-09-13T10:24:08.000Z</time>
      </trkpt>
      <trkpt lat="47.04991" lon="-1.22168">
        <ele>107</ele>
        <time>2020-09-13T10:24:22.000Z</time>
      </trkpt>
      <trkpt lat="47.04993" lon="-1.22217">
        <ele>105</ele>
        <time>2020-09-13T10:24:33.000Z</time>
      </trkpt>
      <trkpt lat="47.04997" lon="-1.22266">
        <ele>106</ele>
        <time>2020-09-13T10:24:42.000Z</time>
      </trkpt>
      <trkpt lat="47.05005" lon="-1.22315">
        <ele>106</ele>
        <time>2020-09-13T10:24:53.000Z</time>
      </trkpt>
      <trkpt lat="47.05014" lon="-1.22365">
        <ele>107</ele>
        <time>2020-09-13T10:25:04.000Z</time>
      </trkpt>
      <trkpt lat="47.05025" lon="-1.22413">
        <ele>108</ele>
        <time>2020-09-13T10:25:14.000Z</time>
      </trkpt>
      <trkpt lat="47.05039" lon="-1.22462">
        <ele>109</ele>
        <time>2020-09-13T10:25:22.000Z</time>
      </trkpt>
      <trkpt lat="47.05055" lon="-1.2251">
        <ele>109</ele>
        <time>2020-09-13T10:25:28.000Z</time>
      </trkpt>
      <trkpt lat="47.05069" lon="-1.22556">
        <ele>108</ele>
        <time>2020-09-13T10:25:34.000Z</time>
      </trkpt>
      <trkpt lat="47.05081" lon="-1.22603">
        <ele>107</ele>
        <time>2020-09-13T10:25:40.000Z</time>
      </trkpt>
      <trkpt lat="47.05086" lon="-1.22619">
        <ele>108</ele>
        <time>2020-09-13T10:25:42.000Z</time>
      </trkpt>
      <trkpt lat="47.05093" lon="-1.22654">
        <ele>110</ele>
        <time>2020-09-13T10:25:47.000Z</time>
      </trkpt>
      <trkpt lat="47.05106" lon="-1.22702">
        <ele>110</ele>
        <time>2020-09-13T10:25:55.000Z</time>
      </trkpt>
      <trkpt lat="47.05112" lon="-1.22722">
        <ele>111</ele>
        <time>2020-09-13T10:25:58.000Z</time>
      </trkpt>
      <trkpt lat="47.05117" lon="-1.22732">
        <ele>111</ele>
        <time>2020-09-13T10:26:00.000Z</time>
      </trkpt>
      <trkpt lat="47.05128" lon="-1.22745">
        <ele>111</ele>
        <time>2020-09-13T10:26:03.000Z</time>
      </trkpt>
      <trkpt lat="47.05137" lon="-1.22756">
        <ele>110</ele>
        <time>2020-09-13T10:26:05.000Z</time>
      </trkpt>
      <trkpt lat="47.05156" lon="-1.22778">
        <ele>110</ele>
        <time>2020-09-13T10:26:09.000Z</time>
      </trkpt>
      <trkpt lat="47.05185" lon="-1.22815">
        <ele>108</ele>
        <time>2020-09-13T10:26:17.000Z</time>
      </trkpt>
      <trkpt lat="47.05215" lon="-1.22851">
        <ele>107</ele>
        <time>2020-09-13T10:26:25.000Z</time>
      </trkpt>
      <trkpt lat="47.05244" lon="-1.22886">
        <ele>107</ele>
        <time>2020-09-13T10:26:32.000Z</time>
      </trkpt>
      <trkpt lat="47.05272" lon="-1.22918">
        <ele>106</ele>
        <time>2020-09-13T10:26:38.000Z</time>
      </trkpt>
      <trkpt lat="47.05301" lon="-1.22953">
        <ele>104</ele>
        <time>2020-09-13T10:26:44.000Z</time>
      </trkpt>
      <trkpt lat="47.05332" lon="-1.22991">
        <ele>102</ele>
        <time>2020-09-13T10:26:50.000Z</time>
      </trkpt>
      <trkpt lat="47.05362" lon="-1.23028">
        <ele>101</ele>
        <time>2020-09-13T10:26:56.000Z</time>
      </trkpt>
      <trkpt lat="47.05393" lon="-1.23064">
        <ele>100</ele>
        <time>2020-09-13T10:27:03.000Z</time>
      </trkpt>
      <trkpt lat="47.0542" lon="-1.23097">
        <ele>99</ele>
        <time>2020-09-13T10:27:11.000Z</time>
      </trkpt>
      <trkpt lat="47.05443" lon="-1.23124">
        <ele>99</ele>
        <time>2020-09-13T10:27:18.000Z</time>
      </trkpt>
      <trkpt lat="47.05447" lon="-1.23126">
        <ele>100</ele>
        <time>2020-09-13T10:27:19.000Z</time>
      </trkpt>
      <trkpt lat="47.0545" lon="-1.23125">
        <ele>100</ele>
        <time>2020-09-13T10:27:19.000Z</time>
      </trkpt>
      <trkpt lat="47.05452" lon="-1.23122">
        <ele>100</ele>
        <time>2020-09-13T10:27:20.000Z</time>
      </trkpt>
      <trkpt lat="47.05454" lon="-1.23119">
        <ele>100</ele>
        <time>2020-09-13T10:27:21.000Z</time>
      </trkpt>
      <trkpt lat="47.05464" lon="-1.23102">
        <ele>101</ele>
        <time>2020-09-13T10:27:26.000Z</time>
      </trkpt>
      <trkpt lat="47.05475" lon="-1.23078">
        <ele>102</ele>
        <time>2020-09-13T10:27:31.000Z</time>
      </trkpt>
      <trkpt lat="47.05481" lon="-1.23067">
        <ele>102</ele>
        <time>2020-09-13T10:27:33.000Z</time>
      </trkpt>
      <trkpt lat="47.05487" lon="-1.23056">
        <ele>103</ele>
        <time>2020-09-13T10:27:36.000Z</time>
      </trkpt>
      <trkpt lat="47.05493" lon="-1.23046">
        <ele>103</ele>
        <time>2020-09-13T10:27:38.000Z</time>
      </trkpt>
      <trkpt lat="47.05499" lon="-1.23035">
        <ele>103</ele>
        <time>2020-09-13T10:27:41.000Z</time>
      </trkpt>
      <trkpt lat="47.05506" lon="-1.23026">
        <ele>104</ele>
        <time>2020-09-13T10:27:43.000Z</time>
      </trkpt>
      <trkpt lat="47.05513" lon="-1.23018">
        <ele>104</ele>
        <time>2020-09-13T10:27:45.000Z</time>
      </trkpt>
      <trkpt lat="47.05521" lon="-1.23011">
        <ele>104</ele>
        <time>2020-09-13T10:27:47.000Z</time>
      </trkpt>
      <trkpt lat="47.05528" lon="-1.23004">
        <ele>104</ele>
        <time>2020-09-13T10:27:49.000Z</time>
      </trkpt>
      <trkpt lat="47.05534" lon="-1.23001">
        <ele>104</ele>
        <time>2020-09-13T10:27:50.000Z</time>
      </trkpt>
      <trkpt lat="47.05538" lon="-1.22999">
        <ele>105</ele>
        <time>2020-09-13T10:27:51.000Z</time>
      </trkpt>
      <trkpt lat="47.05541" lon="-1.22998">
        <ele>105</ele>
        <time>2020-09-13T10:27:52.000Z</time>
      </trkpt>
      <trkpt lat="47.05544" lon="-1.22998">
        <ele>105</ele>
        <time>2020-09-13T10:27:53.000Z</time>
      </trkpt>
      <trkpt lat="47.05553" lon="-1.23002">
        <ele>105</ele>
        <time>2020-09-13T10:27:57.000Z</time>
      </trkpt>
      <trkpt lat="47.05563" lon="-1.23008">
        <ele>104</ele>
        <time>2020-09-13T10:28:01.000Z</time>
      </trkpt>
      <trkpt lat="47.05574" lon="-1.23025">
        <ele>103</ele>
        <time>2020-09-13T10:28:06.000Z</time>
      </trkpt>
      <trkpt lat="47.05584" lon="-1.23047">
        <ele>101</ele>
        <time>2020-09-13T10:28:11.000Z</time>
      </trkpt>
      <trkpt lat="47.0559" lon="-1.23056">
        <ele>100</ele>
        <time>2020-09-13T10:28:13.000Z</time>
      </trkpt>
      <trkpt lat="47.05597" lon="-1.23065">
        <ele>100</ele>
        <time>2020-09-13T10:28:15.000Z</time>
      </trkpt>
      <trkpt lat="47.05603" lon="-1.23073">
        <ele>100</ele>
        <time>2020-09-13T10:28:18.000Z</time>
      </trkpt>
      <trkpt lat="47.0561" lon="-1.23081">
        <ele>100</ele>
        <time>2020-09-13T10:28:20.000Z</time>
      </trkpt>
      <trkpt lat="47.05614" lon="-1.23086">
        <ele>100</ele>
        <time>2020-09-13T10:28:21.000Z</time>
      </trkpt>
      <trkpt lat="47.05617" lon="-1.23089">
        <ele>100</ele>
        <time>2020-09-13T10:28:21.000Z</time>
      </trkpt>
      <trkpt lat="47.05619" lon="-1.23092">
        <ele>100</ele>
        <time>2020-09-13T10:28:22.000Z</time>
      </trkpt>
      <trkpt lat="47.05621" lon="-1.23093">
        <ele>100</ele>
        <time>2020-09-13T10:28:23.000Z</time>
      </trkpt>
      <trkpt lat="47.05632" lon="-1.23096">
        <ele>101</ele>
        <time>2020-09-13T10:28:25.000Z</time>
      </trkpt>
      <trkpt lat="47.05643" lon="-1.23098">
        <ele>102</ele>
        <time>2020-09-13T10:28:28.000Z</time>
      </trkpt>
      <trkpt lat="47.05651" lon="-1.231">
        <ele>102</ele>
        <time>2020-09-13T10:28:30.000Z</time>
      </trkpt>
      <trkpt lat="47.05661" lon="-1.23103">
        <ele>102</ele>
        <time>2020-09-13T10:28:32.000Z</time>
      </trkpt>
      <trkpt lat="47.0567" lon="-1.23106">
        <ele>102</ele>
        <time>2020-09-13T10:28:35.000Z</time>
      </trkpt>
      <trkpt lat="47.0568" lon="-1.23109">
        <ele>102</ele>
        <time>2020-09-13T10:28:37.000Z</time>
      </trkpt>
      <trkpt lat="47.05689" lon="-1.23111">
        <ele>102</ele>
        <time>2020-09-13T10:28:39.000Z</time>
      </trkpt>
      <trkpt lat="47.05698" lon="-1.23112">
        <ele>102</ele>
        <time>2020-09-13T10:28:42.000Z</time>
      </trkpt>
      <trkpt lat="47.05706" lon="-1.23112">
        <ele>102</ele>
        <time>2020-09-13T10:28:44.000Z</time>
      </trkpt>
      <trkpt lat="47.05715" lon="-1.23113">
        <ele>102</ele>
        <time>2020-09-13T10:28:47.000Z</time>
      </trkpt>
      <trkpt lat="47.05724" lon="-1.23115">
        <ele>102</ele>
        <time>2020-09-13T10:28:50.000Z</time>
      </trkpt>
      <trkpt lat="47.05733" lon="-1.23116">
        <ele>102</ele>
        <time>2020-09-13T10:28:52.000Z</time>
      </trkpt>
      <trkpt lat="47.05742" lon="-1.23118">
        <ele>103</ele>
        <time>2020-09-13T10:28:55.000Z</time>
      </trkpt>
      <trkpt lat="47.0575" lon="-1.2312">
        <ele>103</ele>
        <time>2020-09-13T10:28:58.000Z</time>
      </trkpt>
      <trkpt lat="47.05756" lon="-1.23122">
        <ele>103</ele>
        <time>2020-09-13T10:28:59.000Z</time>
      </trkpt>
      <trkpt lat="47.05761" lon="-1.23124">
        <ele>104</ele>
        <time>2020-09-13T10:29:01.000Z</time>
      </trkpt>
      <trkpt lat="47.05765" lon="-1.23126">
        <ele>104</ele>
        <time>2020-09-13T10:29:02.000Z</time>
      </trkpt>
      <trkpt lat="47.05769" lon="-1.23128">
        <ele>104</ele>
        <time>2020-09-13T10:29:04.000Z</time>
      </trkpt>
      <trkpt lat="47.05772" lon="-1.23133">
        <ele>104</ele>
        <time>2020-09-13T10:29:05.000Z</time>
      </trkpt>
      <trkpt lat="47.05775" lon="-1.23138">
        <ele>104</ele>
        <time>2020-09-13T10:29:06.000Z</time>
      </trkpt>
      <trkpt lat="47.05777" lon="-1.23143">
        <ele>103</ele>
        <time>2020-09-13T10:29:07.000Z</time>
      </trkpt>
      <trkpt lat="47.05779" lon="-1.23149">
        <ele>103</ele>
        <time>2020-09-13T10:29:08.000Z</time>
      </trkpt>
      <trkpt lat="47.05782" lon="-1.23158">
        <ele>103</ele>
        <time>2020-09-13T10:29:10.000Z</time>
      </trkpt>
      <trkpt lat="47.05787" lon="-1.23169">
        <ele>102</ele>
        <time>2020-09-13T10:29:13.000Z</time>
      </trkpt>
      <trkpt lat="47.05791" lon="-1.2318">
        <ele>102</ele>
        <time>2020-09-13T10:29:15.000Z</time>
      </trkpt>
      <trkpt lat="47.05796" lon="-1.23193">
        <ele>102</ele>
        <time>2020-09-13T10:29:18.000Z</time>
      </trkpt>
      <trkpt lat="47.05799" lon="-1.23204">
        <ele>102</ele>
        <time>2020-09-13T10:29:20.000Z</time>
      </trkpt>
      <trkpt lat="47.05803" lon="-1.23216">
        <ele>101</ele>
        <time>2020-09-13T10:29:21.000Z</time>
      </trkpt>
      <trkpt lat="47.05807" lon="-1.23229">
        <ele>101</ele>
        <time>2020-09-13T10:29:23.000Z</time>
      </trkpt>
      <trkpt lat="47.05811" lon="-1.23241">
        <ele>101</ele>
        <time>2020-09-13T10:29:25.000Z</time>
      </trkpt>
      <trkpt lat="47.05815" lon="-1.23253">
        <ele>101</ele>
        <time>2020-09-13T10:29:27.000Z</time>
      </trkpt>
      <trkpt lat="47.05819" lon="-1.23264">
        <ele>100</ele>
        <time>2020-09-13T10:29:28.000Z</time>
      </trkpt>
      <trkpt lat="47.05823" lon="-1.23276">
        <ele>100</ele>
        <time>2020-09-13T10:29:30.000Z</time>
      </trkpt>
      <trkpt lat="47.05827" lon="-1.23287">
        <ele>100</ele>
        <time>2020-09-13T10:29:32.000Z</time>
      </trkpt>
      <trkpt lat="47.05831" lon="-1.23298">
        <ele>100</ele>
        <time>2020-09-13T10:29:34.000Z</time>
      </trkpt>
      <trkpt lat="47.05835" lon="-1.2331">
        <ele>100</ele>
        <time>2020-09-13T10:29:36.000Z</time>
      </trkpt>
      <trkpt lat="47.0584" lon="-1.23321">
        <ele>100</ele>
        <time>2020-09-13T10:29:38.000Z</time>
      </trkpt>
      <trkpt lat="47.05844" lon="-1.23333">
        <ele>99</ele>
        <time>2020-09-13T10:29:40.000Z</time>
      </trkpt>
      <trkpt lat="47.05849" lon="-1.23345">
        <ele>99</ele>
        <time>2020-09-13T10:29:42.000Z</time>
      </trkpt>
      <trkpt lat="47.05853" lon="-1.23357">
        <ele>99</ele>
        <time>2020-09-13T10:29:44.000Z</time>
      </trkpt>
      <trkpt lat="47.05857" lon="-1.2337">
        <ele>99</ele>
        <time>2020-09-13T10:29:46.000Z</time>
      </trkpt>
      <trkpt lat="47.05861" lon="-1.23383">
        <ele>99</ele>
        <time>2020-09-13T10:29:48.000Z</time>
      </trkpt>
      <trkpt lat="47.05868" lon="-1.23401">
        <ele>100</ele>
        <time>2020-09-13T10:29:51.000Z</time>
      </trkpt>
      <trkpt lat="47.05872" lon="-1.23404">
        <ele>100</ele>
        <time>2020-09-13T10:29:52.000Z</time>
      </trkpt>
      <trkpt lat="47.05876" lon="-1.23407">
        <ele>100</ele>
        <time>2020-09-13T10:29:53.000Z</time>
      </trkpt>
      <trkpt lat="47.05882" lon="-1.23409">
        <ele>100</ele>
        <time>2020-09-13T10:29:54.000Z</time>
      </trkpt>
      <trkpt lat="47.05887" lon="-1.23411">
        <ele>100</ele>
        <time>2020-09-13T10:29:55.000Z</time>
      </trkpt>
      <trkpt lat="47.05901" lon="-1.23409">
        <ele>101</ele>
        <time>2020-09-13T10:29:58.000Z</time>
      </trkpt>
      <trkpt lat="47.05917" lon="-1.23404">
        <ele>102</ele>
        <time>2020-09-13T10:30:01.000Z</time>
      </trkpt>
      <trkpt lat="47.05924" lon="-1.23401">
        <ele>102</ele>
        <time>2020-09-13T10:30:03.000Z</time>
      </trkpt>
      <trkpt lat="47.05932" lon="-1.23396">
        <ele>102</ele>
        <time>2020-09-13T10:30:05.000Z</time>
      </trkpt>
      <trkpt lat="47.05939" lon="-1.23392">
        <ele>102</ele>
        <time>2020-09-13T10:30:07.000Z</time>
      </trkpt>
      <trkpt lat="47.05946" lon="-1.23387">
        <ele>102</ele>
        <time>2020-09-13T10:30:09.000Z</time>
      </trkpt>
      <trkpt lat="47.05955" lon="-1.23382">
        <ele>103</ele>
        <time>2020-09-13T10:30:11.000Z</time>
      </trkpt>
      <trkpt lat="47.05964" lon="-1.23378">
        <ele>103</ele>
        <time>2020-09-13T10:30:12.000Z</time>
      </trkpt>
      <trkpt lat="47.05973" lon="-1.23374">
        <ele>103</ele>
        <time>2020-09-13T10:30:14.000Z</time>
      </trkpt>
      <trkpt lat="47.05982" lon="-1.2337">
        <ele>103</ele>
        <time>2020-09-13T10:30:16.000Z</time>
      </trkpt>
      <trkpt lat="47.05991" lon="-1.23367">
        <ele>103</ele>
        <time>2020-09-13T10:30:18.000Z</time>
      </trkpt>
      <trkpt lat="47.06001" lon="-1.23363">
        <ele>102</ele>
        <time>2020-09-13T10:30:19.000Z</time>
      </trkpt>
      <trkpt lat="47.0601" lon="-1.2336">
        <ele>102</ele>
        <time>2020-09-13T10:30:21.000Z</time>
      </trkpt>
      <trkpt lat="47.0602" lon="-1.23356">
        <ele>102</ele>
        <time>2020-09-13T10:30:23.000Z</time>
      </trkpt>
      <trkpt lat="47.06025" lon="-1.23355">
        <ele>102</ele>
        <time>2020-09-13T10:30:23.000Z</time>
      </trkpt>
      <trkpt lat="47.06028" lon="-1.23354">
        <ele>102</ele>
        <time>2020-09-13T10:30:24.000Z</time>
      </trkpt>
      <trkpt lat="47.0603" lon="-1.23353">
        <ele>102</ele>
        <time>2020-09-13T10:30:24.000Z</time>
      </trkpt>
      <trkpt lat="47.06031" lon="-1.23353">
        <ele>102</ele>
        <time>2020-09-13T10:30:25.000Z</time>
      </trkpt>
      <trkpt lat="47.06034" lon="-1.23352">
        <ele>102</ele>
        <time>2020-09-13T10:30:25.000Z</time>
      </trkpt>
      <trkpt lat="47.06037" lon="-1.2335">
        <ele>102</ele>
        <time>2020-09-13T10:30:26.000Z</time>
      </trkpt>
      <trkpt lat="47.06039" lon="-1.23349">
        <ele>102</ele>
        <time>2020-09-13T10:30:26.000Z</time>
      </trkpt>
      <trkpt lat="47.06042" lon="-1.23348">
        <ele>103</ele>
        <time>2020-09-13T10:30:27.000Z</time>
      </trkpt>
      <trkpt lat="47.06054" lon="-1.23344">
        <ele>102</ele>
        <time>2020-09-13T10:30:29.000Z</time>
      </trkpt>
      <trkpt lat="47.06065" lon="-1.23339">
        <ele>102</ele>
        <time>2020-09-13T10:30:31.000Z</time>
      </trkpt>
      <trkpt lat="47.0609" lon="-1.2333">
        <ele>102</ele>
        <time>2020-09-13T10:30:35.000Z</time>
      </trkpt>
      <trkpt lat="47.06131" lon="-1.23318">
        <ele>100</ele>
        <time>2020-09-13T10:30:41.000Z</time>
      </trkpt>
      <trkpt lat="47.06172" lon="-1.2331">
        <ele>98</ele>
        <time>2020-09-13T10:30:46.000Z</time>
      </trkpt>
      <trkpt lat="47.06216" lon="-1.23304">
        <ele>96</ele>
        <time>2020-09-13T10:30:51.000Z</time>
      </trkpt>
      <trkpt lat="47.06243" lon="-1.23297">
        <ele>96</ele>
        <time>2020-09-13T10:30:54.000Z</time>
      </trkpt>
      <trkpt lat="47.06252" lon="-1.23293">
        <ele>95</ele>
        <time>2020-09-13T10:30:55.000Z</time>
      </trkpt>
      <trkpt lat="47.06286" lon="-1.23296">
        <ele>94</ele>
        <time>2020-09-13T10:30:59.000Z</time>
      </trkpt>
      <trkpt lat="47.06301" lon="-1.23311">
        <ele>93</ele>
        <time>2020-09-13T10:31:01.000Z</time>
      </trkpt>
      <trkpt lat="47.06315" lon="-1.23331">
        <ele>93</ele>
        <time>2020-09-13T10:31:03.000Z</time>
      </trkpt>
      <trkpt lat="47.06317" lon="-1.23342">
        <ele>93</ele>
        <time>2020-09-13T10:31:04.000Z</time>
      </trkpt>
      <trkpt lat="47.06316" lon="-1.23353">
        <ele>92</ele>
        <time>2020-09-13T10:31:05.000Z</time>
      </trkpt>
      <trkpt lat="47.06314" lon="-1.23365">
        <ele>92</ele>
        <time>2020-09-13T10:31:06.000Z</time>
      </trkpt>
      <trkpt lat="47.06311" lon="-1.23377">
        <ele>92</ele>
        <time>2020-09-13T10:31:07.000Z</time>
      </trkpt>
      <trkpt lat="47.06311" lon="-1.23388">
        <ele>91</ele>
        <time>2020-09-13T10:31:08.000Z</time>
      </trkpt>
      <trkpt lat="47.06311" lon="-1.234">
        <ele>91</ele>
        <time>2020-09-13T10:31:10.000Z</time>
      </trkpt>
      <trkpt lat="47.06312" lon="-1.23412">
        <ele>91</ele>
        <time>2020-09-13T10:31:11.000Z</time>
      </trkpt>
      <trkpt lat="47.06313" lon="-1.23424">
        <ele>90</ele>
        <time>2020-09-13T10:31:13.000Z</time>
      </trkpt>
      <trkpt lat="47.06317" lon="-1.23433">
        <ele>90</ele>
        <time>2020-09-13T10:31:14.000Z</time>
      </trkpt>
      <trkpt lat="47.06323" lon="-1.23442">
        <ele>89</ele>
        <time>2020-09-13T10:31:15.000Z</time>
      </trkpt>
      <trkpt lat="47.06329" lon="-1.23449">
        <ele>89</ele>
        <time>2020-09-13T10:31:17.000Z</time>
      </trkpt>
      <trkpt lat="47.06336" lon="-1.23457">
        <ele>88</ele>
        <time>2020-09-13T10:31:18.000Z</time>
      </trkpt>
      <trkpt lat="47.06342" lon="-1.23462">
        <ele>88</ele>
        <time>2020-09-13T10:31:19.000Z</time>
      </trkpt>
      <trkpt lat="47.06348" lon="-1.23467">
        <ele>87</ele>
        <time>2020-09-13T10:31:20.000Z</time>
      </trkpt>
      <trkpt lat="47.06354" lon="-1.23471">
        <ele>87</ele>
        <time>2020-09-13T10:31:21.000Z</time>
      </trkpt>
      <trkpt lat="47.0636" lon="-1.23474">
        <ele>87</ele>
        <time>2020-09-13T10:31:22.000Z</time>
      </trkpt>
      <trkpt lat="47.06368" lon="-1.2348">
        <ele>86</ele>
        <time>2020-09-13T10:31:23.000Z</time>
      </trkpt>
      <trkpt lat="47.06377" lon="-1.23486">
        <ele>86</ele>
        <time>2020-09-13T10:31:24.000Z</time>
      </trkpt>
      <trkpt lat="47.06387" lon="-1.23493">
        <ele>85</ele>
        <time>2020-09-13T10:31:25.000Z</time>
      </trkpt>
      <trkpt lat="47.06396" lon="-1.235">
        <ele>85</ele>
        <time>2020-09-13T10:31:26.000Z</time>
      </trkpt>
      <trkpt lat="47.06403" lon="-1.23507">
        <ele>85</ele>
        <time>2020-09-13T10:31:27.000Z</time>
      </trkpt>
      <trkpt lat="47.0641" lon="-1.23515">
        <ele>84</ele>
        <time>2020-09-13T10:31:28.000Z</time>
      </trkpt>
      <trkpt lat="47.06416" lon="-1.23522">
        <ele>84</ele>
        <time>2020-09-13T10:31:30.000Z</time>
      </trkpt>
      <trkpt lat="47.06422" lon="-1.2353">
        <ele>83</ele>
        <time>2020-09-13T10:31:31.000Z</time>
      </trkpt>
      <trkpt lat="47.06428" lon="-1.23539">
        <ele>82</ele>
        <time>2020-09-13T10:31:33.000Z</time>
      </trkpt>
      <trkpt lat="47.06433" lon="-1.2355">
        <ele>82</ele>
        <time>2020-09-13T10:31:34.000Z</time>
      </trkpt>
      <trkpt lat="47.06439" lon="-1.23561">
        <ele>81</ele>
        <time>2020-09-13T10:31:36.000Z</time>
      </trkpt>
      <trkpt lat="47.06444" lon="-1.23573">
        <ele>80</ele>
        <time>2020-09-13T10:31:38.000Z</time>
      </trkpt>
      <trkpt lat="47.0645" lon="-1.23583">
        <ele>79</ele>
        <time>2020-09-13T10:31:40.000Z</time>
      </trkpt>
      <trkpt lat="47.06455" lon="-1.23594">
        <ele>78</ele>
        <time>2020-09-13T10:31:42.000Z</time>
      </trkpt>
      <trkpt lat="47.0646" lon="-1.23605">
        <ele>78</ele>
        <time>2020-09-13T10:31:44.000Z</time>
      </trkpt>
      <trkpt lat="47.06465" lon="-1.23616">
        <ele>77</ele>
        <time>2020-09-13T10:31:46.000Z</time>
      </trkpt>
      <trkpt lat="47.06483" lon="-1.23661">
        <ele>76</ele>
        <time>2020-09-13T10:31:56.000Z</time>
      </trkpt>
      <trkpt lat="47.06501" lon="-1.23701">
        <ele>76</ele>
        <time>2020-09-13T10:32:11.000Z</time>
      </trkpt>
      <trkpt lat="47.0652" lon="-1.2374">
        <ele>74</ele>
        <time>2020-09-13T10:32:24.000Z</time>
      </trkpt>
      <trkpt lat="47.0654" lon="-1.23781">
        <ele>74</ele>
        <time>2020-09-13T10:32:37.000Z</time>
      </trkpt>
      <trkpt lat="47.06561" lon="-1.23822">
        <ele>75</ele>
        <time>2020-09-13T10:32:50.000Z</time>
      </trkpt>
      <trkpt lat="47.06578" lon="-1.23866">
        <ele>79</ele>
        <time>2020-09-13T10:33:03.000Z</time>
      </trkpt>
      <trkpt lat="47.06597" lon="-1.2391">
        <ele>84</ele>
        <time>2020-09-13T10:33:16.000Z</time>
      </trkpt>
      <trkpt lat="47.06615" lon="-1.2396">
        <ele>85</ele>
        <time>2020-09-13T10:33:23.000Z</time>
      </trkpt>
      <trkpt lat="47.06628" lon="-1.23992">
        <ele>85</ele>
        <time>2020-09-13T10:33:27.000Z</time>
      </trkpt>
      <trkpt lat="47.06633" lon="-1.2401">
        <ele>85</ele>
        <time>2020-09-13T10:33:29.000Z</time>
      </trkpt>
      <trkpt lat="47.06635" lon="-1.24028">
        <ele>85</ele>
        <time>2020-09-13T10:33:31.000Z</time>
      </trkpt>
      <trkpt lat="47.06634" lon="-1.24046">
        <ele>85</ele>
        <time>2020-09-13T10:33:33.000Z</time>
      </trkpt>
      <trkpt lat="47.06631" lon="-1.24068">
        <ele>85</ele>
        <time>2020-09-13T10:33:36.000Z</time>
      </trkpt>
      <trkpt lat="47.06623" lon="-1.24124">
        <ele>84</ele>
        <time>2020-09-13T10:33:43.000Z</time>
      </trkpt>
      <trkpt lat="47.0661" lon="-1.24171">
        <ele>84</ele>
        <time>2020-09-13T10:33:48.000Z</time>
      </trkpt>
      <trkpt lat="47.06598" lon="-1.24202">
        <ele>84</ele>
        <time>2020-09-13T10:33:51.000Z</time>
      </trkpt>
      <trkpt lat="47.06593" lon="-1.24222">
        <ele>84</ele>
        <time>2020-09-13T10:33:53.000Z</time>
      </trkpt>
      <trkpt lat="47.06579" lon="-1.24273">
        <ele>84</ele>
        <time>2020-09-13T10:34:00.000Z</time>
      </trkpt>
      <trkpt lat="47.06561" lon="-1.24325">
        <ele>83</ele>
        <time>2020-09-13T10:34:08.000Z</time>
      </trkpt>
      <trkpt lat="47.06557" lon="-1.24338">
        <ele>82</ele>
        <time>2020-09-13T10:34:10.000Z</time>
      </trkpt>
      <trkpt lat="47.06556" lon="-1.24345">
        <ele>82</ele>
        <time>2020-09-13T10:34:11.000Z</time>
      </trkpt>
      <trkpt lat="47.06553" lon="-1.24359">
        <ele>82</ele>
        <time>2020-09-13T10:34:13.000Z</time>
      </trkpt>
      <trkpt lat="47.0655" lon="-1.24382">
        <ele>81</ele>
        <time>2020-09-13T10:34:16.000Z</time>
      </trkpt>
      <trkpt lat="47.06544" lon="-1.2444">
        <ele>81</ele>
        <time>2020-09-13T10:34:23.000Z</time>
      </trkpt>
      <trkpt lat="47.06539" lon="-1.24494">
        <ele>81</ele>
        <time>2020-09-13T10:34:30.000Z</time>
      </trkpt>
      <trkpt lat="47.06533" lon="-1.24549">
        <ele>81</ele>
        <time>2020-09-13T10:34:38.000Z</time>
      </trkpt>
      <trkpt lat="47.06534" lon="-1.246">
        <ele>81</ele>
        <time>2020-09-13T10:34:45.000Z</time>
      </trkpt>
      <trkpt lat="47.06548" lon="-1.24645">
        <ele>83</ele>
        <time>2020-09-13T10:34:53.000Z</time>
      </trkpt>
      <trkpt lat="47.06561" lon="-1.24677">
        <ele>83</ele>
        <time>2020-09-13T10:35:00.000Z</time>
      </trkpt>
      <trkpt lat="47.06562" lon="-1.24687">
        <ele>83</ele>
        <time>2020-09-13T10:35:01.000Z</time>
      </trkpt>
      <trkpt lat="47.06562" lon="-1.24694">
        <ele>83</ele>
        <time>2020-09-13T10:35:03.000Z</time>
      </trkpt>
      <trkpt lat="47.06561" lon="-1.24698">
        <ele>83</ele>
        <time>2020-09-13T10:35:04.000Z</time>
      </trkpt>
      <trkpt lat="47.06559" lon="-1.24702">
        <ele>83</ele>
        <time>2020-09-13T10:35:05.000Z</time>
      </trkpt>
      <trkpt lat="47.06556" lon="-1.24707">
        <ele>83</ele>
        <time>2020-09-13T10:35:06.000Z</time>
      </trkpt>
      <trkpt lat="47.06554" lon="-1.24711">
        <ele>83</ele>
        <time>2020-09-13T10:35:07.000Z</time>
      </trkpt>
      <trkpt lat="47.06545" lon="-1.2472">
        <ele>83</ele>
        <time>2020-09-13T10:35:09.000Z</time>
      </trkpt>
      <trkpt lat="47.06535" lon="-1.24729">
        <ele>83</ele>
        <time>2020-09-13T10:35:12.000Z</time>
      </trkpt>
      <trkpt lat="47.06528" lon="-1.24736">
        <ele>82</ele>
        <time>2020-09-13T10:35:14.000Z</time>
      </trkpt>
      <trkpt lat="47.06522" lon="-1.24744">
        <ele>82</ele>
        <time>2020-09-13T10:35:16.000Z</time>
      </trkpt>
      <trkpt lat="47.06515" lon="-1.24752">
        <ele>82</ele>
        <time>2020-09-13T10:35:19.000Z</time>
      </trkpt>
      <trkpt lat="47.06507" lon="-1.2476">
        <ele>82</ele>
        <time>2020-09-13T10:35:21.000Z</time>
      </trkpt>
      <trkpt lat="47.06501" lon="-1.24769">
        <ele>82</ele>
        <time>2020-09-13T10:35:24.000Z</time>
      </trkpt>
      <trkpt lat="47.06493" lon="-1.24779">
        <ele>82</ele>
        <time>2020-09-13T10:35:26.000Z</time>
      </trkpt>
      <trkpt lat="47.06486" lon="-1.24789">
        <ele>82</ele>
        <time>2020-09-13T10:35:29.000Z</time>
      </trkpt>
      <trkpt lat="47.06479" lon="-1.24799">
        <ele>83</ele>
        <time>2020-09-13T10:35:32.000Z</time>
      </trkpt>
      <trkpt lat="47.06472" lon="-1.24806">
        <ele>83</ele>
        <time>2020-09-13T10:35:34.000Z</time>
      </trkpt>
      <trkpt lat="47.06464" lon="-1.24811">
        <ele>83</ele>
        <time>2020-09-13T10:35:37.000Z</time>
      </trkpt>
      <trkpt lat="47.06456" lon="-1.24816">
        <ele>83</ele>
        <time>2020-09-13T10:35:39.000Z</time>
      </trkpt>
      <trkpt lat="47.06448" lon="-1.24821">
        <ele>83</ele>
        <time>2020-09-13T10:35:42.000Z</time>
      </trkpt>
      <trkpt lat="47.0644" lon="-1.24827">
        <ele>83</ele>
        <time>2020-09-13T10:35:44.000Z</time>
      </trkpt>
      <trkpt lat="47.06432" lon="-1.24834">
        <ele>83</ele>
        <time>2020-09-13T10:35:46.000Z</time>
      </trkpt>
      <trkpt lat="47.06424" lon="-1.24841">
        <ele>83</ele>
        <time>2020-09-13T10:35:49.000Z</time>
      </trkpt>
      <trkpt lat="47.06416" lon="-1.24848">
        <ele>83</ele>
        <time>2020-09-13T10:35:51.000Z</time>
      </trkpt>
      <trkpt lat="47.06412" lon="-1.24851">
        <ele>83</ele>
        <time>2020-09-13T10:35:52.000Z</time>
      </trkpt>
      <trkpt lat="47.06409" lon="-1.24854">
        <ele>83</ele>
        <time>2020-09-13T10:35:52.000Z</time>
      </trkpt>
      <trkpt lat="47.06408" lon="-1.24856">
        <ele>83</ele>
        <time>2020-09-13T10:35:53.000Z</time>
      </trkpt>
      <trkpt lat="47.06406" lon="-1.24857">
        <ele>83</ele>
        <time>2020-09-13T10:35:54.000Z</time>
      </trkpt>
      <trkpt lat="47.06402" lon="-1.24861">
        <ele>82</ele>
        <time>2020-09-13T10:35:55.000Z</time>
      </trkpt>
      <trkpt lat="47.06396" lon="-1.24867">
        <ele>82</ele>
        <time>2020-09-13T10:35:57.000Z</time>
      </trkpt>
      <trkpt lat="47.06389" lon="-1.24875">
        <ele>82</ele>
        <time>2020-09-13T10:36:00.000Z</time>
      </trkpt>
      <trkpt lat="47.06387" lon="-1.24877">
        <ele>82</ele>
        <time>2020-09-13T10:36:01.000Z</time>
      </trkpt>
      <trkpt lat="47.06378" lon="-1.24897">
        <ele>83</ele>
        <time>2020-09-13T10:36:07.000Z</time>
      </trkpt>
      <trkpt lat="47.0638" lon="-1.24904">
        <ele>83</ele>
        <time>2020-09-13T10:36:09.000Z</time>
      </trkpt>
      <trkpt lat="47.06384" lon="-1.24912">
        <ele>83</ele>
        <time>2020-09-13T10:36:11.000Z</time>
      </trkpt>
      <trkpt lat="47.06388" lon="-1.24921">
        <ele>83</ele>
        <time>2020-09-13T10:36:14.000Z</time>
      </trkpt>
      <trkpt lat="47.06393" lon="-1.2493">
        <ele>83</ele>
        <time>2020-09-13T10:36:16.000Z</time>
      </trkpt>
      <trkpt lat="47.06398" lon="-1.2494">
        <ele>83</ele>
        <time>2020-09-13T10:36:18.000Z</time>
      </trkpt>
      <trkpt lat="47.06403" lon="-1.2495">
        <ele>83</ele>
        <time>2020-09-13T10:36:21.000Z</time>
      </trkpt>
      <trkpt lat="47.06409" lon="-1.24961">
        <ele>84</ele>
        <time>2020-09-13T10:36:23.000Z</time>
      </trkpt>
      <trkpt lat="47.06415" lon="-1.24971">
        <ele>84</ele>
        <time>2020-09-13T10:36:26.000Z</time>
      </trkpt>
      <trkpt lat="47.0642" lon="-1.24982">
        <ele>84</ele>
        <time>2020-09-13T10:36:28.000Z</time>
      </trkpt>
      <trkpt lat="47.06424" lon="-1.24993">
        <ele>84</ele>
        <time>2020-09-13T10:36:30.000Z</time>
      </trkpt>
      <trkpt lat="47.06429" lon="-1.25004">
        <ele>85</ele>
        <time>2020-09-13T10:36:32.000Z</time>
      </trkpt>
      <trkpt lat="47.06434" lon="-1.25014">
        <ele>85</ele>
        <time>2020-09-13T10:36:34.000Z</time>
      </trkpt>
      <trkpt lat="47.06439" lon="-1.25026">
        <ele>85</ele>
        <time>2020-09-13T10:36:36.000Z</time>
      </trkpt>
      <trkpt lat="47.06445" lon="-1.25037">
        <ele>85</ele>
        <time>2020-09-13T10:36:38.000Z</time>
      </trkpt>
      <trkpt lat="47.06451" lon="-1.25049">
        <ele>85</ele>
        <time>2020-09-13T10:36:40.000Z</time>
      </trkpt>
      <trkpt lat="47.06457" lon="-1.25061">
        <ele>85</ele>
        <time>2020-09-13T10:36:42.000Z</time>
      </trkpt>
      <trkpt lat="47.06462" lon="-1.25073">
        <ele>85</ele>
        <time>2020-09-13T10:36:43.000Z</time>
      </trkpt>
      <trkpt lat="47.06469" lon="-1.25085">
        <ele>85</ele>
        <time>2020-09-13T10:36:45.000Z</time>
      </trkpt>
      <trkpt lat="47.06475" lon="-1.25097">
        <ele>84</ele>
        <time>2020-09-13T10:36:46.000Z</time>
      </trkpt>
      <trkpt lat="47.06481" lon="-1.2511">
        <ele>84</ele>
        <time>2020-09-13T10:36:48.000Z</time>
      </trkpt>
      <trkpt lat="47.06487" lon="-1.25122">
        <ele>83</ele>
        <time>2020-09-13T10:36:49.000Z</time>
      </trkpt>
      <trkpt lat="47.06493" lon="-1.25133">
        <ele>83</ele>
        <time>2020-09-13T10:36:51.000Z</time>
      </trkpt>
      <trkpt lat="47.06498" lon="-1.25145">
        <ele>83</ele>
        <time>2020-09-13T10:36:52.000Z</time>
      </trkpt>
      <trkpt lat="47.06504" lon="-1.25156">
        <ele>83</ele>
        <time>2020-09-13T10:36:54.000Z</time>
      </trkpt>
      <trkpt lat="47.06528" lon="-1.25199">
        <ele>84</ele>
        <time>2020-09-13T10:37:03.000Z</time>
      </trkpt>
      <trkpt lat="47.06549" lon="-1.2524">
        <ele>86</ele>
        <time>2020-09-13T10:37:13.000Z</time>
      </trkpt>
      <trkpt lat="47.06554" lon="-1.25248">
        <ele>87</ele>
        <time>2020-09-13T10:37:15.000Z</time>
      </trkpt>
      <trkpt lat="47.06556" lon="-1.25252">
        <ele>87</ele>
        <time>2020-09-13T10:37:16.000Z</time>
      </trkpt>
      <trkpt lat="47.06558" lon="-1.25257">
        <ele>88</ele>
        <time>2020-09-13T10:37:17.000Z</time>
      </trkpt>
      <trkpt lat="47.06567" lon="-1.25289">
        <ele>91</ele>
        <time>2020-09-13T10:37:23.000Z</time>
      </trkpt>
      <trkpt lat="47.06577" lon="-1.25336">
        <ele>97</ele>
        <time>2020-09-13T10:37:34.000Z</time>
      </trkpt>
      <trkpt lat="47.0659" lon="-1.25387">
        <ele>96</ele>
        <time>2020-09-13T10:37:44.000Z</time>
      </trkpt>
      <trkpt lat="47.06602" lon="-1.25437">
        <ele>94</ele>
        <time>2020-09-13T10:37:55.000Z</time>
      </trkpt>
      <trkpt lat="47.06618" lon="-1.25487">
        <ele>93</ele>
        <time>2020-09-13T10:38:05.000Z</time>
      </trkpt>
      <trkpt lat="47.06622" lon="-1.25506">
        <ele>93</ele>
        <time>2020-09-13T10:38:09.000Z</time>
      </trkpt>
      <trkpt lat="47.06633" lon="-1.25532">
        <ele>93</ele>
        <time>2020-09-13T10:38:14.000Z</time>
      </trkpt>
      <trkpt lat="47.0666" lon="-1.25574">
        <ele>91</ele>
        <time>2020-09-13T10:38:21.000Z</time>
      </trkpt>
      <trkpt lat="47.0667" lon="-1.25584">
        <ele>90</ele>
        <time>2020-09-13T10:38:23.000Z</time>
      </trkpt>
      <trkpt lat="47.06672" lon="-1.25585">
        <ele>90</ele>
        <time>2020-09-13T10:38:23.000Z</time>
      </trkpt>
      <trkpt lat="47.06675" lon="-1.25584">
        <ele>90</ele>
        <time>2020-09-13T10:38:24.000Z</time>
      </trkpt>
      <trkpt lat="47.06677" lon="-1.25583">
        <ele>90</ele>
        <time>2020-09-13T10:38:24.000Z</time>
      </trkpt>
      <trkpt lat="47.0668" lon="-1.25582">
        <ele>90</ele>
        <time>2020-09-13T10:38:25.000Z</time>
      </trkpt>
      <trkpt lat="47.06688" lon="-1.25571">
        <ele>89</ele>
        <time>2020-09-13T10:38:27.000Z</time>
      </trkpt>
      <trkpt lat="47.06697" lon="-1.25555">
        <ele>88</ele>
        <time>2020-09-13T10:38:29.000Z</time>
      </trkpt>
      <trkpt lat="47.067" lon="-1.2555">
        <ele>88</ele>
        <time>2020-09-13T10:38:30.000Z</time>
      </trkpt>
      <trkpt lat="47.06702" lon="-1.25545">
        <ele>87</ele>
        <time>2020-09-13T10:38:30.000Z</time>
      </trkpt>
      <trkpt lat="47.06705" lon="-1.25541">
        <ele>87</ele>
        <time>2020-09-13T10:38:31.000Z</time>
      </trkpt>
      <trkpt lat="47.06707" lon="-1.25538">
        <ele>87</ele>
        <time>2020-09-13T10:38:32.000Z</time>
      </trkpt>
      <trkpt lat="47.06712" lon="-1.25533">
        <ele>87</ele>
        <time>2020-09-13T10:38:33.000Z</time>
      </trkpt>
      <trkpt lat="47.06716" lon="-1.25531">
        <ele>86</ele>
        <time>2020-09-13T10:38:34.000Z</time>
      </trkpt>
      <trkpt lat="47.06719" lon="-1.2553">
        <ele>86</ele>
        <time>2020-09-13T10:38:34.000Z</time>
      </trkpt>
      <trkpt lat="47.06722" lon="-1.2553">
        <ele>86</ele>
        <time>2020-09-13T10:38:35.000Z</time>
      </trkpt>
      <trkpt lat="47.06725" lon="-1.2553">
        <ele>86</ele>
        <time>2020-09-13T10:38:35.000Z</time>
      </trkpt>
      <trkpt lat="47.06729" lon="-1.2553">
        <ele>85</ele>
        <time>2020-09-13T10:38:36.000Z</time>
      </trkpt>
      <trkpt lat="47.06742" lon="-1.2554">
        <ele>84</ele>
        <time>2020-09-13T10:38:38.000Z</time>
      </trkpt>
      <trkpt lat="47.06758" lon="-1.25554">
        <ele>83</ele>
        <time>2020-09-13T10:38:41.000Z</time>
      </trkpt>
      <trkpt lat="47.06767" lon="-1.25574">
        <ele>82</ele>
        <time>2020-09-13T10:38:43.000Z</time>
      </trkpt>
      <trkpt lat="47.06774" lon="-1.25596">
        <ele>82</ele>
        <time>2020-09-13T10:38:45.000Z</time>
      </trkpt>
      <trkpt lat="47.06786" lon="-1.25612">
        <ele>81</ele>
        <time>2020-09-13T10:38:47.000Z</time>
      </trkpt>
      <trkpt lat="47.068" lon="-1.25626">
        <ele>81</ele>
        <time>2020-09-13T10:38:50.000Z</time>
      </trkpt>
      <trkpt lat="47.06806" lon="-1.25635">
        <ele>80</ele>
        <time>2020-09-13T10:38:51.000Z</time>
      </trkpt>
      <trkpt lat="47.06811" lon="-1.25644">
        <ele>80</ele>
        <time>2020-09-13T10:38:52.000Z</time>
      </trkpt>
      <trkpt lat="47.06816" lon="-1.25654">
        <ele>79</ele>
        <time>2020-09-13T10:38:54.000Z</time>
      </trkpt>
      <trkpt lat="47.06821" lon="-1.25665">
        <ele>79</ele>
        <time>2020-09-13T10:38:55.000Z</time>
      </trkpt>
      <trkpt lat="47.06826" lon="-1.25676">
        <ele>78</ele>
        <time>2020-09-13T10:38:56.000Z</time>
      </trkpt>
      <trkpt lat="47.06831" lon="-1.25687">
        <ele>77</ele>
        <time>2020-09-13T10:38:57.000Z</time>
      </trkpt>
      <trkpt lat="47.06836" lon="-1.257">
        <ele>76</ele>
        <time>2020-09-13T10:38:59.000Z</time>
      </trkpt>
      <trkpt lat="47.06841" lon="-1.25712">
        <ele>75</ele>
        <time>2020-09-13T10:39:00.000Z</time>
      </trkpt>
      <trkpt lat="47.06841" lon="-1.25712">
        <ele>75</ele>
        <time>2020-09-13T10:39:00.000Z</time>
      </trkpt>
      <trkpt lat="47.06857" lon="-1.25764">
        <ele>75</ele>
        <time>2020-09-13T10:39:52.000Z</time>
      </trkpt>
      <trkpt lat="47.06857" lon="-1.25764">
        <ele>75</ele>
        <time>2020-09-13T10:39:52.000Z</time>
      </trkpt>
      <trkpt lat="47.06888" lon="-1.25808">
        <ele>79</ele>
        <time>2020-09-13T10:40:34.000Z</time>
      </trkpt>
      <trkpt lat="47.0691" lon="-1.25846">
        <ele>82</ele>
        <time>2020-09-13T10:40:47.000Z</time>
      </trkpt>
      <trkpt lat="47.06926" lon="-1.25892">
        <ele>82</ele>
        <time>2020-09-13T10:40:59.000Z</time>
      </trkpt>
      <trkpt lat="47.06945" lon="-1.25936">
        <ele>83</ele>
        <time>2020-09-13T10:41:11.000Z</time>
      </trkpt>
      <trkpt lat="47.06963" lon="-1.25976">
        <ele>84</ele>
        <time>2020-09-13T10:41:23.000Z</time>
      </trkpt>
      <trkpt lat="47.06977" lon="-1.26022">
        <ele>85</ele>
        <time>2020-09-13T10:41:39.000Z</time>
      </trkpt>
      <trkpt lat="47.06982" lon="-1.26049">
        <ele>86</ele>
        <time>2020-09-13T10:41:47.000Z</time>
      </trkpt>
      <trkpt lat="47.0699" lon="-1.26065">
        <ele>87</ele>
        <time>2020-09-13T10:41:53.000Z</time>
      </trkpt>
      <trkpt lat="47.0699" lon="-1.26069">
        <ele>87</ele>
        <time>2020-09-13T10:41:54.000Z</time>
      </trkpt>
      <trkpt lat="47.0699" lon="-1.26074">
        <ele>87</ele>
        <time>2020-09-13T10:41:55.000Z</time>
      </trkpt>
      <trkpt lat="47.06989" lon="-1.26077">
        <ele>87</ele>
        <time>2020-09-13T10:41:57.000Z</time>
      </trkpt>
      <trkpt lat="47.06988" lon="-1.26081">
        <ele>87</ele>
        <time>2020-09-13T10:41:58.000Z</time>
      </trkpt>
      <trkpt lat="47.06983" lon="-1.26093">
        <ele>87</ele>
        <time>2020-09-13T10:42:02.000Z</time>
      </trkpt>
      <trkpt lat="47.06975" lon="-1.26106">
        <ele>88</ele>
        <time>2020-09-13T10:42:07.000Z</time>
      </trkpt>
      <trkpt lat="47.06972" lon="-1.26112">
        <ele>87</ele>
        <time>2020-09-13T10:42:08.000Z</time>
      </trkpt>
      <trkpt lat="47.06969" lon="-1.26118">
        <ele>87</ele>
        <time>2020-09-13T10:42:10.000Z</time>
      </trkpt>
      <trkpt lat="47.06967" lon="-1.26124">
        <ele>87</ele>
        <time>2020-09-13T10:42:11.000Z</time>
      </trkpt>
      <trkpt lat="47.06964" lon="-1.2613">
        <ele>87</ele>
        <time>2020-09-13T10:42:13.000Z</time>
      </trkpt>
      <trkpt lat="47.06961" lon="-1.26135">
        <ele>87</ele>
        <time>2020-09-13T10:42:14.000Z</time>
      </trkpt>
      <trkpt lat="47.06959" lon="-1.26139">
        <ele>87</ele>
        <time>2020-09-13T10:42:16.000Z</time>
      </trkpt>
      <trkpt lat="47.06956" lon="-1.26143">
        <ele>87</ele>
        <time>2020-09-13T10:42:17.000Z</time>
      </trkpt>
      <trkpt lat="47.06953" lon="-1.26147">
        <ele>87</ele>
        <time>2020-09-13T10:42:19.000Z</time>
      </trkpt>
      <trkpt lat="47.06949" lon="-1.26154">
        <ele>86</ele>
        <time>2020-09-13T10:42:21.000Z</time>
      </trkpt>
      <trkpt lat="47.06944" lon="-1.26162">
        <ele>86</ele>
        <time>2020-09-13T10:42:23.000Z</time>
      </trkpt>
      <trkpt lat="47.06939" lon="-1.26171">
        <ele>86</ele>
        <time>2020-09-13T10:42:26.000Z</time>
      </trkpt>
      <trkpt lat="47.06934" lon="-1.2618">
        <ele>86</ele>
        <time>2020-09-13T10:42:28.000Z</time>
      </trkpt>
      <trkpt lat="47.06932" lon="-1.26184">
        <ele>86</ele>
        <time>2020-09-13T10:42:28.000Z</time>
      </trkpt>
      <trkpt lat="47.0693" lon="-1.26185">
        <ele>86</ele>
        <time>2020-09-13T10:42:29.000Z</time>
      </trkpt>
      <trkpt lat="47.0693" lon="-1.26186">
        <ele>86</ele>
        <time>2020-09-13T10:42:29.000Z</time>
      </trkpt>
      <trkpt lat="47.06929" lon="-1.26185">
        <ele>86</ele>
        <time>2020-09-13T10:42:30.000Z</time>
      </trkpt>
      <trkpt lat="47.06926" lon="-1.26187">
        <ele>85</ele>
        <time>2020-09-13T10:42:32.000Z</time>
      </trkpt>
      <trkpt lat="47.06923" lon="-1.26188">
        <ele>85</ele>
        <time>2020-09-13T10:42:33.000Z</time>
      </trkpt>
      <trkpt lat="47.06918" lon="-1.26189">
        <ele>85</ele>
        <time>2020-09-13T10:42:35.000Z</time>
      </trkpt>
      <trkpt lat="47.06914" lon="-1.2619">
        <ele>84</ele>
        <time>2020-09-13T10:42:37.000Z</time>
      </trkpt>
      <trkpt lat="47.06895" lon="-1.26185">
        <ele>85</ele>
        <time>2020-09-13T10:42:44.000Z</time>
      </trkpt>
      <trkpt lat="47.06877" lon="-1.26183">
        <ele>85</ele>
        <time>2020-09-13T10:42:50.000Z</time>
      </trkpt>
      <trkpt lat="47.0686" lon="-1.26187">
        <ele>84</ele>
        <time>2020-09-13T10:42:55.000Z</time>
      </trkpt>
      <trkpt lat="47.06847" lon="-1.26196">
        <ele>85</ele>
        <time>2020-09-13T10:43:00.000Z</time>
      </trkpt>
      <trkpt lat="47.06844" lon="-1.26202">
        <ele>86</ele>
        <time>2020-09-13T10:43:02.000Z</time>
      </trkpt>
      <trkpt lat="47.06841" lon="-1.26209">
        <ele>86</ele>
        <time>2020-09-13T10:43:04.000Z</time>
      </trkpt>
      <trkpt lat="47.06839" lon="-1.26217">
        <ele>87</ele>
        <time>2020-09-13T10:43:06.000Z</time>
      </trkpt>
      <trkpt lat="47.06837" lon="-1.26225">
        <ele>88</ele>
        <time>2020-09-13T10:43:08.000Z</time>
      </trkpt>
      <trkpt lat="47.06832" lon="-1.26234">
        <ele>89</ele>
        <time>2020-09-13T10:43:11.000Z</time>
      </trkpt>
      <trkpt lat="47.06827" lon="-1.26243">
        <ele>89</ele>
        <time>2020-09-13T10:43:14.000Z</time>
      </trkpt>
      <trkpt lat="47.06821" lon="-1.26253">
        <ele>89</ele>
        <time>2020-09-13T10:43:17.000Z</time>
      </trkpt>
      <trkpt lat="47.06815" lon="-1.26262">
        <ele>90</ele>
        <time>2020-09-13T10:43:20.000Z</time>
      </trkpt>
      <trkpt lat="47.06808" lon="-1.2627">
        <ele>90</ele>
        <time>2020-09-13T10:43:22.000Z</time>
      </trkpt>
      <trkpt lat="47.06802" lon="-1.26277">
        <ele>89</ele>
        <time>2020-09-13T10:43:25.000Z</time>
      </trkpt>
      <trkpt lat="47.06796" lon="-1.26284">
        <ele>89</ele>
        <time>2020-09-13T10:43:27.000Z</time>
      </trkpt>
      <trkpt lat="47.06789" lon="-1.26291">
        <ele>88</ele>
        <time>2020-09-13T10:43:30.000Z</time>
      </trkpt>
      <trkpt lat="47.06783" lon="-1.26297">
        <ele>87</ele>
        <time>2020-09-13T10:43:32.000Z</time>
      </trkpt>
      <trkpt lat="47.06777" lon="-1.26302">
        <ele>87</ele>
        <time>2020-09-13T10:43:34.000Z</time>
      </trkpt>
      <trkpt lat="47.06771" lon="-1.26307">
        <ele>87</ele>
        <time>2020-09-13T10:43:37.000Z</time>
      </trkpt>
      <trkpt lat="47.06765" lon="-1.26312">
        <ele>87</ele>
        <time>2020-09-13T10:43:39.000Z</time>
      </trkpt>
      <trkpt lat="47.06762" lon="-1.26313">
        <ele>87</ele>
        <time>2020-09-13T10:43:40.000Z</time>
      </trkpt>
      <trkpt lat="47.06759" lon="-1.26312">
        <ele>87</ele>
        <time>2020-09-13T10:43:42.000Z</time>
      </trkpt>
      <trkpt lat="47.06757" lon="-1.2631">
        <ele>87</ele>
        <time>2020-09-13T10:43:43.000Z</time>
      </trkpt>
      <trkpt lat="47.06755" lon="-1.26307">
        <ele>88</ele>
        <time>2020-09-13T10:43:45.000Z</time>
      </trkpt>
      <trkpt lat="47.06752" lon="-1.26304">
        <ele>88</ele>
        <time>2020-09-13T10:43:47.000Z</time>
      </trkpt>
      <trkpt lat="47.06747" lon="-1.26299">
        <ele>88</ele>
        <time>2020-09-13T10:43:49.000Z</time>
      </trkpt>
      <trkpt lat="47.06742" lon="-1.26293">
        <ele>88</ele>
        <time>2020-09-13T10:43:51.000Z</time>
      </trkpt>
      <trkpt lat="47.06736" lon="-1.26287">
        <ele>88</ele>
        <time>2020-09-13T10:43:53.000Z</time>
      </trkpt>
      <trkpt lat="47.06733" lon="-1.26286">
        <ele>88</ele>
        <time>2020-09-13T10:43:54.000Z</time>
      </trkpt>
      <trkpt lat="47.06731" lon="-1.26286">
        <ele>88</ele>
        <time>2020-09-13T10:43:54.000Z</time>
      </trkpt>
      <trkpt lat="47.0673" lon="-1.26287">
        <ele>88</ele>
        <time>2020-09-13T10:43:55.000Z</time>
      </trkpt>
      <trkpt lat="47.06728" lon="-1.26289">
        <ele>88</ele>
        <time>2020-09-13T10:43:56.000Z</time>
      </trkpt>
      <trkpt lat="47.06725" lon="-1.26291">
        <ele>88</ele>
        <time>2020-09-13T10:43:57.000Z</time>
      </trkpt>
      <trkpt lat="47.06722" lon="-1.26295">
        <ele>88</ele>
        <time>2020-09-13T10:43:59.000Z</time>
      </trkpt>
      <trkpt lat="47.06717" lon="-1.26301">
        <ele>88</ele>
        <time>2020-09-13T10:44:02.000Z</time>
      </trkpt>
      <trkpt lat="47.0671" lon="-1.26308">
        <ele>89</ele>
        <time>2020-09-13T10:44:04.000Z</time>
      </trkpt>
      <trkpt lat="47.06702" lon="-1.26317">
        <ele>89</ele>
        <time>2020-09-13T10:44:07.000Z</time>
      </trkpt>
      <trkpt lat="47.06694" lon="-1.26326">
        <ele>89</ele>
        <time>2020-09-13T10:44:10.000Z</time>
      </trkpt>
      <trkpt lat="47.06688" lon="-1.26333">
        <ele>89</ele>
        <time>2020-09-13T10:44:12.000Z</time>
      </trkpt>
      <trkpt lat="47.06681" lon="-1.2634">
        <ele>89</ele>
        <time>2020-09-13T10:44:15.000Z</time>
      </trkpt>
      <trkpt lat="47.06675" lon="-1.26347">
        <ele>88</ele>
        <time>2020-09-13T10:44:17.000Z</time>
      </trkpt>
      <trkpt lat="47.06668" lon="-1.26353">
        <ele>88</ele>
        <time>2020-09-13T10:44:20.000Z</time>
      </trkpt>
      <trkpt lat="47.06661" lon="-1.2636">
        <ele>88</ele>
        <time>2020-09-13T10:44:23.000Z</time>
      </trkpt>
      <trkpt lat="47.06654" lon="-1.26366">
        <ele>88</ele>
        <time>2020-09-13T10:44:25.000Z</time>
      </trkpt>
      <trkpt lat="47.06647" lon="-1.26373">
        <ele>89</ele>
        <time>2020-09-13T10:44:28.000Z</time>
      </trkpt>
      <trkpt lat="47.06639" lon="-1.2638">
        <ele>89</ele>
        <time>2020-09-13T10:44:31.000Z</time>
      </trkpt>
      <trkpt lat="47.06632" lon="-1.26386">
        <ele>89</ele>
        <time>2020-09-13T10:44:33.000Z</time>
      </trkpt>
      <trkpt lat="47.06625" lon="-1.26393">
        <ele>90</ele>
        <time>2020-09-13T10:44:35.000Z</time>
      </trkpt>
      <trkpt lat="47.06618" lon="-1.26399">
        <ele>90</ele>
        <time>2020-09-13T10:44:38.000Z</time>
      </trkpt>
      <trkpt lat="47.0661" lon="-1.26406">
        <ele>90</ele>
        <time>2020-09-13T10:44:40.000Z</time>
      </trkpt>
      <trkpt lat="47.06603" lon="-1.26413">
        <ele>91</ele>
        <time>2020-09-13T10:44:43.000Z</time>
      </trkpt>
      <trkpt lat="47.06596" lon="-1.26421">
        <ele>91</ele>
        <time>2020-09-13T10:44:46.000Z</time>
      </trkpt>
      <trkpt lat="47.06589" lon="-1.26428">
        <ele>91</ele>
        <time>2020-09-13T10:44:49.000Z</time>
      </trkpt>
      <trkpt lat="47.06581" lon="-1.26436">
        <ele>91</ele>
        <time>2020-09-13T10:44:52.000Z</time>
      </trkpt>
      <trkpt lat="47.06554" lon="-1.26463">
        <ele>93</ele>
        <time>2020-09-13T10:45:05.000Z</time>
      </trkpt>
      <trkpt lat="47.06543" lon="-1.26467">
        <ele>93</ele>
        <time>2020-09-13T10:45:07.000Z</time>
      </trkpt>
      <trkpt lat="47.06533" lon="-1.26467">
        <ele>92</ele>
        <time>2020-09-13T10:45:10.000Z</time>
      </trkpt>
      <trkpt lat="47.06526" lon="-1.26464">
        <ele>92</ele>
        <time>2020-09-13T10:45:12.000Z</time>
      </trkpt>
      <trkpt lat="47.06521" lon="-1.2646">
        <ele>91</ele>
        <time>2020-09-13T10:45:14.000Z</time>
      </trkpt>
      <trkpt lat="47.06515" lon="-1.26455">
        <ele>91</ele>
        <time>2020-09-13T10:45:16.000Z</time>
      </trkpt>
      <trkpt lat="47.06508" lon="-1.26448">
        <ele>90</ele>
        <time>2020-09-13T10:45:19.000Z</time>
      </trkpt>
      <trkpt lat="47.06501" lon="-1.26441">
        <ele>90</ele>
        <time>2020-09-13T10:45:21.000Z</time>
      </trkpt>
      <trkpt lat="47.06493" lon="-1.26433">
        <ele>90</ele>
        <time>2020-09-13T10:45:24.000Z</time>
      </trkpt>
      <trkpt lat="47.06485" lon="-1.26426">
        <ele>89</ele>
        <time>2020-09-13T10:45:26.000Z</time>
      </trkpt>
      <trkpt lat="47.06478" lon="-1.26419">
        <ele>89</ele>
        <time>2020-09-13T10:45:28.000Z</time>
      </trkpt>
      <trkpt lat="47.0647" lon="-1.26412">
        <ele>88</ele>
        <time>2020-09-13T10:45:31.000Z</time>
      </trkpt>
      <trkpt lat="47.06462" lon="-1.26405">
        <ele>87</ele>
        <time>2020-09-13T10:45:33.000Z</time>
      </trkpt>
      <trkpt lat="47.06455" lon="-1.26397">
        <ele>86</ele>
        <time>2020-09-13T10:45:35.000Z</time>
      </trkpt>
      <trkpt lat="47.06449" lon="-1.26389">
        <ele>86</ele>
        <time>2020-09-13T10:45:37.000Z</time>
      </trkpt>
      <trkpt lat="47.06442" lon="-1.2638">
        <ele>86</ele>
        <time>2020-09-13T10:45:40.000Z</time>
      </trkpt>
      <trkpt lat="47.06436" lon="-1.26372">
        <ele>85</ele>
        <time>2020-09-13T10:45:42.000Z</time>
      </trkpt>
      <trkpt lat="47.06428" lon="-1.26366">
        <ele>85</ele>
        <time>2020-09-13T10:45:44.000Z</time>
      </trkpt>
      <trkpt lat="47.06422" lon="-1.26366">
        <ele>86</ele>
        <time>2020-09-13T10:45:47.000Z</time>
      </trkpt>
      <trkpt lat="47.06421" lon="-1.2637">
        <ele>86</ele>
        <time>2020-09-13T10:45:49.000Z</time>
      </trkpt>
      <trkpt lat="47.0642" lon="-1.26377">
        <ele>87</ele>
        <time>2020-09-13T10:45:51.000Z</time>
      </trkpt>
      <trkpt lat="47.06419" lon="-1.26386">
        <ele>89</ele>
        <time>2020-09-13T10:45:53.000Z</time>
      </trkpt>
      <trkpt lat="47.06419" lon="-1.26395">
        <ele>90</ele>
        <time>2020-09-13T10:45:55.000Z</time>
      </trkpt>
      <trkpt lat="47.06417" lon="-1.26398">
        <ele>91</ele>
        <time>2020-09-13T10:45:56.000Z</time>
      </trkpt>
      <trkpt lat="47.06414" lon="-1.26399">
        <ele>92</ele>
        <time>2020-09-13T10:45:57.000Z</time>
      </trkpt>
      <trkpt lat="47.06412" lon="-1.26399">
        <ele>93</ele>
        <time>2020-09-13T10:45:59.000Z</time>
      </trkpt>
      <trkpt lat="47.06409" lon="-1.26399">
        <ele>93</ele>
        <time>2020-09-13T10:46:00.000Z</time>
      </trkpt>
      <trkpt lat="47.06403" lon="-1.26394">
        <ele>94</ele>
        <time>2020-09-13T10:46:03.000Z</time>
      </trkpt>
      <trkpt lat="47.06395" lon="-1.26387">
        <ele>94</ele>
        <time>2020-09-13T10:46:05.000Z</time>
      </trkpt>
      <trkpt lat="47.06387" lon="-1.26378">
        <ele>94</ele>
        <time>2020-09-13T10:46:08.000Z</time>
      </trkpt>
      <trkpt lat="47.06379" lon="-1.26368">
        <ele>94</ele>
        <time>2020-09-13T10:46:11.000Z</time>
      </trkpt>
      <trkpt lat="47.06371" lon="-1.26361">
        <ele>94</ele>
        <time>2020-09-13T10:46:13.000Z</time>
      </trkpt>
      <trkpt lat="47.06364" lon="-1.26353">
        <ele>94</ele>
        <time>2020-09-13T10:46:15.000Z</time>
      </trkpt>
      <trkpt lat="47.06356" lon="-1.26346">
        <ele>94</ele>
        <time>2020-09-13T10:46:18.000Z</time>
      </trkpt>
      <trkpt lat="47.06348" lon="-1.26338">
        <ele>94</ele>
        <time>2020-09-13T10:46:20.000Z</time>
      </trkpt>
      <trkpt lat="47.06344" lon="-1.26335">
        <ele>94</ele>
        <time>2020-09-13T10:46:21.000Z</time>
      </trkpt>
      <trkpt lat="47.0634" lon="-1.26334">
        <ele>94</ele>
        <time>2020-09-13T10:46:22.000Z</time>
      </trkpt>
      <trkpt lat="47.06337" lon="-1.26334">
        <ele>94</ele>
        <time>2020-09-13T10:46:23.000Z</time>
      </trkpt>
      <trkpt lat="47.06334" lon="-1.26334">
        <ele>94</ele>
        <time>2020-09-13T10:46:24.000Z</time>
      </trkpt>
      <trkpt lat="47.0633" lon="-1.26339">
        <ele>93</ele>
        <time>2020-09-13T10:46:29.000Z</time>
      </trkpt>
      <trkpt lat="47.06326" lon="-1.26346">
        <ele>93</ele>
        <time>2020-09-13T10:46:34.000Z</time>
      </trkpt>
      <trkpt lat="47.06322" lon="-1.26355">
        <ele>92</ele>
        <time>2020-09-13T10:46:40.000Z</time>
      </trkpt>
      <trkpt lat="47.06318" lon="-1.26364">
        <ele>91</ele>
        <time>2020-09-13T10:46:45.000Z</time>
      </trkpt>
      <trkpt lat="47.06313" lon="-1.26374">
        <ele>91</ele>
        <time>2020-09-13T10:46:48.000Z</time>
      </trkpt>
      <trkpt lat="47.06308" lon="-1.26385">
        <ele>91</ele>
        <time>2020-09-13T10:46:52.000Z</time>
      </trkpt>
      <trkpt lat="47.06303" lon="-1.26396">
        <ele>91</ele>
        <time>2020-09-13T10:46:55.000Z</time>
      </trkpt>
      <trkpt lat="47.06298" lon="-1.26407">
        <ele>92</ele>
        <time>2020-09-13T10:46:59.000Z</time>
      </trkpt>
      <trkpt lat="47.06292" lon="-1.26418">
        <ele>92</ele>
        <time>2020-09-13T10:47:02.000Z</time>
      </trkpt>
      <trkpt lat="47.06287" lon="-1.26429">
        <ele>92</ele>
        <time>2020-09-13T10:47:06.000Z</time>
      </trkpt>
      <trkpt lat="47.06281" lon="-1.2644">
        <ele>92</ele>
        <time>2020-09-13T10:47:09.000Z</time>
      </trkpt>
      <trkpt lat="47.06276" lon="-1.2645">
        <ele>92</ele>
        <time>2020-09-13T10:47:13.000Z</time>
      </trkpt>
      <trkpt lat="47.06271" lon="-1.26459">
        <ele>92</ele>
        <time>2020-09-13T10:47:15.000Z</time>
      </trkpt>
      <trkpt lat="47.06268" lon="-1.26465">
        <ele>92</ele>
        <time>2020-09-13T10:47:16.000Z</time>
      </trkpt>
      <trkpt lat="47.06264" lon="-1.26472">
        <ele>91</ele>
        <time>2020-09-13T10:47:18.000Z</time>
      </trkpt>
      <trkpt lat="47.06261" lon="-1.26477">
        <ele>91</ele>
        <time>2020-09-13T10:47:20.000Z</time>
      </trkpt>
      <trkpt lat="47.06258" lon="-1.2648">
        <ele>91</ele>
        <time>2020-09-13T10:47:22.000Z</time>
      </trkpt>
      <trkpt lat="47.06254" lon="-1.26482">
        <ele>90</ele>
        <time>2020-09-13T10:47:24.000Z</time>
      </trkpt>
      <trkpt lat="47.06251" lon="-1.26482">
        <ele>90</ele>
        <time>2020-09-13T10:47:27.000Z</time>
      </trkpt>
      <trkpt lat="47.06247" lon="-1.26482">
        <ele>89</ele>
        <time>2020-09-13T10:47:29.000Z</time>
      </trkpt>
      <trkpt lat="47.06237" lon="-1.26498">
        <ele>88</ele>
        <time>2020-09-13T10:47:34.000Z</time>
      </trkpt>
      <trkpt lat="47.06226" lon="-1.2652">
        <ele>87</ele>
        <time>2020-09-13T10:47:40.000Z</time>
      </trkpt>
      <trkpt lat="47.06221" lon="-1.26531">
        <ele>86</ele>
        <time>2020-09-13T10:47:42.000Z</time>
      </trkpt>
      <trkpt lat="47.06218" lon="-1.26542">
        <ele>86</ele>
        <time>2020-09-13T10:47:43.000Z</time>
      </trkpt>
      <trkpt lat="47.06215" lon="-1.26553">
        <ele>86</ele>
        <time>2020-09-13T10:47:45.000Z</time>
      </trkpt>
      <trkpt lat="47.06213" lon="-1.26565">
        <ele>86</ele>
        <time>2020-09-13T10:47:47.000Z</time>
      </trkpt>
      <trkpt lat="47.06208" lon="-1.26576">
        <ele>86</ele>
        <time>2020-09-13T10:47:49.000Z</time>
      </trkpt>
      <trkpt lat="47.06202" lon="-1.26586">
        <ele>86</ele>
        <time>2020-09-13T10:47:50.000Z</time>
      </trkpt>
      <trkpt lat="47.06195" lon="-1.26597">
        <ele>85</ele>
        <time>2020-09-13T10:47:52.000Z</time>
      </trkpt>
      <trkpt lat="47.06188" lon="-1.26608">
        <ele>85</ele>
        <time>2020-09-13T10:47:54.000Z</time>
      </trkpt>
      <trkpt lat="47.06183" lon="-1.26616">
        <ele>85</ele>
        <time>2020-09-13T10:47:55.000Z</time>
      </trkpt>
      <trkpt lat="47.06179" lon="-1.26624">
        <ele>84</ele>
        <time>2020-09-13T10:47:56.000Z</time>
      </trkpt>
      <trkpt lat="47.06175" lon="-1.26631">
        <ele>84</ele>
        <time>2020-09-13T10:47:58.000Z</time>
      </trkpt>
      <trkpt lat="47.06171" lon="-1.26638">
        <ele>84</ele>
        <time>2020-09-13T10:47:59.000Z</time>
      </trkpt>
      <trkpt lat="47.06168" lon="-1.26642">
        <ele>84</ele>
        <time>2020-09-13T10:48:00.000Z</time>
      </trkpt>
      <trkpt lat="47.06166" lon="-1.26644">
        <ele>83</ele>
        <time>2020-09-13T10:48:00.000Z</time>
      </trkpt>
      <trkpt lat="47.06164" lon="-1.26644">
        <ele>83</ele>
        <time>2020-09-13T10:48:01.000Z</time>
      </trkpt>
      <trkpt lat="47.06163" lon="-1.26644">
        <ele>83</ele>
        <time>2020-09-13T10:48:02.000Z</time>
      </trkpt>
      <trkpt lat="47.06163" lon="-1.26644">
        <ele>83</ele>
        <time>2020-09-13T10:48:02.000Z</time>
      </trkpt>
      <trkpt lat="47.06153" lon="-1.26638">
        <ele>86</ele>
        <time>2020-09-13T10:48:30.000Z</time>
      </trkpt>
      <trkpt lat="47.06153" lon="-1.26638">
        <ele>86</ele>
        <time>2020-09-13T10:48:30.000Z</time>
      </trkpt>
      <trkpt lat="47.06142" lon="-1.26626">
        <ele>90</ele>
        <time>2020-09-13T10:50:51.000Z</time>
      </trkpt>
      <trkpt lat="47.06142" lon="-1.26626">
        <ele>90</ele>
        <time>2020-09-13T10:50:51.000Z</time>
      </trkpt>
      <trkpt lat="47.06146" lon="-1.26601">
        <ele>94</ele>
        <time>2020-09-13T12:12:20.000Z</time>
      </trkpt>
      <trkpt lat="47.06146" lon="-1.26601">
        <ele>94</ele>
        <time>2020-09-13T12:12:20.000Z</time>
      </trkpt>
      <trkpt lat="47.06148" lon="-1.26609">
        <ele>94</ele>
        <time>2020-09-13T12:12:43.000Z</time>
      </trkpt>
      <trkpt lat="47.06148" lon="-1.26609">
        <ele>94</ele>
        <time>2020-09-13T12:12:43.000Z</time>
      </trkpt>
      <trkpt lat="47.06148" lon="-1.26609">
        <ele>94</ele>
        <time>2020-09-13T12:12:43.000Z</time>
      </trkpt>
      <trkpt lat="47.06152" lon="-1.26628">
        <ele>85</ele>
        <time>2020-09-13T12:14:09.000Z</time>
      </trkpt>
      <trkpt lat="47.06152" lon="-1.26628">
        <ele>85</ele>
        <time>2020-09-13T12:14:09.000Z</time>
      </trkpt>
      <trkpt lat="47.06152" lon="-1.26628">
        <ele>85</ele>
        <time>2020-09-13T12:14:09.000Z</time>
      </trkpt>
      <trkpt lat="47.06155" lon="-1.26659">
        <ele>93</ele>
        <time>2020-09-13T12:16:17.000Z</time>
      </trkpt>
      <trkpt lat="47.06155" lon="-1.26659">
        <ele>93</ele>
        <time>2020-09-13T12:16:17.000Z</time>
      </trkpt>
      <trkpt lat="47.0616" lon="-1.26687">
        <ele>92</ele>
        <time>2020-09-13T12:16:37.000Z</time>
      </trkpt>
      <trkpt lat="47.06192" lon="-1.267">
        <ele>91</ele>
        <time>2020-09-13T12:16:49.000Z</time>
      </trkpt>
      <trkpt lat="47.06221" lon="-1.26701">
        <ele>89</ele>
        <time>2020-09-13T12:17:00.000Z</time>
      </trkpt>
      <trkpt lat="47.06248" lon="-1.26707">
        <ele>90</ele>
        <time>2020-09-13T12:17:08.000Z</time>
      </trkpt>
      <trkpt lat="47.0628" lon="-1.26707">
        <ele>90</ele>
        <time>2020-09-13T12:17:15.000Z</time>
      </trkpt>
      <trkpt lat="47.06315" lon="-1.26709">
        <ele>90</ele>
        <time>2020-09-13T12:17:24.000Z</time>
      </trkpt>
      <trkpt lat="47.06351" lon="-1.26701">
        <ele>90</ele>
        <time>2020-09-13T12:17:33.000Z</time>
      </trkpt>
      <trkpt lat="47.06386" lon="-1.26694">
        <ele>87</ele>
        <time>2020-09-13T12:17:46.000Z</time>
      </trkpt>
      <trkpt lat="47.06401" lon="-1.267">
        <ele>88</ele>
        <time>2020-09-13T12:17:53.000Z</time>
      </trkpt>
      <trkpt lat="47.06416" lon="-1.26712">
        <ele>89</ele>
        <time>2020-09-13T12:18:00.000Z</time>
      </trkpt>
      <trkpt lat="47.06424" lon="-1.26714">
        <ele>90</ele>
        <time>2020-09-13T12:18:03.000Z</time>
      </trkpt>
      <trkpt lat="47.06432" lon="-1.26717">
        <ele>90</ele>
        <time>2020-09-13T12:18:06.000Z</time>
      </trkpt>
      <trkpt lat="47.0644" lon="-1.26718">
        <ele>90</ele>
        <time>2020-09-13T12:18:10.000Z</time>
      </trkpt>
      <trkpt lat="47.06449" lon="-1.2672">
        <ele>91</ele>
        <time>2020-09-13T12:18:13.000Z</time>
      </trkpt>
      <trkpt lat="47.06457" lon="-1.26723">
        <ele>91</ele>
        <time>2020-09-13T12:18:16.000Z</time>
      </trkpt>
      <trkpt lat="47.06465" lon="-1.26726">
        <ele>91</ele>
        <time>2020-09-13T12:18:19.000Z</time>
      </trkpt>
      <trkpt lat="47.06472" lon="-1.2673">
        <ele>92</ele>
        <time>2020-09-13T12:18:22.000Z</time>
      </trkpt>
      <trkpt lat="47.0648" lon="-1.26735">
        <ele>92</ele>
        <time>2020-09-13T12:18:25.000Z</time>
      </trkpt>
      <trkpt lat="47.06488" lon="-1.26739">
        <ele>92</ele>
        <time>2020-09-13T12:18:29.000Z</time>
      </trkpt>
      <trkpt lat="47.06496" lon="-1.26744">
        <ele>92</ele>
        <time>2020-09-13T12:18:32.000Z</time>
      </trkpt>
      <trkpt lat="47.06504" lon="-1.26748">
        <ele>92</ele>
        <time>2020-09-13T12:18:36.000Z</time>
      </trkpt>
      <trkpt lat="47.06512" lon="-1.26753">
        <ele>92</ele>
        <time>2020-09-13T12:18:40.000Z</time>
      </trkpt>
      <trkpt lat="47.06519" lon="-1.26757">
        <ele>93</ele>
        <time>2020-09-13T12:18:43.000Z</time>
      </trkpt>
      <trkpt lat="47.06527" lon="-1.26761">
        <ele>94</ele>
        <time>2020-09-13T12:18:46.000Z</time>
      </trkpt>
      <trkpt lat="47.06535" lon="-1.26765">
        <ele>95</ele>
        <time>2020-09-13T12:18:50.000Z</time>
      </trkpt>
      <trkpt lat="47.06543" lon="-1.26768">
        <ele>96</ele>
        <time>2020-09-13T12:18:53.000Z</time>
      </trkpt>
      <trkpt lat="47.06551" lon="-1.26771">
        <ele>97</ele>
        <time>2020-09-13T12:18:56.000Z</time>
      </trkpt>
      <trkpt lat="47.06559" lon="-1.26773">
        <ele>97</ele>
        <time>2020-09-13T12:18:58.000Z</time>
      </trkpt>
      <trkpt lat="47.06567" lon="-1.26774">
        <ele>97</ele>
        <time>2020-09-13T12:19:01.000Z</time>
      </trkpt>
      <trkpt lat="47.06575" lon="-1.26775">
        <ele>98</ele>
        <time>2020-09-13T12:19:04.000Z</time>
      </trkpt>
      <trkpt lat="47.06613" lon="-1.26781">
        <ele>100</ele>
        <time>2020-09-13T12:19:15.000Z</time>
      </trkpt>
      <trkpt lat="47.06647" lon="-1.26784">
        <ele>100</ele>
        <time>2020-09-13T12:19:25.000Z</time>
      </trkpt>
      <trkpt lat="47.06678" lon="-1.26782">
        <ele>100</ele>
        <time>2020-09-13T12:19:33.000Z</time>
      </trkpt>
      <trkpt lat="47.06714" lon="-1.26778">
        <ele>100</ele>
        <time>2020-09-13T12:19:40.000Z</time>
      </trkpt>
      <trkpt lat="47.06747" lon="-1.26785">
        <ele>100</ele>
        <time>2020-09-13T12:19:48.000Z</time>
      </trkpt>
      <trkpt lat="47.06783" lon="-1.26795">
        <ele>99</ele>
        <time>2020-09-13T12:19:55.000Z</time>
      </trkpt>
      <trkpt lat="47.06815" lon="-1.26794">
        <ele>98</ele>
        <time>2020-09-13T12:20:01.000Z</time>
      </trkpt>
      <trkpt lat="47.06851" lon="-1.2679">
        <ele>97</ele>
        <time>2020-09-13T12:20:07.000Z</time>
      </trkpt>
      <trkpt lat="47.06885" lon="-1.26806">
        <ele>97</ele>
        <time>2020-09-13T12:20:13.000Z</time>
      </trkpt>
      <trkpt lat="47.06894" lon="-1.26814">
        <ele>97</ele>
        <time>2020-09-13T12:20:15.000Z</time>
      </trkpt>
      <trkpt lat="47.06899" lon="-1.26812">
        <ele>97</ele>
        <time>2020-09-13T12:20:16.000Z</time>
      </trkpt>
      <trkpt lat="47.06905" lon="-1.26809">
        <ele>97</ele>
        <time>2020-09-13T12:20:17.000Z</time>
      </trkpt>
      <trkpt lat="47.06912" lon="-1.26805">
        <ele>97</ele>
        <time>2020-09-13T12:20:19.000Z</time>
      </trkpt>
      <trkpt lat="47.06919" lon="-1.268">
        <ele>97</ele>
        <time>2020-09-13T12:20:20.000Z</time>
      </trkpt>
      <trkpt lat="47.06925" lon="-1.26798">
        <ele>97</ele>
        <time>2020-09-13T12:20:21.000Z</time>
      </trkpt>
      <trkpt lat="47.06931" lon="-1.26797">
        <ele>97</ele>
        <time>2020-09-13T12:20:22.000Z</time>
      </trkpt>
      <trkpt lat="47.06937" lon="-1.26796">
        <ele>97</ele>
        <time>2020-09-13T12:20:24.000Z</time>
      </trkpt>
      <trkpt lat="47.06942" lon="-1.26796">
        <ele>97</ele>
        <time>2020-09-13T12:20:25.000Z</time>
      </trkpt>
      <trkpt lat="47.06947" lon="-1.26797">
        <ele>97</ele>
        <time>2020-09-13T12:20:26.000Z</time>
      </trkpt>
      <trkpt lat="47.06951" lon="-1.26798">
        <ele>97</ele>
        <time>2020-09-13T12:20:26.000Z</time>
      </trkpt>
      <trkpt lat="47.06955" lon="-1.268">
        <ele>97</ele>
        <time>2020-09-13T12:20:27.000Z</time>
      </trkpt>
      <trkpt lat="47.06959" lon="-1.26803">
        <ele>97</ele>
        <time>2020-09-13T12:20:28.000Z</time>
      </trkpt>
      <trkpt lat="47.06965" lon="-1.26805">
        <ele>97</ele>
        <time>2020-09-13T12:20:28.000Z</time>
      </trkpt>
      <trkpt lat="47.06973" lon="-1.26807">
        <ele>97</ele>
        <time>2020-09-13T12:20:29.000Z</time>
      </trkpt>
      <trkpt lat="47.06981" lon="-1.26809">
        <ele>97</ele>
        <time>2020-09-13T12:20:29.000Z</time>
      </trkpt>
      <trkpt lat="47.06989" lon="-1.26811">
        <ele>97</ele>
        <time>2020-09-13T12:20:30.000Z</time>
      </trkpt>
      <trkpt lat="47.06997" lon="-1.26813">
        <ele>97</ele>
        <time>2020-09-13T12:20:31.000Z</time>
      </trkpt>
      <trkpt lat="47.07006" lon="-1.26814">
        <ele>96</ele>
        <time>2020-09-13T12:20:32.000Z</time>
      </trkpt>
      <trkpt lat="47.07016" lon="-1.26816">
        <ele>96</ele>
        <time>2020-09-13T12:20:34.000Z</time>
      </trkpt>
      <trkpt lat="47.07026" lon="-1.26818">
        <ele>96</ele>
        <time>2020-09-13T12:20:35.000Z</time>
      </trkpt>
      <trkpt lat="47.07035" lon="-1.2682">
        <ele>95</ele>
        <time>2020-09-13T12:20:36.000Z</time>
      </trkpt>
      <trkpt lat="47.07043" lon="-1.26822">
        <ele>94</ele>
        <time>2020-09-13T12:20:38.000Z</time>
      </trkpt>
      <trkpt lat="47.07052" lon="-1.26825">
        <ele>93</ele>
        <time>2020-09-13T12:20:39.000Z</time>
      </trkpt>
      <trkpt lat="47.07061" lon="-1.26827">
        <ele>92</ele>
        <time>2020-09-13T12:20:41.000Z</time>
      </trkpt>
      <trkpt lat="47.071" lon="-1.26839">
        <ele>89</ele>
        <time>2020-09-13T12:20:48.000Z</time>
      </trkpt>
      <trkpt lat="47.07105" lon="-1.26842">
        <ele>89</ele>
        <time>2020-09-13T12:20:49.000Z</time>
      </trkpt>
      <trkpt lat="47.07116" lon="-1.26847">
        <ele>90</ele>
        <time>2020-09-13T12:20:51.000Z</time>
      </trkpt>
      <trkpt lat="47.07125" lon="-1.26851">
        <ele>90</ele>
        <time>2020-09-13T12:20:53.000Z</time>
      </trkpt>
      <trkpt lat="47.0713" lon="-1.26854">
        <ele>90</ele>
        <time>2020-09-13T12:20:54.000Z</time>
      </trkpt>
      <trkpt lat="47.07135" lon="-1.26857">
        <ele>90</ele>
        <time>2020-09-13T12:20:55.000Z</time>
      </trkpt>
      <trkpt lat="47.07145" lon="-1.26863">
        <ele>90</ele>
        <time>2020-09-13T12:20:57.000Z</time>
      </trkpt>
      <trkpt lat="47.07149" lon="-1.26866">
        <ele>90</ele>
        <time>2020-09-13T12:20:58.000Z</time>
      </trkpt>
      <trkpt lat="47.07159" lon="-1.26874">
        <ele>90</ele>
        <time>2020-09-13T12:21:00.000Z</time>
      </trkpt>
      <trkpt lat="47.07164" lon="-1.26877">
        <ele>89</ele>
        <time>2020-09-13T12:21:01.000Z</time>
      </trkpt>
      <trkpt lat="47.07168" lon="-1.26881">
        <ele>89</ele>
        <time>2020-09-13T12:21:02.000Z</time>
      </trkpt>
      <trkpt lat="47.07201" lon="-1.26906">
        <ele>90</ele>
        <time>2020-09-13T12:21:09.000Z</time>
      </trkpt>
      <trkpt lat="47.07231" lon="-1.26934">
        <ele>90</ele>
        <time>2020-09-13T12:21:15.000Z</time>
      </trkpt>
      <trkpt lat="47.07262" lon="-1.26962">
        <ele>90</ele>
        <time>2020-09-13T12:21:21.000Z</time>
      </trkpt>
      <trkpt lat="47.07292" lon="-1.26989">
        <ele>90</ele>
        <time>2020-09-13T12:21:26.000Z</time>
      </trkpt>
      <trkpt lat="47.07327" lon="-1.27015">
        <ele>91</ele>
        <time>2020-09-13T12:21:34.000Z</time>
      </trkpt>
      <trkpt lat="47.07349" lon="-1.27029">
        <ele>91</ele>
        <time>2020-09-13T12:21:40.000Z</time>
      </trkpt>
      <trkpt lat="47.07362" lon="-1.27029">
        <ele>90</ele>
        <time>2020-09-13T12:21:43.000Z</time>
      </trkpt>
      <trkpt lat="47.07365" lon="-1.27027">
        <ele>89</ele>
        <time>2020-09-13T12:21:44.000Z</time>
      </trkpt>
      <trkpt lat="47.07367" lon="-1.27025">
        <ele>89</ele>
        <time>2020-09-13T12:21:44.000Z</time>
      </trkpt>
      <trkpt lat="47.07369" lon="-1.27022">
        <ele>89</ele>
        <time>2020-09-13T12:21:45.000Z</time>
      </trkpt>
      <trkpt lat="47.07371" lon="-1.27019">
        <ele>88</ele>
        <time>2020-09-13T12:21:46.000Z</time>
      </trkpt>
      <trkpt lat="47.07376" lon="-1.27003">
        <ele>88</ele>
        <time>2020-09-13T12:21:49.000Z</time>
      </trkpt>
      <trkpt lat="47.07382" lon="-1.26984">
        <ele>88</ele>
        <time>2020-09-13T12:21:53.000Z</time>
      </trkpt>
      <trkpt lat="47.07386" lon="-1.26976">
        <ele>87</ele>
        <time>2020-09-13T12:21:55.000Z</time>
      </trkpt>
      <trkpt lat="47.0739" lon="-1.26969">
        <ele>87</ele>
        <time>2020-09-13T12:21:57.000Z</time>
      </trkpt>
      <trkpt lat="47.07395" lon="-1.26962">
        <ele>87</ele>
        <time>2020-09-13T12:22:00.000Z</time>
      </trkpt>
      <trkpt lat="47.074" lon="-1.26955">
        <ele>86</ele>
        <time>2020-09-13T12:22:02.000Z</time>
      </trkpt>
      <trkpt lat="47.07405" lon="-1.26958">
        <ele>87</ele>
        <time>2020-09-13T12:22:03.000Z</time>
      </trkpt>
      <trkpt lat="47.07409" lon="-1.26965">
        <ele>87</ele>
        <time>2020-09-13T12:22:05.000Z</time>
      </trkpt>
      <trkpt lat="47.07414" lon="-1.26975">
        <ele>87</ele>
        <time>2020-09-13T12:22:06.000Z</time>
      </trkpt>
      <trkpt lat="47.07419" lon="-1.26987">
        <ele>88</ele>
        <time>2020-09-13T12:22:08.000Z</time>
      </trkpt>
      <trkpt lat="47.07425" lon="-1.26995">
        <ele>88</ele>
        <time>2020-09-13T12:22:10.000Z</time>
      </trkpt>
      <trkpt lat="47.07432" lon="-1.27003">
        <ele>89</ele>
        <time>2020-09-13T12:22:12.000Z</time>
      </trkpt>
      <trkpt lat="47.07439" lon="-1.27011">
        <ele>89</ele>
        <time>2020-09-13T12:22:15.000Z</time>
      </trkpt>
      <trkpt lat="47.07446" lon="-1.27019">
        <ele>90</ele>
        <time>2020-09-13T12:22:17.000Z</time>
      </trkpt>
      <trkpt lat="47.07453" lon="-1.27028">
        <ele>90</ele>
        <time>2020-09-13T12:22:19.000Z</time>
      </trkpt>
      <trkpt lat="47.0746" lon="-1.27037">
        <ele>91</ele>
        <time>2020-09-13T12:22:22.000Z</time>
      </trkpt>
      <trkpt lat="47.07468" lon="-1.27046">
        <ele>92</ele>
        <time>2020-09-13T12:22:24.000Z</time>
      </trkpt>
      <trkpt lat="47.07475" lon="-1.27055">
        <ele>92</ele>
        <time>2020-09-13T12:22:27.000Z</time>
      </trkpt>
      <trkpt lat="47.07481" lon="-1.27062">
        <ele>93</ele>
        <time>2020-09-13T12:22:28.000Z</time>
      </trkpt>
      <trkpt lat="47.07485" lon="-1.27067">
        <ele>93</ele>
        <time>2020-09-13T12:22:29.000Z</time>
      </trkpt>
      <trkpt lat="47.07489" lon="-1.27071">
        <ele>92</ele>
        <time>2020-09-13T12:22:31.000Z</time>
      </trkpt>
      <trkpt lat="47.07493" lon="-1.27075">
        <ele>92</ele>
        <time>2020-09-13T12:22:32.000Z</time>
      </trkpt>
      <trkpt lat="47.07496" lon="-1.27079">
        <ele>92</ele>
        <time>2020-09-13T12:22:33.000Z</time>
      </trkpt>
      <trkpt lat="47.075" lon="-1.27083">
        <ele>92</ele>
        <time>2020-09-13T12:22:34.000Z</time>
      </trkpt>
      <trkpt lat="47.07503" lon="-1.27087">
        <ele>92</ele>
        <time>2020-09-13T12:22:35.000Z</time>
      </trkpt>
      <trkpt lat="47.07505" lon="-1.27091">
        <ele>92</ele>
        <time>2020-09-13T12:22:36.000Z</time>
      </trkpt>
      <trkpt lat="47.0751" lon="-1.27095">
        <ele>92</ele>
        <time>2020-09-13T12:22:37.000Z</time>
      </trkpt>
      <trkpt lat="47.07514" lon="-1.271">
        <ele>92</ele>
        <time>2020-09-13T12:22:39.000Z</time>
      </trkpt>
      <trkpt lat="47.07519" lon="-1.27105">
        <ele>92</ele>
        <time>2020-09-13T12:22:40.000Z</time>
      </trkpt>
      <trkpt lat="47.07523" lon="-1.27109">
        <ele>92</ele>
        <time>2020-09-13T12:22:42.000Z</time>
      </trkpt>
      <trkpt lat="47.07537" lon="-1.27119">
        <ele>91</ele>
        <time>2020-09-13T12:22:47.000Z</time>
      </trkpt>
      <trkpt lat="47.07547" lon="-1.27128">
        <ele>90</ele>
        <time>2020-09-13T12:22:51.000Z</time>
      </trkpt>
      <trkpt lat="47.07571" lon="-1.27136">
        <ele>91</ele>
        <time>2020-09-13T12:22:58.000Z</time>
      </trkpt>
      <trkpt lat="47.07609" lon="-1.27153">
        <ele>90</ele>
        <time>2020-09-13T12:23:06.000Z</time>
      </trkpt>
      <trkpt lat="47.07645" lon="-1.27158">
        <ele>89</ele>
        <time>2020-09-13T12:23:13.000Z</time>
      </trkpt>
      <trkpt lat="47.0766" lon="-1.27169">
        <ele>90</ele>
        <time>2020-09-13T12:23:17.000Z</time>
      </trkpt>
      <trkpt lat="47.07672" lon="-1.27184">
        <ele>91</ele>
        <time>2020-09-13T12:23:21.000Z</time>
      </trkpt>
      <trkpt lat="47.07678" lon="-1.2719">
        <ele>92</ele>
        <time>2020-09-13T12:23:23.000Z</time>
      </trkpt>
      <trkpt lat="47.07684" lon="-1.27197">
        <ele>92</ele>
        <time>2020-09-13T12:23:24.000Z</time>
      </trkpt>
      <trkpt lat="47.0769" lon="-1.27204">
        <ele>93</ele>
        <time>2020-09-13T12:23:26.000Z</time>
      </trkpt>
      <trkpt lat="47.07696" lon="-1.2721">
        <ele>93</ele>
        <time>2020-09-13T12:23:28.000Z</time>
      </trkpt>
      <trkpt lat="47.07703" lon="-1.27215">
        <ele>93</ele>
        <time>2020-09-13T12:23:29.000Z</time>
      </trkpt>
      <trkpt lat="47.07711" lon="-1.27218">
        <ele>93</ele>
        <time>2020-09-13T12:23:31.000Z</time>
      </trkpt>
      <trkpt lat="47.07718" lon="-1.27221">
        <ele>93</ele>
        <time>2020-09-13T12:23:32.000Z</time>
      </trkpt>
      <trkpt lat="47.07726" lon="-1.27223">
        <ele>93</ele>
        <time>2020-09-13T12:23:34.000Z</time>
      </trkpt>
      <trkpt lat="47.07734" lon="-1.27224">
        <ele>93</ele>
        <time>2020-09-13T12:23:36.000Z</time>
      </trkpt>
      <trkpt lat="47.07741" lon="-1.27224">
        <ele>93</ele>
        <time>2020-09-13T12:23:37.000Z</time>
      </trkpt>
      <trkpt lat="47.07749" lon="-1.27223">
        <ele>93</ele>
        <time>2020-09-13T12:23:39.000Z</time>
      </trkpt>
      <trkpt lat="47.07756" lon="-1.27223">
        <ele>93</ele>
        <time>2020-09-13T12:23:41.000Z</time>
      </trkpt>
      <trkpt lat="47.07763" lon="-1.27222">
        <ele>93</ele>
        <time>2020-09-13T12:23:45.000Z</time>
      </trkpt>
      <trkpt lat="47.07769" lon="-1.27222">
        <ele>93</ele>
        <time>2020-09-13T12:23:50.000Z</time>
      </trkpt>
      <trkpt lat="47.07775" lon="-1.27222">
        <ele>92</ele>
        <time>2020-09-13T12:23:54.000Z</time>
      </trkpt>
      <trkpt lat="47.07782" lon="-1.27222">
        <ele>92</ele>
        <time>2020-09-13T12:23:59.000Z</time>
      </trkpt>
      <trkpt lat="47.07782" lon="-1.27222">
        <ele>92</ele>
        <time>2020-09-13T12:23:59.000Z</time>
      </trkpt>
      <trkpt lat="47.07811" lon="-1.27237">
        <ele>92</ele>
        <time>2020-09-13T12:24:17.000Z</time>
      </trkpt>
      <trkpt lat="47.07832" lon="-1.27251">
        <ele>91</ele>
        <time>2020-09-13T12:24:27.000Z</time>
      </trkpt>
      <trkpt lat="47.07854" lon="-1.27277">
        <ele>89</ele>
        <time>2020-09-13T12:24:32.000Z</time>
      </trkpt>
      <trkpt lat="47.07878" lon="-1.27314">
        <ele>85</ele>
        <time>2020-09-13T12:24:36.000Z</time>
      </trkpt>
      <trkpt lat="47.07897" lon="-1.27341">
        <ele>82</ele>
        <time>2020-09-13T12:24:41.000Z</time>
      </trkpt>
      <trkpt lat="47.07914" lon="-1.27354">
        <ele>79</ele>
        <time>2020-09-13T12:24:47.000Z</time>
      </trkpt>
      <trkpt lat="47.07927" lon="-1.27362">
        <ele>79</ele>
        <time>2020-09-13T12:24:51.000Z</time>
      </trkpt>
      <trkpt lat="47.07949" lon="-1.27375">
        <ele>78</ele>
        <time>2020-09-13T12:24:53.000Z</time>
      </trkpt>
      <trkpt lat="47.07971" lon="-1.27381">
        <ele>78</ele>
        <time>2020-09-13T12:24:57.000Z</time>
      </trkpt>
      <trkpt lat="47.07999" lon="-1.27387">
        <ele>78</ele>
        <time>2020-09-13T12:25:01.000Z</time>
      </trkpt>
      <trkpt lat="47.08034" lon="-1.27396">
        <ele>79</ele>
        <time>2020-09-13T12:25:06.000Z</time>
      </trkpt>
      <trkpt lat="47.08058" lon="-1.27402">
        <ele>76</ele>
        <time>2020-09-13T12:25:11.000Z</time>
      </trkpt>
      <trkpt lat="47.0807" lon="-1.27408">
        <ele>73</ele>
        <time>2020-09-13T12:25:15.000Z</time>
      </trkpt>
      <trkpt lat="47.08103" lon="-1.27403">
        <ele>68</ele>
        <time>2020-09-13T12:25:20.000Z</time>
      </trkpt>
      <trkpt lat="47.08126" lon="-1.27405">
        <ele>66</ele>
        <time>2020-09-13T12:25:24.000Z</time>
      </trkpt>
      <trkpt lat="47.08148" lon="-1.27413">
        <ele>65</ele>
        <time>2020-09-13T12:25:27.000Z</time>
      </trkpt>
      <trkpt lat="47.08184" lon="-1.2744">
        <ele>65</ele>
        <time>2020-09-13T12:25:31.000Z</time>
      </trkpt>
      <trkpt lat="47.08215" lon="-1.27469">
        <ele>63</ele>
        <time>2020-09-13T12:25:36.000Z</time>
      </trkpt>
      <trkpt lat="47.08222" lon="-1.27475">
        <ele>63</ele>
        <time>2020-09-13T12:25:38.000Z</time>
      </trkpt>
      <trkpt lat="47.08223" lon="-1.27483">
        <ele>63</ele>
        <time>2020-09-13T12:25:39.000Z</time>
      </trkpt>
      <trkpt lat="47.08224" lon="-1.27492">
        <ele>63</ele>
        <time>2020-09-13T12:25:40.000Z</time>
      </trkpt>
      <trkpt lat="47.08224" lon="-1.27504">
        <ele>63</ele>
        <time>2020-09-13T12:25:42.000Z</time>
      </trkpt>
      <trkpt lat="47.08224" lon="-1.27516">
        <ele>63</ele>
        <time>2020-09-13T12:25:43.000Z</time>
      </trkpt>
      <trkpt lat="47.08225" lon="-1.27528">
        <ele>63</ele>
        <time>2020-09-13T12:25:44.000Z</time>
      </trkpt>
      <trkpt lat="47.08226" lon="-1.2754">
        <ele>62</ele>
        <time>2020-09-13T12:25:45.000Z</time>
      </trkpt>
      <trkpt lat="47.08227" lon="-1.27553">
        <ele>62</ele>
        <time>2020-09-13T12:25:46.000Z</time>
      </trkpt>
      <trkpt lat="47.08228" lon="-1.27566">
        <ele>62</ele>
        <time>2020-09-13T12:25:47.000Z</time>
      </trkpt>
      <trkpt lat="47.08229" lon="-1.27575">
        <ele>62</ele>
        <time>2020-09-13T12:25:48.000Z</time>
      </trkpt>
      <trkpt lat="47.08229" lon="-1.27583">
        <ele>62</ele>
        <time>2020-09-13T12:25:48.000Z</time>
      </trkpt>
      <trkpt lat="47.08229" lon="-1.27589">
        <ele>62</ele>
        <time>2020-09-13T12:25:49.000Z</time>
      </trkpt>
      <trkpt lat="47.08229" lon="-1.27595">
        <ele>62</ele>
        <time>2020-09-13T12:25:50.000Z</time>
      </trkpt>
      <trkpt lat="47.08229" lon="-1.276">
        <ele>62</ele>
        <time>2020-09-13T12:25:50.000Z</time>
      </trkpt>
      <trkpt lat="47.0823" lon="-1.27604">
        <ele>62</ele>
        <time>2020-09-13T12:25:51.000Z</time>
      </trkpt>
      <trkpt lat="47.08231" lon="-1.27608">
        <ele>62</ele>
        <time>2020-09-13T12:25:51.000Z</time>
      </trkpt>
      <trkpt lat="47.08232" lon="-1.27611">
        <ele>62</ele>
        <time>2020-09-13T12:25:52.000Z</time>
      </trkpt>
      <trkpt lat="47.08237" lon="-1.27619">
        <ele>62</ele>
        <time>2020-09-13T12:25:54.000Z</time>
      </trkpt>
      <trkpt lat="47.08243" lon="-1.27628">
        <ele>62</ele>
        <time>2020-09-13T12:25:57.000Z</time>
      </trkpt>
      <trkpt lat="47.08247" lon="-1.27627">
        <ele>62</ele>
        <time>2020-09-13T12:25:59.000Z</time>
      </trkpt>
      <trkpt lat="47.08251" lon="-1.27625">
        <ele>62</ele>
        <time>2020-09-13T12:26:01.000Z</time>
      </trkpt>
      <trkpt lat="47.08255" lon="-1.27622">
        <ele>62</ele>
        <time>2020-09-13T12:26:03.000Z</time>
      </trkpt>
      <trkpt lat="47.0826" lon="-1.27618">
        <ele>62</ele>
        <time>2020-09-13T12:26:05.000Z</time>
      </trkpt>
      <trkpt lat="47.08266" lon="-1.27616">
        <ele>62</ele>
        <time>2020-09-13T12:26:07.000Z</time>
      </trkpt>
      <trkpt lat="47.08273" lon="-1.27614">
        <ele>61</ele>
        <time>2020-09-13T12:26:08.000Z</time>
      </trkpt>
      <trkpt lat="47.0828" lon="-1.27612">
        <ele>61</ele>
        <time>2020-09-13T12:26:10.000Z</time>
      </trkpt>
      <trkpt lat="47.08288" lon="-1.27611">
        <ele>60</ele>
        <time>2020-09-13T12:26:12.000Z</time>
      </trkpt>
      <trkpt lat="47.08295" lon="-1.27612">
        <ele>60</ele>
        <time>2020-09-13T12:26:14.000Z</time>
      </trkpt>
      <trkpt lat="47.08302" lon="-1.27613">
        <ele>60</ele>
        <time>2020-09-13T12:26:15.000Z</time>
      </trkpt>
      <trkpt lat="47.0831" lon="-1.27616">
        <ele>61</ele>
        <time>2020-09-13T12:26:17.000Z</time>
      </trkpt>
      <trkpt lat="47.08318" lon="-1.27619">
        <ele>61</ele>
        <time>2020-09-13T12:26:19.000Z</time>
      </trkpt>
      <trkpt lat="47.08324" lon="-1.2762">
        <ele>61</ele>
        <time>2020-09-13T12:26:21.000Z</time>
      </trkpt>
      <trkpt lat="47.08329" lon="-1.2762">
        <ele>61</ele>
        <time>2020-09-13T12:26:23.000Z</time>
      </trkpt>
      <trkpt lat="47.08334" lon="-1.27619">
        <ele>60</ele>
        <time>2020-09-13T12:26:26.000Z</time>
      </trkpt>
      <trkpt lat="47.08339" lon="-1.27619">
        <ele>60</ele>
        <time>2020-09-13T12:26:28.000Z</time>
      </trkpt>
      <trkpt lat="47.08344" lon="-1.2762">
        <ele>60</ele>
        <time>2020-09-13T12:26:29.000Z</time>
      </trkpt>
      <trkpt lat="47.08348" lon="-1.27623">
        <ele>60</ele>
        <time>2020-09-13T12:26:30.000Z</time>
      </trkpt>
      <trkpt lat="47.08352" lon="-1.27626">
        <ele>60</ele>
        <time>2020-09-13T12:26:32.000Z</time>
      </trkpt>
      <trkpt lat="47.08356" lon="-1.27629">
        <ele>60</ele>
        <time>2020-09-13T12:26:33.000Z</time>
      </trkpt>
      <trkpt lat="47.08363" lon="-1.27633">
        <ele>60</ele>
        <time>2020-09-13T12:26:34.000Z</time>
      </trkpt>
      <trkpt lat="47.0837" lon="-1.27638">
        <ele>60</ele>
        <time>2020-09-13T12:26:35.000Z</time>
      </trkpt>
      <trkpt lat="47.08378" lon="-1.27644">
        <ele>61</ele>
        <time>2020-09-13T12:26:36.000Z</time>
      </trkpt>
      <trkpt lat="47.08386" lon="-1.2765">
        <ele>61</ele>
        <time>2020-09-13T12:26:37.000Z</time>
      </trkpt>
      <trkpt lat="47.08408" lon="-1.27672">
        <ele>62</ele>
        <time>2020-09-13T12:26:44.000Z</time>
      </trkpt>
      <trkpt lat="47.0843" lon="-1.27696">
        <ele>62</ele>
        <time>2020-09-13T12:26:49.000Z</time>
      </trkpt>
      <trkpt lat="47.08444" lon="-1.27718">
        <ele>62</ele>
        <time>2020-09-13T12:26:52.000Z</time>
      </trkpt>
      <trkpt lat="47.0845" lon="-1.27736">
        <ele>62</ele>
        <time>2020-09-13T12:26:55.000Z</time>
      </trkpt>
      <trkpt lat="47.0845" lon="-1.27736">
        <ele>62</ele>
        <time>2020-09-13T12:26:55.000Z</time>
      </trkpt>
      <trkpt lat="47.08481" lon="-1.2776">
        <ele>69</ele>
        <time>2020-09-13T12:27:28.000Z</time>
      </trkpt>
      <trkpt lat="47.08503" lon="-1.27777">
        <ele>73</ele>
        <time>2020-09-13T12:27:44.000Z</time>
      </trkpt>
      <trkpt lat="47.08519" lon="-1.27796">
        <ele>72</ele>
        <time>2020-09-13T12:27:55.000Z</time>
      </trkpt>
      <trkpt lat="47.08537" lon="-1.2782">
        <ele>76</ele>
        <time>2020-09-13T12:28:06.000Z</time>
      </trkpt>
      <trkpt lat="47.08552" lon="-1.2785">
        <ele>79</ele>
        <time>2020-09-13T12:28:14.000Z</time>
      </trkpt>
      <trkpt lat="47.0856" lon="-1.27878">
        <ele>78</ele>
        <time>2020-09-13T12:28:18.000Z</time>
      </trkpt>
      <trkpt lat="47.08561" lon="-1.27889">
        <ele>77</ele>
        <time>2020-09-13T12:28:19.000Z</time>
      </trkpt>
      <trkpt lat="47.0856" lon="-1.27897">
        <ele>76</ele>
        <time>2020-09-13T12:28:21.000Z</time>
      </trkpt>
      <trkpt lat="47.08558" lon="-1.27904">
        <ele>75</ele>
        <time>2020-09-13T12:28:23.000Z</time>
      </trkpt>
      <trkpt lat="47.08556" lon="-1.27913">
        <ele>74</ele>
        <time>2020-09-13T12:28:25.000Z</time>
      </trkpt>
      <trkpt lat="47.08553" lon="-1.27923">
        <ele>72</ele>
        <time>2020-09-13T12:28:28.000Z</time>
      </trkpt>
      <trkpt lat="47.0855" lon="-1.27933">
        <ele>70</ele>
        <time>2020-09-13T12:28:30.000Z</time>
      </trkpt>
      <trkpt lat="47.08553" lon="-1.27938">
        <ele>70</ele>
        <time>2020-09-13T12:28:32.000Z</time>
      </trkpt>
      <trkpt lat="47.08557" lon="-1.27941">
        <ele>69</ele>
        <time>2020-09-13T12:28:34.000Z</time>
      </trkpt>
      <trkpt lat="47.08563" lon="-1.27944">
        <ele>69</ele>
        <time>2020-09-13T12:28:37.000Z</time>
      </trkpt>
      <trkpt lat="47.08569" lon="-1.27945">
        <ele>70</ele>
        <time>2020-09-13T12:28:39.000Z</time>
      </trkpt>
      <trkpt lat="47.08575" lon="-1.2795">
        <ele>69</ele>
        <time>2020-09-13T12:28:41.000Z</time>
      </trkpt>
      <trkpt lat="47.08582" lon="-1.27955">
        <ele>69</ele>
        <time>2020-09-13T12:28:44.000Z</time>
      </trkpt>
      <trkpt lat="47.0859" lon="-1.2796">
        <ele>69</ele>
        <time>2020-09-13T12:28:46.000Z</time>
      </trkpt>
      <trkpt lat="47.08597" lon="-1.27965">
        <ele>68</ele>
        <time>2020-09-13T12:28:49.000Z</time>
      </trkpt>
      <trkpt lat="47.08605" lon="-1.27969">
        <ele>68</ele>
        <time>2020-09-13T12:28:50.000Z</time>
      </trkpt>
      <trkpt lat="47.08613" lon="-1.27972">
        <ele>68</ele>
        <time>2020-09-13T12:28:51.000Z</time>
      </trkpt>
      <trkpt lat="47.08622" lon="-1.27975">
        <ele>68</ele>
        <time>2020-09-13T12:28:53.000Z</time>
      </trkpt>
      <trkpt lat="47.0863" lon="-1.27978">
        <ele>68</ele>
        <time>2020-09-13T12:28:54.000Z</time>
      </trkpt>
      <trkpt lat="47.08639" lon="-1.27982">
        <ele>68</ele>
        <time>2020-09-13T12:28:55.000Z</time>
      </trkpt>
      <trkpt lat="47.08648" lon="-1.27987">
        <ele>68</ele>
        <time>2020-09-13T12:28:57.000Z</time>
      </trkpt>
      <trkpt lat="47.08656" lon="-1.27992">
        <ele>68</ele>
        <time>2020-09-13T12:28:58.000Z</time>
      </trkpt>
      <trkpt lat="47.08665" lon="-1.27997">
        <ele>69</ele>
        <time>2020-09-13T12:29:00.000Z</time>
      </trkpt>
      <trkpt lat="47.0867" lon="-1.28">
        <ele>69</ele>
        <time>2020-09-13T12:29:01.000Z</time>
      </trkpt>
      <trkpt lat="47.08673" lon="-1.28002">
        <ele>69</ele>
        <time>2020-09-13T12:29:01.000Z</time>
      </trkpt>
      <trkpt lat="47.08675" lon="-1.28004">
        <ele>69</ele>
        <time>2020-09-13T12:29:02.000Z</time>
      </trkpt>
      <trkpt lat="47.08676" lon="-1.28006">
        <ele>69</ele>
        <time>2020-09-13T12:29:03.000Z</time>
      </trkpt>
      <trkpt lat="47.0868" lon="-1.28007">
        <ele>68</ele>
        <time>2020-09-13T12:29:04.000Z</time>
      </trkpt>
      <trkpt lat="47.08683" lon="-1.28006">
        <ele>67</ele>
        <time>2020-09-13T12:29:06.000Z</time>
      </trkpt>
      <trkpt lat="47.08685" lon="-1.28005">
        <ele>66</ele>
        <time>2020-09-13T12:29:07.000Z</time>
      </trkpt>
      <trkpt lat="47.08686" lon="-1.28003">
        <ele>66</ele>
        <time>2020-09-13T12:29:07.000Z</time>
      </trkpt>
      <trkpt lat="47.08688" lon="-1.28001">
        <ele>65</ele>
        <time>2020-09-13T12:29:08.000Z</time>
      </trkpt>
      <trkpt lat="47.08689" lon="-1.27999">
        <ele>64</ele>
        <time>2020-09-13T12:29:09.000Z</time>
      </trkpt>
      <trkpt lat="47.08691" lon="-1.27995">
        <ele>64</ele>
        <time>2020-09-13T12:29:11.000Z</time>
      </trkpt>
      <trkpt lat="47.08694" lon="-1.27989">
        <ele>65</ele>
        <time>2020-09-13T12:29:12.000Z</time>
      </trkpt>
      <trkpt lat="47.08696" lon="-1.27982">
        <ele>65</ele>
        <time>2020-09-13T12:29:14.000Z</time>
      </trkpt>
      <trkpt lat="47.08698" lon="-1.27975">
        <ele>66</ele>
        <time>2020-09-13T12:29:16.000Z</time>
      </trkpt>
      <trkpt lat="47.08702" lon="-1.27964">
        <ele>66</ele>
        <time>2020-09-13T12:29:18.000Z</time>
      </trkpt>
      <trkpt lat="47.08707" lon="-1.27952">
        <ele>65</ele>
        <time>2020-09-13T12:29:20.000Z</time>
      </trkpt>
      <trkpt lat="47.08712" lon="-1.27939">
        <ele>64</ele>
        <time>2020-09-13T12:29:22.000Z</time>
      </trkpt>
      <trkpt lat="47.08718" lon="-1.27925">
        <ele>64</ele>
        <time>2020-09-13T12:29:24.000Z</time>
      </trkpt>
      <trkpt lat="47.08722" lon="-1.27913">
        <ele>63</ele>
        <time>2020-09-13T12:29:26.000Z</time>
      </trkpt>
      <trkpt lat="47.08725" lon="-1.27901">
        <ele>63</ele>
        <time>2020-09-13T12:29:27.000Z</time>
      </trkpt>
      <trkpt lat="47.08728" lon="-1.27889">
        <ele>63</ele>
        <time>2020-09-13T12:29:29.000Z</time>
      </trkpt>
      <trkpt lat="47.0873" lon="-1.27878">
        <ele>63</ele>
        <time>2020-09-13T12:29:31.000Z</time>
      </trkpt>
      <trkpt lat="47.08736" lon="-1.27867">
        <ele>64</ele>
        <time>2020-09-13T12:29:33.000Z</time>
      </trkpt>
      <trkpt lat="47.08742" lon="-1.27857">
        <ele>64</ele>
        <time>2020-09-13T12:29:34.000Z</time>
      </trkpt>
      <trkpt lat="47.08748" lon="-1.27847">
        <ele>64</ele>
        <time>2020-09-13T12:29:36.000Z</time>
      </trkpt>
      <trkpt lat="47.08755" lon="-1.27838">
        <ele>64</ele>
        <time>2020-09-13T12:29:38.000Z</time>
      </trkpt>
      <trkpt lat="47.08762" lon="-1.27828">
        <ele>64</ele>
        <time>2020-09-13T12:29:39.000Z</time>
      </trkpt>
      <trkpt lat="47.08768" lon="-1.27818">
        <ele>64</ele>
        <time>2020-09-13T12:29:41.000Z</time>
      </trkpt>
      <trkpt lat="47.08775" lon="-1.27808">
        <ele>65</ele>
        <time>2020-09-13T12:29:42.000Z</time>
      </trkpt>
      <trkpt lat="47.08781" lon="-1.27799">
        <ele>65</ele>
        <time>2020-09-13T12:29:44.000Z</time>
      </trkpt>
      <trkpt lat="47.08811" lon="-1.27772">
        <ele>69</ele>
        <time>2020-09-13T12:29:53.000Z</time>
      </trkpt>
      <trkpt lat="47.08811" lon="-1.27772">
        <ele>69</ele>
        <time>2020-09-13T12:29:53.000Z</time>
      </trkpt>
      <trkpt lat="47.08846" lon="-1.27777">
        <ele>73</ele>
        <time>2020-09-13T12:30:46.000Z</time>
      </trkpt>
      <trkpt lat="47.0887" lon="-1.27791">
        <ele>77</ele>
        <time>2020-09-13T12:31:02.000Z</time>
      </trkpt>
      <trkpt lat="47.08894" lon="-1.27806">
        <ele>83</ele>
        <time>2020-09-13T12:31:14.000Z</time>
      </trkpt>
      <trkpt lat="47.08923" lon="-1.27821">
        <ele>85</ele>
        <time>2020-09-13T12:31:26.000Z</time>
      </trkpt>
      <trkpt lat="47.08951" lon="-1.27842">
        <ele>90</ele>
        <time>2020-09-13T12:31:38.000Z</time>
      </trkpt>
      <trkpt lat="47.08965" lon="-1.2785">
        <ele>89</ele>
        <time>2020-09-13T12:31:44.000Z</time>
      </trkpt>
      <trkpt lat="47.08968" lon="-1.27847">
        <ele>89</ele>
        <time>2020-09-13T12:31:46.000Z</time>
      </trkpt>
      <trkpt lat="47.08973" lon="-1.27842">
        <ele>90</ele>
        <time>2020-09-13T12:31:48.000Z</time>
      </trkpt>
      <trkpt lat="47.08977" lon="-1.27836">
        <ele>90</ele>
        <time>2020-09-13T12:31:50.000Z</time>
      </trkpt>
      <trkpt lat="47.08982" lon="-1.27829">
        <ele>90</ele>
        <time>2020-09-13T12:31:52.000Z</time>
      </trkpt>
      <trkpt lat="47.08988" lon="-1.27824">
        <ele>91</ele>
        <time>2020-09-13T12:31:54.000Z</time>
      </trkpt>
      <trkpt lat="47.08995" lon="-1.2782">
        <ele>91</ele>
        <time>2020-09-13T12:31:56.000Z</time>
      </trkpt>
      <trkpt lat="47.09004" lon="-1.27816">
        <ele>92</ele>
        <time>2020-09-13T12:31:59.000Z</time>
      </trkpt>
      <trkpt lat="47.09012" lon="-1.27812">
        <ele>93</ele>
        <time>2020-09-13T12:32:01.000Z</time>
      </trkpt>
      <trkpt lat="47.0902" lon="-1.27807">
        <ele>94</ele>
        <time>2020-09-13T12:32:03.000Z</time>
      </trkpt>
      <trkpt lat="47.09027" lon="-1.27803">
        <ele>94</ele>
        <time>2020-09-13T12:32:05.000Z</time>
      </trkpt>
      <trkpt lat="47.09035" lon="-1.27799">
        <ele>93</ele>
        <time>2020-09-13T12:32:08.000Z</time>
      </trkpt>
      <trkpt lat="47.09043" lon="-1.27794">
        <ele>93</ele>
        <time>2020-09-13T12:32:10.000Z</time>
      </trkpt>
      <trkpt lat="47.09051" lon="-1.2779">
        <ele>93</ele>
        <time>2020-09-13T12:32:13.000Z</time>
      </trkpt>
      <trkpt lat="47.09059" lon="-1.27785">
        <ele>93</ele>
        <time>2020-09-13T12:32:15.000Z</time>
      </trkpt>
      <trkpt lat="47.09067" lon="-1.27781">
        <ele>93</ele>
        <time>2020-09-13T12:32:18.000Z</time>
      </trkpt>
      <trkpt lat="47.09074" lon="-1.27776">
        <ele>93</ele>
        <time>2020-09-13T12:32:21.000Z</time>
      </trkpt>
      <trkpt lat="47.09082" lon="-1.27772">
        <ele>93</ele>
        <time>2020-09-13T12:32:23.000Z</time>
      </trkpt>
      <trkpt lat="47.0909" lon="-1.27767">
        <ele>92</ele>
        <time>2020-09-13T12:32:25.000Z</time>
      </trkpt>
      <trkpt lat="47.09098" lon="-1.27762">
        <ele>91</ele>
        <time>2020-09-13T12:32:28.000Z</time>
      </trkpt>
      <trkpt lat="47.09105" lon="-1.27757">
        <ele>90</ele>
        <time>2020-09-13T12:32:30.000Z</time>
      </trkpt>
      <trkpt lat="47.09113" lon="-1.27751">
        <ele>90</ele>
        <time>2020-09-13T12:32:32.000Z</time>
      </trkpt>
      <trkpt lat="47.09121" lon="-1.27746">
        <ele>89</ele>
        <time>2020-09-13T12:32:34.000Z</time>
      </trkpt>
      <trkpt lat="47.09128" lon="-1.27741">
        <ele>88</ele>
        <time>2020-09-13T12:32:36.000Z</time>
      </trkpt>
      <trkpt lat="47.09135" lon="-1.27736">
        <ele>88</ele>
        <time>2020-09-13T12:32:38.000Z</time>
      </trkpt>
      <trkpt lat="47.09171" lon="-1.27713">
        <ele>87</ele>
        <time>2020-09-13T12:32:47.000Z</time>
      </trkpt>
      <trkpt lat="47.09185" lon="-1.27703">
        <ele>88</ele>
        <time>2020-09-13T12:32:51.000Z</time>
      </trkpt>
      <trkpt lat="47.092" lon="-1.27684">
        <ele>89</ele>
        <time>2020-09-13T12:32:57.000Z</time>
      </trkpt>
      <trkpt lat="47.09233" lon="-1.27665">
        <ele>86</ele>
        <time>2020-09-13T12:33:06.000Z</time>
      </trkpt>
      <trkpt lat="47.09269" lon="-1.27658">
        <ele>86</ele>
        <time>2020-09-13T12:33:15.000Z</time>
      </trkpt>
      <trkpt lat="47.09296" lon="-1.27652">
        <ele>87</ele>
        <time>2020-09-13T12:33:22.000Z</time>
      </trkpt>
      <trkpt lat="47.093" lon="-1.27649">
        <ele>88</ele>
        <time>2020-09-13T12:33:23.000Z</time>
      </trkpt>
      <trkpt lat="47.09301" lon="-1.27646">
        <ele>88</ele>
        <time>2020-09-13T12:33:24.000Z</time>
      </trkpt>
      <trkpt lat="47.09301" lon="-1.27642">
        <ele>88</ele>
        <time>2020-09-13T12:33:25.000Z</time>
      </trkpt>
      <trkpt lat="47.09301" lon="-1.27638">
        <ele>89</ele>
        <time>2020-09-13T12:33:26.000Z</time>
      </trkpt>
      <trkpt lat="47.09301" lon="-1.27638">
        <ele>89</ele>
        <time>2020-09-13T12:33:26.000Z</time>
      </trkpt>
      <trkpt lat="47.09302" lon="-1.27642">
        <ele>87</ele>
        <time>2020-09-13T12:34:22.000Z</time>
      </trkpt>
      <trkpt lat="47.09302" lon="-1.27642">
        <ele>87</ele>
        <time>2020-09-13T12:34:22.000Z</time>
      </trkpt>
    </trkseg>
  </trk>
</gpx>